<?xml version="1.0" encoding="UTF-8" standalone="no" ?>
<gpx xmlns="http://www.topografix.com/GPX/1/1" xmlns:xsi="http://www.w3.org/2001/XMLSchema-instance" xsi:schemaLocation="http://www.topografix.com/GPX/1/1 http://www.topografix.com/GPX/1/1/gpx.xsd" version="1.1" creator="VisuGPX - https://www.visugpx.com">
  <metadata>
    <name>Jura 2018 6ème journée</name>
    <desc><![CDATA[Boucle autour de Lamoura (Crêt de la Vigoureuse-lac de Lamoura).]]></desc>
  </metadata>
  <trk>
    <name><![CDATA[ONmove 200 - 08/09/2018]]></name>
    <trkseg>
      <trkpt lat="46.39478" lon="5.96765">
        <ele>1158</ele>
        <time>2018-09-08T14:30:10Z</time>
      </trkpt>
      <trkpt lat="46.39472" lon="5.96765">
        <ele>1157</ele>
        <time>2018-09-08T14:30:15Z</time>
      </trkpt>
      <trkpt lat="46.39466" lon="5.96767">
        <ele>1157</ele>
        <time>2018-09-08T14:30:20Z</time>
      </trkpt>
      <trkpt lat="46.39461" lon="5.96769">
        <ele>1157</ele>
        <time>2018-09-08T14:30:25Z</time>
      </trkpt>
      <trkpt lat="46.39454" lon="5.96774">
        <ele>1157</ele>
        <time>2018-09-08T14:30:35Z</time>
      </trkpt>
      <trkpt lat="46.39449" lon="5.96779">
        <ele>1157</ele>
        <time>2018-09-08T14:30:40Z</time>
      </trkpt>
      <trkpt lat="46.39444" lon="5.96783">
        <ele>1157</ele>
        <time>2018-09-08T14:30:45Z</time>
      </trkpt>
      <trkpt lat="46.3944" lon="5.96784">
        <ele>1157</ele>
        <time>2018-09-08T14:30:50Z</time>
      </trkpt>
      <trkpt lat="46.3943" lon="5.96792">
        <ele>1157</ele>
        <time>2018-09-08T14:31:00Z</time>
      </trkpt>
      <trkpt lat="46.39425" lon="5.96794">
        <ele>1157</ele>
        <time>2018-09-08T14:31:05Z</time>
      </trkpt>
      <trkpt lat="46.3942" lon="5.96795">
        <ele>1157</ele>
        <time>2018-09-08T14:31:10Z</time>
      </trkpt>
      <trkpt lat="46.39415" lon="5.96793">
        <ele>1156</ele>
        <time>2018-09-08T14:31:15Z</time>
      </trkpt>
      <trkpt lat="46.3941" lon="5.96793">
        <ele>1155</ele>
        <time>2018-09-08T14:31:20Z</time>
      </trkpt>
      <trkpt lat="46.39399" lon="5.96795">
        <ele>1154</ele>
        <time>2018-09-08T14:31:30Z</time>
      </trkpt>
      <trkpt lat="46.39394" lon="5.96794">
        <ele>1153</ele>
        <time>2018-09-08T14:31:35Z</time>
      </trkpt>
      <trkpt lat="46.3939" lon="5.96794">
        <ele>1153</ele>
        <time>2018-09-08T14:31:40Z</time>
      </trkpt>
      <trkpt lat="46.39386" lon="5.96793">
        <ele>1152</ele>
        <time>2018-09-08T14:31:45Z</time>
      </trkpt>
      <trkpt lat="46.39376" lon="5.968">
        <ele>1153</ele>
        <time>2018-09-08T14:31:55Z</time>
      </trkpt>
      <trkpt lat="46.39372" lon="5.96804">
        <ele>1153</ele>
        <time>2018-09-08T14:32:00Z</time>
      </trkpt>
      <trkpt lat="46.39367" lon="5.96808">
        <ele>1153</ele>
        <time>2018-09-08T14:32:05Z</time>
      </trkpt>
      <trkpt lat="46.39361" lon="5.96809">
        <ele>1153</ele>
        <time>2018-09-08T14:32:10Z</time>
      </trkpt>
      <trkpt lat="46.3935" lon="5.9681">
        <ele>1152</ele>
        <time>2018-09-08T14:32:20Z</time>
      </trkpt>
      <trkpt lat="46.39344" lon="5.9681">
        <ele>1152</ele>
        <time>2018-09-08T14:32:25Z</time>
      </trkpt>
      <trkpt lat="46.3934" lon="5.9681">
        <ele>1152</ele>
        <time>2018-09-08T14:32:30Z</time>
      </trkpt>
      <trkpt lat="46.39334" lon="5.96811">
        <ele>1151</ele>
        <time>2018-09-08T14:32:35Z</time>
      </trkpt>
      <trkpt lat="46.39328" lon="5.96809">
        <ele>1151</ele>
        <time>2018-09-08T14:32:40Z</time>
      </trkpt>
      <trkpt lat="46.39316" lon="5.96813">
        <ele>1150</ele>
        <time>2018-09-08T14:32:50Z</time>
      </trkpt>
      <trkpt lat="46.39311" lon="5.96817">
        <ele>1151</ele>
        <time>2018-09-08T14:32:55Z</time>
      </trkpt>
      <trkpt lat="46.39306" lon="5.96818">
        <ele>1151</ele>
        <time>2018-09-08T14:33:00Z</time>
      </trkpt>
      <trkpt lat="46.393" lon="5.96819">
        <ele>1151</ele>
        <time>2018-09-08T14:33:05Z</time>
      </trkpt>
      <trkpt lat="46.3929" lon="5.96821">
        <ele>1151</ele>
        <time>2018-09-08T14:33:15Z</time>
      </trkpt>
      <trkpt lat="46.39285" lon="5.96822">
        <ele>1151</ele>
        <time>2018-09-08T14:33:20Z</time>
      </trkpt>
      <trkpt lat="46.3928" lon="5.96823">
        <ele>1151</ele>
        <time>2018-09-08T14:33:25Z</time>
      </trkpt>
      <trkpt lat="46.39274" lon="5.96824">
        <ele>1151</ele>
        <time>2018-09-08T14:33:30Z</time>
      </trkpt>
      <trkpt lat="46.39263" lon="5.96826">
        <ele>1151</ele>
        <time>2018-09-08T14:33:40Z</time>
      </trkpt>
      <trkpt lat="46.39256" lon="5.96827">
        <ele>1151</ele>
        <time>2018-09-08T14:33:45Z</time>
      </trkpt>
      <trkpt lat="46.3925" lon="5.96826">
        <ele>1150</ele>
        <time>2018-09-08T14:33:50Z</time>
      </trkpt>
      <trkpt lat="46.39244" lon="5.96826">
        <ele>1151</ele>
        <time>2018-09-08T14:33:55Z</time>
      </trkpt>
      <trkpt lat="46.39238" lon="5.96826">
        <ele>1151</ele>
        <time>2018-09-08T14:34:00Z</time>
      </trkpt>
      <trkpt lat="46.39227" lon="5.96825">
        <ele>1151</ele>
        <time>2018-09-08T14:34:10Z</time>
      </trkpt>
      <trkpt lat="46.3922" lon="5.96824">
        <ele>1151</ele>
        <time>2018-09-08T14:34:15Z</time>
      </trkpt>
      <trkpt lat="46.39215" lon="5.96828">
        <ele>1151</ele>
        <time>2018-09-08T14:34:20Z</time>
      </trkpt>
      <trkpt lat="46.39209" lon="5.96831">
        <ele>1151</ele>
        <time>2018-09-08T14:34:25Z</time>
      </trkpt>
      <trkpt lat="46.39198" lon="5.96833">
        <ele>1151</ele>
        <time>2018-09-08T14:34:35Z</time>
      </trkpt>
      <trkpt lat="46.39192" lon="5.96833">
        <ele>1151</ele>
        <time>2018-09-08T14:34:40Z</time>
      </trkpt>
      <trkpt lat="46.39187" lon="5.96835">
        <ele>1151</ele>
        <time>2018-09-08T14:34:45Z</time>
      </trkpt>
      <trkpt lat="46.39181" lon="5.96837">
        <ele>1151</ele>
        <time>2018-09-08T14:34:50Z</time>
      </trkpt>
      <trkpt lat="46.39177" lon="5.9684">
        <ele>1152</ele>
        <time>2018-09-08T14:34:55Z</time>
      </trkpt>
      <trkpt lat="46.39167" lon="5.96843">
        <ele>1153</ele>
        <time>2018-09-08T14:35:05Z</time>
      </trkpt>
      <trkpt lat="46.39162" lon="5.96845">
        <ele>1153</ele>
        <time>2018-09-08T14:35:10Z</time>
      </trkpt>
      <trkpt lat="46.39156" lon="5.96845">
        <ele>1154</ele>
        <time>2018-09-08T14:35:15Z</time>
      </trkpt>
      <trkpt lat="46.39151" lon="5.96847">
        <ele>1154</ele>
        <time>2018-09-08T14:35:20Z</time>
      </trkpt>
      <trkpt lat="46.39141" lon="5.9685">
        <ele>1155</ele>
        <time>2018-09-08T14:35:30Z</time>
      </trkpt>
      <trkpt lat="46.39137" lon="5.96851">
        <ele>1155</ele>
        <time>2018-09-08T14:35:35Z</time>
      </trkpt>
      <trkpt lat="46.39132" lon="5.96852">
        <ele>1156</ele>
        <time>2018-09-08T14:35:40Z</time>
      </trkpt>
      <trkpt lat="46.39128" lon="5.96854">
        <ele>1156</ele>
        <time>2018-09-08T14:35:45Z</time>
      </trkpt>
      <trkpt lat="46.3912" lon="5.96857">
        <ele>1157</ele>
        <time>2018-09-08T14:35:55Z</time>
      </trkpt>
      <trkpt lat="46.39116" lon="5.96858">
        <ele>1157</ele>
        <time>2018-09-08T14:36:00Z</time>
      </trkpt>
      <trkpt lat="46.39111" lon="5.96858">
        <ele>1158</ele>
        <time>2018-09-08T14:36:05Z</time>
      </trkpt>
      <trkpt lat="46.39106" lon="5.96857">
        <ele>1159</ele>
        <time>2018-09-08T14:36:10Z</time>
      </trkpt>
      <trkpt lat="46.39102" lon="5.96858">
        <ele>1159</ele>
        <time>2018-09-08T14:36:15Z</time>
      </trkpt>
      <trkpt lat="46.39094" lon="5.96856">
        <ele>1161</ele>
        <time>2018-09-08T14:36:25Z</time>
      </trkpt>
      <trkpt lat="46.3909" lon="5.96855">
        <ele>1161</ele>
        <time>2018-09-08T14:36:30Z</time>
      </trkpt>
      <trkpt lat="46.39086" lon="5.96852">
        <ele>1162</ele>
        <time>2018-09-08T14:36:35Z</time>
      </trkpt>
      <trkpt lat="46.39081" lon="5.96852">
        <ele>1162</ele>
        <time>2018-09-08T14:36:40Z</time>
      </trkpt>
      <trkpt lat="46.39072" lon="5.96852">
        <ele>1164</ele>
        <time>2018-09-08T14:36:50Z</time>
      </trkpt>
      <trkpt lat="46.39068" lon="5.96849">
        <ele>1164</ele>
        <time>2018-09-08T14:36:55Z</time>
      </trkpt>
      <trkpt lat="46.39063" lon="5.96846">
        <ele>1165</ele>
        <time>2018-09-08T14:37:00Z</time>
      </trkpt>
      <trkpt lat="46.39059" lon="5.96842">
        <ele>1165</ele>
        <time>2018-09-08T14:37:05Z</time>
      </trkpt>
      <trkpt lat="46.3905" lon="5.96835">
        <ele>1166</ele>
        <time>2018-09-08T14:37:15Z</time>
      </trkpt>
      <trkpt lat="46.39047" lon="5.96835">
        <ele>1167</ele>
        <time>2018-09-08T14:37:20Z</time>
      </trkpt>
      <trkpt lat="46.39041" lon="5.96833">
        <ele>1168</ele>
        <time>2018-09-08T14:37:25Z</time>
      </trkpt>
      <trkpt lat="46.39037" lon="5.96832">
        <ele>1169</ele>
        <time>2018-09-08T14:37:30Z</time>
      </trkpt>
      <trkpt lat="46.39034" lon="5.96831">
        <ele>1169</ele>
        <time>2018-09-08T14:37:35Z</time>
      </trkpt>
      <trkpt lat="46.39025" lon="5.96827">
        <ele>1171</ele>
        <time>2018-09-08T14:37:45Z</time>
      </trkpt>
      <trkpt lat="46.39021" lon="5.96826">
        <ele>1172</ele>
        <time>2018-09-08T14:37:50Z</time>
      </trkpt>
      <trkpt lat="46.39018" lon="5.96825">
        <ele>1172</ele>
        <time>2018-09-08T14:37:55Z</time>
      </trkpt>
      <trkpt lat="46.39014" lon="5.96827">
        <ele>1173</ele>
        <time>2018-09-08T14:38:00Z</time>
      </trkpt>
      <trkpt lat="46.39008" lon="5.9683">
        <ele>1174</ele>
        <time>2018-09-08T14:38:10Z</time>
      </trkpt>
      <trkpt lat="46.39005" lon="5.96832">
        <ele>1174</ele>
        <time>2018-09-08T14:38:15Z</time>
      </trkpt>
      <trkpt lat="46.39002" lon="5.96836">
        <ele>1175</ele>
        <time>2018-09-08T14:38:20Z</time>
      </trkpt>
      <trkpt lat="46.39" lon="5.9684">
        <ele>1175</ele>
        <time>2018-09-08T14:38:25Z</time>
      </trkpt>
      <trkpt lat="46.38996" lon="5.96855">
        <ele>1177</ele>
        <time>2018-09-08T14:38:35Z</time>
      </trkpt>
      <trkpt lat="46.38996" lon="5.96862">
        <ele>1177</ele>
        <time>2018-09-08T14:38:40Z</time>
      </trkpt>
      <trkpt lat="46.38997" lon="5.96867">
        <ele>1177</ele>
        <time>2018-09-08T14:38:45Z</time>
      </trkpt>
      <trkpt lat="46.39" lon="5.96872">
        <ele>1177</ele>
        <time>2018-09-08T14:38:50Z</time>
      </trkpt>
      <trkpt lat="46.39" lon="5.96878">
        <ele>1177</ele>
        <time>2018-09-08T14:38:55Z</time>
      </trkpt>
      <trkpt lat="46.39003" lon="5.96891">
        <ele>1177</ele>
        <time>2018-09-08T14:39:05Z</time>
      </trkpt>
      <trkpt lat="46.39005" lon="5.96896">
        <ele>1177</ele>
        <time>2018-09-08T14:39:10Z</time>
      </trkpt>
      <trkpt lat="46.39007" lon="5.96903">
        <ele>1177</ele>
        <time>2018-09-08T14:39:15Z</time>
      </trkpt>
      <trkpt lat="46.39009" lon="5.96909">
        <ele>1178</ele>
        <time>2018-09-08T14:39:20Z</time>
      </trkpt>
      <trkpt lat="46.39011" lon="5.96923">
        <ele>1179</ele>
        <time>2018-09-08T14:39:30Z</time>
      </trkpt>
      <trkpt lat="46.39012" lon="5.96931">
        <ele>1179</ele>
        <time>2018-09-08T14:39:35Z</time>
      </trkpt>
      <trkpt lat="46.39013" lon="5.96937">
        <ele>1180</ele>
        <time>2018-09-08T14:39:40Z</time>
      </trkpt>
      <trkpt lat="46.39013" lon="5.96944">
        <ele>1180</ele>
        <time>2018-09-08T14:39:45Z</time>
      </trkpt>
      <trkpt lat="46.39014" lon="5.96949">
        <ele>1181</ele>
        <time>2018-09-08T14:39:50Z</time>
      </trkpt>
      <trkpt lat="46.39014" lon="5.96961">
        <ele>1182</ele>
        <time>2018-09-08T14:40:00Z</time>
      </trkpt>
      <trkpt lat="46.39013" lon="5.96968">
        <ele>1183</ele>
        <time>2018-09-08T14:40:05Z</time>
      </trkpt>
      <trkpt lat="46.39013" lon="5.96976">
        <ele>1184</ele>
        <time>2018-09-08T14:40:10Z</time>
      </trkpt>
      <trkpt lat="46.39012" lon="5.96982">
        <ele>1184</ele>
        <time>2018-09-08T14:40:15Z</time>
      </trkpt>
      <trkpt lat="46.39013" lon="5.96985">
        <ele>1184</ele>
        <time>2018-09-08T14:40:25Z</time>
      </trkpt>
      <trkpt lat="46.39011" lon="5.96987">
        <ele>1185</ele>
        <time>2018-09-08T14:40:30Z</time>
      </trkpt>
      <trkpt lat="46.39012" lon="5.96988">
        <ele>1185</ele>
        <time>2018-09-08T14:40:35Z</time>
      </trkpt>
      <trkpt lat="46.39012" lon="5.9699">
        <ele>1185</ele>
        <time>2018-09-08T14:40:40Z</time>
      </trkpt>
      <trkpt lat="46.39013" lon="5.96999">
        <ele>1186</ele>
        <time>2018-09-08T14:40:50Z</time>
      </trkpt>
      <trkpt lat="46.39015" lon="5.97006">
        <ele>1187</ele>
        <time>2018-09-08T14:40:55Z</time>
      </trkpt>
      <trkpt lat="46.39016" lon="5.97012">
        <ele>1187</ele>
        <time>2018-09-08T14:41:00Z</time>
      </trkpt>
      <trkpt lat="46.39018" lon="5.97018">
        <ele>1188</ele>
        <time>2018-09-08T14:41:05Z</time>
      </trkpt>
      <trkpt lat="46.3902" lon="5.97025">
        <ele>1188</ele>
        <time>2018-09-08T14:41:10Z</time>
      </trkpt>
      <trkpt lat="46.39023" lon="5.97034">
        <ele>1189</ele>
        <time>2018-09-08T14:41:20Z</time>
      </trkpt>
      <trkpt lat="46.39026" lon="5.97038">
        <ele>1190</ele>
        <time>2018-09-08T14:41:25Z</time>
      </trkpt>
      <trkpt lat="46.39029" lon="5.97045">
        <ele>1190</ele>
        <time>2018-09-08T14:41:30Z</time>
      </trkpt>
      <trkpt lat="46.39032" lon="5.97049">
        <ele>1190</ele>
        <time>2018-09-08T14:41:35Z</time>
      </trkpt>
      <trkpt lat="46.39038" lon="5.97057">
        <ele>1190</ele>
        <time>2018-09-08T14:41:45Z</time>
      </trkpt>
      <trkpt lat="46.39041" lon="5.97063">
        <ele>1191</ele>
        <time>2018-09-08T14:41:50Z</time>
      </trkpt>
      <trkpt lat="46.39044" lon="5.97067">
        <ele>1191</ele>
        <time>2018-09-08T14:41:55Z</time>
      </trkpt>
      <trkpt lat="46.39048" lon="5.9707">
        <ele>1191</ele>
        <time>2018-09-08T14:42:00Z</time>
      </trkpt>
      <trkpt lat="46.39057" lon="5.97081">
        <ele>1191</ele>
        <time>2018-09-08T14:42:10Z</time>
      </trkpt>
      <trkpt lat="46.3906" lon="5.97087">
        <ele>1191</ele>
        <time>2018-09-08T14:42:15Z</time>
      </trkpt>
      <trkpt lat="46.39062" lon="5.97091">
        <ele>1191</ele>
        <time>2018-09-08T14:42:20Z</time>
      </trkpt>
      <trkpt lat="46.39065" lon="5.97095">
        <ele>1191</ele>
        <time>2018-09-08T14:42:25Z</time>
      </trkpt>
      <trkpt lat="46.39068" lon="5.97101">
        <ele>1191</ele>
        <time>2018-09-08T14:42:30Z</time>
      </trkpt>
      <trkpt lat="46.39076" lon="5.97112">
        <ele>1191</ele>
        <time>2018-09-08T14:42:40Z</time>
      </trkpt>
      <trkpt lat="46.39078" lon="5.9712">
        <ele>1191</ele>
        <time>2018-09-08T14:42:45Z</time>
      </trkpt>
      <trkpt lat="46.39079" lon="5.97128">
        <ele>1191</ele>
        <time>2018-09-08T14:42:50Z</time>
      </trkpt>
      <trkpt lat="46.39079" lon="5.97134">
        <ele>1191</ele>
        <time>2018-09-08T14:42:55Z</time>
      </trkpt>
      <trkpt lat="46.39083" lon="5.97149">
        <ele>1191</ele>
        <time>2018-09-08T14:43:05Z</time>
      </trkpt>
      <trkpt lat="46.39087" lon="5.97153">
        <ele>1191</ele>
        <time>2018-09-08T14:43:10Z</time>
      </trkpt>
      <trkpt lat="46.3909" lon="5.97155">
        <ele>1191</ele>
        <time>2018-09-08T14:43:15Z</time>
      </trkpt>
      <trkpt lat="46.39095" lon="5.97157">
        <ele>1191</ele>
        <time>2018-09-08T14:43:20Z</time>
      </trkpt>
      <trkpt lat="46.39098" lon="5.9716">
        <ele>1191</ele>
        <time>2018-09-08T14:43:25Z</time>
      </trkpt>
      <trkpt lat="46.39102" lon="5.9716">
        <ele>1191</ele>
        <time>2018-09-08T14:43:35Z</time>
      </trkpt>
      <trkpt lat="46.39107" lon="5.9716">
        <ele>1191</ele>
        <time>2018-09-08T14:43:40Z</time>
      </trkpt>
      <trkpt lat="46.39111" lon="5.97161">
        <ele>1191</ele>
        <time>2018-09-08T14:43:45Z</time>
      </trkpt>
      <trkpt lat="46.39116" lon="5.97161">
        <ele>1191</ele>
        <time>2018-09-08T14:43:50Z</time>
      </trkpt>
      <trkpt lat="46.39123" lon="5.97162">
        <ele>1190</ele>
        <time>2018-09-08T14:44:00Z</time>
      </trkpt>
      <trkpt lat="46.39127" lon="5.97165">
        <ele>1190</ele>
        <time>2018-09-08T14:44:05Z</time>
      </trkpt>
      <trkpt lat="46.39131" lon="5.9717">
        <ele>1190</ele>
        <time>2018-09-08T14:44:10Z</time>
      </trkpt>
      <trkpt lat="46.39135" lon="5.97172">
        <ele>1190</ele>
        <time>2018-09-08T14:44:15Z</time>
      </trkpt>
      <trkpt lat="46.39142" lon="5.97182">
        <ele>1190</ele>
        <time>2018-09-08T14:44:25Z</time>
      </trkpt>
      <trkpt lat="46.39145" lon="5.97185">
        <ele>1190</ele>
        <time>2018-09-08T14:44:30Z</time>
      </trkpt>
      <trkpt lat="46.39147" lon="5.97188">
        <ele>1190</ele>
        <time>2018-09-08T14:44:35Z</time>
      </trkpt>
      <trkpt lat="46.3915" lon="5.97193">
        <ele>1191</ele>
        <time>2018-09-08T14:44:40Z</time>
      </trkpt>
      <trkpt lat="46.39153" lon="5.97198">
        <ele>1191</ele>
        <time>2018-09-08T14:44:45Z</time>
      </trkpt>
      <trkpt lat="46.39162" lon="5.97205">
        <ele>1191</ele>
        <time>2018-09-08T14:44:55Z</time>
      </trkpt>
      <trkpt lat="46.39166" lon="5.97208">
        <ele>1191</ele>
        <time>2018-09-08T14:45:00Z</time>
      </trkpt>
      <trkpt lat="46.39171" lon="5.97214">
        <ele>1192</ele>
        <time>2018-09-08T14:45:05Z</time>
      </trkpt>
      <trkpt lat="46.39173" lon="5.97219">
        <ele>1192</ele>
        <time>2018-09-08T14:45:10Z</time>
      </trkpt>
      <trkpt lat="46.39176" lon="5.97232">
        <ele>1193</ele>
        <time>2018-09-08T14:45:20Z</time>
      </trkpt>
      <trkpt lat="46.39178" lon="5.97236">
        <ele>1194</ele>
        <time>2018-09-08T14:45:25Z</time>
      </trkpt>
      <trkpt lat="46.39181" lon="5.97241">
        <ele>1195</ele>
        <time>2018-09-08T14:45:30Z</time>
      </trkpt>
      <trkpt lat="46.39184" lon="5.97244">
        <ele>1195</ele>
        <time>2018-09-08T14:45:35Z</time>
      </trkpt>
      <trkpt lat="46.39192" lon="5.97253">
        <ele>1194</ele>
        <time>2018-09-08T14:45:45Z</time>
      </trkpt>
      <trkpt lat="46.39196" lon="5.97255">
        <ele>1193</ele>
        <time>2018-09-08T14:45:50Z</time>
      </trkpt>
      <trkpt lat="46.39202" lon="5.97258">
        <ele>1193</ele>
        <time>2018-09-08T14:45:55Z</time>
      </trkpt>
      <trkpt lat="46.39204" lon="5.97261">
        <ele>1193</ele>
        <time>2018-09-08T14:46:00Z</time>
      </trkpt>
      <trkpt lat="46.39207" lon="5.97267">
        <ele>1193</ele>
        <time>2018-09-08T14:46:05Z</time>
      </trkpt>
      <trkpt lat="46.39214" lon="5.97274">
        <ele>1193</ele>
        <time>2018-09-08T14:46:15Z</time>
      </trkpt>
      <trkpt lat="46.39216" lon="5.97278">
        <ele>1193</ele>
        <time>2018-09-08T14:46:20Z</time>
      </trkpt>
      <trkpt lat="46.39218" lon="5.97283">
        <ele>1193</ele>
        <time>2018-09-08T14:46:25Z</time>
      </trkpt>
      <trkpt lat="46.39222" lon="5.97289">
        <ele>1193</ele>
        <time>2018-09-08T14:46:30Z</time>
      </trkpt>
      <trkpt lat="46.39227" lon="5.97299">
        <ele>1194</ele>
        <time>2018-09-08T14:46:40Z</time>
      </trkpt>
      <trkpt lat="46.39228" lon="5.97306">
        <ele>1194</ele>
        <time>2018-09-08T14:46:45Z</time>
      </trkpt>
      <trkpt lat="46.3923" lon="5.97309">
        <ele>1195</ele>
        <time>2018-09-08T14:46:50Z</time>
      </trkpt>
      <trkpt lat="46.39235" lon="5.97314">
        <ele>1195</ele>
        <time>2018-09-08T14:46:55Z</time>
      </trkpt>
      <trkpt lat="46.3924" lon="5.97323">
        <ele>1195</ele>
        <time>2018-09-08T14:47:05Z</time>
      </trkpt>
      <trkpt lat="46.39245" lon="5.97329">
        <ele>1195</ele>
        <time>2018-09-08T14:47:10Z</time>
      </trkpt>
      <trkpt lat="46.39247" lon="5.97335">
        <ele>1195</ele>
        <time>2018-09-08T14:47:15Z</time>
      </trkpt>
      <trkpt lat="46.3925" lon="5.97337">
        <ele>1195</ele>
        <time>2018-09-08T14:47:20Z</time>
      </trkpt>
      <trkpt lat="46.39252" lon="5.97341">
        <ele>1195</ele>
        <time>2018-09-08T14:47:25Z</time>
      </trkpt>
      <trkpt lat="46.39256" lon="5.97354">
        <ele>1194</ele>
        <time>2018-09-08T14:47:35Z</time>
      </trkpt>
      <trkpt lat="46.39259" lon="5.97361">
        <ele>1194</ele>
        <time>2018-09-08T14:47:40Z</time>
      </trkpt>
      <trkpt lat="46.39263" lon="5.97368">
        <ele>1193</ele>
        <time>2018-09-08T14:47:45Z</time>
      </trkpt>
      <trkpt lat="46.39267" lon="5.97375">
        <ele>1192</ele>
        <time>2018-09-08T14:47:50Z</time>
      </trkpt>
      <trkpt lat="46.3927" lon="5.97387">
        <ele>1192</ele>
        <time>2018-09-08T14:48:00Z</time>
      </trkpt>
      <trkpt lat="46.39272" lon="5.97395">
        <ele>1191</ele>
        <time>2018-09-08T14:48:05Z</time>
      </trkpt>
      <trkpt lat="46.39272" lon="5.97402">
        <ele>1191</ele>
        <time>2018-09-08T14:48:10Z</time>
      </trkpt>
      <trkpt lat="46.39274" lon="5.97406">
        <ele>1191</ele>
        <time>2018-09-08T14:48:15Z</time>
      </trkpt>
      <trkpt lat="46.39275" lon="5.9741">
        <ele>1191</ele>
        <time>2018-09-08T14:48:20Z</time>
      </trkpt>
      <trkpt lat="46.39278" lon="5.97417">
        <ele>1190</ele>
        <time>2018-09-08T14:48:30Z</time>
      </trkpt>
      <trkpt lat="46.39282" lon="5.97422">
        <ele>1190</ele>
        <time>2018-09-08T14:48:35Z</time>
      </trkpt>
      <trkpt lat="46.39288" lon="5.9743">
        <ele>1189</ele>
        <time>2018-09-08T14:48:40Z</time>
      </trkpt>
      <trkpt lat="46.39291" lon="5.97435">
        <ele>1189</ele>
        <time>2018-09-08T14:48:45Z</time>
      </trkpt>
      <trkpt lat="46.39297" lon="5.97447">
        <ele>1189</ele>
        <time>2018-09-08T14:48:55Z</time>
      </trkpt>
      <trkpt lat="46.39299" lon="5.9745">
        <ele>1189</ele>
        <time>2018-09-08T14:49:00Z</time>
      </trkpt>
      <trkpt lat="46.39302" lon="5.97454">
        <ele>1189</ele>
        <time>2018-09-08T14:49:05Z</time>
      </trkpt>
      <trkpt lat="46.39304" lon="5.97463">
        <ele>1189</ele>
        <time>2018-09-08T14:49:10Z</time>
      </trkpt>
      <trkpt lat="46.39306" lon="5.97472">
        <ele>1189</ele>
        <time>2018-09-08T14:49:20Z</time>
      </trkpt>
      <trkpt lat="46.39308" lon="5.97476">
        <ele>1189</ele>
        <time>2018-09-08T14:49:25Z</time>
      </trkpt>
      <trkpt lat="46.39309" lon="5.97482">
        <ele>1189</ele>
        <time>2018-09-08T14:49:30Z</time>
      </trkpt>
      <trkpt lat="46.39309" lon="5.97488">
        <ele>1189</ele>
        <time>2018-09-08T14:49:35Z</time>
      </trkpt>
      <trkpt lat="46.39309" lon="5.97494">
        <ele>1189</ele>
        <time>2018-09-08T14:49:40Z</time>
      </trkpt>
      <trkpt lat="46.3932" lon="5.97502">
        <ele>1190</ele>
        <time>2018-09-08T14:49:50Z</time>
      </trkpt>
      <trkpt lat="46.39321" lon="5.97506">
        <ele>1190</ele>
        <time>2018-09-08T14:49:55Z</time>
      </trkpt>
      <trkpt lat="46.39326" lon="5.9751">
        <ele>1190</ele>
        <time>2018-09-08T14:50:00Z</time>
      </trkpt>
      <trkpt lat="46.3933" lon="5.97515">
        <ele>1190</ele>
        <time>2018-09-08T14:50:05Z</time>
      </trkpt>
      <trkpt lat="46.39333" lon="5.97523">
        <ele>1189</ele>
        <time>2018-09-08T14:50:15Z</time>
      </trkpt>
      <trkpt lat="46.39336" lon="5.97529">
        <ele>1189</ele>
        <time>2018-09-08T14:50:20Z</time>
      </trkpt>
      <trkpt lat="46.39338" lon="5.97537">
        <ele>1188</ele>
        <time>2018-09-08T14:50:25Z</time>
      </trkpt>
      <trkpt lat="46.3934" lon="5.9754">
        <ele>1188</ele>
        <time>2018-09-08T14:50:30Z</time>
      </trkpt>
      <trkpt lat="46.39343" lon="5.97547">
        <ele>1188</ele>
        <time>2018-09-08T14:50:40Z</time>
      </trkpt>
      <trkpt lat="46.39343" lon="5.97553">
        <ele>1188</ele>
        <time>2018-09-08T14:50:45Z</time>
      </trkpt>
      <trkpt lat="46.39344" lon="5.97557">
        <ele>1187</ele>
        <time>2018-09-08T14:50:50Z</time>
      </trkpt>
      <trkpt lat="46.39346" lon="5.9756">
        <ele>1187</ele>
        <time>2018-09-08T14:50:55Z</time>
      </trkpt>
      <trkpt lat="46.39351" lon="5.97565">
        <ele>1187</ele>
        <time>2018-09-08T14:51:00Z</time>
      </trkpt>
      <trkpt lat="46.39357" lon="5.97575">
        <ele>1187</ele>
        <time>2018-09-08T14:51:10Z</time>
      </trkpt>
      <trkpt lat="46.39357" lon="5.97579">
        <ele>1187</ele>
        <time>2018-09-08T14:51:15Z</time>
      </trkpt>
      <trkpt lat="46.39358" lon="5.97583">
        <ele>1188</ele>
        <time>2018-09-08T14:51:20Z</time>
      </trkpt>
      <trkpt lat="46.3936" lon="5.97588">
        <ele>1188</ele>
        <time>2018-09-08T14:51:25Z</time>
      </trkpt>
      <trkpt lat="46.39364" lon="5.97601">
        <ele>1187</ele>
        <time>2018-09-08T14:51:35Z</time>
      </trkpt>
      <trkpt lat="46.39367" lon="5.9761">
        <ele>1187</ele>
        <time>2018-09-08T14:51:40Z</time>
      </trkpt>
      <trkpt lat="46.39371" lon="5.97616">
        <ele>1187</ele>
        <time>2018-09-08T14:51:45Z</time>
      </trkpt>
      <trkpt lat="46.39373" lon="5.97623">
        <ele>1187</ele>
        <time>2018-09-08T14:51:50Z</time>
      </trkpt>
      <trkpt lat="46.39376" lon="5.97635">
        <ele>1186</ele>
        <time>2018-09-08T14:52:00Z</time>
      </trkpt>
      <trkpt lat="46.39376" lon="5.9764">
        <ele>1186</ele>
        <time>2018-09-08T14:52:05Z</time>
      </trkpt>
      <trkpt lat="46.39377" lon="5.97649">
        <ele>1186</ele>
        <time>2018-09-08T14:52:10Z</time>
      </trkpt>
      <trkpt lat="46.39378" lon="5.97654">
        <ele>1186</ele>
        <time>2018-09-08T14:52:15Z</time>
      </trkpt>
      <trkpt lat="46.39381" lon="5.97659">
        <ele>1186</ele>
        <time>2018-09-08T14:52:20Z</time>
      </trkpt>
      <trkpt lat="46.39389" lon="5.97659">
        <ele>1187</ele>
        <time>2018-09-08T14:52:30Z</time>
      </trkpt>
      <trkpt lat="46.39393" lon="5.97659">
        <ele>1187</ele>
        <time>2018-09-08T14:52:35Z</time>
      </trkpt>
      <trkpt lat="46.39396" lon="5.97662">
        <ele>1187</ele>
        <time>2018-09-08T14:52:40Z</time>
      </trkpt>
      <trkpt lat="46.39396" lon="5.97666">
        <ele>1187</ele>
        <time>2018-09-08T14:52:45Z</time>
      </trkpt>
      <trkpt lat="46.39399" lon="5.97678">
        <ele>1185</ele>
        <time>2018-09-08T14:52:55Z</time>
      </trkpt>
      <trkpt lat="46.39401" lon="5.97688">
        <ele>1184</ele>
        <time>2018-09-08T14:53:00Z</time>
      </trkpt>
      <trkpt lat="46.39402" lon="5.97695">
        <ele>1184</ele>
        <time>2018-09-08T14:53:05Z</time>
      </trkpt>
      <trkpt lat="46.39403" lon="5.97701">
        <ele>1183</ele>
        <time>2018-09-08T14:53:10Z</time>
      </trkpt>
      <trkpt lat="46.39404" lon="5.97705">
        <ele>1183</ele>
        <time>2018-09-08T14:53:15Z</time>
      </trkpt>
      <trkpt lat="46.39404" lon="5.97717">
        <ele>1181</ele>
        <time>2018-09-08T14:53:25Z</time>
      </trkpt>
      <trkpt lat="46.39403" lon="5.97723">
        <ele>1180</ele>
        <time>2018-09-08T14:53:30Z</time>
      </trkpt>
      <trkpt lat="46.39403" lon="5.9773">
        <ele>1179</ele>
        <time>2018-09-08T14:53:35Z</time>
      </trkpt>
      <trkpt lat="46.39403" lon="5.97737">
        <ele>1178</ele>
        <time>2018-09-08T14:53:40Z</time>
      </trkpt>
      <trkpt lat="46.39403" lon="5.9775">
        <ele>1176</ele>
        <time>2018-09-08T14:53:50Z</time>
      </trkpt>
      <trkpt lat="46.39403" lon="5.97758">
        <ele>1175</ele>
        <time>2018-09-08T14:53:55Z</time>
      </trkpt>
      <trkpt lat="46.39404" lon="5.97762">
        <ele>1174</ele>
        <time>2018-09-08T14:54:00Z</time>
      </trkpt>
      <trkpt lat="46.39404" lon="5.97769">
        <ele>1173</ele>
        <time>2018-09-08T14:54:05Z</time>
      </trkpt>
      <trkpt lat="46.39404" lon="5.97781">
        <ele>1171</ele>
        <time>2018-09-08T14:54:15Z</time>
      </trkpt>
      <trkpt lat="46.39404" lon="5.97785">
        <ele>1170</ele>
        <time>2018-09-08T14:54:20Z</time>
      </trkpt>
      <trkpt lat="46.39407" lon="5.97791">
        <ele>1170</ele>
        <time>2018-09-08T14:54:25Z</time>
      </trkpt>
      <trkpt lat="46.39409" lon="5.97797">
        <ele>1169</ele>
        <time>2018-09-08T14:54:30Z</time>
      </trkpt>
      <trkpt lat="46.39411" lon="5.97801">
        <ele>1168</ele>
        <time>2018-09-08T14:54:35Z</time>
      </trkpt>
      <trkpt lat="46.39417" lon="5.97807">
        <ele>1168</ele>
        <time>2018-09-08T14:54:45Z</time>
      </trkpt>
      <trkpt lat="46.3942" lon="5.97808">
        <ele>1168</ele>
        <time>2018-09-08T14:54:50Z</time>
      </trkpt>
      <trkpt lat="46.39424" lon="5.97808">
        <ele>1169</ele>
        <time>2018-09-08T14:54:55Z</time>
      </trkpt>
      <trkpt lat="46.39429" lon="5.97809">
        <ele>1169</ele>
        <time>2018-09-08T14:55:00Z</time>
      </trkpt>
      <trkpt lat="46.39437" lon="5.97813">
        <ele>1169</ele>
        <time>2018-09-08T14:55:10Z</time>
      </trkpt>
      <trkpt lat="46.3944" lon="5.97817">
        <ele>1169</ele>
        <time>2018-09-08T14:55:15Z</time>
      </trkpt>
      <trkpt lat="46.39443" lon="5.97821">
        <ele>1168</ele>
        <time>2018-09-08T14:55:20Z</time>
      </trkpt>
      <trkpt lat="46.39445" lon="5.97825">
        <ele>1168</ele>
        <time>2018-09-08T14:55:25Z</time>
      </trkpt>
      <trkpt lat="46.39451" lon="5.97831">
        <ele>1167</ele>
        <time>2018-09-08T14:55:35Z</time>
      </trkpt>
      <trkpt lat="46.39454" lon="5.97836">
        <ele>1167</ele>
        <time>2018-09-08T14:55:40Z</time>
      </trkpt>
      <trkpt lat="46.39457" lon="5.97841">
        <ele>1166</ele>
        <time>2018-09-08T14:55:45Z</time>
      </trkpt>
      <trkpt lat="46.3946" lon="5.97845">
        <ele>1165</ele>
        <time>2018-09-08T14:55:50Z</time>
      </trkpt>
      <trkpt lat="46.39463" lon="5.9785">
        <ele>1165</ele>
        <time>2018-09-08T14:55:55Z</time>
      </trkpt>
      <trkpt lat="46.39465" lon="5.97859">
        <ele>1163</ele>
        <time>2018-09-08T14:56:05Z</time>
      </trkpt>
      <trkpt lat="46.39465" lon="5.97865">
        <ele>1162</ele>
        <time>2018-09-08T14:56:10Z</time>
      </trkpt>
      <trkpt lat="46.39467" lon="5.97871">
        <ele>1162</ele>
        <time>2018-09-08T14:56:15Z</time>
      </trkpt>
      <trkpt lat="46.39467" lon="5.97875">
        <ele>1162</ele>
        <time>2018-09-08T14:56:20Z</time>
      </trkpt>
      <trkpt lat="46.39465" lon="5.97881">
        <ele>1161</ele>
        <time>2018-09-08T14:56:30Z</time>
      </trkpt>
      <trkpt lat="46.39464" lon="5.97881">
        <ele>1161</ele>
        <time>2018-09-08T14:56:35Z</time>
      </trkpt>
      <trkpt lat="46.39461" lon="5.97883">
        <ele>1160</ele>
        <time>2018-09-08T14:56:40Z</time>
      </trkpt>
      <trkpt lat="46.39459" lon="5.97884">
        <ele>1160</ele>
        <time>2018-09-08T14:56:45Z</time>
      </trkpt>
      <trkpt lat="46.39456" lon="5.97888">
        <ele>1159</ele>
        <time>2018-09-08T14:56:50Z</time>
      </trkpt>
      <trkpt lat="46.39454" lon="5.97897">
        <ele>1158</ele>
        <time>2018-09-08T14:57:00Z</time>
      </trkpt>
      <trkpt lat="46.39453" lon="5.97898">
        <ele>1158</ele>
        <time>2018-09-08T14:57:05Z</time>
      </trkpt>
      <trkpt lat="46.39451" lon="5.97901">
        <ele>1158</ele>
        <time>2018-09-08T14:57:10Z</time>
      </trkpt>
      <trkpt lat="46.39448" lon="5.97902">
        <ele>1158</ele>
        <time>2018-09-08T14:57:15Z</time>
      </trkpt>
      <trkpt lat="46.39445" lon="5.97902">
        <ele>1158</ele>
        <time>2018-09-08T14:57:25Z</time>
      </trkpt>
      <trkpt lat="46.39444" lon="5.97903">
        <ele>1157</ele>
        <time>2018-09-08T14:57:30Z</time>
      </trkpt>
      <trkpt lat="46.39446" lon="5.97902">
        <ele>1158</ele>
        <time>2018-09-08T14:57:35Z</time>
      </trkpt>
      <trkpt lat="46.39446" lon="5.979">
        <ele>1158</ele>
        <time>2018-09-08T14:57:40Z</time>
      </trkpt>
      <trkpt lat="46.39447" lon="5.979">
        <ele>1158</ele>
        <time>2018-09-08T14:57:50Z</time>
      </trkpt>
      <trkpt lat="46.39447" lon="5.979">
        <ele>1158</ele>
        <time>2018-09-08T14:57:55Z</time>
      </trkpt>
      <trkpt lat="46.39447" lon="5.979">
        <ele>1158</ele>
        <time>2018-09-08T14:58:00Z</time>
      </trkpt>
      <trkpt lat="46.39447" lon="5.979">
        <ele>1158</ele>
        <time>2018-09-08T14:58:05Z</time>
      </trkpt>
      <trkpt lat="46.39447" lon="5.979">
        <ele>1158</ele>
        <time>2018-09-08T14:58:10Z</time>
      </trkpt>
      <trkpt lat="46.39445" lon="5.97901">
        <ele>1158</ele>
        <time>2018-09-08T14:58:20Z</time>
      </trkpt>
      <trkpt lat="46.39439" lon="5.97902">
        <ele>1157</ele>
        <time>2018-09-08T14:58:25Z</time>
      </trkpt>
      <trkpt lat="46.39435" lon="5.97904">
        <ele>1157</ele>
        <time>2018-09-08T14:58:30Z</time>
      </trkpt>
      <trkpt lat="46.39434" lon="5.97905">
        <ele>1157</ele>
        <time>2018-09-08T14:58:35Z</time>
      </trkpt>
      <trkpt lat="46.39434" lon="5.97904">
        <ele>1157</ele>
        <time>2018-09-08T14:58:45Z</time>
      </trkpt>
      <trkpt lat="46.39433" lon="5.97903">
        <ele>1157</ele>
        <time>2018-09-08T14:58:50Z</time>
      </trkpt>
      <trkpt lat="46.39433" lon="5.97903">
        <ele>1157</ele>
        <time>2018-09-08T14:58:55Z</time>
      </trkpt>
      <trkpt lat="46.39433" lon="5.97903">
        <ele>1157</ele>
        <time>2018-09-08T14:59:00Z</time>
      </trkpt>
      <trkpt lat="46.39433" lon="5.97903">
        <ele>1157</ele>
        <time>2018-09-08T14:59:10Z</time>
      </trkpt>
      <trkpt lat="46.39433" lon="5.97903">
        <ele>1157</ele>
        <time>2018-09-08T14:59:15Z</time>
      </trkpt>
      <trkpt lat="46.39433" lon="5.97903">
        <ele>1157</ele>
        <time>2018-09-08T14:59:20Z</time>
      </trkpt>
      <trkpt lat="46.39433" lon="5.97903">
        <ele>1157</ele>
        <time>2018-09-08T14:59:25Z</time>
      </trkpt>
      <trkpt lat="46.39433" lon="5.97903">
        <ele>1157</ele>
        <time>2018-09-08T14:59:30Z</time>
      </trkpt>
      <trkpt lat="46.39433" lon="5.97903">
        <ele>1157</ele>
        <time>2018-09-08T14:59:40Z</time>
      </trkpt>
      <trkpt lat="46.39433" lon="5.97903">
        <ele>1157</ele>
        <time>2018-09-08T14:59:45Z</time>
      </trkpt>
      <trkpt lat="46.39433" lon="5.97903">
        <ele>1157</ele>
        <time>2018-09-08T14:59:50Z</time>
      </trkpt>
      <trkpt lat="46.39433" lon="5.97903">
        <ele>1157</ele>
        <time>2018-09-08T14:59:55Z</time>
      </trkpt>
      <trkpt lat="46.39426" lon="5.9791">
        <ele>1156</ele>
        <time>2018-09-08T15:00:05Z</time>
      </trkpt>
      <trkpt lat="46.39425" lon="5.97913">
        <ele>1156</ele>
        <time>2018-09-08T15:00:10Z</time>
      </trkpt>
      <trkpt lat="46.39424" lon="5.97914">
        <ele>1156</ele>
        <time>2018-09-08T15:00:15Z</time>
      </trkpt>
      <trkpt lat="46.39424" lon="5.97914">
        <ele>1156</ele>
        <time>2018-09-08T15:00:20Z</time>
      </trkpt>
      <trkpt lat="46.39422" lon="5.97921">
        <ele>1155</ele>
        <time>2018-09-08T15:00:30Z</time>
      </trkpt>
      <trkpt lat="46.39421" lon="5.97927">
        <ele>1155</ele>
        <time>2018-09-08T15:00:35Z</time>
      </trkpt>
      <trkpt lat="46.3942" lon="5.97934">
        <ele>1154</ele>
        <time>2018-09-08T15:00:40Z</time>
      </trkpt>
      <trkpt lat="46.3942" lon="5.97935">
        <ele>1154</ele>
        <time>2018-09-08T15:00:45Z</time>
      </trkpt>
      <trkpt lat="46.3942" lon="5.97936">
        <ele>1154</ele>
        <time>2018-09-08T15:00:50Z</time>
      </trkpt>
      <trkpt lat="46.3942" lon="5.97936">
        <ele>1154</ele>
        <time>2018-09-08T15:01:00Z</time>
      </trkpt>
      <trkpt lat="46.39422" lon="5.97933">
        <ele>1154</ele>
        <time>2018-09-08T15:01:05Z</time>
      </trkpt>
      <trkpt lat="46.39423" lon="5.97928">
        <ele>1155</ele>
        <time>2018-09-08T15:01:10Z</time>
      </trkpt>
      <trkpt lat="46.39426" lon="5.97923">
        <ele>1155</ele>
        <time>2018-09-08T15:01:15Z</time>
      </trkpt>
      <trkpt lat="46.39434" lon="5.9792">
        <ele>1156</ele>
        <time>2018-09-08T15:01:25Z</time>
      </trkpt>
      <trkpt lat="46.39438" lon="5.9792">
        <ele>1156</ele>
        <time>2018-09-08T15:01:30Z</time>
      </trkpt>
      <trkpt lat="46.39442" lon="5.97918">
        <ele>1156</ele>
        <time>2018-09-08T15:01:35Z</time>
      </trkpt>
      <trkpt lat="46.39448" lon="5.97917">
        <ele>1156</ele>
        <time>2018-09-08T15:01:40Z</time>
      </trkpt>
      <trkpt lat="46.39452" lon="5.97916">
        <ele>1156</ele>
        <time>2018-09-08T15:01:45Z</time>
      </trkpt>
      <trkpt lat="46.39452" lon="5.97916">
        <ele>1156</ele>
        <time>2018-09-08T15:01:55Z</time>
      </trkpt>
      <trkpt lat="46.39452" lon="5.97916">
        <ele>1156</ele>
        <time>2018-09-08T15:02:00Z</time>
      </trkpt>
      <trkpt lat="46.39452" lon="5.97916">
        <ele>1156</ele>
        <time>2018-09-08T15:02:05Z</time>
      </trkpt>
      <trkpt lat="46.39452" lon="5.97916">
        <ele>1156</ele>
        <time>2018-09-08T15:02:10Z</time>
      </trkpt>
      <trkpt lat="46.39455" lon="5.97914">
        <ele>1157</ele>
        <time>2018-09-08T15:02:20Z</time>
      </trkpt>
      <trkpt lat="46.39459" lon="5.9791">
        <ele>1157</ele>
        <time>2018-09-08T15:02:25Z</time>
      </trkpt>
      <trkpt lat="46.39462" lon="5.97908">
        <ele>1158</ele>
        <time>2018-09-08T15:02:30Z</time>
      </trkpt>
      <trkpt lat="46.39464" lon="5.97902">
        <ele>1158</ele>
        <time>2018-09-08T15:02:35Z</time>
      </trkpt>
      <trkpt lat="46.39469" lon="5.97895">
        <ele>1160</ele>
        <time>2018-09-08T15:02:45Z</time>
      </trkpt>
      <trkpt lat="46.39473" lon="5.97895">
        <ele>1160</ele>
        <time>2018-09-08T15:02:50Z</time>
      </trkpt>
      <trkpt lat="46.39478" lon="5.97899">
        <ele>1160</ele>
        <time>2018-09-08T15:02:55Z</time>
      </trkpt>
      <trkpt lat="46.39481" lon="5.97903">
        <ele>1160</ele>
        <time>2018-09-08T15:03:00Z</time>
      </trkpt>
      <trkpt lat="46.39483" lon="5.9791">
        <ele>1159</ele>
        <time>2018-09-08T15:03:05Z</time>
      </trkpt>
      <trkpt lat="46.39484" lon="5.9792">
        <ele>1158</ele>
        <time>2018-09-08T15:03:15Z</time>
      </trkpt>
      <trkpt lat="46.39487" lon="5.97927">
        <ele>1158</ele>
        <time>2018-09-08T15:03:20Z</time>
      </trkpt>
      <trkpt lat="46.3949" lon="5.9793">
        <ele>1157</ele>
        <time>2018-09-08T15:03:25Z</time>
      </trkpt>
      <trkpt lat="46.39493" lon="5.97931">
        <ele>1158</ele>
        <time>2018-09-08T15:03:30Z</time>
      </trkpt>
      <trkpt lat="46.39495" lon="5.97932">
        <ele>1158</ele>
        <time>2018-09-08T15:03:40Z</time>
      </trkpt>
      <trkpt lat="46.39495" lon="5.97933">
        <ele>1158</ele>
        <time>2018-09-08T15:03:45Z</time>
      </trkpt>
      <trkpt lat="46.39495" lon="5.97933">
        <ele>1158</ele>
        <time>2018-09-08T15:03:50Z</time>
      </trkpt>
      <trkpt lat="46.39495" lon="5.97932">
        <ele>1158</ele>
        <time>2018-09-08T15:03:55Z</time>
      </trkpt>
      <trkpt lat="46.39496" lon="5.97931">
        <ele>1158</ele>
        <time>2018-09-08T15:04:05Z</time>
      </trkpt>
      <trkpt lat="46.39497" lon="5.97931">
        <ele>1158</ele>
        <time>2018-09-08T15:04:10Z</time>
      </trkpt>
      <trkpt lat="46.39497" lon="5.9793">
        <ele>1158</ele>
        <time>2018-09-08T15:04:15Z</time>
      </trkpt>
      <trkpt lat="46.39497" lon="5.9793">
        <ele>1158</ele>
        <time>2018-09-08T15:04:20Z</time>
      </trkpt>
      <trkpt lat="46.39497" lon="5.9793">
        <ele>1158</ele>
        <time>2018-09-08T15:04:25Z</time>
      </trkpt>
      <trkpt lat="46.39497" lon="5.9793">
        <ele>1158</ele>
        <time>2018-09-08T15:04:35Z</time>
      </trkpt>
      <trkpt lat="46.39497" lon="5.9793">
        <ele>1158</ele>
        <time>2018-09-08T15:04:40Z</time>
      </trkpt>
      <trkpt lat="46.39497" lon="5.9793">
        <ele>1158</ele>
        <time>2018-09-08T15:04:45Z</time>
      </trkpt>
      <trkpt lat="46.39497" lon="5.9793">
        <ele>1158</ele>
        <time>2018-09-08T15:04:50Z</time>
      </trkpt>
      <trkpt lat="46.39497" lon="5.9793">
        <ele>1158</ele>
        <time>2018-09-08T15:05:00Z</time>
      </trkpt>
      <trkpt lat="46.39497" lon="5.97931">
        <ele>1158</ele>
        <time>2018-09-08T15:05:05Z</time>
      </trkpt>
      <trkpt lat="46.39501" lon="5.97934">
        <ele>1158</ele>
        <time>2018-09-08T15:05:10Z</time>
      </trkpt>
      <trkpt lat="46.39506" lon="5.97939">
        <ele>1158</ele>
        <time>2018-09-08T15:05:15Z</time>
      </trkpt>
      <trkpt lat="46.39511" lon="5.97946">
        <ele>1158</ele>
        <time>2018-09-08T15:05:25Z</time>
      </trkpt>
      <trkpt lat="46.39513" lon="5.9795">
        <ele>1158</ele>
        <time>2018-09-08T15:05:30Z</time>
      </trkpt>
      <trkpt lat="46.39514" lon="5.97956">
        <ele>1158</ele>
        <time>2018-09-08T15:05:35Z</time>
      </trkpt>
      <trkpt lat="46.39516" lon="5.9796">
        <ele>1157</ele>
        <time>2018-09-08T15:05:40Z</time>
      </trkpt>
      <trkpt lat="46.39518" lon="5.97966">
        <ele>1157</ele>
        <time>2018-09-08T15:05:45Z</time>
      </trkpt>
      <trkpt lat="46.39522" lon="5.97981">
        <ele>1156</ele>
        <time>2018-09-08T15:05:55Z</time>
      </trkpt>
      <trkpt lat="46.39523" lon="5.97989">
        <ele>1156</ele>
        <time>2018-09-08T15:06:00Z</time>
      </trkpt>
      <trkpt lat="46.39525" lon="5.97995">
        <ele>1155</ele>
        <time>2018-09-08T15:06:05Z</time>
      </trkpt>
      <trkpt lat="46.39526" lon="5.98001">
        <ele>1155</ele>
        <time>2018-09-08T15:06:10Z</time>
      </trkpt>
      <trkpt lat="46.39529" lon="5.98013">
        <ele>1155</ele>
        <time>2018-09-08T15:06:20Z</time>
      </trkpt>
      <trkpt lat="46.3953" lon="5.9802">
        <ele>1155</ele>
        <time>2018-09-08T15:06:25Z</time>
      </trkpt>
      <trkpt lat="46.39531" lon="5.98025">
        <ele>1155</ele>
        <time>2018-09-08T15:06:30Z</time>
      </trkpt>
      <trkpt lat="46.39532" lon="5.9803">
        <ele>1154</ele>
        <time>2018-09-08T15:06:35Z</time>
      </trkpt>
      <trkpt lat="46.39533" lon="5.98032">
        <ele>1154</ele>
        <time>2018-09-08T15:06:40Z</time>
      </trkpt>
      <trkpt lat="46.39535" lon="5.98045">
        <ele>1154</ele>
        <time>2018-09-08T15:06:50Z</time>
      </trkpt>
      <trkpt lat="46.39536" lon="5.9805">
        <ele>1154</ele>
        <time>2018-09-08T15:06:55Z</time>
      </trkpt>
      <trkpt lat="46.39537" lon="5.98055">
        <ele>1154</ele>
        <time>2018-09-08T15:07:00Z</time>
      </trkpt>
      <trkpt lat="46.39538" lon="5.98061">
        <ele>1154</ele>
        <time>2018-09-08T15:07:05Z</time>
      </trkpt>
      <trkpt lat="46.39541" lon="5.98074">
        <ele>1154</ele>
        <time>2018-09-08T15:07:15Z</time>
      </trkpt>
      <trkpt lat="46.39541" lon="5.98075">
        <ele>1154</ele>
        <time>2018-09-08T15:07:20Z</time>
      </trkpt>
      <trkpt lat="46.3954" lon="5.98076">
        <ele>1154</ele>
        <time>2018-09-08T15:07:25Z</time>
      </trkpt>
      <trkpt lat="46.39541" lon="5.98076">
        <ele>1154</ele>
        <time>2018-09-08T15:07:30Z</time>
      </trkpt>
      <trkpt lat="46.39541" lon="5.98078">
        <ele>1154</ele>
        <time>2018-09-08T15:07:40Z</time>
      </trkpt>
      <trkpt lat="46.39541" lon="5.98078">
        <ele>1154</ele>
        <time>2018-09-08T15:07:45Z</time>
      </trkpt>
      <trkpt lat="46.39543" lon="5.98082">
        <ele>1154</ele>
        <time>2018-09-08T15:07:50Z</time>
      </trkpt>
      <trkpt lat="46.39545" lon="5.98088">
        <ele>1154</ele>
        <time>2018-09-08T15:07:55Z</time>
      </trkpt>
      <trkpt lat="46.39547" lon="5.98094">
        <ele>1154</ele>
        <time>2018-09-08T15:08:00Z</time>
      </trkpt>
      <trkpt lat="46.39553" lon="5.98105">
        <ele>1154</ele>
        <time>2018-09-08T15:08:10Z</time>
      </trkpt>
      <trkpt lat="46.39554" lon="5.98106">
        <ele>1154</ele>
        <time>2018-09-08T15:08:15Z</time>
      </trkpt>
      <trkpt lat="46.39556" lon="5.98109">
        <ele>1154</ele>
        <time>2018-09-08T15:08:20Z</time>
      </trkpt>
      <trkpt lat="46.39559" lon="5.98115">
        <ele>1154</ele>
        <time>2018-09-08T15:08:25Z</time>
      </trkpt>
      <trkpt lat="46.39563" lon="5.98121">
        <ele>1154</ele>
        <time>2018-09-08T15:08:35Z</time>
      </trkpt>
      <trkpt lat="46.39563" lon="5.98124">
        <ele>1154</ele>
        <time>2018-09-08T15:08:40Z</time>
      </trkpt>
      <trkpt lat="46.39563" lon="5.98125">
        <ele>1154</ele>
        <time>2018-09-08T15:08:45Z</time>
      </trkpt>
      <trkpt lat="46.39563" lon="5.98125">
        <ele>1154</ele>
        <time>2018-09-08T15:08:50Z</time>
      </trkpt>
      <trkpt lat="46.39563" lon="5.98125">
        <ele>1154</ele>
        <time>2018-09-08T15:09:00Z</time>
      </trkpt>
      <trkpt lat="46.39563" lon="5.98125">
        <ele>1154</ele>
        <time>2018-09-08T15:09:05Z</time>
      </trkpt>
      <trkpt lat="46.39563" lon="5.98125">
        <ele>1154</ele>
        <time>2018-09-08T15:09:10Z</time>
      </trkpt>
      <trkpt lat="46.39563" lon="5.98125">
        <ele>1154</ele>
        <time>2018-09-08T15:09:15Z</time>
      </trkpt>
      <trkpt lat="46.39567" lon="5.98129">
        <ele>1154</ele>
        <time>2018-09-08T15:09:20Z</time>
      </trkpt>
      <trkpt lat="46.39574" lon="5.98135">
        <ele>1154</ele>
        <time>2018-09-08T15:09:30Z</time>
      </trkpt>
      <trkpt lat="46.39577" lon="5.98138">
        <ele>1154</ele>
        <time>2018-09-08T15:09:35Z</time>
      </trkpt>
      <trkpt lat="46.39581" lon="5.98142">
        <ele>1154</ele>
        <time>2018-09-08T15:09:40Z</time>
      </trkpt>
      <trkpt lat="46.39586" lon="5.98145">
        <ele>1155</ele>
        <time>2018-09-08T15:09:45Z</time>
      </trkpt>
      <trkpt lat="46.39594" lon="5.98155">
        <ele>1154</ele>
        <time>2018-09-08T15:09:55Z</time>
      </trkpt>
      <trkpt lat="46.39598" lon="5.9816">
        <ele>1154</ele>
        <time>2018-09-08T15:10:00Z</time>
      </trkpt>
      <trkpt lat="46.39602" lon="5.98164">
        <ele>1154</ele>
        <time>2018-09-08T15:10:05Z</time>
      </trkpt>
      <trkpt lat="46.39605" lon="5.98168">
        <ele>1154</ele>
        <time>2018-09-08T15:10:10Z</time>
      </trkpt>
      <trkpt lat="46.39608" lon="5.98172">
        <ele>1154</ele>
        <time>2018-09-08T15:10:15Z</time>
      </trkpt>
      <trkpt lat="46.39616" lon="5.98181">
        <ele>1154</ele>
        <time>2018-09-08T15:10:25Z</time>
      </trkpt>
      <trkpt lat="46.3962" lon="5.98186">
        <ele>1154</ele>
        <time>2018-09-08T15:10:30Z</time>
      </trkpt>
      <trkpt lat="46.39623" lon="5.98191">
        <ele>1154</ele>
        <time>2018-09-08T15:10:35Z</time>
      </trkpt>
      <trkpt lat="46.39627" lon="5.98198">
        <ele>1154</ele>
        <time>2018-09-08T15:10:40Z</time>
      </trkpt>
      <trkpt lat="46.39632" lon="5.98205">
        <ele>1154</ele>
        <time>2018-09-08T15:10:50Z</time>
      </trkpt>
      <trkpt lat="46.39632" lon="5.98205">
        <ele>1154</ele>
        <time>2018-09-08T15:10:55Z</time>
      </trkpt>
      <trkpt lat="46.39634" lon="5.98207">
        <ele>1154</ele>
        <time>2018-09-08T15:11:00Z</time>
      </trkpt>
      <trkpt lat="46.39639" lon="5.98213">
        <ele>1154</ele>
        <time>2018-09-08T15:11:05Z</time>
      </trkpt>
      <trkpt lat="46.39646" lon="5.98221">
        <ele>1154</ele>
        <time>2018-09-08T15:11:15Z</time>
      </trkpt>
      <trkpt lat="46.39648" lon="5.98225">
        <ele>1154</ele>
        <time>2018-09-08T15:11:20Z</time>
      </trkpt>
      <trkpt lat="46.39648" lon="5.98228">
        <ele>1154</ele>
        <time>2018-09-08T15:11:25Z</time>
      </trkpt>
      <trkpt lat="46.39648" lon="5.98228">
        <ele>1154</ele>
        <time>2018-09-08T15:11:30Z</time>
      </trkpt>
      <trkpt lat="46.39648" lon="5.98228">
        <ele>1154</ele>
        <time>2018-09-08T15:11:35Z</time>
      </trkpt>
      <trkpt lat="46.3965" lon="5.9823">
        <ele>1154</ele>
        <time>2018-09-08T15:11:45Z</time>
      </trkpt>
      <trkpt lat="46.39654" lon="5.98233">
        <ele>1154</ele>
        <time>2018-09-08T15:11:50Z</time>
      </trkpt>
      <trkpt lat="46.39656" lon="5.98236">
        <ele>1154</ele>
        <time>2018-09-08T15:11:55Z</time>
      </trkpt>
      <trkpt lat="46.3966" lon="5.9824">
        <ele>1154</ele>
        <time>2018-09-08T15:12:00Z</time>
      </trkpt>
      <trkpt lat="46.39666" lon="5.98247">
        <ele>1154</ele>
        <time>2018-09-08T15:12:10Z</time>
      </trkpt>
      <trkpt lat="46.3967" lon="5.98251">
        <ele>1154</ele>
        <time>2018-09-08T15:12:15Z</time>
      </trkpt>
      <trkpt lat="46.39674" lon="5.98256">
        <ele>1154</ele>
        <time>2018-09-08T15:12:20Z</time>
      </trkpt>
      <trkpt lat="46.39679" lon="5.98261">
        <ele>1154</ele>
        <time>2018-09-08T15:12:25Z</time>
      </trkpt>
      <trkpt lat="46.39687" lon="5.98269">
        <ele>1153</ele>
        <time>2018-09-08T15:12:35Z</time>
      </trkpt>
      <trkpt lat="46.39691" lon="5.98273">
        <ele>1153</ele>
        <time>2018-09-08T15:12:40Z</time>
      </trkpt>
      <trkpt lat="46.39696" lon="5.9828">
        <ele>1153</ele>
        <time>2018-09-08T15:12:45Z</time>
      </trkpt>
      <trkpt lat="46.397" lon="5.98284">
        <ele>1154</ele>
        <time>2018-09-08T15:12:50Z</time>
      </trkpt>
      <trkpt lat="46.39704" lon="5.98287">
        <ele>1154</ele>
        <time>2018-09-08T15:12:55Z</time>
      </trkpt>
      <trkpt lat="46.3971" lon="5.98297">
        <ele>1154</ele>
        <time>2018-09-08T15:13:05Z</time>
      </trkpt>
      <trkpt lat="46.39711" lon="5.98303">
        <ele>1154</ele>
        <time>2018-09-08T15:13:10Z</time>
      </trkpt>
      <trkpt lat="46.39711" lon="5.98304">
        <ele>1154</ele>
        <time>2018-09-08T15:13:15Z</time>
      </trkpt>
      <trkpt lat="46.39712" lon="5.98305">
        <ele>1154</ele>
        <time>2018-09-08T15:13:20Z</time>
      </trkpt>
      <trkpt lat="46.39711" lon="5.98306">
        <ele>1154</ele>
        <time>2018-09-08T15:13:30Z</time>
      </trkpt>
      <trkpt lat="46.39712" lon="5.98308">
        <ele>1154</ele>
        <time>2018-09-08T15:13:35Z</time>
      </trkpt>
      <trkpt lat="46.39713" lon="5.98311">
        <ele>1154</ele>
        <time>2018-09-08T15:13:40Z</time>
      </trkpt>
      <trkpt lat="46.39714" lon="5.98316">
        <ele>1154</ele>
        <time>2018-09-08T15:13:45Z</time>
      </trkpt>
      <trkpt lat="46.39718" lon="5.98329">
        <ele>1154</ele>
        <time>2018-09-08T15:13:55Z</time>
      </trkpt>
      <trkpt lat="46.3972" lon="5.98333">
        <ele>1154</ele>
        <time>2018-09-08T15:14:00Z</time>
      </trkpt>
      <trkpt lat="46.3972" lon="5.98334">
        <ele>1154</ele>
        <time>2018-09-08T15:14:05Z</time>
      </trkpt>
      <trkpt lat="46.3972" lon="5.98334">
        <ele>1154</ele>
        <time>2018-09-08T15:14:10Z</time>
      </trkpt>
      <trkpt lat="46.3972" lon="5.98335">
        <ele>1154</ele>
        <time>2018-09-08T15:14:15Z</time>
      </trkpt>
      <trkpt lat="46.3972" lon="5.98339">
        <ele>1154</ele>
        <time>2018-09-08T15:14:25Z</time>
      </trkpt>
      <trkpt lat="46.39722" lon="5.98344">
        <ele>1154</ele>
        <time>2018-09-08T15:14:30Z</time>
      </trkpt>
      <trkpt lat="46.39724" lon="5.98348">
        <ele>1154</ele>
        <time>2018-09-08T15:14:35Z</time>
      </trkpt>
      <trkpt lat="46.39728" lon="5.98354">
        <ele>1154</ele>
        <time>2018-09-08T15:14:40Z</time>
      </trkpt>
      <trkpt lat="46.39735" lon="5.9836">
        <ele>1154</ele>
        <time>2018-09-08T15:14:50Z</time>
      </trkpt>
      <trkpt lat="46.39738" lon="5.98364">
        <ele>1154</ele>
        <time>2018-09-08T15:14:55Z</time>
      </trkpt>
      <trkpt lat="46.39741" lon="5.98368">
        <ele>1154</ele>
        <time>2018-09-08T15:15:00Z</time>
      </trkpt>
      <trkpt lat="46.39744" lon="5.98374">
        <ele>1154</ele>
        <time>2018-09-08T15:15:05Z</time>
      </trkpt>
      <trkpt lat="46.39747" lon="5.9838">
        <ele>1155</ele>
        <time>2018-09-08T15:15:10Z</time>
      </trkpt>
      <trkpt lat="46.39748" lon="5.98383">
        <ele>1155</ele>
        <time>2018-09-08T15:15:20Z</time>
      </trkpt>
      <trkpt lat="46.39748" lon="5.98384">
        <ele>1155</ele>
        <time>2018-09-08T15:15:25Z</time>
      </trkpt>
      <trkpt lat="46.39748" lon="5.98383">
        <ele>1155</ele>
        <time>2018-09-08T15:15:30Z</time>
      </trkpt>
      <trkpt lat="46.39748" lon="5.98384">
        <ele>1155</ele>
        <time>2018-09-08T15:15:35Z</time>
      </trkpt>
      <trkpt lat="46.39752" lon="5.98389">
        <ele>1155</ele>
        <time>2018-09-08T15:15:45Z</time>
      </trkpt>
      <trkpt lat="46.39755" lon="5.98394">
        <ele>1155</ele>
        <time>2018-09-08T15:15:50Z</time>
      </trkpt>
      <trkpt lat="46.39755" lon="5.98398">
        <ele>1155</ele>
        <time>2018-09-08T15:15:55Z</time>
      </trkpt>
      <trkpt lat="46.39757" lon="5.98401">
        <ele>1155</ele>
        <time>2018-09-08T15:16:00Z</time>
      </trkpt>
      <trkpt lat="46.39763" lon="5.98411">
        <ele>1156</ele>
        <time>2018-09-08T15:16:10Z</time>
      </trkpt>
      <trkpt lat="46.39766" lon="5.98415">
        <ele>1156</ele>
        <time>2018-09-08T15:16:15Z</time>
      </trkpt>
      <trkpt lat="46.39769" lon="5.98419">
        <ele>1156</ele>
        <time>2018-09-08T15:16:20Z</time>
      </trkpt>
      <trkpt lat="46.39772" lon="5.98424">
        <ele>1156</ele>
        <time>2018-09-08T15:16:25Z</time>
      </trkpt>
      <trkpt lat="46.39776" lon="5.98431">
        <ele>1156</ele>
        <time>2018-09-08T15:16:30Z</time>
      </trkpt>
      <trkpt lat="46.39779" lon="5.98443">
        <ele>1156</ele>
        <time>2018-09-08T15:16:40Z</time>
      </trkpt>
      <trkpt lat="46.39779" lon="5.98454">
        <ele>1156</ele>
        <time>2018-09-08T15:16:45Z</time>
      </trkpt>
      <trkpt lat="46.39779" lon="5.98461">
        <ele>1156</ele>
        <time>2018-09-08T15:16:50Z</time>
      </trkpt>
      <trkpt lat="46.39778" lon="5.98467">
        <ele>1156</ele>
        <time>2018-09-08T15:16:55Z</time>
      </trkpt>
      <trkpt lat="46.39773" lon="5.98481">
        <ele>1156</ele>
        <time>2018-09-08T15:17:05Z</time>
      </trkpt>
      <trkpt lat="46.3977" lon="5.98485">
        <ele>1156</ele>
        <time>2018-09-08T15:17:10Z</time>
      </trkpt>
      <trkpt lat="46.39767" lon="5.98491">
        <ele>1156</ele>
        <time>2018-09-08T15:17:15Z</time>
      </trkpt>
      <trkpt lat="46.39764" lon="5.98494">
        <ele>1157</ele>
        <time>2018-09-08T15:17:20Z</time>
      </trkpt>
      <trkpt lat="46.39755" lon="5.98504">
        <ele>1157</ele>
        <time>2018-09-08T15:17:30Z</time>
      </trkpt>
      <trkpt lat="46.39752" lon="5.98506">
        <ele>1158</ele>
        <time>2018-09-08T15:17:35Z</time>
      </trkpt>
      <trkpt lat="46.39747" lon="5.98509">
        <ele>1158</ele>
        <time>2018-09-08T15:17:40Z</time>
      </trkpt>
      <trkpt lat="46.39742" lon="5.9851">
        <ele>1158</ele>
        <time>2018-09-08T15:17:45Z</time>
      </trkpt>
      <trkpt lat="46.39737" lon="5.9851">
        <ele>1159</ele>
        <time>2018-09-08T15:17:50Z</time>
      </trkpt>
      <trkpt lat="46.39726" lon="5.9851">
        <ele>1160</ele>
        <time>2018-09-08T15:18:00Z</time>
      </trkpt>
      <trkpt lat="46.39721" lon="5.98508">
        <ele>1161</ele>
        <time>2018-09-08T15:18:05Z</time>
      </trkpt>
      <trkpt lat="46.39719" lon="5.98508">
        <ele>1161</ele>
        <time>2018-09-08T15:18:10Z</time>
      </trkpt>
      <trkpt lat="46.3972" lon="5.98509">
        <ele>1161</ele>
        <time>2018-09-08T15:18:15Z</time>
      </trkpt>
      <trkpt lat="46.39716" lon="5.98509">
        <ele>1162</ele>
        <time>2018-09-08T15:18:25Z</time>
      </trkpt>
      <trkpt lat="46.39711" lon="5.98508">
        <ele>1163</ele>
        <time>2018-09-08T15:18:30Z</time>
      </trkpt>
      <trkpt lat="46.3971" lon="5.98509">
        <ele>1163</ele>
        <time>2018-09-08T15:18:35Z</time>
      </trkpt>
      <trkpt lat="46.39709" lon="5.9851">
        <ele>1163</ele>
        <time>2018-09-08T15:18:40Z</time>
      </trkpt>
      <trkpt lat="46.397" lon="5.98509">
        <ele>1165</ele>
        <time>2018-09-08T15:18:50Z</time>
      </trkpt>
      <trkpt lat="46.39695" lon="5.98509">
        <ele>1165</ele>
        <time>2018-09-08T15:18:55Z</time>
      </trkpt>
      <trkpt lat="46.39691" lon="5.98508">
        <ele>1166</ele>
        <time>2018-09-08T15:19:00Z</time>
      </trkpt>
      <trkpt lat="46.39686" lon="5.98507">
        <ele>1167</ele>
        <time>2018-09-08T15:19:05Z</time>
      </trkpt>
      <trkpt lat="46.39682" lon="5.98506">
        <ele>1167</ele>
        <time>2018-09-08T15:19:10Z</time>
      </trkpt>
      <trkpt lat="46.39671" lon="5.98505">
        <ele>1169</ele>
        <time>2018-09-08T15:19:20Z</time>
      </trkpt>
      <trkpt lat="46.39667" lon="5.98504">
        <ele>1169</ele>
        <time>2018-09-08T15:19:25Z</time>
      </trkpt>
      <trkpt lat="46.39663" lon="5.98501">
        <ele>1169</ele>
        <time>2018-09-08T15:19:30Z</time>
      </trkpt>
      <trkpt lat="46.39657" lon="5.98499">
        <ele>1170</ele>
        <time>2018-09-08T15:19:35Z</time>
      </trkpt>
      <trkpt lat="46.39647" lon="5.98494">
        <ele>1172</ele>
        <time>2018-09-08T15:19:45Z</time>
      </trkpt>
      <trkpt lat="46.39643" lon="5.98491">
        <ele>1172</ele>
        <time>2018-09-08T15:19:50Z</time>
      </trkpt>
      <trkpt lat="46.3964" lon="5.98489">
        <ele>1172</ele>
        <time>2018-09-08T15:19:55Z</time>
      </trkpt>
      <trkpt lat="46.39637" lon="5.98486">
        <ele>1172</ele>
        <time>2018-09-08T15:20:00Z</time>
      </trkpt>
      <trkpt lat="46.39634" lon="5.98482">
        <ele>1172</ele>
        <time>2018-09-08T15:20:05Z</time>
      </trkpt>
      <trkpt lat="46.39627" lon="5.9847">
        <ele>1172</ele>
        <time>2018-09-08T15:20:15Z</time>
      </trkpt>
      <trkpt lat="46.39625" lon="5.98467">
        <ele>1172</ele>
        <time>2018-09-08T15:20:20Z</time>
      </trkpt>
      <trkpt lat="46.39621" lon="5.98462">
        <ele>1172</ele>
        <time>2018-09-08T15:20:25Z</time>
      </trkpt>
      <trkpt lat="46.39616" lon="5.98454">
        <ele>1172</ele>
        <time>2018-09-08T15:20:30Z</time>
      </trkpt>
      <trkpt lat="46.39608" lon="5.98443">
        <ele>1171</ele>
        <time>2018-09-08T15:20:40Z</time>
      </trkpt>
      <trkpt lat="46.39606" lon="5.98439">
        <ele>1171</ele>
        <time>2018-09-08T15:20:45Z</time>
      </trkpt>
      <trkpt lat="46.39602" lon="5.98435">
        <ele>1171</ele>
        <time>2018-09-08T15:20:50Z</time>
      </trkpt>
      <trkpt lat="46.39601" lon="5.98432">
        <ele>1171</ele>
        <time>2018-09-08T15:20:55Z</time>
      </trkpt>
      <trkpt lat="46.39597" lon="5.98429">
        <ele>1171</ele>
        <time>2018-09-08T15:21:05Z</time>
      </trkpt>
      <trkpt lat="46.39594" lon="5.98425">
        <ele>1170</ele>
        <time>2018-09-08T15:21:10Z</time>
      </trkpt>
      <trkpt lat="46.39591" lon="5.98422">
        <ele>1171</ele>
        <time>2018-09-08T15:21:15Z</time>
      </trkpt>
      <trkpt lat="46.39586" lon="5.98416">
        <ele>1171</ele>
        <time>2018-09-08T15:21:20Z</time>
      </trkpt>
      <trkpt lat="46.39582" lon="5.98411">
        <ele>1171</ele>
        <time>2018-09-08T15:21:25Z</time>
      </trkpt>
      <trkpt lat="46.39577" lon="5.98402">
        <ele>1171</ele>
        <time>2018-09-08T15:21:35Z</time>
      </trkpt>
      <trkpt lat="46.39573" lon="5.98395">
        <ele>1171</ele>
        <time>2018-09-08T15:21:40Z</time>
      </trkpt>
      <trkpt lat="46.3957" lon="5.9839">
        <ele>1170</ele>
        <time>2018-09-08T15:21:45Z</time>
      </trkpt>
      <trkpt lat="46.39566" lon="5.98386">
        <ele>1170</ele>
        <time>2018-09-08T15:21:50Z</time>
      </trkpt>
      <trkpt lat="46.39559" lon="5.98378">
        <ele>1171</ele>
        <time>2018-09-08T15:22:00Z</time>
      </trkpt>
      <trkpt lat="46.39555" lon="5.98372">
        <ele>1171</ele>
        <time>2018-09-08T15:22:05Z</time>
      </trkpt>
      <trkpt lat="46.39551" lon="5.98368">
        <ele>1170</ele>
        <time>2018-09-08T15:22:10Z</time>
      </trkpt>
      <trkpt lat="46.39547" lon="5.98363">
        <ele>1170</ele>
        <time>2018-09-08T15:22:15Z</time>
      </trkpt>
      <trkpt lat="46.39545" lon="5.98359">
        <ele>1170</ele>
        <time>2018-09-08T15:22:25Z</time>
      </trkpt>
      <trkpt lat="46.39544" lon="5.98359">
        <ele>1170</ele>
        <time>2018-09-08T15:22:30Z</time>
      </trkpt>
      <trkpt lat="46.39544" lon="5.98358">
        <ele>1170</ele>
        <time>2018-09-08T15:22:35Z</time>
      </trkpt>
      <trkpt lat="46.39543" lon="5.98358">
        <ele>1170</ele>
        <time>2018-09-08T15:22:40Z</time>
      </trkpt>
      <trkpt lat="46.39543" lon="5.98358">
        <ele>1170</ele>
        <time>2018-09-08T15:22:45Z</time>
      </trkpt>
      <trkpt lat="46.39541" lon="5.98356">
        <ele>1170</ele>
        <time>2018-09-08T15:22:55Z</time>
      </trkpt>
      <trkpt lat="46.39541" lon="5.98356">
        <ele>1170</ele>
        <time>2018-09-08T15:23:00Z</time>
      </trkpt>
      <trkpt lat="46.39541" lon="5.98356">
        <ele>1170</ele>
        <time>2018-09-08T15:23:05Z</time>
      </trkpt>
      <trkpt lat="46.39541" lon="5.98356">
        <ele>1170</ele>
        <time>2018-09-08T15:23:10Z</time>
      </trkpt>
      <trkpt lat="46.39541" lon="5.98356">
        <ele>1170</ele>
        <time>2018-09-08T15:23:20Z</time>
      </trkpt>
      <trkpt lat="46.3954" lon="5.98356">
        <ele>1170</ele>
        <time>2018-09-08T15:23:25Z</time>
      </trkpt>
      <trkpt lat="46.3954" lon="5.98356">
        <ele>1170</ele>
        <time>2018-09-08T15:23:30Z</time>
      </trkpt>
      <trkpt lat="46.3954" lon="5.98356">
        <ele>1170</ele>
        <time>2018-09-08T15:23:35Z</time>
      </trkpt>
      <trkpt lat="46.3954" lon="5.98356">
        <ele>1170</ele>
        <time>2018-09-08T15:23:40Z</time>
      </trkpt>
      <trkpt lat="46.39539" lon="5.98356">
        <ele>1170</ele>
        <time>2018-09-08T15:23:50Z</time>
      </trkpt>
      <trkpt lat="46.39538" lon="5.98355">
        <ele>1171</ele>
        <time>2018-09-08T15:23:55Z</time>
      </trkpt>
      <trkpt lat="46.39536" lon="5.98351">
        <ele>1170</ele>
        <time>2018-09-08T15:24:00Z</time>
      </trkpt>
      <trkpt lat="46.39534" lon="5.98346">
        <ele>1169</ele>
        <time>2018-09-08T15:24:05Z</time>
      </trkpt>
      <trkpt lat="46.39527" lon="5.98337">
        <ele>1169</ele>
        <time>2018-09-08T15:24:15Z</time>
      </trkpt>
      <trkpt lat="46.39524" lon="5.98333">
        <ele>1169</ele>
        <time>2018-09-08T15:24:20Z</time>
      </trkpt>
      <trkpt lat="46.3952" lon="5.98327">
        <ele>1169</ele>
        <time>2018-09-08T15:24:25Z</time>
      </trkpt>
      <trkpt lat="46.39514" lon="5.98321">
        <ele>1169</ele>
        <time>2018-09-08T15:24:30Z</time>
      </trkpt>
      <trkpt lat="46.39511" lon="5.98312">
        <ele>1169</ele>
        <time>2018-09-08T15:24:40Z</time>
      </trkpt>
      <trkpt lat="46.39509" lon="5.98309">
        <ele>1169</ele>
        <time>2018-09-08T15:24:45Z</time>
      </trkpt>
      <trkpt lat="46.39507" lon="5.98304">
        <ele>1169</ele>
        <time>2018-09-08T15:24:50Z</time>
      </trkpt>
      <trkpt lat="46.39504" lon="5.98301">
        <ele>1169</ele>
        <time>2018-09-08T15:24:55Z</time>
      </trkpt>
      <trkpt lat="46.39499" lon="5.98296">
        <ele>1169</ele>
        <time>2018-09-08T15:25:00Z</time>
      </trkpt>
      <trkpt lat="46.39489" lon="5.98285">
        <ele>1170</ele>
        <time>2018-09-08T15:25:10Z</time>
      </trkpt>
      <trkpt lat="46.39483" lon="5.98278">
        <ele>1171</ele>
        <time>2018-09-08T15:25:15Z</time>
      </trkpt>
      <trkpt lat="46.39479" lon="5.98271">
        <ele>1171</ele>
        <time>2018-09-08T15:25:20Z</time>
      </trkpt>
      <trkpt lat="46.39478" lon="5.98267">
        <ele>1170</ele>
        <time>2018-09-08T15:25:25Z</time>
      </trkpt>
      <trkpt lat="46.39473" lon="5.98255">
        <ele>1170</ele>
        <time>2018-09-08T15:25:35Z</time>
      </trkpt>
      <trkpt lat="46.39469" lon="5.98255">
        <ele>1171</ele>
        <time>2018-09-08T15:25:40Z</time>
      </trkpt>
      <trkpt lat="46.39466" lon="5.98258">
        <ele>1172</ele>
        <time>2018-09-08T15:25:45Z</time>
      </trkpt>
      <trkpt lat="46.39462" lon="5.98258">
        <ele>1173</ele>
        <time>2018-09-08T15:25:50Z</time>
      </trkpt>
      <trkpt lat="46.39453" lon="5.98265">
        <ele>1176</ele>
        <time>2018-09-08T15:26:00Z</time>
      </trkpt>
      <trkpt lat="46.39453" lon="5.98267">
        <ele>1177</ele>
        <time>2018-09-08T15:26:05Z</time>
      </trkpt>
      <trkpt lat="46.3945" lon="5.98269">
        <ele>1178</ele>
        <time>2018-09-08T15:26:10Z</time>
      </trkpt>
      <trkpt lat="46.39446" lon="5.98269">
        <ele>1180</ele>
        <time>2018-09-08T15:26:15Z</time>
      </trkpt>
      <trkpt lat="46.39443" lon="5.9827">
        <ele>1181</ele>
        <time>2018-09-08T15:26:20Z</time>
      </trkpt>
      <trkpt lat="46.39441" lon="5.98273">
        <ele>1182</ele>
        <time>2018-09-08T15:26:30Z</time>
      </trkpt>
      <trkpt lat="46.39437" lon="5.98274">
        <ele>1184</ele>
        <time>2018-09-08T15:26:35Z</time>
      </trkpt>
      <trkpt lat="46.39437" lon="5.98276">
        <ele>1184</ele>
        <time>2018-09-08T15:26:40Z</time>
      </trkpt>
      <trkpt lat="46.39436" lon="5.98279">
        <ele>1185</ele>
        <time>2018-09-08T15:26:45Z</time>
      </trkpt>
      <trkpt lat="46.39438" lon="5.98284">
        <ele>1185</ele>
        <time>2018-09-08T15:26:55Z</time>
      </trkpt>
      <trkpt lat="46.39437" lon="5.98284">
        <ele>1185</ele>
        <time>2018-09-08T15:27:00Z</time>
      </trkpt>
      <trkpt lat="46.39437" lon="5.98285">
        <ele>1185</ele>
        <time>2018-09-08T15:27:05Z</time>
      </trkpt>
      <trkpt lat="46.39437" lon="5.98285">
        <ele>1186</ele>
        <time>2018-09-08T15:27:10Z</time>
      </trkpt>
      <trkpt lat="46.39438" lon="5.98287">
        <ele>1185</ele>
        <time>2018-09-08T15:27:20Z</time>
      </trkpt>
      <trkpt lat="46.39439" lon="5.98288">
        <ele>1185</ele>
        <time>2018-09-08T15:27:25Z</time>
      </trkpt>
      <trkpt lat="46.39439" lon="5.98292">
        <ele>1186</ele>
        <time>2018-09-08T15:27:30Z</time>
      </trkpt>
      <trkpt lat="46.3944" lon="5.98297">
        <ele>1187</ele>
        <time>2018-09-08T15:27:35Z</time>
      </trkpt>
      <trkpt lat="46.3944" lon="5.98303">
        <ele>1187</ele>
        <time>2018-09-08T15:27:40Z</time>
      </trkpt>
      <trkpt lat="46.39439" lon="5.98308">
        <ele>1189</ele>
        <time>2018-09-08T15:27:50Z</time>
      </trkpt>
      <trkpt lat="46.3944" lon="5.9831">
        <ele>1188</ele>
        <time>2018-09-08T15:27:55Z</time>
      </trkpt>
      <trkpt lat="46.39441" lon="5.98313">
        <ele>1189</ele>
        <time>2018-09-08T15:28:00Z</time>
      </trkpt>
      <trkpt lat="46.39442" lon="5.98315">
        <ele>1189</ele>
        <time>2018-09-08T15:28:05Z</time>
      </trkpt>
      <trkpt lat="46.39444" lon="5.98321">
        <ele>1189</ele>
        <time>2018-09-08T15:28:15Z</time>
      </trkpt>
      <trkpt lat="46.39443" lon="5.98321">
        <ele>1190</ele>
        <time>2018-09-08T15:28:20Z</time>
      </trkpt>
      <trkpt lat="46.39442" lon="5.98322">
        <ele>1190</ele>
        <time>2018-09-08T15:28:25Z</time>
      </trkpt>
      <trkpt lat="46.39442" lon="5.98323">
        <ele>1190</ele>
        <time>2018-09-08T15:28:30Z</time>
      </trkpt>
      <trkpt lat="46.39442" lon="5.98323">
        <ele>1190</ele>
        <time>2018-09-08T15:28:35Z</time>
      </trkpt>
      <trkpt lat="46.39437" lon="5.98318">
        <ele>1191</ele>
        <time>2018-09-08T15:28:45Z</time>
      </trkpt>
      <trkpt lat="46.39435" lon="5.98319">
        <ele>1191</ele>
        <time>2018-09-08T15:28:50Z</time>
      </trkpt>
      <trkpt lat="46.39435" lon="5.98318">
        <ele>1192</ele>
        <time>2018-09-08T15:28:55Z</time>
      </trkpt>
      <trkpt lat="46.39434" lon="5.98319">
        <ele>1192</ele>
        <time>2018-09-08T15:29:00Z</time>
      </trkpt>
      <trkpt lat="46.39433" lon="5.98319">
        <ele>1192</ele>
        <time>2018-09-08T15:29:10Z</time>
      </trkpt>
      <trkpt lat="46.39433" lon="5.9832">
        <ele>1192</ele>
        <time>2018-09-08T15:29:15Z</time>
      </trkpt>
      <trkpt lat="46.39434" lon="5.98323">
        <ele>1193</ele>
        <time>2018-09-08T15:29:20Z</time>
      </trkpt>
      <trkpt lat="46.3943" lon="5.98324">
        <ele>1194</ele>
        <time>2018-09-08T15:29:25Z</time>
      </trkpt>
      <trkpt lat="46.39425" lon="5.98323">
        <ele>1195</ele>
        <time>2018-09-08T15:29:35Z</time>
      </trkpt>
      <trkpt lat="46.39422" lon="5.98323">
        <ele>1196</ele>
        <time>2018-09-08T15:29:40Z</time>
      </trkpt>
      <trkpt lat="46.3942" lon="5.9832">
        <ele>1196</ele>
        <time>2018-09-08T15:29:45Z</time>
      </trkpt>
      <trkpt lat="46.39412" lon="5.98318">
        <ele>1198</ele>
        <time>2018-09-08T15:29:50Z</time>
      </trkpt>
      <trkpt lat="46.39407" lon="5.98318">
        <ele>1200</ele>
        <time>2018-09-08T15:29:55Z</time>
      </trkpt>
      <trkpt lat="46.39405" lon="5.98318">
        <ele>1201</ele>
        <time>2018-09-08T15:30:05Z</time>
      </trkpt>
      <trkpt lat="46.39402" lon="5.98318">
        <ele>1201</ele>
        <time>2018-09-08T15:30:10Z</time>
      </trkpt>
      <trkpt lat="46.39404" lon="5.98321">
        <ele>1201</ele>
        <time>2018-09-08T15:30:15Z</time>
      </trkpt>
      <trkpt lat="46.39403" lon="5.98326">
        <ele>1202</ele>
        <time>2018-09-08T15:30:20Z</time>
      </trkpt>
      <trkpt lat="46.39401" lon="5.98329">
        <ele>1203</ele>
        <time>2018-09-08T15:30:30Z</time>
      </trkpt>
      <trkpt lat="46.39399" lon="5.98331">
        <ele>1204</ele>
        <time>2018-09-08T15:30:35Z</time>
      </trkpt>
      <trkpt lat="46.39397" lon="5.98333">
        <ele>1205</ele>
        <time>2018-09-08T15:30:40Z</time>
      </trkpt>
      <trkpt lat="46.39395" lon="5.98336">
        <ele>1206</ele>
        <time>2018-09-08T15:30:45Z</time>
      </trkpt>
      <trkpt lat="46.39398" lon="5.98343">
        <ele>1206</ele>
        <time>2018-09-08T15:30:55Z</time>
      </trkpt>
      <trkpt lat="46.39402" lon="5.9835">
        <ele>1206</ele>
        <time>2018-09-08T15:31:00Z</time>
      </trkpt>
      <trkpt lat="46.39403" lon="5.98353">
        <ele>1207</ele>
        <time>2018-09-08T15:31:05Z</time>
      </trkpt>
      <trkpt lat="46.39402" lon="5.98357">
        <ele>1208</ele>
        <time>2018-09-08T15:31:10Z</time>
      </trkpt>
      <trkpt lat="46.39401" lon="5.9836">
        <ele>1208</ele>
        <time>2018-09-08T15:31:15Z</time>
      </trkpt>
      <trkpt lat="46.39398" lon="5.98365">
        <ele>1210</ele>
        <time>2018-09-08T15:31:25Z</time>
      </trkpt>
      <trkpt lat="46.39398" lon="5.98368">
        <ele>1211</ele>
        <time>2018-09-08T15:31:30Z</time>
      </trkpt>
      <trkpt lat="46.39398" lon="5.98369">
        <ele>1211</ele>
        <time>2018-09-08T15:31:35Z</time>
      </trkpt>
      <trkpt lat="46.39399" lon="5.98371">
        <ele>1211</ele>
        <time>2018-09-08T15:31:40Z</time>
      </trkpt>
      <trkpt lat="46.39403" lon="5.98377">
        <ele>1211</ele>
        <time>2018-09-08T15:31:50Z</time>
      </trkpt>
      <trkpt lat="46.39401" lon="5.98382">
        <ele>1212</ele>
        <time>2018-09-08T15:31:55Z</time>
      </trkpt>
      <trkpt lat="46.394" lon="5.98383">
        <ele>1213</ele>
        <time>2018-09-08T15:32:00Z</time>
      </trkpt>
      <trkpt lat="46.39402" lon="5.98386">
        <ele>1213</ele>
        <time>2018-09-08T15:32:05Z</time>
      </trkpt>
      <trkpt lat="46.39403" lon="5.98393">
        <ele>1214</ele>
        <time>2018-09-08T15:32:15Z</time>
      </trkpt>
      <trkpt lat="46.39401" lon="5.98395">
        <ele>1215</ele>
        <time>2018-09-08T15:32:20Z</time>
      </trkpt>
      <trkpt lat="46.39404" lon="5.98398">
        <ele>1214</ele>
        <time>2018-09-08T15:32:25Z</time>
      </trkpt>
      <trkpt lat="46.39408" lon="5.98401">
        <ele>1214</ele>
        <time>2018-09-08T15:32:30Z</time>
      </trkpt>
      <trkpt lat="46.3941" lon="5.98401">
        <ele>1213</ele>
        <time>2018-09-08T15:32:35Z</time>
      </trkpt>
      <trkpt lat="46.3941" lon="5.98399">
        <ele>1213</ele>
        <time>2018-09-08T15:32:45Z</time>
      </trkpt>
      <trkpt lat="46.3941" lon="5.98399">
        <ele>1213</ele>
        <time>2018-09-08T15:32:50Z</time>
      </trkpt>
      <trkpt lat="46.3941" lon="5.98399">
        <ele>1213</ele>
        <time>2018-09-08T15:32:55Z</time>
      </trkpt>
      <trkpt lat="46.3941" lon="5.98399">
        <ele>1213</ele>
        <time>2018-09-08T15:33:00Z</time>
      </trkpt>
      <trkpt lat="46.39406" lon="5.98395">
        <ele>1213</ele>
        <time>2018-09-08T15:33:10Z</time>
      </trkpt>
      <trkpt lat="46.39407" lon="5.98393">
        <ele>1213</ele>
        <time>2018-09-08T15:33:15Z</time>
      </trkpt>
      <trkpt lat="46.39401" lon="5.98388">
        <ele>1213</ele>
        <time>2018-09-08T15:33:20Z</time>
      </trkpt>
      <trkpt lat="46.39396" lon="5.98385">
        <ele>1214</ele>
        <time>2018-09-08T15:33:25Z</time>
      </trkpt>
      <trkpt lat="46.39397" lon="5.98388">
        <ele>1214</ele>
        <time>2018-09-08T15:33:30Z</time>
      </trkpt>
      <trkpt lat="46.39394" lon="5.98388">
        <ele>1215</ele>
        <time>2018-09-08T15:33:40Z</time>
      </trkpt>
      <trkpt lat="46.3939" lon="5.98385">
        <ele>1216</ele>
        <time>2018-09-08T15:33:45Z</time>
      </trkpt>
      <trkpt lat="46.39393" lon="5.98381">
        <ele>1214</ele>
        <time>2018-09-08T15:33:50Z</time>
      </trkpt>
      <trkpt lat="46.39394" lon="5.98377">
        <ele>1213</ele>
        <time>2018-09-08T15:33:55Z</time>
      </trkpt>
      <trkpt lat="46.39388" lon="5.98367">
        <ele>1213</ele>
        <time>2018-09-08T15:34:05Z</time>
      </trkpt>
      <trkpt lat="46.39385" lon="5.98363">
        <ele>1213</ele>
        <time>2018-09-08T15:34:10Z</time>
      </trkpt>
      <trkpt lat="46.39381" lon="5.98357">
        <ele>1213</ele>
        <time>2018-09-08T15:34:15Z</time>
      </trkpt>
      <trkpt lat="46.39379" lon="5.98355">
        <ele>1213</ele>
        <time>2018-09-08T15:34:20Z</time>
      </trkpt>
      <trkpt lat="46.3937" lon="5.98345">
        <ele>1214</ele>
        <time>2018-09-08T15:34:30Z</time>
      </trkpt>
      <trkpt lat="46.39367" lon="5.9834">
        <ele>1214</ele>
        <time>2018-09-08T15:34:35Z</time>
      </trkpt>
      <trkpt lat="46.39364" lon="5.98335">
        <ele>1214</ele>
        <time>2018-09-08T15:34:40Z</time>
      </trkpt>
      <trkpt lat="46.3936" lon="5.9833">
        <ele>1214</ele>
        <time>2018-09-08T15:34:45Z</time>
      </trkpt>
      <trkpt lat="46.39357" lon="5.98326">
        <ele>1214</ele>
        <time>2018-09-08T15:34:50Z</time>
      </trkpt>
      <trkpt lat="46.39353" lon="5.98316">
        <ele>1214</ele>
        <time>2018-09-08T15:35:00Z</time>
      </trkpt>
      <trkpt lat="46.3935" lon="5.9831">
        <ele>1214</ele>
        <time>2018-09-08T15:35:05Z</time>
      </trkpt>
      <trkpt lat="46.39346" lon="5.98304">
        <ele>1215</ele>
        <time>2018-09-08T15:35:10Z</time>
      </trkpt>
      <trkpt lat="46.39341" lon="5.983">
        <ele>1216</ele>
        <time>2018-09-08T15:35:15Z</time>
      </trkpt>
      <trkpt lat="46.39335" lon="5.98297">
        <ele>1217</ele>
        <time>2018-09-08T15:35:25Z</time>
      </trkpt>
      <trkpt lat="46.39332" lon="5.98295">
        <ele>1217</ele>
        <time>2018-09-08T15:35:30Z</time>
      </trkpt>
      <trkpt lat="46.39328" lon="5.98292">
        <ele>1218</ele>
        <time>2018-09-08T15:35:35Z</time>
      </trkpt>
      <trkpt lat="46.39325" lon="5.9829">
        <ele>1219</ele>
        <time>2018-09-08T15:35:40Z</time>
      </trkpt>
      <trkpt lat="46.39315" lon="5.98283">
        <ele>1220</ele>
        <time>2018-09-08T15:35:50Z</time>
      </trkpt>
      <trkpt lat="46.39312" lon="5.98278">
        <ele>1221</ele>
        <time>2018-09-08T15:35:55Z</time>
      </trkpt>
      <trkpt lat="46.39308" lon="5.98273">
        <ele>1221</ele>
        <time>2018-09-08T15:36:00Z</time>
      </trkpt>
      <trkpt lat="46.39303" lon="5.98268">
        <ele>1221</ele>
        <time>2018-09-08T15:36:05Z</time>
      </trkpt>
      <trkpt lat="46.39299" lon="5.98266">
        <ele>1222</ele>
        <time>2018-09-08T15:36:10Z</time>
      </trkpt>
      <trkpt lat="46.39296" lon="5.98264">
        <ele>1223</ele>
        <time>2018-09-08T15:36:20Z</time>
      </trkpt>
      <trkpt lat="46.39292" lon="5.98261">
        <ele>1223</ele>
        <time>2018-09-08T15:36:25Z</time>
      </trkpt>
      <trkpt lat="46.39288" lon="5.98256">
        <ele>1224</ele>
        <time>2018-09-08T15:36:30Z</time>
      </trkpt>
      <trkpt lat="46.39284" lon="5.98251">
        <ele>1224</ele>
        <time>2018-09-08T15:36:35Z</time>
      </trkpt>
      <trkpt lat="46.39281" lon="5.98248">
        <ele>1224</ele>
        <time>2018-09-08T15:36:45Z</time>
      </trkpt>
      <trkpt lat="46.3928" lon="5.98243">
        <ele>1224</ele>
        <time>2018-09-08T15:36:50Z</time>
      </trkpt>
      <trkpt lat="46.39278" lon="5.98238">
        <ele>1224</ele>
        <time>2018-09-08T15:36:55Z</time>
      </trkpt>
      <trkpt lat="46.39276" lon="5.98233">
        <ele>1224</ele>
        <time>2018-09-08T15:37:00Z</time>
      </trkpt>
      <trkpt lat="46.39275" lon="5.98229">
        <ele>1224</ele>
        <time>2018-09-08T15:37:05Z</time>
      </trkpt>
      <trkpt lat="46.39266" lon="5.98216">
        <ele>1224</ele>
        <time>2018-09-08T15:37:15Z</time>
      </trkpt>
      <trkpt lat="46.39261" lon="5.98209">
        <ele>1225</ele>
        <time>2018-09-08T15:37:20Z</time>
      </trkpt>
      <trkpt lat="46.39258" lon="5.98203">
        <ele>1225</ele>
        <time>2018-09-08T15:37:25Z</time>
      </trkpt>
      <trkpt lat="46.39256" lon="5.98199">
        <ele>1225</ele>
        <time>2018-09-08T15:37:30Z</time>
      </trkpt>
      <trkpt lat="46.39249" lon="5.98189">
        <ele>1226</ele>
        <time>2018-09-08T15:37:40Z</time>
      </trkpt>
      <trkpt lat="46.39247" lon="5.98188">
        <ele>1226</ele>
        <time>2018-09-08T15:37:45Z</time>
      </trkpt>
      <trkpt lat="46.39245" lon="5.98183">
        <ele>1226</ele>
        <time>2018-09-08T15:37:50Z</time>
      </trkpt>
      <trkpt lat="46.39242" lon="5.98181">
        <ele>1226</ele>
        <time>2018-09-08T15:37:55Z</time>
      </trkpt>
      <trkpt lat="46.39236" lon="5.98175">
        <ele>1227</ele>
        <time>2018-09-08T15:38:05Z</time>
      </trkpt>
      <trkpt lat="46.39232" lon="5.98169">
        <ele>1227</ele>
        <time>2018-09-08T15:38:10Z</time>
      </trkpt>
      <trkpt lat="46.39229" lon="5.98165">
        <ele>1227</ele>
        <time>2018-09-08T15:38:15Z</time>
      </trkpt>
      <trkpt lat="46.39225" lon="5.98161">
        <ele>1228</ele>
        <time>2018-09-08T15:38:20Z</time>
      </trkpt>
      <trkpt lat="46.39222" lon="5.98157">
        <ele>1228</ele>
        <time>2018-09-08T15:38:25Z</time>
      </trkpt>
      <trkpt lat="46.39216" lon="5.98147">
        <ele>1228</ele>
        <time>2018-09-08T15:38:35Z</time>
      </trkpt>
      <trkpt lat="46.39211" lon="5.9814">
        <ele>1229</ele>
        <time>2018-09-08T15:38:40Z</time>
      </trkpt>
      <trkpt lat="46.39207" lon="5.98133">
        <ele>1229</ele>
        <time>2018-09-08T15:38:45Z</time>
      </trkpt>
      <trkpt lat="46.39203" lon="5.98126">
        <ele>1229</ele>
        <time>2018-09-08T15:38:50Z</time>
      </trkpt>
      <trkpt lat="46.39194" lon="5.98114">
        <ele>1229</ele>
        <time>2018-09-08T15:39:00Z</time>
      </trkpt>
      <trkpt lat="46.3919" lon="5.98107">
        <ele>1229</ele>
        <time>2018-09-08T15:39:05Z</time>
      </trkpt>
      <trkpt lat="46.39186" lon="5.98101">
        <ele>1229</ele>
        <time>2018-09-08T15:39:10Z</time>
      </trkpt>
      <trkpt lat="46.39181" lon="5.98094">
        <ele>1229</ele>
        <time>2018-09-08T15:39:15Z</time>
      </trkpt>
      <trkpt lat="46.39177" lon="5.98081">
        <ele>1228</ele>
        <time>2018-09-08T15:39:25Z</time>
      </trkpt>
      <trkpt lat="46.39175" lon="5.98076">
        <ele>1228</ele>
        <time>2018-09-08T15:39:30Z</time>
      </trkpt>
      <trkpt lat="46.3917" lon="5.98069">
        <ele>1228</ele>
        <time>2018-09-08T15:39:35Z</time>
      </trkpt>
      <trkpt lat="46.39167" lon="5.98062">
        <ele>1227</ele>
        <time>2018-09-08T15:39:40Z</time>
      </trkpt>
      <trkpt lat="46.39162" lon="5.98056">
        <ele>1227</ele>
        <time>2018-09-08T15:39:45Z</time>
      </trkpt>
      <trkpt lat="46.39156" lon="5.98046">
        <ele>1228</ele>
        <time>2018-09-08T15:39:55Z</time>
      </trkpt>
      <trkpt lat="46.39153" lon="5.9804">
        <ele>1227</ele>
        <time>2018-09-08T15:40:00Z</time>
      </trkpt>
      <trkpt lat="46.39149" lon="5.98034">
        <ele>1227</ele>
        <time>2018-09-08T15:40:05Z</time>
      </trkpt>
      <trkpt lat="46.39145" lon="5.98029">
        <ele>1228</ele>
        <time>2018-09-08T15:40:10Z</time>
      </trkpt>
      <trkpt lat="46.39142" lon="5.98021">
        <ele>1227</ele>
        <time>2018-09-08T15:40:20Z</time>
      </trkpt>
      <trkpt lat="46.39141" lon="5.98018">
        <ele>1227</ele>
        <time>2018-09-08T15:40:25Z</time>
      </trkpt>
      <trkpt lat="46.39137" lon="5.98012">
        <ele>1227</ele>
        <time>2018-09-08T15:40:30Z</time>
      </trkpt>
      <trkpt lat="46.39132" lon="5.98006">
        <ele>1227</ele>
        <time>2018-09-08T15:40:35Z</time>
      </trkpt>
      <trkpt lat="46.39123" lon="5.97996">
        <ele>1228</ele>
        <time>2018-09-08T15:40:45Z</time>
      </trkpt>
      <trkpt lat="46.3912" lon="5.9799">
        <ele>1228</ele>
        <time>2018-09-08T15:40:50Z</time>
      </trkpt>
      <trkpt lat="46.39115" lon="5.9798">
        <ele>1228</ele>
        <time>2018-09-08T15:40:55Z</time>
      </trkpt>
      <trkpt lat="46.39111" lon="5.97974">
        <ele>1228</ele>
        <time>2018-09-08T15:41:00Z</time>
      </trkpt>
      <trkpt lat="46.3911" lon="5.97969">
        <ele>1228</ele>
        <time>2018-09-08T15:41:05Z</time>
      </trkpt>
      <trkpt lat="46.39113" lon="5.9796">
        <ele>1226</ele>
        <time>2018-09-08T15:41:15Z</time>
      </trkpt>
      <trkpt lat="46.39113" lon="5.97954">
        <ele>1226</ele>
        <time>2018-09-08T15:41:20Z</time>
      </trkpt>
      <trkpt lat="46.39112" lon="5.97947">
        <ele>1225</ele>
        <time>2018-09-08T15:41:25Z</time>
      </trkpt>
      <trkpt lat="46.39112" lon="5.97941">
        <ele>1224</ele>
        <time>2018-09-08T15:41:30Z</time>
      </trkpt>
      <trkpt lat="46.39106" lon="5.97926">
        <ele>1224</ele>
        <time>2018-09-08T15:41:40Z</time>
      </trkpt>
      <trkpt lat="46.39103" lon="5.97919">
        <ele>1224</ele>
        <time>2018-09-08T15:41:45Z</time>
      </trkpt>
      <trkpt lat="46.391" lon="5.97912">
        <ele>1223</ele>
        <time>2018-09-08T15:41:50Z</time>
      </trkpt>
      <trkpt lat="46.39097" lon="5.97904">
        <ele>1223</ele>
        <time>2018-09-08T15:41:55Z</time>
      </trkpt>
      <trkpt lat="46.39095" lon="5.97899">
        <ele>1223</ele>
        <time>2018-09-08T15:42:00Z</time>
      </trkpt>
      <trkpt lat="46.39087" lon="5.97886">
        <ele>1222</ele>
        <time>2018-09-08T15:42:10Z</time>
      </trkpt>
      <trkpt lat="46.39082" lon="5.97877">
        <ele>1222</ele>
        <time>2018-09-08T15:42:15Z</time>
      </trkpt>
      <trkpt lat="46.39077" lon="5.97872">
        <ele>1222</ele>
        <time>2018-09-08T15:42:20Z</time>
      </trkpt>
      <trkpt lat="46.39072" lon="5.97863">
        <ele>1222</ele>
        <time>2018-09-08T15:42:25Z</time>
      </trkpt>
      <trkpt lat="46.39068" lon="5.97851">
        <ele>1221</ele>
        <time>2018-09-08T15:42:35Z</time>
      </trkpt>
      <trkpt lat="46.39066" lon="5.97848">
        <ele>1221</ele>
        <time>2018-09-08T15:42:40Z</time>
      </trkpt>
      <trkpt lat="46.39062" lon="5.97843">
        <ele>1221</ele>
        <time>2018-09-08T15:42:45Z</time>
      </trkpt>
      <trkpt lat="46.39058" lon="5.97839">
        <ele>1221</ele>
        <time>2018-09-08T15:42:50Z</time>
      </trkpt>
      <trkpt lat="46.39046" lon="5.97826">
        <ele>1221</ele>
        <time>2018-09-08T15:43:00Z</time>
      </trkpt>
      <trkpt lat="46.39043" lon="5.97821">
        <ele>1221</ele>
        <time>2018-09-08T15:43:05Z</time>
      </trkpt>
      <trkpt lat="46.39038" lon="5.97816">
        <ele>1221</ele>
        <time>2018-09-08T15:43:10Z</time>
      </trkpt>
      <trkpt lat="46.39033" lon="5.9781">
        <ele>1221</ele>
        <time>2018-09-08T15:43:15Z</time>
      </trkpt>
      <trkpt lat="46.3903" lon="5.97805">
        <ele>1221</ele>
        <time>2018-09-08T15:43:20Z</time>
      </trkpt>
      <trkpt lat="46.39024" lon="5.97793">
        <ele>1220</ele>
        <time>2018-09-08T15:43:30Z</time>
      </trkpt>
      <trkpt lat="46.39021" lon="5.97787">
        <ele>1220</ele>
        <time>2018-09-08T15:43:35Z</time>
      </trkpt>
      <trkpt lat="46.39018" lon="5.9778">
        <ele>1220</ele>
        <time>2018-09-08T15:43:40Z</time>
      </trkpt>
      <trkpt lat="46.39016" lon="5.97773">
        <ele>1219</ele>
        <time>2018-09-08T15:43:45Z</time>
      </trkpt>
      <trkpt lat="46.3901" lon="5.97759">
        <ele>1218</ele>
        <time>2018-09-08T15:43:55Z</time>
      </trkpt>
      <trkpt lat="46.39006" lon="5.97751">
        <ele>1218</ele>
        <time>2018-09-08T15:44:00Z</time>
      </trkpt>
      <trkpt lat="46.39004" lon="5.97744">
        <ele>1217</ele>
        <time>2018-09-08T15:44:05Z</time>
      </trkpt>
      <trkpt lat="46.39003" lon="5.97739">
        <ele>1216</ele>
        <time>2018-09-08T15:44:10Z</time>
      </trkpt>
      <trkpt lat="46.38995" lon="5.9772">
        <ele>1215</ele>
        <time>2018-09-08T15:44:20Z</time>
      </trkpt>
      <trkpt lat="46.38993" lon="5.97714">
        <ele>1215</ele>
        <time>2018-09-08T15:44:25Z</time>
      </trkpt>
      <trkpt lat="46.38987" lon="5.97701">
        <ele>1215</ele>
        <time>2018-09-08T15:44:30Z</time>
      </trkpt>
      <trkpt lat="46.38985" lon="5.97696">
        <ele>1215</ele>
        <time>2018-09-08T15:44:35Z</time>
      </trkpt>
      <trkpt lat="46.38985" lon="5.97691">
        <ele>1214</ele>
        <time>2018-09-08T15:44:40Z</time>
      </trkpt>
      <trkpt lat="46.38979" lon="5.97673">
        <ele>1214</ele>
        <time>2018-09-08T15:44:50Z</time>
      </trkpt>
      <trkpt lat="46.38976" lon="5.97663">
        <ele>1214</ele>
        <time>2018-09-08T15:44:55Z</time>
      </trkpt>
      <trkpt lat="46.38973" lon="5.97654">
        <ele>1215</ele>
        <time>2018-09-08T15:45:00Z</time>
      </trkpt>
      <trkpt lat="46.3897" lon="5.97646">
        <ele>1215</ele>
        <time>2018-09-08T15:45:05Z</time>
      </trkpt>
      <trkpt lat="46.38963" lon="5.9763">
        <ele>1215</ele>
        <time>2018-09-08T15:45:15Z</time>
      </trkpt>
      <trkpt lat="46.3896" lon="5.97624">
        <ele>1215</ele>
        <time>2018-09-08T15:45:20Z</time>
      </trkpt>
      <trkpt lat="46.38959" lon="5.9762">
        <ele>1215</ele>
        <time>2018-09-08T15:45:25Z</time>
      </trkpt>
      <trkpt lat="46.38956" lon="5.97614">
        <ele>1215</ele>
        <time>2018-09-08T15:45:30Z</time>
      </trkpt>
      <trkpt lat="46.38954" lon="5.97604">
        <ele>1215</ele>
        <time>2018-09-08T15:45:40Z</time>
      </trkpt>
      <trkpt lat="46.38947" lon="5.97602">
        <ele>1215</ele>
        <time>2018-09-08T15:45:45Z</time>
      </trkpt>
      <trkpt lat="46.38941" lon="5.97606">
        <ele>1216</ele>
        <time>2018-09-08T15:45:50Z</time>
      </trkpt>
      <trkpt lat="46.38942" lon="5.97612">
        <ele>1216</ele>
        <time>2018-09-08T15:45:55Z</time>
      </trkpt>
      <trkpt lat="46.38943" lon="5.97617">
        <ele>1216</ele>
        <time>2018-09-08T15:46:00Z</time>
      </trkpt>
      <trkpt lat="46.38943" lon="5.97625">
        <ele>1217</ele>
        <time>2018-09-08T15:46:10Z</time>
      </trkpt>
      <trkpt lat="46.38943" lon="5.97626">
        <ele>1217</ele>
        <time>2018-09-08T15:46:15Z</time>
      </trkpt>
      <trkpt lat="46.3894" lon="5.97628">
        <ele>1218</ele>
        <time>2018-09-08T15:46:20Z</time>
      </trkpt>
      <trkpt lat="46.3894" lon="5.97633">
        <ele>1218</ele>
        <time>2018-09-08T15:46:25Z</time>
      </trkpt>
      <trkpt lat="46.38941" lon="5.97645">
        <ele>1218</ele>
        <time>2018-09-08T15:46:35Z</time>
      </trkpt>
      <trkpt lat="46.38941" lon="5.97649">
        <ele>1219</ele>
        <time>2018-09-08T15:46:40Z</time>
      </trkpt>
      <trkpt lat="46.3894" lon="5.97651">
        <ele>1219</ele>
        <time>2018-09-08T15:46:45Z</time>
      </trkpt>
      <trkpt lat="46.38939" lon="5.97653">
        <ele>1219</ele>
        <time>2018-09-08T15:46:50Z</time>
      </trkpt>
      <trkpt lat="46.38937" lon="5.97656">
        <ele>1220</ele>
        <time>2018-09-08T15:46:55Z</time>
      </trkpt>
      <trkpt lat="46.38936" lon="5.97667">
        <ele>1221</ele>
        <time>2018-09-08T15:47:05Z</time>
      </trkpt>
      <trkpt lat="46.38934" lon="5.9767">
        <ele>1221</ele>
        <time>2018-09-08T15:47:10Z</time>
      </trkpt>
      <trkpt lat="46.38933" lon="5.97674">
        <ele>1222</ele>
        <time>2018-09-08T15:47:15Z</time>
      </trkpt>
      <trkpt lat="46.38932" lon="5.97675">
        <ele>1222</ele>
        <time>2018-09-08T15:47:20Z</time>
      </trkpt>
      <trkpt lat="46.38927" lon="5.97679">
        <ele>1223</ele>
        <time>2018-09-08T15:47:30Z</time>
      </trkpt>
      <trkpt lat="46.38925" lon="5.97684">
        <ele>1224</ele>
        <time>2018-09-08T15:47:35Z</time>
      </trkpt>
      <trkpt lat="46.38923" lon="5.97689">
        <ele>1225</ele>
        <time>2018-09-08T15:47:40Z</time>
      </trkpt>
      <trkpt lat="46.38921" lon="5.97691">
        <ele>1225</ele>
        <time>2018-09-08T15:47:45Z</time>
      </trkpt>
      <trkpt lat="46.38917" lon="5.97697">
        <ele>1227</ele>
        <time>2018-09-08T15:47:55Z</time>
      </trkpt>
      <trkpt lat="46.38915" lon="5.97701">
        <ele>1227</ele>
        <time>2018-09-08T15:48:00Z</time>
      </trkpt>
      <trkpt lat="46.38912" lon="5.97705">
        <ele>1228</ele>
        <time>2018-09-08T15:48:05Z</time>
      </trkpt>
      <trkpt lat="46.38909" lon="5.97706">
        <ele>1229</ele>
        <time>2018-09-08T15:48:10Z</time>
      </trkpt>
      <trkpt lat="46.38904" lon="5.97706">
        <ele>1231</ele>
        <time>2018-09-08T15:48:15Z</time>
      </trkpt>
      <trkpt lat="46.389" lon="5.97704">
        <ele>1231</ele>
        <time>2018-09-08T15:48:25Z</time>
      </trkpt>
      <trkpt lat="46.38898" lon="5.97699">
        <ele>1232</ele>
        <time>2018-09-08T15:48:30Z</time>
      </trkpt>
      <trkpt lat="46.38896" lon="5.97695">
        <ele>1232</ele>
        <time>2018-09-08T15:48:35Z</time>
      </trkpt>
      <trkpt lat="46.38892" lon="5.9769">
        <ele>1232</ele>
        <time>2018-09-08T15:48:40Z</time>
      </trkpt>
      <trkpt lat="46.38885" lon="5.97681">
        <ele>1233</ele>
        <time>2018-09-08T15:48:50Z</time>
      </trkpt>
      <trkpt lat="46.38881" lon="5.97676">
        <ele>1234</ele>
        <time>2018-09-08T15:48:55Z</time>
      </trkpt>
      <trkpt lat="46.38879" lon="5.97679">
        <ele>1235</ele>
        <time>2018-09-08T15:49:00Z</time>
      </trkpt>
      <trkpt lat="46.38877" lon="5.97684">
        <ele>1236</ele>
        <time>2018-09-08T15:49:05Z</time>
      </trkpt>
      <trkpt lat="46.38874" lon="5.97691">
        <ele>1238</ele>
        <time>2018-09-08T15:49:15Z</time>
      </trkpt>
      <trkpt lat="46.38871" lon="5.97693">
        <ele>1239</ele>
        <time>2018-09-08T15:49:20Z</time>
      </trkpt>
      <trkpt lat="46.38871" lon="5.97696">
        <ele>1239</ele>
        <time>2018-09-08T15:49:25Z</time>
      </trkpt>
      <trkpt lat="46.38871" lon="5.97701">
        <ele>1240</ele>
        <time>2018-09-08T15:49:30Z</time>
      </trkpt>
      <trkpt lat="46.38872" lon="5.97706">
        <ele>1240</ele>
        <time>2018-09-08T15:49:35Z</time>
      </trkpt>
      <trkpt lat="46.38876" lon="5.97715">
        <ele>1240</ele>
        <time>2018-09-08T15:49:45Z</time>
      </trkpt>
      <trkpt lat="46.38875" lon="5.97719">
        <ele>1241</ele>
        <time>2018-09-08T15:49:50Z</time>
      </trkpt>
      <trkpt lat="46.38874" lon="5.97721">
        <ele>1241</ele>
        <time>2018-09-08T15:49:55Z</time>
      </trkpt>
      <trkpt lat="46.38874" lon="5.97722">
        <ele>1241</ele>
        <time>2018-09-08T15:50:00Z</time>
      </trkpt>
      <trkpt lat="46.38874" lon="5.97724">
        <ele>1241</ele>
        <time>2018-09-08T15:50:10Z</time>
      </trkpt>
      <trkpt lat="46.38874" lon="5.97723">
        <ele>1241</ele>
        <time>2018-09-08T15:50:15Z</time>
      </trkpt>
      <trkpt lat="46.38875" lon="5.97723">
        <ele>1241</ele>
        <time>2018-09-08T15:50:20Z</time>
      </trkpt>
      <trkpt lat="46.38876" lon="5.97722">
        <ele>1241</ele>
        <time>2018-09-08T15:50:25Z</time>
      </trkpt>
      <trkpt lat="46.38875" lon="5.97724">
        <ele>1241</ele>
        <time>2018-09-08T15:50:30Z</time>
      </trkpt>
      <trkpt lat="46.38877" lon="5.97729">
        <ele>1241</ele>
        <time>2018-09-08T15:50:40Z</time>
      </trkpt>
      <trkpt lat="46.38882" lon="5.97735">
        <ele>1240</ele>
        <time>2018-09-08T15:50:45Z</time>
      </trkpt>
      <trkpt lat="46.38886" lon="5.9774">
        <ele>1240</ele>
        <time>2018-09-08T15:50:50Z</time>
      </trkpt>
      <trkpt lat="46.38887" lon="5.97752">
        <ele>1241</ele>
        <time>2018-09-08T15:50:55Z</time>
      </trkpt>
      <trkpt lat="46.38892" lon="5.97764">
        <ele>1241</ele>
        <time>2018-09-08T15:51:05Z</time>
      </trkpt>
      <trkpt lat="46.38892" lon="5.97774">
        <ele>1242</ele>
        <time>2018-09-08T15:51:10Z</time>
      </trkpt>
      <trkpt lat="46.38894" lon="5.97787">
        <ele>1243</ele>
        <time>2018-09-08T15:51:15Z</time>
      </trkpt>
      <trkpt lat="46.38897" lon="5.97794">
        <ele>1243</ele>
        <time>2018-09-08T15:51:20Z</time>
      </trkpt>
      <trkpt lat="46.38902" lon="5.97804">
        <ele>1243</ele>
        <time>2018-09-08T15:51:30Z</time>
      </trkpt>
      <trkpt lat="46.38906" lon="5.9781">
        <ele>1243</ele>
        <time>2018-09-08T15:51:35Z</time>
      </trkpt>
      <trkpt lat="46.38909" lon="5.97817">
        <ele>1244</ele>
        <time>2018-09-08T15:51:40Z</time>
      </trkpt>
      <trkpt lat="46.38913" lon="5.97821">
        <ele>1243</ele>
        <time>2018-09-08T15:51:45Z</time>
      </trkpt>
      <trkpt lat="46.38915" lon="5.97826">
        <ele>1244</ele>
        <time>2018-09-08T15:51:50Z</time>
      </trkpt>
      <trkpt lat="46.38919" lon="5.97835">
        <ele>1244</ele>
        <time>2018-09-08T15:52:00Z</time>
      </trkpt>
      <trkpt lat="46.38922" lon="5.97841">
        <ele>1245</ele>
        <time>2018-09-08T15:52:05Z</time>
      </trkpt>
      <trkpt lat="46.38923" lon="5.97846">
        <ele>1245</ele>
        <time>2018-09-08T15:52:10Z</time>
      </trkpt>
      <trkpt lat="46.38925" lon="5.97852">
        <ele>1246</ele>
        <time>2018-09-08T15:52:15Z</time>
      </trkpt>
      <trkpt lat="46.38932" lon="5.9786">
        <ele>1246</ele>
        <time>2018-09-08T15:52:25Z</time>
      </trkpt>
      <trkpt lat="46.38932" lon="5.9787">
        <ele>1247</ele>
        <time>2018-09-08T15:52:30Z</time>
      </trkpt>
      <trkpt lat="46.38937" lon="5.9787">
        <ele>1246</ele>
        <time>2018-09-08T15:52:35Z</time>
      </trkpt>
      <trkpt lat="46.3894" lon="5.97869">
        <ele>1246</ele>
        <time>2018-09-08T15:52:40Z</time>
      </trkpt>
      <trkpt lat="46.38943" lon="5.9787">
        <ele>1245</ele>
        <time>2018-09-08T15:52:50Z</time>
      </trkpt>
      <trkpt lat="46.3894" lon="5.97872">
        <ele>1246</ele>
        <time>2018-09-08T15:52:55Z</time>
      </trkpt>
      <trkpt lat="46.38938" lon="5.97871">
        <ele>1246</ele>
        <time>2018-09-08T15:53:00Z</time>
      </trkpt>
      <trkpt lat="46.38938" lon="5.97872">
        <ele>1247</ele>
        <time>2018-09-08T15:53:05Z</time>
      </trkpt>
      <trkpt lat="46.38938" lon="5.97872">
        <ele>1247</ele>
        <time>2018-09-08T15:53:10Z</time>
      </trkpt>
      <trkpt lat="46.38936" lon="5.97877">
        <ele>1248</ele>
        <time>2018-09-08T15:53:20Z</time>
      </trkpt>
      <trkpt lat="46.38934" lon="5.9788">
        <ele>1249</ele>
        <time>2018-09-08T15:53:25Z</time>
      </trkpt>
      <trkpt lat="46.38934" lon="5.97884">
        <ele>1249</ele>
        <time>2018-09-08T15:53:30Z</time>
      </trkpt>
      <trkpt lat="46.38934" lon="5.97887">
        <ele>1250</ele>
        <time>2018-09-08T15:53:35Z</time>
      </trkpt>
      <trkpt lat="46.38935" lon="5.97895">
        <ele>1251</ele>
        <time>2018-09-08T15:53:45Z</time>
      </trkpt>
      <trkpt lat="46.38938" lon="5.97904">
        <ele>1252</ele>
        <time>2018-09-08T15:53:50Z</time>
      </trkpt>
      <trkpt lat="46.38942" lon="5.97912">
        <ele>1252</ele>
        <time>2018-09-08T15:53:55Z</time>
      </trkpt>
      <trkpt lat="46.38944" lon="5.97918">
        <ele>1253</ele>
        <time>2018-09-08T15:54:00Z</time>
      </trkpt>
      <trkpt lat="46.38952" lon="5.97934">
        <ele>1254</ele>
        <time>2018-09-08T15:54:10Z</time>
      </trkpt>
      <trkpt lat="46.38954" lon="5.97935">
        <ele>1254</ele>
        <time>2018-09-08T15:54:15Z</time>
      </trkpt>
      <trkpt lat="46.38956" lon="5.97936">
        <ele>1254</ele>
        <time>2018-09-08T15:54:20Z</time>
      </trkpt>
      <trkpt lat="46.3896" lon="5.9794">
        <ele>1253</ele>
        <time>2018-09-08T15:54:25Z</time>
      </trkpt>
      <trkpt lat="46.38963" lon="5.97942">
        <ele>1253</ele>
        <time>2018-09-08T15:54:30Z</time>
      </trkpt>
      <trkpt lat="46.38963" lon="5.97948">
        <ele>1254</ele>
        <time>2018-09-08T15:54:40Z</time>
      </trkpt>
      <trkpt lat="46.38964" lon="5.97955">
        <ele>1254</ele>
        <time>2018-09-08T15:54:45Z</time>
      </trkpt>
      <trkpt lat="46.38964" lon="5.97966">
        <ele>1256</ele>
        <time>2018-09-08T15:54:50Z</time>
      </trkpt>
      <trkpt lat="46.38963" lon="5.97975">
        <ele>1257</ele>
        <time>2018-09-08T15:54:55Z</time>
      </trkpt>
      <trkpt lat="46.38967" lon="5.97988">
        <ele>1258</ele>
        <time>2018-09-08T15:55:05Z</time>
      </trkpt>
      <trkpt lat="46.38968" lon="5.97993">
        <ele>1259</ele>
        <time>2018-09-08T15:55:10Z</time>
      </trkpt>
      <trkpt lat="46.3897" lon="5.97999">
        <ele>1259</ele>
        <time>2018-09-08T15:55:15Z</time>
      </trkpt>
      <trkpt lat="46.38969" lon="5.98004">
        <ele>1260</ele>
        <time>2018-09-08T15:55:20Z</time>
      </trkpt>
      <trkpt lat="46.38967" lon="5.98009">
        <ele>1260</ele>
        <time>2018-09-08T15:55:25Z</time>
      </trkpt>
      <trkpt lat="46.38962" lon="5.98013">
        <ele>1262</ele>
        <time>2018-09-08T15:55:35Z</time>
      </trkpt>
      <trkpt lat="46.38962" lon="5.98018">
        <ele>1262</ele>
        <time>2018-09-08T15:55:40Z</time>
      </trkpt>
      <trkpt lat="46.3896" lon="5.98021">
        <ele>1263</ele>
        <time>2018-09-08T15:55:45Z</time>
      </trkpt>
      <trkpt lat="46.38956" lon="5.98026">
        <ele>1264</ele>
        <time>2018-09-08T15:55:50Z</time>
      </trkpt>
      <trkpt lat="46.3895" lon="5.98034">
        <ele>1265</ele>
        <time>2018-09-08T15:56:00Z</time>
      </trkpt>
      <trkpt lat="46.38945" lon="5.98038">
        <ele>1266</ele>
        <time>2018-09-08T15:56:05Z</time>
      </trkpt>
      <trkpt lat="46.38941" lon="5.98041">
        <ele>1267</ele>
        <time>2018-09-08T15:56:10Z</time>
      </trkpt>
      <trkpt lat="46.38936" lon="5.98043">
        <ele>1268</ele>
        <time>2018-09-08T15:56:15Z</time>
      </trkpt>
      <trkpt lat="46.38928" lon="5.98048">
        <ele>1270</ele>
        <time>2018-09-08T15:56:25Z</time>
      </trkpt>
      <trkpt lat="46.38924" lon="5.9805">
        <ele>1271</ele>
        <time>2018-09-08T15:56:30Z</time>
      </trkpt>
      <trkpt lat="46.38922" lon="5.98052">
        <ele>1271</ele>
        <time>2018-09-08T15:56:35Z</time>
      </trkpt>
      <trkpt lat="46.38917" lon="5.98054">
        <ele>1272</ele>
        <time>2018-09-08T15:56:40Z</time>
      </trkpt>
      <trkpt lat="46.38914" lon="5.98058">
        <ele>1273</ele>
        <time>2018-09-08T15:56:45Z</time>
      </trkpt>
      <trkpt lat="46.3891" lon="5.98064">
        <ele>1274</ele>
        <time>2018-09-08T15:56:55Z</time>
      </trkpt>
      <trkpt lat="46.38908" lon="5.98068">
        <ele>1275</ele>
        <time>2018-09-08T15:57:00Z</time>
      </trkpt>
      <trkpt lat="46.38905" lon="5.98071">
        <ele>1276</ele>
        <time>2018-09-08T15:57:05Z</time>
      </trkpt>
      <trkpt lat="46.38902" lon="5.98074">
        <ele>1276</ele>
        <time>2018-09-08T15:57:10Z</time>
      </trkpt>
      <trkpt lat="46.38898" lon="5.98082">
        <ele>1277</ele>
        <time>2018-09-08T15:57:20Z</time>
      </trkpt>
      <trkpt lat="46.38898" lon="5.98091">
        <ele>1278</ele>
        <time>2018-09-08T15:57:25Z</time>
      </trkpt>
      <trkpt lat="46.38897" lon="5.98098">
        <ele>1278</ele>
        <time>2018-09-08T15:57:30Z</time>
      </trkpt>
      <trkpt lat="46.38896" lon="5.98104">
        <ele>1279</ele>
        <time>2018-09-08T15:57:35Z</time>
      </trkpt>
      <trkpt lat="46.38895" lon="5.98115">
        <ele>1280</ele>
        <time>2018-09-08T15:57:45Z</time>
      </trkpt>
      <trkpt lat="46.38894" lon="5.98123">
        <ele>1281</ele>
        <time>2018-09-08T15:57:50Z</time>
      </trkpt>
      <trkpt lat="46.38894" lon="5.98131">
        <ele>1281</ele>
        <time>2018-09-08T15:57:55Z</time>
      </trkpt>
      <trkpt lat="46.38893" lon="5.98138">
        <ele>1282</ele>
        <time>2018-09-08T15:58:00Z</time>
      </trkpt>
      <trkpt lat="46.38893" lon="5.98147">
        <ele>1282</ele>
        <time>2018-09-08T15:58:05Z</time>
      </trkpt>
      <trkpt lat="46.38893" lon="5.98159">
        <ele>1283</ele>
        <time>2018-09-08T15:58:15Z</time>
      </trkpt>
      <trkpt lat="46.38893" lon="5.98166">
        <ele>1284</ele>
        <time>2018-09-08T15:58:20Z</time>
      </trkpt>
      <trkpt lat="46.38893" lon="5.98172">
        <ele>1284</ele>
        <time>2018-09-08T15:58:25Z</time>
      </trkpt>
      <trkpt lat="46.38893" lon="5.9818">
        <ele>1285</ele>
        <time>2018-09-08T15:58:30Z</time>
      </trkpt>
      <trkpt lat="46.38885" lon="5.98194">
        <ele>1286</ele>
        <time>2018-09-08T15:58:40Z</time>
      </trkpt>
      <trkpt lat="46.3888" lon="5.98196">
        <ele>1286</ele>
        <time>2018-09-08T15:58:45Z</time>
      </trkpt>
      <trkpt lat="46.38875" lon="5.98196">
        <ele>1286</ele>
        <time>2018-09-08T15:58:50Z</time>
      </trkpt>
      <trkpt lat="46.38869" lon="5.98194">
        <ele>1286</ele>
        <time>2018-09-08T15:58:55Z</time>
      </trkpt>
      <trkpt lat="46.38858" lon="5.98191">
        <ele>1287</ele>
        <time>2018-09-08T15:59:05Z</time>
      </trkpt>
      <trkpt lat="46.38854" lon="5.98191">
        <ele>1287</ele>
        <time>2018-09-08T15:59:10Z</time>
      </trkpt>
      <trkpt lat="46.3885" lon="5.98192">
        <ele>1287</ele>
        <time>2018-09-08T15:59:15Z</time>
      </trkpt>
      <trkpt lat="46.38846" lon="5.98194">
        <ele>1287</ele>
        <time>2018-09-08T15:59:20Z</time>
      </trkpt>
      <trkpt lat="46.38841" lon="5.98197">
        <ele>1287</ele>
        <time>2018-09-08T15:59:25Z</time>
      </trkpt>
      <trkpt lat="46.38835" lon="5.98201">
        <ele>1288</ele>
        <time>2018-09-08T15:59:35Z</time>
      </trkpt>
      <trkpt lat="46.38833" lon="5.98203">
        <ele>1288</ele>
        <time>2018-09-08T15:59:40Z</time>
      </trkpt>
      <trkpt lat="46.38829" lon="5.98206">
        <ele>1288</ele>
        <time>2018-09-08T15:59:45Z</time>
      </trkpt>
      <trkpt lat="46.38824" lon="5.98205">
        <ele>1287</ele>
        <time>2018-09-08T15:59:50Z</time>
      </trkpt>
      <trkpt lat="46.38819" lon="5.98208">
        <ele>1287</ele>
        <time>2018-09-08T16:00:00Z</time>
      </trkpt>
      <trkpt lat="46.38818" lon="5.98211">
        <ele>1288</ele>
        <time>2018-09-08T16:00:05Z</time>
      </trkpt>
      <trkpt lat="46.38816" lon="5.98214">
        <ele>1288</ele>
        <time>2018-09-08T16:00:10Z</time>
      </trkpt>
      <trkpt lat="46.38813" lon="5.98216">
        <ele>1288</ele>
        <time>2018-09-08T16:00:15Z</time>
      </trkpt>
      <trkpt lat="46.38812" lon="5.98217">
        <ele>1288</ele>
        <time>2018-09-08T16:00:20Z</time>
      </trkpt>
      <trkpt lat="46.38815" lon="5.98224">
        <ele>1289</ele>
        <time>2018-09-08T16:00:30Z</time>
      </trkpt>
      <trkpt lat="46.38816" lon="5.98224">
        <ele>1289</ele>
        <time>2018-09-08T16:00:35Z</time>
      </trkpt>
      <trkpt lat="46.38817" lon="5.98223">
        <ele>1289</ele>
        <time>2018-09-08T16:00:40Z</time>
      </trkpt>
      <trkpt lat="46.38818" lon="5.9822">
        <ele>1288</ele>
        <time>2018-09-08T16:00:45Z</time>
      </trkpt>
      <trkpt lat="46.3882" lon="5.98217">
        <ele>1288</ele>
        <time>2018-09-08T16:00:55Z</time>
      </trkpt>
      <trkpt lat="46.3882" lon="5.98218">
        <ele>1288</ele>
        <time>2018-09-08T16:01:00Z</time>
      </trkpt>
      <trkpt lat="46.38817" lon="5.9822">
        <ele>1288</ele>
        <time>2018-09-08T16:01:05Z</time>
      </trkpt>
      <trkpt lat="46.38813" lon="5.98218">
        <ele>1288</ele>
        <time>2018-09-08T16:01:10Z</time>
      </trkpt>
      <trkpt lat="46.38806" lon="5.98222">
        <ele>1288</ele>
        <time>2018-09-08T16:01:20Z</time>
      </trkpt>
      <trkpt lat="46.38802" lon="5.98225">
        <ele>1288</ele>
        <time>2018-09-08T16:01:25Z</time>
      </trkpt>
      <trkpt lat="46.388" lon="5.98231">
        <ele>1288</ele>
        <time>2018-09-08T16:01:30Z</time>
      </trkpt>
      <trkpt lat="46.38799" lon="5.98238">
        <ele>1289</ele>
        <time>2018-09-08T16:01:35Z</time>
      </trkpt>
      <trkpt lat="46.38797" lon="5.98246">
        <ele>1290</ele>
        <time>2018-09-08T16:01:40Z</time>
      </trkpt>
      <trkpt lat="46.38791" lon="5.98258">
        <ele>1290</ele>
        <time>2018-09-08T16:01:50Z</time>
      </trkpt>
      <trkpt lat="46.38789" lon="5.98262">
        <ele>1290</ele>
        <time>2018-09-08T16:01:55Z</time>
      </trkpt>
      <trkpt lat="46.38787" lon="5.98268">
        <ele>1291</ele>
        <time>2018-09-08T16:02:00Z</time>
      </trkpt>
      <trkpt lat="46.38785" lon="5.98274">
        <ele>1291</ele>
        <time>2018-09-08T16:02:05Z</time>
      </trkpt>
      <trkpt lat="46.3878" lon="5.9828">
        <ele>1291</ele>
        <time>2018-09-08T16:02:15Z</time>
      </trkpt>
      <trkpt lat="46.38776" lon="5.98283">
        <ele>1291</ele>
        <time>2018-09-08T16:02:20Z</time>
      </trkpt>
      <trkpt lat="46.38772" lon="5.98286">
        <ele>1291</ele>
        <time>2018-09-08T16:02:25Z</time>
      </trkpt>
      <trkpt lat="46.38772" lon="5.98286">
        <ele>1291</ele>
        <time>2018-09-08T16:02:30Z</time>
      </trkpt>
      <trkpt lat="46.38772" lon="5.98286">
        <ele>1291</ele>
        <time>2018-09-08T16:02:40Z</time>
      </trkpt>
      <trkpt lat="46.38771" lon="5.98286">
        <ele>1291</ele>
        <time>2018-09-08T16:02:45Z</time>
      </trkpt>
      <trkpt lat="46.38771" lon="5.98286">
        <ele>1291</ele>
        <time>2018-09-08T16:02:50Z</time>
      </trkpt>
      <trkpt lat="46.38771" lon="5.98286">
        <ele>1291</ele>
        <time>2018-09-08T16:02:55Z</time>
      </trkpt>
      <trkpt lat="46.38771" lon="5.98286">
        <ele>1291</ele>
        <time>2018-09-08T16:03:00Z</time>
      </trkpt>
      <trkpt lat="46.38772" lon="5.98286">
        <ele>1291</ele>
        <time>2018-09-08T16:03:10Z</time>
      </trkpt>
      <trkpt lat="46.38773" lon="5.98287">
        <ele>1291</ele>
        <time>2018-09-08T16:03:15Z</time>
      </trkpt>
      <trkpt lat="46.38773" lon="5.98288">
        <ele>1292</ele>
        <time>2018-09-08T16:03:20Z</time>
      </trkpt>
      <trkpt lat="46.38774" lon="5.98289">
        <ele>1292</ele>
        <time>2018-09-08T16:03:25Z</time>
      </trkpt>
      <trkpt lat="46.38773" lon="5.98303">
        <ele>1293</ele>
        <time>2018-09-08T16:03:35Z</time>
      </trkpt>
      <trkpt lat="46.38774" lon="5.9831">
        <ele>1294</ele>
        <time>2018-09-08T16:03:40Z</time>
      </trkpt>
      <trkpt lat="46.38775" lon="5.98315">
        <ele>1294</ele>
        <time>2018-09-08T16:03:45Z</time>
      </trkpt>
      <trkpt lat="46.38774" lon="5.98317">
        <ele>1295</ele>
        <time>2018-09-08T16:03:50Z</time>
      </trkpt>
      <trkpt lat="46.38773" lon="5.98318">
        <ele>1295</ele>
        <time>2018-09-08T16:03:55Z</time>
      </trkpt>
      <trkpt lat="46.38772" lon="5.98322">
        <ele>1295</ele>
        <time>2018-09-08T16:04:05Z</time>
      </trkpt>
      <trkpt lat="46.38773" lon="5.98326">
        <ele>1295</ele>
        <time>2018-09-08T16:04:10Z</time>
      </trkpt>
      <trkpt lat="46.38772" lon="5.9833">
        <ele>1296</ele>
        <time>2018-09-08T16:04:15Z</time>
      </trkpt>
      <trkpt lat="46.38772" lon="5.98332">
        <ele>1296</ele>
        <time>2018-09-08T16:04:20Z</time>
      </trkpt>
      <trkpt lat="46.38771" lon="5.98344">
        <ele>1297</ele>
        <time>2018-09-08T16:04:30Z</time>
      </trkpt>
      <trkpt lat="46.38771" lon="5.98349">
        <ele>1298</ele>
        <time>2018-09-08T16:04:35Z</time>
      </trkpt>
      <trkpt lat="46.38771" lon="5.98353">
        <ele>1298</ele>
        <time>2018-09-08T16:04:40Z</time>
      </trkpt>
      <trkpt lat="46.38771" lon="5.98356">
        <ele>1298</ele>
        <time>2018-09-08T16:04:45Z</time>
      </trkpt>
      <trkpt lat="46.38775" lon="5.98358">
        <ele>1299</ele>
        <time>2018-09-08T16:04:55Z</time>
      </trkpt>
      <trkpt lat="46.38777" lon="5.98362">
        <ele>1299</ele>
        <time>2018-09-08T16:05:00Z</time>
      </trkpt>
      <trkpt lat="46.38777" lon="5.98364">
        <ele>1299</ele>
        <time>2018-09-08T16:05:05Z</time>
      </trkpt>
      <trkpt lat="46.38778" lon="5.98367">
        <ele>1300</ele>
        <time>2018-09-08T16:05:10Z</time>
      </trkpt>
      <trkpt lat="46.38777" lon="5.9837">
        <ele>1300</ele>
        <time>2018-09-08T16:05:15Z</time>
      </trkpt>
      <trkpt lat="46.38779" lon="5.98381">
        <ele>1301</ele>
        <time>2018-09-08T16:05:25Z</time>
      </trkpt>
      <trkpt lat="46.38779" lon="5.98387">
        <ele>1301</ele>
        <time>2018-09-08T16:05:30Z</time>
      </trkpt>
      <trkpt lat="46.38779" lon="5.98392">
        <ele>1302</ele>
        <time>2018-09-08T16:05:35Z</time>
      </trkpt>
      <trkpt lat="46.38777" lon="5.98397">
        <ele>1302</ele>
        <time>2018-09-08T16:05:40Z</time>
      </trkpt>
      <trkpt lat="46.38773" lon="5.98407">
        <ele>1303</ele>
        <time>2018-09-08T16:05:50Z</time>
      </trkpt>
      <trkpt lat="46.38773" lon="5.98413">
        <ele>1303</ele>
        <time>2018-09-08T16:05:55Z</time>
      </trkpt>
      <trkpt lat="46.38772" lon="5.98419">
        <ele>1304</ele>
        <time>2018-09-08T16:06:00Z</time>
      </trkpt>
      <trkpt lat="46.38771" lon="5.98424">
        <ele>1304</ele>
        <time>2018-09-08T16:06:05Z</time>
      </trkpt>
      <trkpt lat="46.38772" lon="5.98435">
        <ele>1305</ele>
        <time>2018-09-08T16:06:15Z</time>
      </trkpt>
      <trkpt lat="46.38773" lon="5.98441">
        <ele>1306</ele>
        <time>2018-09-08T16:06:20Z</time>
      </trkpt>
      <trkpt lat="46.38774" lon="5.98447">
        <ele>1306</ele>
        <time>2018-09-08T16:06:25Z</time>
      </trkpt>
      <trkpt lat="46.38773" lon="5.98451">
        <ele>1307</ele>
        <time>2018-09-08T16:06:30Z</time>
      </trkpt>
      <trkpt lat="46.38773" lon="5.98453">
        <ele>1307</ele>
        <time>2018-09-08T16:06:35Z</time>
      </trkpt>
      <trkpt lat="46.38772" lon="5.98452">
        <ele>1307</ele>
        <time>2018-09-08T16:06:45Z</time>
      </trkpt>
      <trkpt lat="46.38772" lon="5.98453">
        <ele>1307</ele>
        <time>2018-09-08T16:06:50Z</time>
      </trkpt>
      <trkpt lat="46.38777" lon="5.98456">
        <ele>1307</ele>
        <time>2018-09-08T16:06:55Z</time>
      </trkpt>
      <trkpt lat="46.38777" lon="5.98461">
        <ele>1308</ele>
        <time>2018-09-08T16:07:00Z</time>
      </trkpt>
      <trkpt lat="46.38773" lon="5.98471">
        <ele>1308</ele>
        <time>2018-09-08T16:07:10Z</time>
      </trkpt>
      <trkpt lat="46.38771" lon="5.98477">
        <ele>1309</ele>
        <time>2018-09-08T16:07:15Z</time>
      </trkpt>
      <trkpt lat="46.38768" lon="5.98483">
        <ele>1309</ele>
        <time>2018-09-08T16:07:20Z</time>
      </trkpt>
      <trkpt lat="46.38766" lon="5.98488">
        <ele>1309</ele>
        <time>2018-09-08T16:07:25Z</time>
      </trkpt>
      <trkpt lat="46.38769" lon="5.985">
        <ele>1310</ele>
        <time>2018-09-08T16:07:35Z</time>
      </trkpt>
      <trkpt lat="46.38769" lon="5.98508">
        <ele>1311</ele>
        <time>2018-09-08T16:07:40Z</time>
      </trkpt>
      <trkpt lat="46.38768" lon="5.98515">
        <ele>1311</ele>
        <time>2018-09-08T16:07:45Z</time>
      </trkpt>
      <trkpt lat="46.38768" lon="5.98522">
        <ele>1312</ele>
        <time>2018-09-08T16:07:50Z</time>
      </trkpt>
      <trkpt lat="46.38768" lon="5.98528">
        <ele>1312</ele>
        <time>2018-09-08T16:07:55Z</time>
      </trkpt>
      <trkpt lat="46.3877" lon="5.98537">
        <ele>1313</ele>
        <time>2018-09-08T16:08:05Z</time>
      </trkpt>
      <trkpt lat="46.38771" lon="5.98543">
        <ele>1314</ele>
        <time>2018-09-08T16:08:10Z</time>
      </trkpt>
      <trkpt lat="46.38769" lon="5.98548">
        <ele>1314</ele>
        <time>2018-09-08T16:08:15Z</time>
      </trkpt>
      <trkpt lat="46.38767" lon="5.98551">
        <ele>1313</ele>
        <time>2018-09-08T16:08:20Z</time>
      </trkpt>
      <trkpt lat="46.38763" lon="5.98556">
        <ele>1313</ele>
        <time>2018-09-08T16:08:30Z</time>
      </trkpt>
      <trkpt lat="46.38761" lon="5.98559">
        <ele>1313</ele>
        <time>2018-09-08T16:08:35Z</time>
      </trkpt>
      <trkpt lat="46.3876" lon="5.98562">
        <ele>1313</ele>
        <time>2018-09-08T16:08:40Z</time>
      </trkpt>
      <trkpt lat="46.38759" lon="5.98566">
        <ele>1313</ele>
        <time>2018-09-08T16:08:45Z</time>
      </trkpt>
      <trkpt lat="46.38759" lon="5.98568">
        <ele>1313</ele>
        <time>2018-09-08T16:08:50Z</time>
      </trkpt>
      <trkpt lat="46.38761" lon="5.98566">
        <ele>1313</ele>
        <time>2018-09-08T16:09:00Z</time>
      </trkpt>
      <trkpt lat="46.38764" lon="5.98566">
        <ele>1314</ele>
        <time>2018-09-08T16:09:05Z</time>
      </trkpt>
      <trkpt lat="46.38767" lon="5.98566">
        <ele>1314</ele>
        <time>2018-09-08T16:09:10Z</time>
      </trkpt>
      <trkpt lat="46.38768" lon="5.98568">
        <ele>1314</ele>
        <time>2018-09-08T16:09:15Z</time>
      </trkpt>
      <trkpt lat="46.38769" lon="5.98574">
        <ele>1315</ele>
        <time>2018-09-08T16:09:25Z</time>
      </trkpt>
      <trkpt lat="46.38768" lon="5.98579">
        <ele>1315</ele>
        <time>2018-09-08T16:09:30Z</time>
      </trkpt>
      <trkpt lat="46.3877" lon="5.98586">
        <ele>1316</ele>
        <time>2018-09-08T16:09:35Z</time>
      </trkpt>
      <trkpt lat="46.38773" lon="5.98591">
        <ele>1316</ele>
        <time>2018-09-08T16:09:40Z</time>
      </trkpt>
      <trkpt lat="46.38773" lon="5.98602">
        <ele>1317</ele>
        <time>2018-09-08T16:09:50Z</time>
      </trkpt>
      <trkpt lat="46.38774" lon="5.98607">
        <ele>1317</ele>
        <time>2018-09-08T16:09:55Z</time>
      </trkpt>
      <trkpt lat="46.38776" lon="5.98612">
        <ele>1317</ele>
        <time>2018-09-08T16:10:00Z</time>
      </trkpt>
      <trkpt lat="46.38777" lon="5.9862">
        <ele>1318</ele>
        <time>2018-09-08T16:10:05Z</time>
      </trkpt>
      <trkpt lat="46.38779" lon="5.98623">
        <ele>1318</ele>
        <time>2018-09-08T16:10:10Z</time>
      </trkpt>
      <trkpt lat="46.38785" lon="5.98627">
        <ele>1319</ele>
        <time>2018-09-08T16:10:20Z</time>
      </trkpt>
      <trkpt lat="46.38789" lon="5.98627">
        <ele>1320</ele>
        <time>2018-09-08T16:10:25Z</time>
      </trkpt>
      <trkpt lat="46.38792" lon="5.98629">
        <ele>1320</ele>
        <time>2018-09-08T16:10:30Z</time>
      </trkpt>
      <trkpt lat="46.38795" lon="5.98631">
        <ele>1321</ele>
        <time>2018-09-08T16:10:35Z</time>
      </trkpt>
      <trkpt lat="46.38799" lon="5.98637">
        <ele>1322</ele>
        <time>2018-09-08T16:10:45Z</time>
      </trkpt>
      <trkpt lat="46.38797" lon="5.98642">
        <ele>1322</ele>
        <time>2018-09-08T16:10:50Z</time>
      </trkpt>
      <trkpt lat="46.38794" lon="5.98646">
        <ele>1322</ele>
        <time>2018-09-08T16:10:55Z</time>
      </trkpt>
      <trkpt lat="46.38795" lon="5.9865">
        <ele>1322</ele>
        <time>2018-09-08T16:11:00Z</time>
      </trkpt>
      <trkpt lat="46.38797" lon="5.98662">
        <ele>1323</ele>
        <time>2018-09-08T16:11:10Z</time>
      </trkpt>
      <trkpt lat="46.38799" lon="5.98666">
        <ele>1324</ele>
        <time>2018-09-08T16:11:15Z</time>
      </trkpt>
      <trkpt lat="46.38798" lon="5.98672">
        <ele>1324</ele>
        <time>2018-09-08T16:11:20Z</time>
      </trkpt>
      <trkpt lat="46.38798" lon="5.98673">
        <ele>1324</ele>
        <time>2018-09-08T16:11:25Z</time>
      </trkpt>
      <trkpt lat="46.38797" lon="5.98677">
        <ele>1325</ele>
        <time>2018-09-08T16:11:30Z</time>
      </trkpt>
      <trkpt lat="46.38797" lon="5.98688">
        <ele>1325</ele>
        <time>2018-09-08T16:11:40Z</time>
      </trkpt>
      <trkpt lat="46.38798" lon="5.98693">
        <ele>1326</ele>
        <time>2018-09-08T16:11:45Z</time>
      </trkpt>
      <trkpt lat="46.38799" lon="5.98695">
        <ele>1326</ele>
        <time>2018-09-08T16:11:50Z</time>
      </trkpt>
      <trkpt lat="46.388" lon="5.98697">
        <ele>1326</ele>
        <time>2018-09-08T16:11:55Z</time>
      </trkpt>
      <trkpt lat="46.38799" lon="5.98697">
        <ele>1326</ele>
        <time>2018-09-08T16:12:05Z</time>
      </trkpt>
      <trkpt lat="46.38799" lon="5.987">
        <ele>1326</ele>
        <time>2018-09-08T16:12:10Z</time>
      </trkpt>
      <trkpt lat="46.388" lon="5.98705">
        <ele>1327</ele>
        <time>2018-09-08T16:12:15Z</time>
      </trkpt>
      <trkpt lat="46.388" lon="5.9871">
        <ele>1327</ele>
        <time>2018-09-08T16:12:20Z</time>
      </trkpt>
      <trkpt lat="46.38803" lon="5.98715">
        <ele>1328</ele>
        <time>2018-09-08T16:12:25Z</time>
      </trkpt>
      <trkpt lat="46.38806" lon="5.98721">
        <ele>1329</ele>
        <time>2018-09-08T16:12:35Z</time>
      </trkpt>
      <trkpt lat="46.38806" lon="5.98726">
        <ele>1329</ele>
        <time>2018-09-08T16:12:40Z</time>
      </trkpt>
      <trkpt lat="46.38805" lon="5.9873">
        <ele>1329</ele>
        <time>2018-09-08T16:12:45Z</time>
      </trkpt>
      <trkpt lat="46.38807" lon="5.98734">
        <ele>1330</ele>
        <time>2018-09-08T16:12:50Z</time>
      </trkpt>
      <trkpt lat="46.38804" lon="5.98744">
        <ele>1330</ele>
        <time>2018-09-08T16:13:00Z</time>
      </trkpt>
      <trkpt lat="46.38805" lon="5.98749">
        <ele>1330</ele>
        <time>2018-09-08T16:13:05Z</time>
      </trkpt>
      <trkpt lat="46.38806" lon="5.98757">
        <ele>1331</ele>
        <time>2018-09-08T16:13:10Z</time>
      </trkpt>
      <trkpt lat="46.38804" lon="5.98762">
        <ele>1331</ele>
        <time>2018-09-08T16:13:15Z</time>
      </trkpt>
      <trkpt lat="46.38802" lon="5.9877">
        <ele>1331</ele>
        <time>2018-09-08T16:13:25Z</time>
      </trkpt>
      <trkpt lat="46.38801" lon="5.98775">
        <ele>1331</ele>
        <time>2018-09-08T16:13:30Z</time>
      </trkpt>
      <trkpt lat="46.38802" lon="5.98778">
        <ele>1331</ele>
        <time>2018-09-08T16:13:35Z</time>
      </trkpt>
      <trkpt lat="46.38801" lon="5.98774">
        <ele>1331</ele>
        <time>2018-09-08T16:13:40Z</time>
      </trkpt>
      <trkpt lat="46.38802" lon="5.98768">
        <ele>1330</ele>
        <time>2018-09-08T16:13:45Z</time>
      </trkpt>
      <trkpt lat="46.38802" lon="5.98766">
        <ele>1331</ele>
        <time>2018-09-08T16:13:55Z</time>
      </trkpt>
      <trkpt lat="46.38804" lon="5.98766">
        <ele>1331</ele>
        <time>2018-09-08T16:14:00Z</time>
      </trkpt>
      <trkpt lat="46.38804" lon="5.98766">
        <ele>1331</ele>
        <time>2018-09-08T16:14:05Z</time>
      </trkpt>
      <trkpt lat="46.38804" lon="5.98767">
        <ele>1331</ele>
        <time>2018-09-08T16:14:10Z</time>
      </trkpt>
      <trkpt lat="46.38802" lon="5.98764">
        <ele>1330</ele>
        <time>2018-09-08T16:14:20Z</time>
      </trkpt>
      <trkpt lat="46.38802" lon="5.98762">
        <ele>1330</ele>
        <time>2018-09-08T16:14:25Z</time>
      </trkpt>
      <trkpt lat="46.38802" lon="5.98762">
        <ele>1330</ele>
        <time>2018-09-08T16:14:30Z</time>
      </trkpt>
      <trkpt lat="46.38802" lon="5.9876">
        <ele>1330</ele>
        <time>2018-09-08T16:14:35Z</time>
      </trkpt>
      <trkpt lat="46.38799" lon="5.98762">
        <ele>1330</ele>
        <time>2018-09-08T16:14:45Z</time>
      </trkpt>
      <trkpt lat="46.38797" lon="5.98764">
        <ele>1329</ele>
        <time>2018-09-08T16:14:50Z</time>
      </trkpt>
      <trkpt lat="46.38798" lon="5.98765">
        <ele>1330</ele>
        <time>2018-09-08T16:14:55Z</time>
      </trkpt>
      <trkpt lat="46.38798" lon="5.98765">
        <ele>1330</ele>
        <time>2018-09-08T16:15:00Z</time>
      </trkpt>
      <trkpt lat="46.38798" lon="5.98765">
        <ele>1330</ele>
        <time>2018-09-08T16:15:05Z</time>
      </trkpt>
      <trkpt lat="46.38799" lon="5.98766">
        <ele>1330</ele>
        <time>2018-09-08T16:15:15Z</time>
      </trkpt>
      <trkpt lat="46.38799" lon="5.98767">
        <ele>1330</ele>
        <time>2018-09-08T16:15:20Z</time>
      </trkpt>
      <trkpt lat="46.38799" lon="5.98767">
        <ele>1330</ele>
        <time>2018-09-08T16:15:25Z</time>
      </trkpt>
      <trkpt lat="46.38799" lon="5.98767">
        <ele>1330</ele>
        <time>2018-09-08T16:15:30Z</time>
      </trkpt>
      <trkpt lat="46.38799" lon="5.98767">
        <ele>1330</ele>
        <time>2018-09-08T16:15:40Z</time>
      </trkpt>
      <trkpt lat="46.38799" lon="5.98767">
        <ele>1330</ele>
        <time>2018-09-08T16:15:45Z</time>
      </trkpt>
      <trkpt lat="46.38799" lon="5.98767">
        <ele>1330</ele>
        <time>2018-09-08T16:15:50Z</time>
      </trkpt>
      <trkpt lat="46.38799" lon="5.98767">
        <ele>1330</ele>
        <time>2018-09-08T16:15:55Z</time>
      </trkpt>
      <trkpt lat="46.38799" lon="5.98766">
        <ele>1330</ele>
        <time>2018-09-08T16:16:05Z</time>
      </trkpt>
      <trkpt lat="46.38799" lon="5.98767">
        <ele>1330</ele>
        <time>2018-09-08T16:16:10Z</time>
      </trkpt>
      <trkpt lat="46.38799" lon="5.98767">
        <ele>1330</ele>
        <time>2018-09-08T16:16:15Z</time>
      </trkpt>
      <trkpt lat="46.38799" lon="5.98767">
        <ele>1330</ele>
        <time>2018-09-08T16:16:20Z</time>
      </trkpt>
      <trkpt lat="46.38799" lon="5.98767">
        <ele>1330</ele>
        <time>2018-09-08T16:16:25Z</time>
      </trkpt>
      <trkpt lat="46.38798" lon="5.98766">
        <ele>1330</ele>
        <time>2018-09-08T16:16:35Z</time>
      </trkpt>
      <trkpt lat="46.38798" lon="5.98766">
        <ele>1330</ele>
        <time>2018-09-08T16:16:40Z</time>
      </trkpt>
      <trkpt lat="46.38799" lon="5.98767">
        <ele>1330</ele>
        <time>2018-09-08T16:16:45Z</time>
      </trkpt>
      <trkpt lat="46.38799" lon="5.98768">
        <ele>1330</ele>
        <time>2018-09-08T16:16:50Z</time>
      </trkpt>
      <trkpt lat="46.38799" lon="5.98768">
        <ele>1330</ele>
        <time>2018-09-08T16:17:00Z</time>
      </trkpt>
      <trkpt lat="46.38799" lon="5.98768">
        <ele>1330</ele>
        <time>2018-09-08T16:17:05Z</time>
      </trkpt>
      <trkpt lat="46.38799" lon="5.98768">
        <ele>1330</ele>
        <time>2018-09-08T16:17:10Z</time>
      </trkpt>
      <trkpt lat="46.38798" lon="5.98768">
        <ele>1330</ele>
        <time>2018-09-08T16:17:15Z</time>
      </trkpt>
      <trkpt lat="46.38797" lon="5.98768">
        <ele>1329</ele>
        <time>2018-09-08T16:17:20Z</time>
      </trkpt>
      <trkpt lat="46.38797" lon="5.98767">
        <ele>1329</ele>
        <time>2018-09-08T16:17:30Z</time>
      </trkpt>
      <trkpt lat="46.38797" lon="5.98767">
        <ele>1329</ele>
        <time>2018-09-08T16:17:35Z</time>
      </trkpt>
      <trkpt lat="46.38797" lon="5.98767">
        <ele>1329</ele>
        <time>2018-09-08T16:17:40Z</time>
      </trkpt>
      <trkpt lat="46.38797" lon="5.98767">
        <ele>1329</ele>
        <time>2018-09-08T16:17:45Z</time>
      </trkpt>
      <trkpt lat="46.38797" lon="5.98765">
        <ele>1329</ele>
        <time>2018-09-08T16:17:55Z</time>
      </trkpt>
      <trkpt lat="46.38797" lon="5.98764">
        <ele>1329</ele>
        <time>2018-09-08T16:18:00Z</time>
      </trkpt>
      <trkpt lat="46.38797" lon="5.98764">
        <ele>1329</ele>
        <time>2018-09-08T16:18:05Z</time>
      </trkpt>
      <trkpt lat="46.38797" lon="5.98764">
        <ele>1329</ele>
        <time>2018-09-08T16:18:10Z</time>
      </trkpt>
      <trkpt lat="46.38797" lon="5.98764">
        <ele>1329</ele>
        <time>2018-09-08T16:18:20Z</time>
      </trkpt>
      <trkpt lat="46.38797" lon="5.98764">
        <ele>1329</ele>
        <time>2018-09-08T16:18:25Z</time>
      </trkpt>
      <trkpt lat="46.38797" lon="5.98764">
        <ele>1329</ele>
        <time>2018-09-08T16:18:30Z</time>
      </trkpt>
      <trkpt lat="46.38797" lon="5.98764">
        <ele>1329</ele>
        <time>2018-09-08T16:18:35Z</time>
      </trkpt>
      <trkpt lat="46.38797" lon="5.98764">
        <ele>1329</ele>
        <time>2018-09-08T16:18:40Z</time>
      </trkpt>
      <trkpt lat="46.38797" lon="5.98764">
        <ele>1329</ele>
        <time>2018-09-08T16:18:50Z</time>
      </trkpt>
      <trkpt lat="46.38797" lon="5.98764">
        <ele>1329</ele>
        <time>2018-09-08T16:18:55Z</time>
      </trkpt>
      <trkpt lat="46.38797" lon="5.98764">
        <ele>1329</ele>
        <time>2018-09-08T16:19:00Z</time>
      </trkpt>
      <trkpt lat="46.38797" lon="5.98764">
        <ele>1329</ele>
        <time>2018-09-08T16:19:05Z</time>
      </trkpt>
      <trkpt lat="46.38797" lon="5.98764">
        <ele>1329</ele>
        <time>2018-09-08T16:19:15Z</time>
      </trkpt>
      <trkpt lat="46.38797" lon="5.98764">
        <ele>1329</ele>
        <time>2018-09-08T16:19:20Z</time>
      </trkpt>
      <trkpt lat="46.38797" lon="5.98764">
        <ele>1329</ele>
        <time>2018-09-08T16:19:25Z</time>
      </trkpt>
      <trkpt lat="46.38797" lon="5.98763">
        <ele>1329</ele>
        <time>2018-09-08T16:19:30Z</time>
      </trkpt>
      <trkpt lat="46.38797" lon="5.98762">
        <ele>1329</ele>
        <time>2018-09-08T16:19:40Z</time>
      </trkpt>
      <trkpt lat="46.38798" lon="5.98762">
        <ele>1329</ele>
        <time>2018-09-08T16:19:45Z</time>
      </trkpt>
      <trkpt lat="46.38799" lon="5.98763">
        <ele>1330</ele>
        <time>2018-09-08T16:19:50Z</time>
      </trkpt>
      <trkpt lat="46.38799" lon="5.98763">
        <ele>1330</ele>
        <time>2018-09-08T16:19:55Z</time>
      </trkpt>
      <trkpt lat="46.38799" lon="5.98763">
        <ele>1330</ele>
        <time>2018-09-08T16:20:00Z</time>
      </trkpt>
      <trkpt lat="46.388" lon="5.98764">
        <ele>1330</ele>
        <time>2018-09-08T16:20:10Z</time>
      </trkpt>
      <trkpt lat="46.388" lon="5.98764">
        <ele>1330</ele>
        <time>2018-09-08T16:20:15Z</time>
      </trkpt>
      <trkpt lat="46.388" lon="5.98764">
        <ele>1330</ele>
        <time>2018-09-08T16:20:20Z</time>
      </trkpt>
      <trkpt lat="46.388" lon="5.98765">
        <ele>1330</ele>
        <time>2018-09-08T16:20:25Z</time>
      </trkpt>
      <trkpt lat="46.38799" lon="5.98765">
        <ele>1330</ele>
        <time>2018-09-08T16:20:35Z</time>
      </trkpt>
      <trkpt lat="46.38799" lon="5.98765">
        <ele>1330</ele>
        <time>2018-09-08T16:20:40Z</time>
      </trkpt>
      <trkpt lat="46.38799" lon="5.98765">
        <ele>1330</ele>
        <time>2018-09-08T16:20:45Z</time>
      </trkpt>
      <trkpt lat="46.388" lon="5.98765">
        <ele>1330</ele>
        <time>2018-09-08T16:20:50Z</time>
      </trkpt>
      <trkpt lat="46.38799" lon="5.98764">
        <ele>1330</ele>
        <time>2018-09-08T16:21:00Z</time>
      </trkpt>
      <trkpt lat="46.38799" lon="5.98764">
        <ele>1330</ele>
        <time>2018-09-08T16:21:05Z</time>
      </trkpt>
      <trkpt lat="46.388" lon="5.98764">
        <ele>1330</ele>
        <time>2018-09-08T16:21:10Z</time>
      </trkpt>
      <trkpt lat="46.388" lon="5.98765">
        <ele>1330</ele>
        <time>2018-09-08T16:21:15Z</time>
      </trkpt>
      <trkpt lat="46.38801" lon="5.98766">
        <ele>1330</ele>
        <time>2018-09-08T16:21:20Z</time>
      </trkpt>
      <trkpt lat="46.38799" lon="5.9877">
        <ele>1330</ele>
        <time>2018-09-08T16:21:30Z</time>
      </trkpt>
      <trkpt lat="46.38799" lon="5.98771">
        <ele>1330</ele>
        <time>2018-09-08T16:21:35Z</time>
      </trkpt>
      <trkpt lat="46.388" lon="5.98771">
        <ele>1330</ele>
        <time>2018-09-08T16:21:40Z</time>
      </trkpt>
      <trkpt lat="46.388" lon="5.98773">
        <ele>1330</ele>
        <time>2018-09-08T16:21:45Z</time>
      </trkpt>
      <trkpt lat="46.388" lon="5.98774">
        <ele>1330</ele>
        <time>2018-09-08T16:21:55Z</time>
      </trkpt>
      <trkpt lat="46.38801" lon="5.98775">
        <ele>1331</ele>
        <time>2018-09-08T16:22:00Z</time>
      </trkpt>
      <trkpt lat="46.38804" lon="5.98776">
        <ele>1331</ele>
        <time>2018-09-08T16:22:05Z</time>
      </trkpt>
      <trkpt lat="46.38805" lon="5.98776">
        <ele>1331</ele>
        <time>2018-09-08T16:22:10Z</time>
      </trkpt>
      <trkpt lat="46.38806" lon="5.98776">
        <ele>1332</ele>
        <time>2018-09-08T16:22:15Z</time>
      </trkpt>
      <trkpt lat="46.38808" lon="5.98773">
        <ele>1332</ele>
        <time>2018-09-08T16:22:25Z</time>
      </trkpt>
      <trkpt lat="46.38806" lon="5.98772">
        <ele>1331</ele>
        <time>2018-09-08T16:22:30Z</time>
      </trkpt>
      <trkpt lat="46.38805" lon="5.98772">
        <ele>1331</ele>
        <time>2018-09-08T16:22:35Z</time>
      </trkpt>
      <trkpt lat="46.38804" lon="5.98772">
        <ele>1331</ele>
        <time>2018-09-08T16:22:40Z</time>
      </trkpt>
      <trkpt lat="46.38802" lon="5.9877">
        <ele>1331</ele>
        <time>2018-09-08T16:22:50Z</time>
      </trkpt>
      <trkpt lat="46.38802" lon="5.9877">
        <ele>1331</ele>
        <time>2018-09-08T16:22:55Z</time>
      </trkpt>
      <trkpt lat="46.38802" lon="5.9877">
        <ele>1331</ele>
        <time>2018-09-08T16:23:00Z</time>
      </trkpt>
      <trkpt lat="46.38801" lon="5.98771">
        <ele>1330</ele>
        <time>2018-09-08T16:23:05Z</time>
      </trkpt>
      <trkpt lat="46.388" lon="5.98772">
        <ele>1330</ele>
        <time>2018-09-08T16:23:15Z</time>
      </trkpt>
      <trkpt lat="46.38799" lon="5.98776">
        <ele>1330</ele>
        <time>2018-09-08T16:23:20Z</time>
      </trkpt>
      <trkpt lat="46.38799" lon="5.98782">
        <ele>1331</ele>
        <time>2018-09-08T16:23:25Z</time>
      </trkpt>
      <trkpt lat="46.388" lon="5.98787">
        <ele>1331</ele>
        <time>2018-09-08T16:23:30Z</time>
      </trkpt>
      <trkpt lat="46.38801" lon="5.98795">
        <ele>1331</ele>
        <time>2018-09-08T16:23:35Z</time>
      </trkpt>
      <trkpt lat="46.38799" lon="5.98806">
        <ele>1332</ele>
        <time>2018-09-08T16:23:45Z</time>
      </trkpt>
      <trkpt lat="46.38796" lon="5.98812">
        <ele>1331</ele>
        <time>2018-09-08T16:23:50Z</time>
      </trkpt>
      <trkpt lat="46.38795" lon="5.98819">
        <ele>1331</ele>
        <time>2018-09-08T16:23:55Z</time>
      </trkpt>
      <trkpt lat="46.38794" lon="5.98826">
        <ele>1331</ele>
        <time>2018-09-08T16:24:00Z</time>
      </trkpt>
      <trkpt lat="46.38788" lon="5.98837">
        <ele>1330</ele>
        <time>2018-09-08T16:24:10Z</time>
      </trkpt>
      <trkpt lat="46.38788" lon="5.98844">
        <ele>1330</ele>
        <time>2018-09-08T16:24:15Z</time>
      </trkpt>
      <trkpt lat="46.38787" lon="5.98851">
        <ele>1330</ele>
        <time>2018-09-08T16:24:20Z</time>
      </trkpt>
      <trkpt lat="46.38787" lon="5.98857">
        <ele>1330</ele>
        <time>2018-09-08T16:24:25Z</time>
      </trkpt>
      <trkpt lat="46.3879" lon="5.98871">
        <ele>1330</ele>
        <time>2018-09-08T16:24:35Z</time>
      </trkpt>
      <trkpt lat="46.3879" lon="5.98875">
        <ele>1330</ele>
        <time>2018-09-08T16:24:40Z</time>
      </trkpt>
      <trkpt lat="46.38791" lon="5.98877">
        <ele>1330</ele>
        <time>2018-09-08T16:24:45Z</time>
      </trkpt>
      <trkpt lat="46.38792" lon="5.98881">
        <ele>1330</ele>
        <time>2018-09-08T16:24:50Z</time>
      </trkpt>
      <trkpt lat="46.38792" lon="5.98886">
        <ele>1330</ele>
        <time>2018-09-08T16:24:55Z</time>
      </trkpt>
      <trkpt lat="46.38791" lon="5.98894">
        <ele>1330</ele>
        <time>2018-09-08T16:25:05Z</time>
      </trkpt>
      <trkpt lat="46.38791" lon="5.98897">
        <ele>1329</ele>
        <time>2018-09-08T16:25:10Z</time>
      </trkpt>
      <trkpt lat="46.38792" lon="5.98901">
        <ele>1329</ele>
        <time>2018-09-08T16:25:15Z</time>
      </trkpt>
      <trkpt lat="46.38792" lon="5.98903">
        <ele>1329</ele>
        <time>2018-09-08T16:25:20Z</time>
      </trkpt>
      <trkpt lat="46.38791" lon="5.98906">
        <ele>1329</ele>
        <time>2018-09-08T16:25:30Z</time>
      </trkpt>
      <trkpt lat="46.38793" lon="5.98909">
        <ele>1329</ele>
        <time>2018-09-08T16:25:35Z</time>
      </trkpt>
      <trkpt lat="46.38793" lon="5.98912">
        <ele>1329</ele>
        <time>2018-09-08T16:25:40Z</time>
      </trkpt>
      <trkpt lat="46.38793" lon="5.98913">
        <ele>1329</ele>
        <time>2018-09-08T16:25:45Z</time>
      </trkpt>
      <trkpt lat="46.38794" lon="5.98916">
        <ele>1329</ele>
        <time>2018-09-08T16:25:50Z</time>
      </trkpt>
      <trkpt lat="46.38792" lon="5.98921">
        <ele>1328</ele>
        <time>2018-09-08T16:26:00Z</time>
      </trkpt>
      <trkpt lat="46.38789" lon="5.98922">
        <ele>1328</ele>
        <time>2018-09-08T16:26:05Z</time>
      </trkpt>
      <trkpt lat="46.38787" lon="5.98923">
        <ele>1327</ele>
        <time>2018-09-08T16:26:10Z</time>
      </trkpt>
      <trkpt lat="46.38785" lon="5.98927">
        <ele>1327</ele>
        <time>2018-09-08T16:26:15Z</time>
      </trkpt>
      <trkpt lat="46.38779" lon="5.98935">
        <ele>1325</ele>
        <time>2018-09-08T16:26:25Z</time>
      </trkpt>
      <trkpt lat="46.38776" lon="5.98937">
        <ele>1324</ele>
        <time>2018-09-08T16:26:30Z</time>
      </trkpt>
      <trkpt lat="46.38775" lon="5.98939">
        <ele>1324</ele>
        <time>2018-09-08T16:26:35Z</time>
      </trkpt>
      <trkpt lat="46.38773" lon="5.9894">
        <ele>1324</ele>
        <time>2018-09-08T16:26:40Z</time>
      </trkpt>
      <trkpt lat="46.3877" lon="5.98947">
        <ele>1323</ele>
        <time>2018-09-08T16:26:50Z</time>
      </trkpt>
      <trkpt lat="46.38768" lon="5.98951">
        <ele>1322</ele>
        <time>2018-09-08T16:26:55Z</time>
      </trkpt>
      <trkpt lat="46.38767" lon="5.98956">
        <ele>1321</ele>
        <time>2018-09-08T16:27:00Z</time>
      </trkpt>
      <trkpt lat="46.38765" lon="5.9896">
        <ele>1320</ele>
        <time>2018-09-08T16:27:05Z</time>
      </trkpt>
      <trkpt lat="46.38762" lon="5.98965">
        <ele>1319</ele>
        <time>2018-09-08T16:27:10Z</time>
      </trkpt>
      <trkpt lat="46.38754" lon="5.98972">
        <ele>1317</ele>
        <time>2018-09-08T16:27:20Z</time>
      </trkpt>
      <trkpt lat="46.38752" lon="5.98976">
        <ele>1316</ele>
        <time>2018-09-08T16:27:25Z</time>
      </trkpt>
      <trkpt lat="46.3875" lon="5.98979">
        <ele>1315</ele>
        <time>2018-09-08T16:27:30Z</time>
      </trkpt>
      <trkpt lat="46.38748" lon="5.98982">
        <ele>1314</ele>
        <time>2018-09-08T16:27:35Z</time>
      </trkpt>
      <trkpt lat="46.38743" lon="5.98988">
        <ele>1313</ele>
        <time>2018-09-08T16:27:45Z</time>
      </trkpt>
      <trkpt lat="46.38741" lon="5.98993">
        <ele>1312</ele>
        <time>2018-09-08T16:27:50Z</time>
      </trkpt>
      <trkpt lat="46.38738" lon="5.98997">
        <ele>1311</ele>
        <time>2018-09-08T16:27:55Z</time>
      </trkpt>
      <trkpt lat="46.38735" lon="5.99003">
        <ele>1310</ele>
        <time>2018-09-08T16:28:00Z</time>
      </trkpt>
      <trkpt lat="46.3873" lon="5.99008">
        <ele>1308</ele>
        <time>2018-09-08T16:28:10Z</time>
      </trkpt>
      <trkpt lat="46.38728" lon="5.99011">
        <ele>1308</ele>
        <time>2018-09-08T16:28:15Z</time>
      </trkpt>
      <trkpt lat="46.38726" lon="5.99014">
        <ele>1307</ele>
        <time>2018-09-08T16:28:20Z</time>
      </trkpt>
      <trkpt lat="46.38724" lon="5.99016">
        <ele>1306</ele>
        <time>2018-09-08T16:28:25Z</time>
      </trkpt>
      <trkpt lat="46.38722" lon="5.99017">
        <ele>1306</ele>
        <time>2018-09-08T16:28:30Z</time>
      </trkpt>
      <trkpt lat="46.38719" lon="5.99023">
        <ele>1305</ele>
        <time>2018-09-08T16:28:40Z</time>
      </trkpt>
      <trkpt lat="46.38719" lon="5.99027">
        <ele>1305</ele>
        <time>2018-09-08T16:28:45Z</time>
      </trkpt>
      <trkpt lat="46.38719" lon="5.99031">
        <ele>1305</ele>
        <time>2018-09-08T16:28:50Z</time>
      </trkpt>
      <trkpt lat="46.3872" lon="5.99036">
        <ele>1304</ele>
        <time>2018-09-08T16:28:55Z</time>
      </trkpt>
      <trkpt lat="46.3872" lon="5.99045">
        <ele>1304</ele>
        <time>2018-09-08T16:29:05Z</time>
      </trkpt>
      <trkpt lat="46.3872" lon="5.99051">
        <ele>1304</ele>
        <time>2018-09-08T16:29:10Z</time>
      </trkpt>
      <trkpt lat="46.38721" lon="5.99057">
        <ele>1303</ele>
        <time>2018-09-08T16:29:15Z</time>
      </trkpt>
      <trkpt lat="46.3872" lon="5.99061">
        <ele>1303</ele>
        <time>2018-09-08T16:29:20Z</time>
      </trkpt>
      <trkpt lat="46.38718" lon="5.99073">
        <ele>1302</ele>
        <time>2018-09-08T16:29:30Z</time>
      </trkpt>
      <trkpt lat="46.38718" lon="5.99078">
        <ele>1301</ele>
        <time>2018-09-08T16:29:35Z</time>
      </trkpt>
      <trkpt lat="46.38718" lon="5.99084">
        <ele>1301</ele>
        <time>2018-09-08T16:29:40Z</time>
      </trkpt>
      <trkpt lat="46.38718" lon="5.99091">
        <ele>1301</ele>
        <time>2018-09-08T16:29:45Z</time>
      </trkpt>
      <trkpt lat="46.38719" lon="5.99097">
        <ele>1300</ele>
        <time>2018-09-08T16:29:50Z</time>
      </trkpt>
      <trkpt lat="46.38717" lon="5.99111">
        <ele>1299</ele>
        <time>2018-09-08T16:30:00Z</time>
      </trkpt>
      <trkpt lat="46.38718" lon="5.99118">
        <ele>1299</ele>
        <time>2018-09-08T16:30:05Z</time>
      </trkpt>
      <trkpt lat="46.38718" lon="5.99123">
        <ele>1299</ele>
        <time>2018-09-08T16:30:10Z</time>
      </trkpt>
      <trkpt lat="46.38718" lon="5.99131">
        <ele>1299</ele>
        <time>2018-09-08T16:30:15Z</time>
      </trkpt>
      <trkpt lat="46.3872" lon="5.99147">
        <ele>1299</ele>
        <time>2018-09-08T16:30:25Z</time>
      </trkpt>
      <trkpt lat="46.38721" lon="5.99155">
        <ele>1298</ele>
        <time>2018-09-08T16:30:30Z</time>
      </trkpt>
      <trkpt lat="46.38722" lon="5.99165">
        <ele>1298</ele>
        <time>2018-09-08T16:30:35Z</time>
      </trkpt>
      <trkpt lat="46.38723" lon="5.99173">
        <ele>1298</ele>
        <time>2018-09-08T16:30:40Z</time>
      </trkpt>
      <trkpt lat="46.38721" lon="5.99181">
        <ele>1298</ele>
        <time>2018-09-08T16:30:45Z</time>
      </trkpt>
      <trkpt lat="46.38718" lon="5.99191">
        <ele>1297</ele>
        <time>2018-09-08T16:30:55Z</time>
      </trkpt>
      <trkpt lat="46.38717" lon="5.99195">
        <ele>1297</ele>
        <time>2018-09-08T16:31:00Z</time>
      </trkpt>
      <trkpt lat="46.38715" lon="5.99197">
        <ele>1296</ele>
        <time>2018-09-08T16:31:05Z</time>
      </trkpt>
      <trkpt lat="46.38712" lon="5.99197">
        <ele>1296</ele>
        <time>2018-09-08T16:31:10Z</time>
      </trkpt>
      <trkpt lat="46.38709" lon="5.99193">
        <ele>1296</ele>
        <time>2018-09-08T16:31:20Z</time>
      </trkpt>
      <trkpt lat="46.38709" lon="5.99192">
        <ele>1296</ele>
        <time>2018-09-08T16:31:25Z</time>
      </trkpt>
      <trkpt lat="46.38709" lon="5.99192">
        <ele>1296</ele>
        <time>2018-09-08T16:31:30Z</time>
      </trkpt>
      <trkpt lat="46.38709" lon="5.99192">
        <ele>1296</ele>
        <time>2018-09-08T16:31:35Z</time>
      </trkpt>
      <trkpt lat="46.3871" lon="5.99197">
        <ele>1296</ele>
        <time>2018-09-08T16:31:45Z</time>
      </trkpt>
      <trkpt lat="46.38709" lon="5.99198">
        <ele>1295</ele>
        <time>2018-09-08T16:31:50Z</time>
      </trkpt>
      <trkpt lat="46.38709" lon="5.99199">
        <ele>1295</ele>
        <time>2018-09-08T16:31:55Z</time>
      </trkpt>
      <trkpt lat="46.38709" lon="5.99199">
        <ele>1295</ele>
        <time>2018-09-08T16:32:00Z</time>
      </trkpt>
      <trkpt lat="46.38709" lon="5.99199">
        <ele>1295</ele>
        <time>2018-09-08T16:32:05Z</time>
      </trkpt>
      <trkpt lat="46.38709" lon="5.992">
        <ele>1295</ele>
        <time>2018-09-08T16:32:15Z</time>
      </trkpt>
      <trkpt lat="46.38709" lon="5.992">
        <ele>1295</ele>
        <time>2018-09-08T16:32:20Z</time>
      </trkpt>
      <trkpt lat="46.38709" lon="5.99199">
        <ele>1295</ele>
        <time>2018-09-08T16:32:25Z</time>
      </trkpt>
      <trkpt lat="46.38709" lon="5.99199">
        <ele>1295</ele>
        <time>2018-09-08T16:32:30Z</time>
      </trkpt>
      <trkpt lat="46.38709" lon="5.99198">
        <ele>1295</ele>
        <time>2018-09-08T16:32:40Z</time>
      </trkpt>
      <trkpt lat="46.38709" lon="5.99199">
        <ele>1295</ele>
        <time>2018-09-08T16:32:45Z</time>
      </trkpt>
      <trkpt lat="46.38712" lon="5.992">
        <ele>1296</ele>
        <time>2018-09-08T16:32:50Z</time>
      </trkpt>
      <trkpt lat="46.38713" lon="5.99203">
        <ele>1296</ele>
        <time>2018-09-08T16:32:55Z</time>
      </trkpt>
      <trkpt lat="46.38714" lon="5.99202">
        <ele>1296</ele>
        <time>2018-09-08T16:33:05Z</time>
      </trkpt>
      <trkpt lat="46.38713" lon="5.99202">
        <ele>1296</ele>
        <time>2018-09-08T16:33:10Z</time>
      </trkpt>
      <trkpt lat="46.38713" lon="5.99201">
        <ele>1296</ele>
        <time>2018-09-08T16:33:15Z</time>
      </trkpt>
      <trkpt lat="46.38714" lon="5.99201">
        <ele>1296</ele>
        <time>2018-09-08T16:33:20Z</time>
      </trkpt>
      <trkpt lat="46.38713" lon="5.99201">
        <ele>1296</ele>
        <time>2018-09-08T16:33:25Z</time>
      </trkpt>
      <trkpt lat="46.38717" lon="5.99206">
        <ele>1296</ele>
        <time>2018-09-08T16:33:35Z</time>
      </trkpt>
      <trkpt lat="46.38721" lon="5.99213">
        <ele>1297</ele>
        <time>2018-09-08T16:33:40Z</time>
      </trkpt>
      <trkpt lat="46.38725" lon="5.9922">
        <ele>1297</ele>
        <time>2018-09-08T16:33:45Z</time>
      </trkpt>
      <trkpt lat="46.38728" lon="5.99229">
        <ele>1297</ele>
        <time>2018-09-08T16:33:50Z</time>
      </trkpt>
      <trkpt lat="46.38735" lon="5.99245">
        <ele>1297</ele>
        <time>2018-09-08T16:34:00Z</time>
      </trkpt>
      <trkpt lat="46.38738" lon="5.99253">
        <ele>1298</ele>
        <time>2018-09-08T16:34:05Z</time>
      </trkpt>
      <trkpt lat="46.38741" lon="5.9926">
        <ele>1298</ele>
        <time>2018-09-08T16:34:10Z</time>
      </trkpt>
      <trkpt lat="46.38746" lon="5.99265">
        <ele>1298</ele>
        <time>2018-09-08T16:34:15Z</time>
      </trkpt>
      <trkpt lat="46.38753" lon="5.99277">
        <ele>1298</ele>
        <time>2018-09-08T16:34:25Z</time>
      </trkpt>
      <trkpt lat="46.38757" lon="5.99282">
        <ele>1298</ele>
        <time>2018-09-08T16:34:30Z</time>
      </trkpt>
      <trkpt lat="46.38761" lon="5.99288">
        <ele>1299</ele>
        <time>2018-09-08T16:34:35Z</time>
      </trkpt>
      <trkpt lat="46.38764" lon="5.99294">
        <ele>1299</ele>
        <time>2018-09-08T16:34:40Z</time>
      </trkpt>
      <trkpt lat="46.38768" lon="5.993">
        <ele>1299</ele>
        <time>2018-09-08T16:34:45Z</time>
      </trkpt>
      <trkpt lat="46.38776" lon="5.9931">
        <ele>1299</ele>
        <time>2018-09-08T16:34:55Z</time>
      </trkpt>
      <trkpt lat="46.38779" lon="5.99314">
        <ele>1300</ele>
        <time>2018-09-08T16:35:00Z</time>
      </trkpt>
      <trkpt lat="46.38782" lon="5.99319">
        <ele>1300</ele>
        <time>2018-09-08T16:35:05Z</time>
      </trkpt>
      <trkpt lat="46.38786" lon="5.99324">
        <ele>1300</ele>
        <time>2018-09-08T16:35:10Z</time>
      </trkpt>
      <trkpt lat="46.38794" lon="5.99334">
        <ele>1300</ele>
        <time>2018-09-08T16:35:20Z</time>
      </trkpt>
      <trkpt lat="46.38797" lon="5.99339">
        <ele>1301</ele>
        <time>2018-09-08T16:35:25Z</time>
      </trkpt>
      <trkpt lat="46.38801" lon="5.99346">
        <ele>1300</ele>
        <time>2018-09-08T16:35:30Z</time>
      </trkpt>
      <trkpt lat="46.38805" lon="5.9935">
        <ele>1301</ele>
        <time>2018-09-08T16:35:35Z</time>
      </trkpt>
      <trkpt lat="46.38809" lon="5.99355">
        <ele>1301</ele>
        <time>2018-09-08T16:35:40Z</time>
      </trkpt>
      <trkpt lat="46.38819" lon="5.99362">
        <ele>1301</ele>
        <time>2018-09-08T16:35:50Z</time>
      </trkpt>
      <trkpt lat="46.38823" lon="5.99369">
        <ele>1301</ele>
        <time>2018-09-08T16:35:55Z</time>
      </trkpt>
      <trkpt lat="46.38828" lon="5.99373">
        <ele>1301</ele>
        <time>2018-09-08T16:36:00Z</time>
      </trkpt>
      <trkpt lat="46.38833" lon="5.99377">
        <ele>1301</ele>
        <time>2018-09-08T16:36:05Z</time>
      </trkpt>
      <trkpt lat="46.38842" lon="5.99385">
        <ele>1302</ele>
        <time>2018-09-08T16:36:15Z</time>
      </trkpt>
      <trkpt lat="46.38846" lon="5.99389">
        <ele>1302</ele>
        <time>2018-09-08T16:36:20Z</time>
      </trkpt>
      <trkpt lat="46.3885" lon="5.99395">
        <ele>1302</ele>
        <time>2018-09-08T16:36:25Z</time>
      </trkpt>
      <trkpt lat="46.38853" lon="5.99402">
        <ele>1302</ele>
        <time>2018-09-08T16:36:30Z</time>
      </trkpt>
      <trkpt lat="46.38861" lon="5.99412">
        <ele>1303</ele>
        <time>2018-09-08T16:36:40Z</time>
      </trkpt>
      <trkpt lat="46.38864" lon="5.99418">
        <ele>1303</ele>
        <time>2018-09-08T16:36:45Z</time>
      </trkpt>
      <trkpt lat="46.38865" lon="5.99423">
        <ele>1303</ele>
        <time>2018-09-08T16:36:50Z</time>
      </trkpt>
      <trkpt lat="46.38869" lon="5.99429">
        <ele>1303</ele>
        <time>2018-09-08T16:36:55Z</time>
      </trkpt>
      <trkpt lat="46.38872" lon="5.99435">
        <ele>1303</ele>
        <time>2018-09-08T16:37:00Z</time>
      </trkpt>
      <trkpt lat="46.38878" lon="5.99449">
        <ele>1303</ele>
        <time>2018-09-08T16:37:10Z</time>
      </trkpt>
      <trkpt lat="46.38879" lon="5.99458">
        <ele>1302</ele>
        <time>2018-09-08T16:37:15Z</time>
      </trkpt>
      <trkpt lat="46.38883" lon="5.99465">
        <ele>1302</ele>
        <time>2018-09-08T16:37:20Z</time>
      </trkpt>
      <trkpt lat="46.38886" lon="5.99472">
        <ele>1302</ele>
        <time>2018-09-08T16:37:25Z</time>
      </trkpt>
      <trkpt lat="46.38892" lon="5.99489">
        <ele>1302</ele>
        <time>2018-09-08T16:37:35Z</time>
      </trkpt>
      <trkpt lat="46.38895" lon="5.99495">
        <ele>1302</ele>
        <time>2018-09-08T16:37:40Z</time>
      </trkpt>
      <trkpt lat="46.38897" lon="5.99503">
        <ele>1301</ele>
        <time>2018-09-08T16:37:45Z</time>
      </trkpt>
      <trkpt lat="46.38898" lon="5.9951">
        <ele>1301</ele>
        <time>2018-09-08T16:37:50Z</time>
      </trkpt>
      <trkpt lat="46.38898" lon="5.99528">
        <ele>1301</ele>
        <time>2018-09-08T16:38:00Z</time>
      </trkpt>
      <trkpt lat="46.38898" lon="5.99536">
        <ele>1300</ele>
        <time>2018-09-08T16:38:05Z</time>
      </trkpt>
      <trkpt lat="46.389" lon="5.99545">
        <ele>1300</ele>
        <time>2018-09-08T16:38:10Z</time>
      </trkpt>
      <trkpt lat="46.38902" lon="5.99553">
        <ele>1300</ele>
        <time>2018-09-08T16:38:15Z</time>
      </trkpt>
      <trkpt lat="46.38905" lon="5.99559">
        <ele>1300</ele>
        <time>2018-09-08T16:38:20Z</time>
      </trkpt>
      <trkpt lat="46.38909" lon="5.99573">
        <ele>1300</ele>
        <time>2018-09-08T16:38:30Z</time>
      </trkpt>
      <trkpt lat="46.38912" lon="5.9958">
        <ele>1301</ele>
        <time>2018-09-08T16:38:35Z</time>
      </trkpt>
      <trkpt lat="46.38914" lon="5.99587">
        <ele>1301</ele>
        <time>2018-09-08T16:38:40Z</time>
      </trkpt>
      <trkpt lat="46.38917" lon="5.99591">
        <ele>1301</ele>
        <time>2018-09-08T16:38:45Z</time>
      </trkpt>
      <trkpt lat="46.38925" lon="5.99604">
        <ele>1302</ele>
        <time>2018-09-08T16:38:55Z</time>
      </trkpt>
      <trkpt lat="46.38928" lon="5.99608">
        <ele>1302</ele>
        <time>2018-09-08T16:39:00Z</time>
      </trkpt>
      <trkpt lat="46.38932" lon="5.99615">
        <ele>1303</ele>
        <time>2018-09-08T16:39:05Z</time>
      </trkpt>
      <trkpt lat="46.38935" lon="5.99622">
        <ele>1303</ele>
        <time>2018-09-08T16:39:10Z</time>
      </trkpt>
      <trkpt lat="46.38937" lon="5.99629">
        <ele>1303</ele>
        <time>2018-09-08T16:39:15Z</time>
      </trkpt>
      <trkpt lat="46.38941" lon="5.99641">
        <ele>1303</ele>
        <time>2018-09-08T16:39:25Z</time>
      </trkpt>
      <trkpt lat="46.38942" lon="5.99648">
        <ele>1302</ele>
        <time>2018-09-08T16:39:30Z</time>
      </trkpt>
      <trkpt lat="46.38941" lon="5.99654">
        <ele>1302</ele>
        <time>2018-09-08T16:39:35Z</time>
      </trkpt>
      <trkpt lat="46.3894" lon="5.99662">
        <ele>1301</ele>
        <time>2018-09-08T16:39:40Z</time>
      </trkpt>
      <trkpt lat="46.38938" lon="5.99677">
        <ele>1300</ele>
        <time>2018-09-08T16:39:50Z</time>
      </trkpt>
      <trkpt lat="46.38937" lon="5.99684">
        <ele>1300</ele>
        <time>2018-09-08T16:39:55Z</time>
      </trkpt>
      <trkpt lat="46.38936" lon="5.99691">
        <ele>1299</ele>
        <time>2018-09-08T16:40:00Z</time>
      </trkpt>
      <trkpt lat="46.38936" lon="5.99698">
        <ele>1299</ele>
        <time>2018-09-08T16:40:05Z</time>
      </trkpt>
      <trkpt lat="46.38936" lon="5.99713">
        <ele>1298</ele>
        <time>2018-09-08T16:40:15Z</time>
      </trkpt>
      <trkpt lat="46.38936" lon="5.99721">
        <ele>1298</ele>
        <time>2018-09-08T16:40:20Z</time>
      </trkpt>
      <trkpt lat="46.38939" lon="5.99728">
        <ele>1298</ele>
        <time>2018-09-08T16:40:25Z</time>
      </trkpt>
      <trkpt lat="46.3894" lon="5.99736">
        <ele>1298</ele>
        <time>2018-09-08T16:40:30Z</time>
      </trkpt>
      <trkpt lat="46.38943" lon="5.99744">
        <ele>1298</ele>
        <time>2018-09-08T16:40:35Z</time>
      </trkpt>
      <trkpt lat="46.38952" lon="5.99754">
        <ele>1298</ele>
        <time>2018-09-08T16:40:45Z</time>
      </trkpt>
      <trkpt lat="46.38957" lon="5.99758">
        <ele>1298</ele>
        <time>2018-09-08T16:40:50Z</time>
      </trkpt>
      <trkpt lat="46.38962" lon="5.99762">
        <ele>1298</ele>
        <time>2018-09-08T16:40:55Z</time>
      </trkpt>
      <trkpt lat="46.38967" lon="5.99766">
        <ele>1298</ele>
        <time>2018-09-08T16:41:00Z</time>
      </trkpt>
      <trkpt lat="46.38976" lon="5.99773">
        <ele>1298</ele>
        <time>2018-09-08T16:41:10Z</time>
      </trkpt>
      <trkpt lat="46.38981" lon="5.99776">
        <ele>1298</ele>
        <time>2018-09-08T16:41:15Z</time>
      </trkpt>
      <trkpt lat="46.38987" lon="5.99779">
        <ele>1299</ele>
        <time>2018-09-08T16:41:20Z</time>
      </trkpt>
      <trkpt lat="46.38992" lon="5.99782">
        <ele>1299</ele>
        <time>2018-09-08T16:41:25Z</time>
      </trkpt>
      <trkpt lat="46.39" lon="5.99791">
        <ele>1300</ele>
        <time>2018-09-08T16:41:35Z</time>
      </trkpt>
      <trkpt lat="46.39004" lon="5.99796">
        <ele>1300</ele>
        <time>2018-09-08T16:41:40Z</time>
      </trkpt>
      <trkpt lat="46.39007" lon="5.99801">
        <ele>1301</ele>
        <time>2018-09-08T16:41:45Z</time>
      </trkpt>
      <trkpt lat="46.3901" lon="5.99808">
        <ele>1301</ele>
        <time>2018-09-08T16:41:50Z</time>
      </trkpt>
      <trkpt lat="46.39012" lon="5.99815">
        <ele>1301</ele>
        <time>2018-09-08T16:41:55Z</time>
      </trkpt>
      <trkpt lat="46.39017" lon="5.99828">
        <ele>1301</ele>
        <time>2018-09-08T16:42:05Z</time>
      </trkpt>
      <trkpt lat="46.39018" lon="5.99837">
        <ele>1300</ele>
        <time>2018-09-08T16:42:10Z</time>
      </trkpt>
      <trkpt lat="46.39019" lon="5.99846">
        <ele>1300</ele>
        <time>2018-09-08T16:42:15Z</time>
      </trkpt>
      <trkpt lat="46.3902" lon="5.99854">
        <ele>1300</ele>
        <time>2018-09-08T16:42:20Z</time>
      </trkpt>
      <trkpt lat="46.39022" lon="5.99871">
        <ele>1299</ele>
        <time>2018-09-08T16:42:30Z</time>
      </trkpt>
      <trkpt lat="46.39024" lon="5.99879">
        <ele>1298</ele>
        <time>2018-09-08T16:42:35Z</time>
      </trkpt>
      <trkpt lat="46.39025" lon="5.99886">
        <ele>1298</ele>
        <time>2018-09-08T16:42:40Z</time>
      </trkpt>
      <trkpt lat="46.39027" lon="5.99895">
        <ele>1297</ele>
        <time>2018-09-08T16:42:45Z</time>
      </trkpt>
      <trkpt lat="46.3903" lon="5.9991">
        <ele>1296</ele>
        <time>2018-09-08T16:42:55Z</time>
      </trkpt>
      <trkpt lat="46.39033" lon="5.99918">
        <ele>1296</ele>
        <time>2018-09-08T16:43:00Z</time>
      </trkpt>
      <trkpt lat="46.39035" lon="5.99926">
        <ele>1295</ele>
        <time>2018-09-08T16:43:05Z</time>
      </trkpt>
      <trkpt lat="46.39034" lon="5.99934">
        <ele>1295</ele>
        <time>2018-09-08T16:43:10Z</time>
      </trkpt>
      <trkpt lat="46.39035" lon="5.99942">
        <ele>1295</ele>
        <time>2018-09-08T16:43:15Z</time>
      </trkpt>
      <trkpt lat="46.3904" lon="5.99956">
        <ele>1295</ele>
        <time>2018-09-08T16:43:25Z</time>
      </trkpt>
      <trkpt lat="46.39043" lon="5.99963">
        <ele>1295</ele>
        <time>2018-09-08T16:43:30Z</time>
      </trkpt>
      <trkpt lat="46.39046" lon="5.9997">
        <ele>1295</ele>
        <time>2018-09-08T16:43:35Z</time>
      </trkpt>
      <trkpt lat="46.39049" lon="5.99977">
        <ele>1295</ele>
        <time>2018-09-08T16:43:40Z</time>
      </trkpt>
      <trkpt lat="46.39055" lon="5.99991">
        <ele>1295</ele>
        <time>2018-09-08T16:43:50Z</time>
      </trkpt>
      <trkpt lat="46.39057" lon="6">
        <ele>1295</ele>
        <time>2018-09-08T16:43:55Z</time>
      </trkpt>
      <trkpt lat="46.39061" lon="6.00007">
        <ele>1295</ele>
        <time>2018-09-08T16:44:00Z</time>
      </trkpt>
      <trkpt lat="46.39062" lon="6.00016">
        <ele>1295</ele>
        <time>2018-09-08T16:44:05Z</time>
      </trkpt>
      <trkpt lat="46.39064" lon="6.00024">
        <ele>1295</ele>
        <time>2018-09-08T16:44:10Z</time>
      </trkpt>
      <trkpt lat="46.39067" lon="6.0004">
        <ele>1295</ele>
        <time>2018-09-08T16:44:20Z</time>
      </trkpt>
      <trkpt lat="46.39069" lon="6.00048">
        <ele>1295</ele>
        <time>2018-09-08T16:44:25Z</time>
      </trkpt>
      <trkpt lat="46.39072" lon="6.00055">
        <ele>1295</ele>
        <time>2018-09-08T16:44:30Z</time>
      </trkpt>
      <trkpt lat="46.39074" lon="6.00063">
        <ele>1295</ele>
        <time>2018-09-08T16:44:35Z</time>
      </trkpt>
      <trkpt lat="46.39079" lon="6.00078">
        <ele>1295</ele>
        <time>2018-09-08T16:44:45Z</time>
      </trkpt>
      <trkpt lat="46.3908" lon="6.00084">
        <ele>1295</ele>
        <time>2018-09-08T16:44:50Z</time>
      </trkpt>
      <trkpt lat="46.39082" lon="6.00088">
        <ele>1295</ele>
        <time>2018-09-08T16:44:55Z</time>
      </trkpt>
      <trkpt lat="46.39083" lon="6.00093">
        <ele>1295</ele>
        <time>2018-09-08T16:45:00Z</time>
      </trkpt>
      <trkpt lat="46.39085" lon="6.00096">
        <ele>1295</ele>
        <time>2018-09-08T16:45:10Z</time>
      </trkpt>
      <trkpt lat="46.39086" lon="6.00097">
        <ele>1295</ele>
        <time>2018-09-08T16:45:15Z</time>
      </trkpt>
      <trkpt lat="46.39086" lon="6.00097">
        <ele>1295</ele>
        <time>2018-09-08T16:45:20Z</time>
      </trkpt>
      <trkpt lat="46.39087" lon="6.00102">
        <ele>1295</ele>
        <time>2018-09-08T16:45:25Z</time>
      </trkpt>
      <trkpt lat="46.3909" lon="6.00106">
        <ele>1295</ele>
        <time>2018-09-08T16:45:30Z</time>
      </trkpt>
      <trkpt lat="46.39095" lon="6.0011">
        <ele>1295</ele>
        <time>2018-09-08T16:45:40Z</time>
      </trkpt>
      <trkpt lat="46.39095" lon="6.00111">
        <ele>1295</ele>
        <time>2018-09-08T16:45:45Z</time>
      </trkpt>
      <trkpt lat="46.39097" lon="6.00113">
        <ele>1295</ele>
        <time>2018-09-08T16:45:50Z</time>
      </trkpt>
      <trkpt lat="46.39101" lon="6.00116">
        <ele>1295</ele>
        <time>2018-09-08T16:45:55Z</time>
      </trkpt>
      <trkpt lat="46.39108" lon="6.00127">
        <ele>1296</ele>
        <time>2018-09-08T16:46:05Z</time>
      </trkpt>
      <trkpt lat="46.39113" lon="6.00132">
        <ele>1296</ele>
        <time>2018-09-08T16:46:10Z</time>
      </trkpt>
      <trkpt lat="46.39118" lon="6.00137">
        <ele>1296</ele>
        <time>2018-09-08T16:46:15Z</time>
      </trkpt>
      <trkpt lat="46.39123" lon="6.00139">
        <ele>1296</ele>
        <time>2018-09-08T16:46:20Z</time>
      </trkpt>
      <trkpt lat="46.39127" lon="6.00147">
        <ele>1297</ele>
        <time>2018-09-08T16:46:30Z</time>
      </trkpt>
      <trkpt lat="46.39128" lon="6.00148">
        <ele>1297</ele>
        <time>2018-09-08T16:46:35Z</time>
      </trkpt>
      <trkpt lat="46.39131" lon="6.0015">
        <ele>1297</ele>
        <time>2018-09-08T16:46:40Z</time>
      </trkpt>
      <trkpt lat="46.39133" lon="6.0015">
        <ele>1297</ele>
        <time>2018-09-08T16:46:45Z</time>
      </trkpt>
      <trkpt lat="46.39133" lon="6.0015">
        <ele>1297</ele>
        <time>2018-09-08T16:46:50Z</time>
      </trkpt>
      <trkpt lat="46.3914" lon="6.00152">
        <ele>1297</ele>
        <time>2018-09-08T16:47:00Z</time>
      </trkpt>
      <trkpt lat="46.39144" lon="6.00154">
        <ele>1298</ele>
        <time>2018-09-08T16:47:05Z</time>
      </trkpt>
      <trkpt lat="46.39149" lon="6.00157">
        <ele>1298</ele>
        <time>2018-09-08T16:47:10Z</time>
      </trkpt>
      <trkpt lat="46.39154" lon="6.0016">
        <ele>1298</ele>
        <time>2018-09-08T16:47:15Z</time>
      </trkpt>
      <trkpt lat="46.39163" lon="6.00169">
        <ele>1299</ele>
        <time>2018-09-08T16:47:25Z</time>
      </trkpt>
      <trkpt lat="46.39167" lon="6.00173">
        <ele>1299</ele>
        <time>2018-09-08T16:47:30Z</time>
      </trkpt>
      <trkpt lat="46.39172" lon="6.00178">
        <ele>1299</ele>
        <time>2018-09-08T16:47:35Z</time>
      </trkpt>
      <trkpt lat="46.39177" lon="6.00184">
        <ele>1299</ele>
        <time>2018-09-08T16:47:40Z</time>
      </trkpt>
      <trkpt lat="46.39185" lon="6.00197">
        <ele>1299</ele>
        <time>2018-09-08T16:47:50Z</time>
      </trkpt>
      <trkpt lat="46.39189" lon="6.00203">
        <ele>1299</ele>
        <time>2018-09-08T16:47:55Z</time>
      </trkpt>
      <trkpt lat="46.39192" lon="6.00209">
        <ele>1299</ele>
        <time>2018-09-08T16:48:00Z</time>
      </trkpt>
      <trkpt lat="46.39194" lon="6.00216">
        <ele>1299</ele>
        <time>2018-09-08T16:48:05Z</time>
      </trkpt>
      <trkpt lat="46.39197" lon="6.00223">
        <ele>1299</ele>
        <time>2018-09-08T16:48:10Z</time>
      </trkpt>
      <trkpt lat="46.39202" lon="6.00236">
        <ele>1299</ele>
        <time>2018-09-08T16:48:20Z</time>
      </trkpt>
      <trkpt lat="46.39205" lon="6.00242">
        <ele>1299</ele>
        <time>2018-09-08T16:48:25Z</time>
      </trkpt>
      <trkpt lat="46.39207" lon="6.00249">
        <ele>1298</ele>
        <time>2018-09-08T16:48:30Z</time>
      </trkpt>
      <trkpt lat="46.3921" lon="6.00256">
        <ele>1298</ele>
        <time>2018-09-08T16:48:35Z</time>
      </trkpt>
      <trkpt lat="46.39213" lon="6.00265">
        <ele>1298</ele>
        <time>2018-09-08T16:48:45Z</time>
      </trkpt>
      <trkpt lat="46.39213" lon="6.00264">
        <ele>1298</ele>
        <time>2018-09-08T16:48:50Z</time>
      </trkpt>
      <trkpt lat="46.39213" lon="6.00265">
        <ele>1298</ele>
        <time>2018-09-08T16:48:55Z</time>
      </trkpt>
      <trkpt lat="46.39215" lon="6.00269">
        <ele>1298</ele>
        <time>2018-09-08T16:49:00Z</time>
      </trkpt>
      <trkpt lat="46.39217" lon="6.00276">
        <ele>1297</ele>
        <time>2018-09-08T16:49:05Z</time>
      </trkpt>
      <trkpt lat="46.39221" lon="6.00286">
        <ele>1297</ele>
        <time>2018-09-08T16:49:15Z</time>
      </trkpt>
      <trkpt lat="46.39221" lon="6.00286">
        <ele>1297</ele>
        <time>2018-09-08T16:49:20Z</time>
      </trkpt>
      <trkpt lat="46.39223" lon="6.00288">
        <ele>1297</ele>
        <time>2018-09-08T16:49:25Z</time>
      </trkpt>
      <trkpt lat="46.39225" lon="6.00293">
        <ele>1297</ele>
        <time>2018-09-08T16:49:30Z</time>
      </trkpt>
      <trkpt lat="46.39228" lon="6.00303">
        <ele>1296</ele>
        <time>2018-09-08T16:49:40Z</time>
      </trkpt>
      <trkpt lat="46.3923" lon="6.00308">
        <ele>1296</ele>
        <time>2018-09-08T16:49:45Z</time>
      </trkpt>
      <trkpt lat="46.39231" lon="6.0031">
        <ele>1296</ele>
        <time>2018-09-08T16:49:50Z</time>
      </trkpt>
      <trkpt lat="46.39231" lon="6.0031">
        <ele>1296</ele>
        <time>2018-09-08T16:49:55Z</time>
      </trkpt>
      <trkpt lat="46.39231" lon="6.0031">
        <ele>1296</ele>
        <time>2018-09-08T16:50:05Z</time>
      </trkpt>
      <trkpt lat="46.39231" lon="6.0031">
        <ele>1296</ele>
        <time>2018-09-08T16:50:10Z</time>
      </trkpt>
      <trkpt lat="46.39231" lon="6.00311">
        <ele>1296</ele>
        <time>2018-09-08T16:50:15Z</time>
      </trkpt>
      <trkpt lat="46.39232" lon="6.00315">
        <ele>1296</ele>
        <time>2018-09-08T16:50:20Z</time>
      </trkpt>
      <trkpt lat="46.39233" lon="6.00323">
        <ele>1295</ele>
        <time>2018-09-08T16:50:25Z</time>
      </trkpt>
      <trkpt lat="46.39237" lon="6.00338">
        <ele>1294</ele>
        <time>2018-09-08T16:50:35Z</time>
      </trkpt>
      <trkpt lat="46.39239" lon="6.00346">
        <ele>1294</ele>
        <time>2018-09-08T16:50:40Z</time>
      </trkpt>
      <trkpt lat="46.39241" lon="6.00354">
        <ele>1293</ele>
        <time>2018-09-08T16:50:45Z</time>
      </trkpt>
      <trkpt lat="46.39243" lon="6.00362">
        <ele>1293</ele>
        <time>2018-09-08T16:50:50Z</time>
      </trkpt>
      <trkpt lat="46.39248" lon="6.00375">
        <ele>1292</ele>
        <time>2018-09-08T16:51:00Z</time>
      </trkpt>
      <trkpt lat="46.39252" lon="6.0038">
        <ele>1292</ele>
        <time>2018-09-08T16:51:05Z</time>
      </trkpt>
      <trkpt lat="46.39256" lon="6.00384">
        <ele>1291</ele>
        <time>2018-09-08T16:51:10Z</time>
      </trkpt>
      <trkpt lat="46.3926" lon="6.00388">
        <ele>1291</ele>
        <time>2018-09-08T16:51:15Z</time>
      </trkpt>
      <trkpt lat="46.39267" lon="6.00396">
        <ele>1291</ele>
        <time>2018-09-08T16:51:25Z</time>
      </trkpt>
      <trkpt lat="46.3927" lon="6.00401">
        <ele>1291</ele>
        <time>2018-09-08T16:51:30Z</time>
      </trkpt>
      <trkpt lat="46.39272" lon="6.00407">
        <ele>1290</ele>
        <time>2018-09-08T16:51:35Z</time>
      </trkpt>
      <trkpt lat="46.39274" lon="6.00411">
        <ele>1290</ele>
        <time>2018-09-08T16:51:40Z</time>
      </trkpt>
      <trkpt lat="46.39273" lon="6.00413">
        <ele>1290</ele>
        <time>2018-09-08T16:51:45Z</time>
      </trkpt>
      <trkpt lat="46.39274" lon="6.00417">
        <ele>1290</ele>
        <time>2018-09-08T16:51:55Z</time>
      </trkpt>
      <trkpt lat="46.39274" lon="6.00418">
        <ele>1289</ele>
        <time>2018-09-08T16:52:00Z</time>
      </trkpt>
      <trkpt lat="46.39274" lon="6.00418">
        <ele>1289</ele>
        <time>2018-09-08T16:52:05Z</time>
      </trkpt>
      <trkpt lat="46.39274" lon="6.00418">
        <ele>1289</ele>
        <time>2018-09-08T16:52:10Z</time>
      </trkpt>
      <trkpt lat="46.39275" lon="6.00424">
        <ele>1289</ele>
        <time>2018-09-08T16:52:20Z</time>
      </trkpt>
      <trkpt lat="46.39273" lon="6.00427">
        <ele>1289</ele>
        <time>2018-09-08T16:52:25Z</time>
      </trkpt>
      <trkpt lat="46.39271" lon="6.0043">
        <ele>1288</ele>
        <time>2018-09-08T16:52:30Z</time>
      </trkpt>
      <trkpt lat="46.39269" lon="6.00434">
        <ele>1288</ele>
        <time>2018-09-08T16:52:35Z</time>
      </trkpt>
      <trkpt lat="46.39266" lon="6.00437">
        <ele>1288</ele>
        <time>2018-09-08T16:52:40Z</time>
      </trkpt>
      <trkpt lat="46.39268" lon="6.00437">
        <ele>1288</ele>
        <time>2018-09-08T16:52:50Z</time>
      </trkpt>
      <trkpt lat="46.3927" lon="6.00436">
        <ele>1288</ele>
        <time>2018-09-08T16:52:55Z</time>
      </trkpt>
      <trkpt lat="46.3927" lon="6.00436">
        <ele>1288</ele>
        <time>2018-09-08T16:53:00Z</time>
      </trkpt>
      <trkpt lat="46.3927" lon="6.00436">
        <ele>1288</ele>
        <time>2018-09-08T16:53:05Z</time>
      </trkpt>
      <trkpt lat="46.39273" lon="6.00432">
        <ele>1288</ele>
        <time>2018-09-08T16:53:15Z</time>
      </trkpt>
      <trkpt lat="46.39276" lon="6.00428">
        <ele>1289</ele>
        <time>2018-09-08T16:53:20Z</time>
      </trkpt>
      <trkpt lat="46.39277" lon="6.00425">
        <ele>1289</ele>
        <time>2018-09-08T16:53:25Z</time>
      </trkpt>
      <trkpt lat="46.39278" lon="6.00425">
        <ele>1289</ele>
        <time>2018-09-08T16:53:30Z</time>
      </trkpt>
      <trkpt lat="46.39277" lon="6.00425">
        <ele>1289</ele>
        <time>2018-09-08T16:53:40Z</time>
      </trkpt>
      <trkpt lat="46.39277" lon="6.00425">
        <ele>1289</ele>
        <time>2018-09-08T16:53:45Z</time>
      </trkpt>
      <trkpt lat="46.39277" lon="6.00425">
        <ele>1289</ele>
        <time>2018-09-08T16:53:50Z</time>
      </trkpt>
      <trkpt lat="46.39278" lon="6.00424">
        <ele>1289</ele>
        <time>2018-09-08T16:53:55Z</time>
      </trkpt>
      <trkpt lat="46.39278" lon="6.00425">
        <ele>1289</ele>
        <time>2018-09-08T16:54:00Z</time>
      </trkpt>
      <trkpt lat="46.39278" lon="6.00425">
        <ele>1289</ele>
        <time>2018-09-08T16:54:10Z</time>
      </trkpt>
      <trkpt lat="46.39279" lon="6.00421">
        <ele>1289</ele>
        <time>2018-09-08T16:54:15Z</time>
      </trkpt>
      <trkpt lat="46.39281" lon="6.00418">
        <ele>1290</ele>
        <time>2018-09-08T16:54:20Z</time>
      </trkpt>
      <trkpt lat="46.39283" lon="6.00415">
        <ele>1290</ele>
        <time>2018-09-08T16:54:25Z</time>
      </trkpt>
      <trkpt lat="46.39286" lon="6.0041">
        <ele>1290</ele>
        <time>2018-09-08T16:54:35Z</time>
      </trkpt>
      <trkpt lat="46.39286" lon="6.0041">
        <ele>1290</ele>
        <time>2018-09-08T16:54:40Z</time>
      </trkpt>
      <trkpt lat="46.39286" lon="6.0041">
        <ele>1290</ele>
        <time>2018-09-08T16:54:45Z</time>
      </trkpt>
      <trkpt lat="46.39286" lon="6.0041">
        <ele>1290</ele>
        <time>2018-09-08T16:54:50Z</time>
      </trkpt>
      <trkpt lat="46.39288" lon="6.00407">
        <ele>1291</ele>
        <time>2018-09-08T16:55:00Z</time>
      </trkpt>
      <trkpt lat="46.3929" lon="6.00405">
        <ele>1291</ele>
        <time>2018-09-08T16:55:05Z</time>
      </trkpt>
      <trkpt lat="46.39292" lon="6.00402">
        <ele>1291</ele>
        <time>2018-09-08T16:55:10Z</time>
      </trkpt>
      <trkpt lat="46.39294" lon="6.00399">
        <ele>1292</ele>
        <time>2018-09-08T16:55:15Z</time>
      </trkpt>
      <trkpt lat="46.39298" lon="6.00396">
        <ele>1292</ele>
        <time>2018-09-08T16:55:20Z</time>
      </trkpt>
      <trkpt lat="46.39305" lon="6.00391">
        <ele>1292</ele>
        <time>2018-09-08T16:55:30Z</time>
      </trkpt>
      <trkpt lat="46.39308" lon="6.0039">
        <ele>1293</ele>
        <time>2018-09-08T16:55:35Z</time>
      </trkpt>
      <trkpt lat="46.39312" lon="6.0039">
        <ele>1293</ele>
        <time>2018-09-08T16:55:40Z</time>
      </trkpt>
      <trkpt lat="46.39315" lon="6.00391">
        <ele>1293</ele>
        <time>2018-09-08T16:55:45Z</time>
      </trkpt>
      <trkpt lat="46.39319" lon="6.00391">
        <ele>1293</ele>
        <time>2018-09-08T16:55:55Z</time>
      </trkpt>
      <trkpt lat="46.39322" lon="6.00393">
        <ele>1293</ele>
        <time>2018-09-08T16:56:00Z</time>
      </trkpt>
      <trkpt lat="46.39326" lon="6.00395">
        <ele>1293</ele>
        <time>2018-09-08T16:56:05Z</time>
      </trkpt>
      <trkpt lat="46.39328" lon="6.00398">
        <ele>1293</ele>
        <time>2018-09-08T16:56:10Z</time>
      </trkpt>
      <trkpt lat="46.39334" lon="6.00407">
        <ele>1292</ele>
        <time>2018-09-08T16:56:20Z</time>
      </trkpt>
      <trkpt lat="46.39337" lon="6.00412">
        <ele>1292</ele>
        <time>2018-09-08T16:56:25Z</time>
      </trkpt>
      <trkpt lat="46.39339" lon="6.00418">
        <ele>1292</ele>
        <time>2018-09-08T16:56:30Z</time>
      </trkpt>
      <trkpt lat="46.39341" lon="6.00425">
        <ele>1291</ele>
        <time>2018-09-08T16:56:35Z</time>
      </trkpt>
      <trkpt lat="46.39342" lon="6.00431">
        <ele>1291</ele>
        <time>2018-09-08T16:56:40Z</time>
      </trkpt>
      <trkpt lat="46.39344" lon="6.00444">
        <ele>1290</ele>
        <time>2018-09-08T16:56:50Z</time>
      </trkpt>
      <trkpt lat="46.39345" lon="6.0045">
        <ele>1290</ele>
        <time>2018-09-08T16:56:55Z</time>
      </trkpt>
      <trkpt lat="46.39345" lon="6.00453">
        <ele>1289</ele>
        <time>2018-09-08T16:57:00Z</time>
      </trkpt>
      <trkpt lat="46.39344" lon="6.00454">
        <ele>1289</ele>
        <time>2018-09-08T16:57:05Z</time>
      </trkpt>
      <trkpt lat="46.39346" lon="6.00461">
        <ele>1289</ele>
        <time>2018-09-08T16:57:15Z</time>
      </trkpt>
      <trkpt lat="46.39348" lon="6.00465">
        <ele>1289</ele>
        <time>2018-09-08T16:57:20Z</time>
      </trkpt>
      <trkpt lat="46.3935" lon="6.00472">
        <ele>1289</ele>
        <time>2018-09-08T16:57:25Z</time>
      </trkpt>
      <trkpt lat="46.39352" lon="6.00477">
        <ele>1289</ele>
        <time>2018-09-08T16:57:30Z</time>
      </trkpt>
      <trkpt lat="46.39353" lon="6.00482">
        <ele>1289</ele>
        <time>2018-09-08T16:57:35Z</time>
      </trkpt>
      <trkpt lat="46.39355" lon="6.00493">
        <ele>1289</ele>
        <time>2018-09-08T16:57:45Z</time>
      </trkpt>
      <trkpt lat="46.39356" lon="6.00495">
        <ele>1289</ele>
        <time>2018-09-08T16:57:50Z</time>
      </trkpt>
      <trkpt lat="46.39356" lon="6.00495">
        <ele>1289</ele>
        <time>2018-09-08T16:57:55Z</time>
      </trkpt>
      <trkpt lat="46.39357" lon="6.00497">
        <ele>1289</ele>
        <time>2018-09-08T16:58:00Z</time>
      </trkpt>
      <trkpt lat="46.39361" lon="6.00503">
        <ele>1289</ele>
        <time>2018-09-08T16:58:10Z</time>
      </trkpt>
      <trkpt lat="46.39362" lon="6.00507">
        <ele>1289</ele>
        <time>2018-09-08T16:58:15Z</time>
      </trkpt>
      <trkpt lat="46.39362" lon="6.00507">
        <ele>1289</ele>
        <time>2018-09-08T16:58:20Z</time>
      </trkpt>
      <trkpt lat="46.39361" lon="6.00507">
        <ele>1289</ele>
        <time>2018-09-08T16:58:25Z</time>
      </trkpt>
      <trkpt lat="46.39359" lon="6.00506">
        <ele>1289</ele>
        <time>2018-09-08T16:58:35Z</time>
      </trkpt>
      <trkpt lat="46.39357" lon="6.00505">
        <ele>1288</ele>
        <time>2018-09-08T16:58:40Z</time>
      </trkpt>
      <trkpt lat="46.39356" lon="6.00506">
        <ele>1288</ele>
        <time>2018-09-08T16:58:45Z</time>
      </trkpt>
      <trkpt lat="46.39356" lon="6.00506">
        <ele>1288</ele>
        <time>2018-09-08T16:58:50Z</time>
      </trkpt>
      <trkpt lat="46.39355" lon="6.00506">
        <ele>1288</ele>
        <time>2018-09-08T16:58:55Z</time>
      </trkpt>
      <trkpt lat="46.39355" lon="6.00506">
        <ele>1288</ele>
        <time>2018-09-08T16:59:05Z</time>
      </trkpt>
      <trkpt lat="46.39354" lon="6.00504">
        <ele>1288</ele>
        <time>2018-09-08T16:59:10Z</time>
      </trkpt>
      <trkpt lat="46.39354" lon="6.00504">
        <ele>1288</ele>
        <time>2018-09-08T16:59:15Z</time>
      </trkpt>
      <trkpt lat="46.39354" lon="6.00504">
        <ele>1288</ele>
        <time>2018-09-08T16:59:20Z</time>
      </trkpt>
      <trkpt lat="46.39354" lon="6.00504">
        <ele>1288</ele>
        <time>2018-09-08T16:59:30Z</time>
      </trkpt>
      <trkpt lat="46.39354" lon="6.00504">
        <ele>1288</ele>
        <time>2018-09-08T16:59:35Z</time>
      </trkpt>
      <trkpt lat="46.39354" lon="6.00504">
        <ele>1288</ele>
        <time>2018-09-08T16:59:40Z</time>
      </trkpt>
      <trkpt lat="46.39354" lon="6.00504">
        <ele>1288</ele>
        <time>2018-09-08T16:59:45Z</time>
      </trkpt>
      <trkpt lat="46.39354" lon="6.00504">
        <ele>1288</ele>
        <time>2018-09-08T16:59:55Z</time>
      </trkpt>
      <trkpt lat="46.39354" lon="6.00504">
        <ele>1288</ele>
        <time>2018-09-08T17:00:00Z</time>
      </trkpt>
      <trkpt lat="46.39354" lon="6.00504">
        <ele>1288</ele>
        <time>2018-09-08T17:00:05Z</time>
      </trkpt>
      <trkpt lat="46.39354" lon="6.00504">
        <ele>1288</ele>
        <time>2018-09-08T17:00:10Z</time>
      </trkpt>
      <trkpt lat="46.39354" lon="6.00504">
        <ele>1288</ele>
        <time>2018-09-08T17:00:15Z</time>
      </trkpt>
      <trkpt lat="46.39353" lon="6.00502">
        <ele>1288</ele>
        <time>2018-09-08T17:00:25Z</time>
      </trkpt>
      <trkpt lat="46.39353" lon="6.00501">
        <ele>1288</ele>
        <time>2018-09-08T17:00:30Z</time>
      </trkpt>
      <trkpt lat="46.39352" lon="6.00501">
        <ele>1288</ele>
        <time>2018-09-08T17:00:35Z</time>
      </trkpt>
      <trkpt lat="46.39352" lon="6.00501">
        <ele>1288</ele>
        <time>2018-09-08T17:00:40Z</time>
      </trkpt>
      <trkpt lat="46.39352" lon="6.00501">
        <ele>1288</ele>
        <time>2018-09-08T17:00:50Z</time>
      </trkpt>
      <trkpt lat="46.39352" lon="6.00501">
        <ele>1288</ele>
        <time>2018-09-08T17:00:55Z</time>
      </trkpt>
      <trkpt lat="46.39352" lon="6.00501">
        <ele>1288</ele>
        <time>2018-09-08T17:01:00Z</time>
      </trkpt>
      <trkpt lat="46.39352" lon="6.00501">
        <ele>1288</ele>
        <time>2018-09-08T17:01:05Z</time>
      </trkpt>
      <trkpt lat="46.39352" lon="6.00501">
        <ele>1288</ele>
        <time>2018-09-08T17:01:15Z</time>
      </trkpt>
      <trkpt lat="46.39351" lon="6.00497">
        <ele>1288</ele>
        <time>2018-09-08T17:01:20Z</time>
      </trkpt>
      <trkpt lat="46.39349" lon="6.00487">
        <ele>1288</ele>
        <time>2018-09-08T17:01:25Z</time>
      </trkpt>
      <trkpt lat="46.39347" lon="6.00478">
        <ele>1288</ele>
        <time>2018-09-08T17:01:30Z</time>
      </trkpt>
      <trkpt lat="46.39346" lon="6.00468">
        <ele>1288</ele>
        <time>2018-09-08T17:01:35Z</time>
      </trkpt>
      <trkpt lat="46.39342" lon="6.00453">
        <ele>1289</ele>
        <time>2018-09-08T17:01:45Z</time>
      </trkpt>
      <trkpt lat="46.39341" lon="6.00445">
        <ele>1290</ele>
        <time>2018-09-08T17:01:50Z</time>
      </trkpt>
      <trkpt lat="46.39341" lon="6.00437">
        <ele>1290</ele>
        <time>2018-09-08T17:01:55Z</time>
      </trkpt>
      <trkpt lat="46.39339" lon="6.00428">
        <ele>1291</ele>
        <time>2018-09-08T17:02:00Z</time>
      </trkpt>
      <trkpt lat="46.39334" lon="6.00411">
        <ele>1292</ele>
        <time>2018-09-08T17:02:10Z</time>
      </trkpt>
      <trkpt lat="46.39335" lon="6.00411">
        <ele>1292</ele>
        <time>2018-09-08T17:02:15Z</time>
      </trkpt>
      <trkpt lat="46.39336" lon="6.00411">
        <ele>1292</ele>
        <time>2018-09-08T17:02:20Z</time>
      </trkpt>
      <trkpt lat="46.39336" lon="6.00412">
        <ele>1292</ele>
        <time>2018-09-08T17:02:25Z</time>
      </trkpt>
      <trkpt lat="46.39336" lon="6.00412">
        <ele>1292</ele>
        <time>2018-09-08T17:02:30Z</time>
      </trkpt>
      <trkpt lat="46.39335" lon="6.00412">
        <ele>1292</ele>
        <time>2018-09-08T17:02:40Z</time>
      </trkpt>
      <trkpt lat="46.39334" lon="6.00411">
        <ele>1292</ele>
        <time>2018-09-08T17:02:45Z</time>
      </trkpt>
      <trkpt lat="46.39331" lon="6.00407">
        <ele>1292</ele>
        <time>2018-09-08T17:02:50Z</time>
      </trkpt>
      <trkpt lat="46.39327" lon="6.00401">
        <ele>1292</ele>
        <time>2018-09-08T17:02:55Z</time>
      </trkpt>
      <trkpt lat="46.39319" lon="6.00394">
        <ele>1293</ele>
        <time>2018-09-08T17:03:05Z</time>
      </trkpt>
      <trkpt lat="46.39317" lon="6.0039">
        <ele>1293</ele>
        <time>2018-09-08T17:03:10Z</time>
      </trkpt>
      <trkpt lat="46.39316" lon="6.0039">
        <ele>1293</ele>
        <time>2018-09-08T17:03:15Z</time>
      </trkpt>
      <trkpt lat="46.39316" lon="6.00389">
        <ele>1293</ele>
        <time>2018-09-08T17:03:20Z</time>
      </trkpt>
      <trkpt lat="46.39314" lon="6.00389">
        <ele>1293</ele>
        <time>2018-09-08T17:03:30Z</time>
      </trkpt>
      <trkpt lat="46.39314" lon="6.00389">
        <ele>1293</ele>
        <time>2018-09-08T17:03:35Z</time>
      </trkpt>
      <trkpt lat="46.39314" lon="6.00389">
        <ele>1293</ele>
        <time>2018-09-08T17:03:40Z</time>
      </trkpt>
      <trkpt lat="46.39315" lon="6.00391">
        <ele>1293</ele>
        <time>2018-09-08T17:03:45Z</time>
      </trkpt>
      <trkpt lat="46.39316" lon="6.00393">
        <ele>1293</ele>
        <time>2018-09-08T17:03:50Z</time>
      </trkpt>
      <trkpt lat="46.39315" lon="6.00391">
        <ele>1293</ele>
        <time>2018-09-08T17:04:00Z</time>
      </trkpt>
      <trkpt lat="46.39314" lon="6.00391">
        <ele>1293</ele>
        <time>2018-09-08T17:04:05Z</time>
      </trkpt>
      <trkpt lat="46.39314" lon="6.00392">
        <ele>1293</ele>
        <time>2018-09-08T17:04:10Z</time>
      </trkpt>
      <trkpt lat="46.39314" lon="6.00391">
        <ele>1293</ele>
        <time>2018-09-08T17:04:15Z</time>
      </trkpt>
      <trkpt lat="46.39313" lon="6.0039">
        <ele>1293</ele>
        <time>2018-09-08T17:04:25Z</time>
      </trkpt>
      <trkpt lat="46.3931" lon="6.00391">
        <ele>1293</ele>
        <time>2018-09-08T17:04:30Z</time>
      </trkpt>
      <trkpt lat="46.39305" lon="6.0039">
        <ele>1292</ele>
        <time>2018-09-08T17:04:35Z</time>
      </trkpt>
      <trkpt lat="46.393" lon="6.00389">
        <ele>1292</ele>
        <time>2018-09-08T17:04:40Z</time>
      </trkpt>
      <trkpt lat="46.39292" lon="6.00397">
        <ele>1292</ele>
        <time>2018-09-08T17:04:50Z</time>
      </trkpt>
      <trkpt lat="46.39288" lon="6.00402">
        <ele>1291</ele>
        <time>2018-09-08T17:04:55Z</time>
      </trkpt>
      <trkpt lat="46.39285" lon="6.00407">
        <ele>1291</ele>
        <time>2018-09-08T17:05:00Z</time>
      </trkpt>
      <trkpt lat="46.3928" lon="6.00411">
        <ele>1290</ele>
        <time>2018-09-08T17:05:05Z</time>
      </trkpt>
      <trkpt lat="46.39276" lon="6.00413">
        <ele>1290</ele>
        <time>2018-09-08T17:05:10Z</time>
      </trkpt>
      <trkpt lat="46.39272" lon="6.00412">
        <ele>1290</ele>
        <time>2018-09-08T17:05:20Z</time>
      </trkpt>
      <trkpt lat="46.39272" lon="6.00412">
        <ele>1290</ele>
        <time>2018-09-08T17:05:25Z</time>
      </trkpt>
      <trkpt lat="46.39271" lon="6.00408">
        <ele>1290</ele>
        <time>2018-09-08T17:05:30Z</time>
      </trkpt>
      <trkpt lat="46.39267" lon="6.00403">
        <ele>1290</ele>
        <time>2018-09-08T17:05:35Z</time>
      </trkpt>
      <trkpt lat="46.39261" lon="6.00394">
        <ele>1291</ele>
        <time>2018-09-08T17:05:45Z</time>
      </trkpt>
      <trkpt lat="46.39258" lon="6.00393">
        <ele>1291</ele>
        <time>2018-09-08T17:05:50Z</time>
      </trkpt>
      <trkpt lat="46.39256" lon="6.0039">
        <ele>1291</ele>
        <time>2018-09-08T17:05:55Z</time>
      </trkpt>
      <trkpt lat="46.39252" lon="6.00386">
        <ele>1291</ele>
        <time>2018-09-08T17:06:00Z</time>
      </trkpt>
      <trkpt lat="46.3925" lon="6.00382">
        <ele>1292</ele>
        <time>2018-09-08T17:06:05Z</time>
      </trkpt>
      <trkpt lat="46.39244" lon="6.00374">
        <ele>1292</ele>
        <time>2018-09-08T17:06:15Z</time>
      </trkpt>
      <trkpt lat="46.39242" lon="6.00369">
        <ele>1292</ele>
        <time>2018-09-08T17:06:20Z</time>
      </trkpt>
      <trkpt lat="46.3924" lon="6.00364">
        <ele>1293</ele>
        <time>2018-09-08T17:06:25Z</time>
      </trkpt>
      <trkpt lat="46.39238" lon="6.00359">
        <ele>1293</ele>
        <time>2018-09-08T17:06:30Z</time>
      </trkpt>
      <trkpt lat="46.39236" lon="6.00348">
        <ele>1294</ele>
        <time>2018-09-08T17:06:40Z</time>
      </trkpt>
      <trkpt lat="46.39235" lon="6.00345">
        <ele>1294</ele>
        <time>2018-09-08T17:06:45Z</time>
      </trkpt>
      <trkpt lat="46.39234" lon="6.00341">
        <ele>1294</ele>
        <time>2018-09-08T17:06:50Z</time>
      </trkpt>
      <trkpt lat="46.39234" lon="6.00337">
        <ele>1294</ele>
        <time>2018-09-08T17:06:55Z</time>
      </trkpt>
      <trkpt lat="46.3924" lon="6.00329">
        <ele>1295</ele>
        <time>2018-09-08T17:07:05Z</time>
      </trkpt>
      <trkpt lat="46.39242" lon="6.00325">
        <ele>1295</ele>
        <time>2018-09-08T17:07:10Z</time>
      </trkpt>
      <trkpt lat="46.39247" lon="6.00321">
        <ele>1296</ele>
        <time>2018-09-08T17:07:15Z</time>
      </trkpt>
      <trkpt lat="46.39249" lon="6.00316">
        <ele>1296</ele>
        <time>2018-09-08T17:07:20Z</time>
      </trkpt>
      <trkpt lat="46.39251" lon="6.0031">
        <ele>1297</ele>
        <time>2018-09-08T17:07:25Z</time>
      </trkpt>
      <trkpt lat="46.39255" lon="6.003">
        <ele>1298</ele>
        <time>2018-09-08T17:07:35Z</time>
      </trkpt>
      <trkpt lat="46.39259" lon="6.00296">
        <ele>1298</ele>
        <time>2018-09-08T17:07:40Z</time>
      </trkpt>
      <trkpt lat="46.39263" lon="6.00295">
        <ele>1298</ele>
        <time>2018-09-08T17:07:45Z</time>
      </trkpt>
      <trkpt lat="46.39268" lon="6.00295">
        <ele>1299</ele>
        <time>2018-09-08T17:07:50Z</time>
      </trkpt>
      <trkpt lat="46.3927" lon="6.00295">
        <ele>1299</ele>
        <time>2018-09-08T17:08:00Z</time>
      </trkpt>
      <trkpt lat="46.3927" lon="6.00295">
        <ele>1299</ele>
        <time>2018-09-08T17:08:05Z</time>
      </trkpt>
      <trkpt lat="46.3927" lon="6.00296">
        <ele>1299</ele>
        <time>2018-09-08T17:08:10Z</time>
      </trkpt>
      <trkpt lat="46.39271" lon="6.00295">
        <ele>1299</ele>
        <time>2018-09-08T17:08:15Z</time>
      </trkpt>
      <trkpt lat="46.39277" lon="6.00295">
        <ele>1299</ele>
        <time>2018-09-08T17:08:25Z</time>
      </trkpt>
      <trkpt lat="46.39281" lon="6.00295">
        <ele>1299</ele>
        <time>2018-09-08T17:08:30Z</time>
      </trkpt>
      <trkpt lat="46.39285" lon="6.00296">
        <ele>1300</ele>
        <time>2018-09-08T17:08:35Z</time>
      </trkpt>
      <trkpt lat="46.39289" lon="6.00296">
        <ele>1300</ele>
        <time>2018-09-08T17:08:40Z</time>
      </trkpt>
      <trkpt lat="46.39293" lon="6.00295">
        <ele>1300</ele>
        <time>2018-09-08T17:08:45Z</time>
      </trkpt>
      <trkpt lat="46.39302" lon="6.00293">
        <ele>1301</ele>
        <time>2018-09-08T17:08:55Z</time>
      </trkpt>
      <trkpt lat="46.39307" lon="6.00295">
        <ele>1301</ele>
        <time>2018-09-08T17:09:00Z</time>
      </trkpt>
      <trkpt lat="46.3931" lon="6.003">
        <ele>1301</ele>
        <time>2018-09-08T17:09:05Z</time>
      </trkpt>
      <trkpt lat="46.39314" lon="6.00303">
        <ele>1300</ele>
        <time>2018-09-08T17:09:10Z</time>
      </trkpt>
      <trkpt lat="46.39324" lon="6.00307">
        <ele>1300</ele>
        <time>2018-09-08T17:09:20Z</time>
      </trkpt>
      <trkpt lat="46.39327" lon="6.0031">
        <ele>1300</ele>
        <time>2018-09-08T17:09:25Z</time>
      </trkpt>
      <trkpt lat="46.3933" lon="6.00314">
        <ele>1300</ele>
        <time>2018-09-08T17:09:30Z</time>
      </trkpt>
      <trkpt lat="46.39334" lon="6.00319">
        <ele>1299</ele>
        <time>2018-09-08T17:09:35Z</time>
      </trkpt>
      <trkpt lat="46.39342" lon="6.00322">
        <ele>1299</ele>
        <time>2018-09-08T17:09:45Z</time>
      </trkpt>
      <trkpt lat="46.39346" lon="6.00322">
        <ele>1300</ele>
        <time>2018-09-08T17:09:50Z</time>
      </trkpt>
      <trkpt lat="46.3935" lon="6.00324">
        <ele>1300</ele>
        <time>2018-09-08T17:09:55Z</time>
      </trkpt>
      <trkpt lat="46.39354" lon="6.00326">
        <ele>1299</ele>
        <time>2018-09-08T17:10:00Z</time>
      </trkpt>
      <trkpt lat="46.39357" lon="6.00327">
        <ele>1300</ele>
        <time>2018-09-08T17:10:05Z</time>
      </trkpt>
      <trkpt lat="46.39363" lon="6.00322">
        <ele>1300</ele>
        <time>2018-09-08T17:10:15Z</time>
      </trkpt>
      <trkpt lat="46.39365" lon="6.0032">
        <ele>1301</ele>
        <time>2018-09-08T17:10:20Z</time>
      </trkpt>
      <trkpt lat="46.39365" lon="6.0032">
        <ele>1301</ele>
        <time>2018-09-08T17:10:25Z</time>
      </trkpt>
      <trkpt lat="46.39365" lon="6.00321">
        <ele>1301</ele>
        <time>2018-09-08T17:10:30Z</time>
      </trkpt>
      <trkpt lat="46.39369" lon="6.00327">
        <ele>1300</ele>
        <time>2018-09-08T17:10:40Z</time>
      </trkpt>
      <trkpt lat="46.39373" lon="6.00328">
        <ele>1300</ele>
        <time>2018-09-08T17:10:45Z</time>
      </trkpt>
      <trkpt lat="46.39376" lon="6.00327">
        <ele>1300</ele>
        <time>2018-09-08T17:10:50Z</time>
      </trkpt>
      <trkpt lat="46.3938" lon="6.00326">
        <ele>1301</ele>
        <time>2018-09-08T17:10:55Z</time>
      </trkpt>
      <trkpt lat="46.39384" lon="6.00323">
        <ele>1301</ele>
        <time>2018-09-08T17:11:00Z</time>
      </trkpt>
      <trkpt lat="46.39393" lon="6.00319">
        <ele>1302</ele>
        <time>2018-09-08T17:11:10Z</time>
      </trkpt>
      <trkpt lat="46.39397" lon="6.00318">
        <ele>1303</ele>
        <time>2018-09-08T17:11:15Z</time>
      </trkpt>
      <trkpt lat="46.39401" lon="6.00315">
        <ele>1304</ele>
        <time>2018-09-08T17:11:20Z</time>
      </trkpt>
      <trkpt lat="46.39405" lon="6.00312">
        <ele>1305</ele>
        <time>2018-09-08T17:11:25Z</time>
      </trkpt>
      <trkpt lat="46.39413" lon="6.00305">
        <ele>1306</ele>
        <time>2018-09-08T17:11:35Z</time>
      </trkpt>
      <trkpt lat="46.39416" lon="6.00303">
        <ele>1307</ele>
        <time>2018-09-08T17:11:40Z</time>
      </trkpt>
      <trkpt lat="46.3942" lon="6.003">
        <ele>1308</ele>
        <time>2018-09-08T17:11:45Z</time>
      </trkpt>
      <trkpt lat="46.39424" lon="6.00298">
        <ele>1309</ele>
        <time>2018-09-08T17:11:50Z</time>
      </trkpt>
      <trkpt lat="46.39434" lon="6.00295">
        <ele>1310</ele>
        <time>2018-09-08T17:12:00Z</time>
      </trkpt>
      <trkpt lat="46.39438" lon="6.00293">
        <ele>1311</ele>
        <time>2018-09-08T17:12:05Z</time>
      </trkpt>
      <trkpt lat="46.39442" lon="6.00291">
        <ele>1311</ele>
        <time>2018-09-08T17:12:10Z</time>
      </trkpt>
      <trkpt lat="46.39447" lon="6.0029">
        <ele>1312</ele>
        <time>2018-09-08T17:12:15Z</time>
      </trkpt>
      <trkpt lat="46.39451" lon="6.00291">
        <ele>1312</ele>
        <time>2018-09-08T17:12:20Z</time>
      </trkpt>
      <trkpt lat="46.3946" lon="6.00293">
        <ele>1313</ele>
        <time>2018-09-08T17:12:30Z</time>
      </trkpt>
      <trkpt lat="46.39464" lon="6.00295">
        <ele>1314</ele>
        <time>2018-09-08T17:12:35Z</time>
      </trkpt>
      <trkpt lat="46.39468" lon="6.00296">
        <ele>1314</ele>
        <time>2018-09-08T17:12:40Z</time>
      </trkpt>
      <trkpt lat="46.39473" lon="6.00298">
        <ele>1315</ele>
        <time>2018-09-08T17:12:45Z</time>
      </trkpt>
      <trkpt lat="46.3948" lon="6.00298">
        <ele>1316</ele>
        <time>2018-09-08T17:12:55Z</time>
      </trkpt>
      <trkpt lat="46.39483" lon="6.00301">
        <ele>1316</ele>
        <time>2018-09-08T17:13:00Z</time>
      </trkpt>
      <trkpt lat="46.39486" lon="6.00302">
        <ele>1316</ele>
        <time>2018-09-08T17:13:05Z</time>
      </trkpt>
      <trkpt lat="46.3949" lon="6.00303">
        <ele>1317</ele>
        <time>2018-09-08T17:13:10Z</time>
      </trkpt>
      <trkpt lat="46.39497" lon="6.00301">
        <ele>1318</ele>
        <time>2018-09-08T17:13:20Z</time>
      </trkpt>
      <trkpt lat="46.395" lon="6.00303">
        <ele>1318</ele>
        <time>2018-09-08T17:13:25Z</time>
      </trkpt>
      <trkpt lat="46.39503" lon="6.00304">
        <ele>1318</ele>
        <time>2018-09-08T17:13:30Z</time>
      </trkpt>
      <trkpt lat="46.39507" lon="6.00304">
        <ele>1319</ele>
        <time>2018-09-08T17:13:35Z</time>
      </trkpt>
      <trkpt lat="46.39511" lon="6.00304">
        <ele>1320</ele>
        <time>2018-09-08T17:13:40Z</time>
      </trkpt>
      <trkpt lat="46.39516" lon="6.00303">
        <ele>1321</ele>
        <time>2018-09-08T17:13:50Z</time>
      </trkpt>
      <trkpt lat="46.3952" lon="6.00304">
        <ele>1321</ele>
        <time>2018-09-08T17:13:55Z</time>
      </trkpt>
      <trkpt lat="46.39524" lon="6.00305">
        <ele>1321</ele>
        <time>2018-09-08T17:14:00Z</time>
      </trkpt>
      <trkpt lat="46.39527" lon="6.00306">
        <ele>1322</ele>
        <time>2018-09-08T17:14:05Z</time>
      </trkpt>
      <trkpt lat="46.39534" lon="6.00306">
        <ele>1323</ele>
        <time>2018-09-08T17:14:15Z</time>
      </trkpt>
      <trkpt lat="46.39538" lon="6.00305">
        <ele>1323</ele>
        <time>2018-09-08T17:14:20Z</time>
      </trkpt>
      <trkpt lat="46.39541" lon="6.00303">
        <ele>1324</ele>
        <time>2018-09-08T17:14:25Z</time>
      </trkpt>
      <trkpt lat="46.39545" lon="6.00302">
        <ele>1325</ele>
        <time>2018-09-08T17:14:30Z</time>
      </trkpt>
      <trkpt lat="46.39551" lon="6.00294">
        <ele>1327</ele>
        <time>2018-09-08T17:14:40Z</time>
      </trkpt>
      <trkpt lat="46.39552" lon="6.00288">
        <ele>1328</ele>
        <time>2018-09-08T17:14:45Z</time>
      </trkpt>
      <trkpt lat="46.39553" lon="6.00283">
        <ele>1329</ele>
        <time>2018-09-08T17:14:50Z</time>
      </trkpt>
      <trkpt lat="46.39552" lon="6.00277">
        <ele>1329</ele>
        <time>2018-09-08T17:14:55Z</time>
      </trkpt>
      <trkpt lat="46.39551" lon="6.00271">
        <ele>1330</ele>
        <time>2018-09-08T17:15:00Z</time>
      </trkpt>
      <trkpt lat="46.39549" lon="6.00262">
        <ele>1331</ele>
        <time>2018-09-08T17:15:10Z</time>
      </trkpt>
      <trkpt lat="46.39549" lon="6.00259">
        <ele>1331</ele>
        <time>2018-09-08T17:15:15Z</time>
      </trkpt>
      <trkpt lat="46.39549" lon="6.00258">
        <ele>1331</ele>
        <time>2018-09-08T17:15:20Z</time>
      </trkpt>
      <trkpt lat="46.39549" lon="6.00258">
        <ele>1331</ele>
        <time>2018-09-08T17:15:25Z</time>
      </trkpt>
      <trkpt lat="46.39549" lon="6.00254">
        <ele>1331</ele>
        <time>2018-09-08T17:15:35Z</time>
      </trkpt>
      <trkpt lat="46.39548" lon="6.00251">
        <ele>1331</ele>
        <time>2018-09-08T17:15:40Z</time>
      </trkpt>
      <trkpt lat="46.39547" lon="6.00245">
        <ele>1331</ele>
        <time>2018-09-08T17:15:45Z</time>
      </trkpt>
      <trkpt lat="46.39546" lon="6.00239">
        <ele>1331</ele>
        <time>2018-09-08T17:15:50Z</time>
      </trkpt>
      <trkpt lat="46.39544" lon="6.00233">
        <ele>1331</ele>
        <time>2018-09-08T17:15:55Z</time>
      </trkpt>
      <trkpt lat="46.3954" lon="6.00222">
        <ele>1332</ele>
        <time>2018-09-08T17:16:05Z</time>
      </trkpt>
      <trkpt lat="46.39538" lon="6.00216">
        <ele>1332</ele>
        <time>2018-09-08T17:16:10Z</time>
      </trkpt>
      <trkpt lat="46.39538" lon="6.0021">
        <ele>1332</ele>
        <time>2018-09-08T17:16:15Z</time>
      </trkpt>
      <trkpt lat="46.39538" lon="6.00205">
        <ele>1332</ele>
        <time>2018-09-08T17:16:20Z</time>
      </trkpt>
      <trkpt lat="46.39539" lon="6.00205">
        <ele>1332</ele>
        <time>2018-09-08T17:16:30Z</time>
      </trkpt>
      <trkpt lat="46.39541" lon="6.00202">
        <ele>1333</ele>
        <time>2018-09-08T17:16:35Z</time>
      </trkpt>
      <trkpt lat="46.39543" lon="6.00199">
        <ele>1333</ele>
        <time>2018-09-08T17:16:40Z</time>
      </trkpt>
      <trkpt lat="46.39543" lon="6.00198">
        <ele>1333</ele>
        <time>2018-09-08T17:16:45Z</time>
      </trkpt>
      <trkpt lat="46.39543" lon="6.00198">
        <ele>1334</ele>
        <time>2018-09-08T17:16:55Z</time>
      </trkpt>
      <trkpt lat="46.39543" lon="6.00198">
        <ele>1334</ele>
        <time>2018-09-08T17:17:00Z</time>
      </trkpt>
      <trkpt lat="46.39543" lon="6.00198">
        <ele>1333</ele>
        <time>2018-09-08T17:17:05Z</time>
      </trkpt>
      <trkpt lat="46.39543" lon="6.00198">
        <ele>1333</ele>
        <time>2018-09-08T17:17:10Z</time>
      </trkpt>
      <trkpt lat="46.39543" lon="6.00198">
        <ele>1333</ele>
        <time>2018-09-08T17:17:15Z</time>
      </trkpt>
      <trkpt lat="46.39543" lon="6.00198">
        <ele>1333</ele>
        <time>2018-09-08T17:17:25Z</time>
      </trkpt>
      <trkpt lat="46.39543" lon="6.00198">
        <ele>1333</ele>
        <time>2018-09-08T17:17:30Z</time>
      </trkpt>
      <trkpt lat="46.39542" lon="6.00199">
        <ele>1333</ele>
        <time>2018-09-08T17:17:35Z</time>
      </trkpt>
      <trkpt lat="46.39542" lon="6.00199">
        <ele>1333</ele>
        <time>2018-09-08T17:17:40Z</time>
      </trkpt>
      <trkpt lat="46.39541" lon="6.00195">
        <ele>1333</ele>
        <time>2018-09-08T17:17:50Z</time>
      </trkpt>
      <trkpt lat="46.39541" lon="6.00195">
        <ele>1333</ele>
        <time>2018-09-08T17:17:55Z</time>
      </trkpt>
      <trkpt lat="46.39541" lon="6.00195">
        <ele>1333</ele>
        <time>2018-09-08T17:18:00Z</time>
      </trkpt>
      <trkpt lat="46.39539" lon="6.00192">
        <ele>1333</ele>
        <time>2018-09-08T17:18:05Z</time>
      </trkpt>
      <trkpt lat="46.39532" lon="6.0018">
        <ele>1332</ele>
        <time>2018-09-08T17:18:15Z</time>
      </trkpt>
      <trkpt lat="46.39531" lon="6.00173">
        <ele>1332</ele>
        <time>2018-09-08T17:18:20Z</time>
      </trkpt>
      <trkpt lat="46.3953" lon="6.00167">
        <ele>1331</ele>
        <time>2018-09-08T17:18:25Z</time>
      </trkpt>
      <trkpt lat="46.3953" lon="6.00162">
        <ele>1331</ele>
        <time>2018-09-08T17:18:30Z</time>
      </trkpt>
      <trkpt lat="46.39529" lon="6.00156">
        <ele>1331</ele>
        <time>2018-09-08T17:18:35Z</time>
      </trkpt>
      <trkpt lat="46.39531" lon="6.00146">
        <ele>1332</ele>
        <time>2018-09-08T17:18:45Z</time>
      </trkpt>
      <trkpt lat="46.39531" lon="6.0014">
        <ele>1332</ele>
        <time>2018-09-08T17:18:50Z</time>
      </trkpt>
      <trkpt lat="46.39532" lon="6.00134">
        <ele>1332</ele>
        <time>2018-09-08T17:18:55Z</time>
      </trkpt>
      <trkpt lat="46.39534" lon="6.00128">
        <ele>1332</ele>
        <time>2018-09-08T17:19:00Z</time>
      </trkpt>
      <trkpt lat="46.39534" lon="6.00115">
        <ele>1331</ele>
        <time>2018-09-08T17:19:10Z</time>
      </trkpt>
      <trkpt lat="46.39532" lon="6.00108">
        <ele>1330</ele>
        <time>2018-09-08T17:19:15Z</time>
      </trkpt>
      <trkpt lat="46.39529" lon="6.00102">
        <ele>1329</ele>
        <time>2018-09-08T17:19:20Z</time>
      </trkpt>
      <trkpt lat="46.39525" lon="6.00097">
        <ele>1329</ele>
        <time>2018-09-08T17:19:25Z</time>
      </trkpt>
      <trkpt lat="46.39521" lon="6.00094">
        <ele>1328</ele>
        <time>2018-09-08T17:19:30Z</time>
      </trkpt>
      <trkpt lat="46.39516" lon="6.00085">
        <ele>1327</ele>
        <time>2018-09-08T17:19:40Z</time>
      </trkpt>
      <trkpt lat="46.39514" lon="6.00079">
        <ele>1327</ele>
        <time>2018-09-08T17:19:45Z</time>
      </trkpt>
      <trkpt lat="46.39514" lon="6.00074">
        <ele>1327</ele>
        <time>2018-09-08T17:19:50Z</time>
      </trkpt>
      <trkpt lat="46.39514" lon="6.00068">
        <ele>1326</ele>
        <time>2018-09-08T17:19:55Z</time>
      </trkpt>
      <trkpt lat="46.39516" lon="6.00056">
        <ele>1326</ele>
        <time>2018-09-08T17:20:05Z</time>
      </trkpt>
      <trkpt lat="46.39518" lon="6.00049">
        <ele>1326</ele>
        <time>2018-09-08T17:20:10Z</time>
      </trkpt>
      <trkpt lat="46.3952" lon="6.00044">
        <ele>1325</ele>
        <time>2018-09-08T17:20:15Z</time>
      </trkpt>
      <trkpt lat="46.39524" lon="6.0004">
        <ele>1325</ele>
        <time>2018-09-08T17:20:20Z</time>
      </trkpt>
      <trkpt lat="46.3953" lon="6.00035">
        <ele>1325</ele>
        <time>2018-09-08T17:20:30Z</time>
      </trkpt>
      <trkpt lat="46.39533" lon="6.0003">
        <ele>1325</ele>
        <time>2018-09-08T17:20:35Z</time>
      </trkpt>
      <trkpt lat="46.39536" lon="6.00025">
        <ele>1325</ele>
        <time>2018-09-08T17:20:40Z</time>
      </trkpt>
      <trkpt lat="46.39538" lon="6.0002">
        <ele>1325</ele>
        <time>2018-09-08T17:20:45Z</time>
      </trkpt>
      <trkpt lat="46.3954" lon="6.00017">
        <ele>1325</ele>
        <time>2018-09-08T17:20:50Z</time>
      </trkpt>
      <trkpt lat="46.39541" lon="6.00018">
        <ele>1325</ele>
        <time>2018-09-08T17:21:00Z</time>
      </trkpt>
      <trkpt lat="46.39541" lon="6.00017">
        <ele>1325</ele>
        <time>2018-09-08T17:21:05Z</time>
      </trkpt>
      <trkpt lat="46.39542" lon="6.00014">
        <ele>1324</ele>
        <time>2018-09-08T17:21:10Z</time>
      </trkpt>
      <trkpt lat="46.39543" lon="6.00011">
        <ele>1324</ele>
        <time>2018-09-08T17:21:15Z</time>
      </trkpt>
      <trkpt lat="46.39544" lon="6.00009">
        <ele>1324</ele>
        <time>2018-09-08T17:21:25Z</time>
      </trkpt>
      <trkpt lat="46.39545" lon="6.00005">
        <ele>1324</ele>
        <time>2018-09-08T17:21:30Z</time>
      </trkpt>
      <trkpt lat="46.39549" lon="6.00001">
        <ele>1324</ele>
        <time>2018-09-08T17:21:35Z</time>
      </trkpt>
      <trkpt lat="46.39551" lon="5.99997">
        <ele>1323</ele>
        <time>2018-09-08T17:21:40Z</time>
      </trkpt>
      <trkpt lat="46.3956" lon="5.9999">
        <ele>1323</ele>
        <time>2018-09-08T17:21:50Z</time>
      </trkpt>
      <trkpt lat="46.39563" lon="5.99984">
        <ele>1324</ele>
        <time>2018-09-08T17:21:55Z</time>
      </trkpt>
      <trkpt lat="46.39565" lon="5.99978">
        <ele>1325</ele>
        <time>2018-09-08T17:22:00Z</time>
      </trkpt>
      <trkpt lat="46.39568" lon="5.99972">
        <ele>1326</ele>
        <time>2018-09-08T17:22:05Z</time>
      </trkpt>
      <trkpt lat="46.39569" lon="5.99965">
        <ele>1327</ele>
        <time>2018-09-08T17:22:10Z</time>
      </trkpt>
      <trkpt lat="46.39571" lon="5.99951">
        <ele>1329</ele>
        <time>2018-09-08T17:22:20Z</time>
      </trkpt>
      <trkpt lat="46.39571" lon="5.99945">
        <ele>1329</ele>
        <time>2018-09-08T17:22:25Z</time>
      </trkpt>
      <trkpt lat="46.3957" lon="5.9994">
        <ele>1330</ele>
        <time>2018-09-08T17:22:30Z</time>
      </trkpt>
      <trkpt lat="46.39569" lon="5.99934">
        <ele>1331</ele>
        <time>2018-09-08T17:22:35Z</time>
      </trkpt>
      <trkpt lat="46.39563" lon="5.99924">
        <ele>1333</ele>
        <time>2018-09-08T17:22:45Z</time>
      </trkpt>
      <trkpt lat="46.3956" lon="5.99917">
        <ele>1332</ele>
        <time>2018-09-08T17:22:50Z</time>
      </trkpt>
      <trkpt lat="46.39557" lon="5.99911">
        <ele>1332</ele>
        <time>2018-09-08T17:22:55Z</time>
      </trkpt>
      <trkpt lat="46.39553" lon="5.99906">
        <ele>1331</ele>
        <time>2018-09-08T17:23:00Z</time>
      </trkpt>
      <trkpt lat="46.39546" lon="5.99891">
        <ele>1330</ele>
        <time>2018-09-08T17:23:10Z</time>
      </trkpt>
      <trkpt lat="46.39542" lon="5.99883">
        <ele>1329</ele>
        <time>2018-09-08T17:23:15Z</time>
      </trkpt>
      <trkpt lat="46.39539" lon="5.99876">
        <ele>1329</ele>
        <time>2018-09-08T17:23:20Z</time>
      </trkpt>
      <trkpt lat="46.39536" lon="5.99869">
        <ele>1328</ele>
        <time>2018-09-08T17:23:25Z</time>
      </trkpt>
      <trkpt lat="46.39533" lon="5.99862">
        <ele>1327</ele>
        <time>2018-09-08T17:23:30Z</time>
      </trkpt>
      <trkpt lat="46.39527" lon="5.99848">
        <ele>1326</ele>
        <time>2018-09-08T17:23:40Z</time>
      </trkpt>
      <trkpt lat="46.39525" lon="5.99842">
        <ele>1326</ele>
        <time>2018-09-08T17:23:45Z</time>
      </trkpt>
      <trkpt lat="46.39523" lon="5.99836">
        <ele>1325</ele>
        <time>2018-09-08T17:23:50Z</time>
      </trkpt>
      <trkpt lat="46.39522" lon="5.9983">
        <ele>1325</ele>
        <time>2018-09-08T17:23:55Z</time>
      </trkpt>
      <trkpt lat="46.3952" lon="5.99819">
        <ele>1324</ele>
        <time>2018-09-08T17:24:05Z</time>
      </trkpt>
      <trkpt lat="46.39518" lon="5.99814">
        <ele>1323</ele>
        <time>2018-09-08T17:24:10Z</time>
      </trkpt>
      <trkpt lat="46.39514" lon="5.99808">
        <ele>1323</ele>
        <time>2018-09-08T17:24:15Z</time>
      </trkpt>
      <trkpt lat="46.39511" lon="5.99803">
        <ele>1323</ele>
        <time>2018-09-08T17:24:20Z</time>
      </trkpt>
      <trkpt lat="46.39508" lon="5.99798">
        <ele>1323</ele>
        <time>2018-09-08T17:24:25Z</time>
      </trkpt>
      <trkpt lat="46.39501" lon="5.99788">
        <ele>1323</ele>
        <time>2018-09-08T17:24:35Z</time>
      </trkpt>
      <trkpt lat="46.39498" lon="5.99782">
        <ele>1323</ele>
        <time>2018-09-08T17:24:40Z</time>
      </trkpt>
      <trkpt lat="46.39494" lon="5.99776">
        <ele>1323</ele>
        <time>2018-09-08T17:24:45Z</time>
      </trkpt>
      <trkpt lat="46.39491" lon="5.99771">
        <ele>1323</ele>
        <time>2018-09-08T17:24:50Z</time>
      </trkpt>
      <trkpt lat="46.3949" lon="5.99766">
        <ele>1323</ele>
        <time>2018-09-08T17:25:00Z</time>
      </trkpt>
      <trkpt lat="46.3949" lon="5.99767">
        <ele>1323</ele>
        <time>2018-09-08T17:25:05Z</time>
      </trkpt>
      <trkpt lat="46.3949" lon="5.99767">
        <ele>1323</ele>
        <time>2018-09-08T17:25:10Z</time>
      </trkpt>
      <trkpt lat="46.39489" lon="5.99766">
        <ele>1323</ele>
        <time>2018-09-08T17:25:15Z</time>
      </trkpt>
      <trkpt lat="46.39489" lon="5.99766">
        <ele>1323</ele>
        <time>2018-09-08T17:25:25Z</time>
      </trkpt>
      <trkpt lat="46.39489" lon="5.99767">
        <ele>1323</ele>
        <time>2018-09-08T17:25:30Z</time>
      </trkpt>
      <trkpt lat="46.39489" lon="5.99767">
        <ele>1323</ele>
        <time>2018-09-08T17:25:35Z</time>
      </trkpt>
      <trkpt lat="46.39489" lon="5.99766">
        <ele>1323</ele>
        <time>2018-09-08T17:25:40Z</time>
      </trkpt>
      <trkpt lat="46.3949" lon="5.99766">
        <ele>1323</ele>
        <time>2018-09-08T17:25:45Z</time>
      </trkpt>
      <trkpt lat="46.39488" lon="5.99756">
        <ele>1322</ele>
        <time>2018-09-08T17:25:55Z</time>
      </trkpt>
      <trkpt lat="46.39489" lon="5.9975">
        <ele>1322</ele>
        <time>2018-09-08T17:26:00Z</time>
      </trkpt>
      <trkpt lat="46.3949" lon="5.99744">
        <ele>1321</ele>
        <time>2018-09-08T17:26:05Z</time>
      </trkpt>
      <trkpt lat="46.39492" lon="5.99737">
        <ele>1320</ele>
        <time>2018-09-08T17:26:10Z</time>
      </trkpt>
      <trkpt lat="46.39497" lon="5.99725">
        <ele>1317</ele>
        <time>2018-09-08T17:26:20Z</time>
      </trkpt>
      <trkpt lat="46.39499" lon="5.99721">
        <ele>1316</ele>
        <time>2018-09-08T17:26:25Z</time>
      </trkpt>
      <trkpt lat="46.39501" lon="5.99717">
        <ele>1316</ele>
        <time>2018-09-08T17:26:30Z</time>
      </trkpt>
      <trkpt lat="46.39502" lon="5.99713">
        <ele>1315</ele>
        <time>2018-09-08T17:26:35Z</time>
      </trkpt>
      <trkpt lat="46.39505" lon="5.99707">
        <ele>1314</ele>
        <time>2018-09-08T17:26:45Z</time>
      </trkpt>
      <trkpt lat="46.39508" lon="5.99704">
        <ele>1313</ele>
        <time>2018-09-08T17:26:50Z</time>
      </trkpt>
      <trkpt lat="46.39511" lon="5.997">
        <ele>1312</ele>
        <time>2018-09-08T17:26:55Z</time>
      </trkpt>
      <trkpt lat="46.39513" lon="5.99695">
        <ele>1311</ele>
        <time>2018-09-08T17:27:00Z</time>
      </trkpt>
      <trkpt lat="46.39517" lon="5.99689">
        <ele>1309</ele>
        <time>2018-09-08T17:27:05Z</time>
      </trkpt>
      <trkpt lat="46.39524" lon="5.9968">
        <ele>1307</ele>
        <time>2018-09-08T17:27:15Z</time>
      </trkpt>
      <trkpt lat="46.39528" lon="5.99676">
        <ele>1306</ele>
        <time>2018-09-08T17:27:20Z</time>
      </trkpt>
      <trkpt lat="46.39531" lon="5.99677">
        <ele>1305</ele>
        <time>2018-09-08T17:27:25Z</time>
      </trkpt>
      <trkpt lat="46.39534" lon="5.99678">
        <ele>1305</ele>
        <time>2018-09-08T17:27:30Z</time>
      </trkpt>
      <trkpt lat="46.3954" lon="5.99684">
        <ele>1305</ele>
        <time>2018-09-08T17:27:40Z</time>
      </trkpt>
      <trkpt lat="46.39544" lon="5.99686">
        <ele>1304</ele>
        <time>2018-09-08T17:27:45Z</time>
      </trkpt>
      <trkpt lat="46.39548" lon="5.99687">
        <ele>1304</ele>
        <time>2018-09-08T17:27:50Z</time>
      </trkpt>
      <trkpt lat="46.39551" lon="5.99685">
        <ele>1303</ele>
        <time>2018-09-08T17:27:55Z</time>
      </trkpt>
      <trkpt lat="46.39556" lon="5.99676">
        <ele>1302</ele>
        <time>2018-09-08T17:28:05Z</time>
      </trkpt>
      <trkpt lat="46.39558" lon="5.9967">
        <ele>1301</ele>
        <time>2018-09-08T17:28:10Z</time>
      </trkpt>
      <trkpt lat="46.3956" lon="5.99662">
        <ele>1300</ele>
        <time>2018-09-08T17:28:15Z</time>
      </trkpt>
      <trkpt lat="46.3956" lon="5.99657">
        <ele>1299</ele>
        <time>2018-09-08T17:28:20Z</time>
      </trkpt>
      <trkpt lat="46.39557" lon="5.99651">
        <ele>1299</ele>
        <time>2018-09-08T17:28:25Z</time>
      </trkpt>
      <trkpt lat="46.39554" lon="5.99641">
        <ele>1298</ele>
        <time>2018-09-08T17:28:35Z</time>
      </trkpt>
      <trkpt lat="46.39552" lon="5.99634">
        <ele>1298</ele>
        <time>2018-09-08T17:28:40Z</time>
      </trkpt>
      <trkpt lat="46.39551" lon="5.99627">
        <ele>1298</ele>
        <time>2018-09-08T17:28:45Z</time>
      </trkpt>
      <trkpt lat="46.39552" lon="5.99621">
        <ele>1297</ele>
        <time>2018-09-08T17:28:50Z</time>
      </trkpt>
      <trkpt lat="46.39554" lon="5.9961">
        <ele>1296</ele>
        <time>2018-09-08T17:29:00Z</time>
      </trkpt>
      <trkpt lat="46.39556" lon="5.99604">
        <ele>1296</ele>
        <time>2018-09-08T17:29:05Z</time>
      </trkpt>
      <trkpt lat="46.3956" lon="5.996">
        <ele>1295</ele>
        <time>2018-09-08T17:29:10Z</time>
      </trkpt>
      <trkpt lat="46.39563" lon="5.99596">
        <ele>1294</ele>
        <time>2018-09-08T17:29:15Z</time>
      </trkpt>
      <trkpt lat="46.39565" lon="5.99594">
        <ele>1293</ele>
        <time>2018-09-08T17:29:20Z</time>
      </trkpt>
      <trkpt lat="46.39571" lon="5.99585">
        <ele>1292</ele>
        <time>2018-09-08T17:29:30Z</time>
      </trkpt>
      <trkpt lat="46.39575" lon="5.99584">
        <ele>1291</ele>
        <time>2018-09-08T17:29:35Z</time>
      </trkpt>
      <trkpt lat="46.3958" lon="5.99581">
        <ele>1290</ele>
        <time>2018-09-08T17:29:40Z</time>
      </trkpt>
      <trkpt lat="46.39585" lon="5.9958">
        <ele>1290</ele>
        <time>2018-09-08T17:29:45Z</time>
      </trkpt>
      <trkpt lat="46.39596" lon="5.99581">
        <ele>1288</ele>
        <time>2018-09-08T17:29:55Z</time>
      </trkpt>
      <trkpt lat="46.39599" lon="5.9958">
        <ele>1288</ele>
        <time>2018-09-08T17:30:00Z</time>
      </trkpt>
      <trkpt lat="46.39603" lon="5.9958">
        <ele>1288</ele>
        <time>2018-09-08T17:30:05Z</time>
      </trkpt>
      <trkpt lat="46.39605" lon="5.9958">
        <ele>1288</ele>
        <time>2018-09-08T17:30:10Z</time>
      </trkpt>
      <trkpt lat="46.39614" lon="5.99578">
        <ele>1287</ele>
        <time>2018-09-08T17:30:20Z</time>
      </trkpt>
      <trkpt lat="46.39617" lon="5.99578">
        <ele>1287</ele>
        <time>2018-09-08T17:30:25Z</time>
      </trkpt>
      <trkpt lat="46.39619" lon="5.99578">
        <ele>1287</ele>
        <time>2018-09-08T17:30:30Z</time>
      </trkpt>
      <trkpt lat="46.39619" lon="5.99576">
        <ele>1287</ele>
        <time>2018-09-08T17:30:35Z</time>
      </trkpt>
      <trkpt lat="46.3962" lon="5.99578">
        <ele>1287</ele>
        <time>2018-09-08T17:30:40Z</time>
      </trkpt>
      <trkpt lat="46.39622" lon="5.99573">
        <ele>1286</ele>
        <time>2018-09-08T17:30:50Z</time>
      </trkpt>
      <trkpt lat="46.39625" lon="5.9957">
        <ele>1286</ele>
        <time>2018-09-08T17:30:55Z</time>
      </trkpt>
      <trkpt lat="46.39626" lon="5.99566">
        <ele>1286</ele>
        <time>2018-09-08T17:31:00Z</time>
      </trkpt>
      <trkpt lat="46.39629" lon="5.99564">
        <ele>1285</ele>
        <time>2018-09-08T17:31:05Z</time>
      </trkpt>
      <trkpt lat="46.39636" lon="5.99558">
        <ele>1284</ele>
        <time>2018-09-08T17:31:15Z</time>
      </trkpt>
      <trkpt lat="46.3964" lon="5.99552">
        <ele>1284</ele>
        <time>2018-09-08T17:31:20Z</time>
      </trkpt>
      <trkpt lat="46.39643" lon="5.99545">
        <ele>1283</ele>
        <time>2018-09-08T17:31:25Z</time>
      </trkpt>
      <trkpt lat="46.39648" lon="5.99537">
        <ele>1282</ele>
        <time>2018-09-08T17:31:30Z</time>
      </trkpt>
      <trkpt lat="46.39653" lon="5.99527">
        <ele>1281</ele>
        <time>2018-09-08T17:31:40Z</time>
      </trkpt>
      <trkpt lat="46.39655" lon="5.99523">
        <ele>1280</ele>
        <time>2018-09-08T17:31:45Z</time>
      </trkpt>
      <trkpt lat="46.39657" lon="5.9952">
        <ele>1280</ele>
        <time>2018-09-08T17:31:50Z</time>
      </trkpt>
      <trkpt lat="46.39659" lon="5.99517">
        <ele>1279</ele>
        <time>2018-09-08T17:31:55Z</time>
      </trkpt>
      <trkpt lat="46.39661" lon="5.99512">
        <ele>1279</ele>
        <time>2018-09-08T17:32:00Z</time>
      </trkpt>
      <trkpt lat="46.39664" lon="5.99503">
        <ele>1277</ele>
        <time>2018-09-08T17:32:10Z</time>
      </trkpt>
      <trkpt lat="46.39665" lon="5.99498">
        <ele>1277</ele>
        <time>2018-09-08T17:32:15Z</time>
      </trkpt>
      <trkpt lat="46.39666" lon="5.99492">
        <ele>1276</ele>
        <time>2018-09-08T17:32:20Z</time>
      </trkpt>
      <trkpt lat="46.39665" lon="5.99487">
        <ele>1276</ele>
        <time>2018-09-08T17:32:25Z</time>
      </trkpt>
      <trkpt lat="46.39664" lon="5.99478">
        <ele>1275</ele>
        <time>2018-09-08T17:32:35Z</time>
      </trkpt>
      <trkpt lat="46.39665" lon="5.99474">
        <ele>1275</ele>
        <time>2018-09-08T17:32:40Z</time>
      </trkpt>
      <trkpt lat="46.39666" lon="5.9947">
        <ele>1274</ele>
        <time>2018-09-08T17:32:45Z</time>
      </trkpt>
      <trkpt lat="46.3967" lon="5.99467">
        <ele>1274</ele>
        <time>2018-09-08T17:32:50Z</time>
      </trkpt>
      <trkpt lat="46.39672" lon="5.99464">
        <ele>1273</ele>
        <time>2018-09-08T17:32:55Z</time>
      </trkpt>
      <trkpt lat="46.39677" lon="5.99459">
        <ele>1272</ele>
        <time>2018-09-08T17:33:05Z</time>
      </trkpt>
      <trkpt lat="46.39683" lon="5.99457">
        <ele>1271</ele>
        <time>2018-09-08T17:33:10Z</time>
      </trkpt>
      <trkpt lat="46.39686" lon="5.99458">
        <ele>1271</ele>
        <time>2018-09-08T17:33:15Z</time>
      </trkpt>
      <trkpt lat="46.39688" lon="5.99458">
        <ele>1271</ele>
        <time>2018-09-08T17:33:20Z</time>
      </trkpt>
      <trkpt lat="46.39689" lon="5.99456">
        <ele>1271</ele>
        <time>2018-09-08T17:33:30Z</time>
      </trkpt>
      <trkpt lat="46.3969" lon="5.99458">
        <ele>1271</ele>
        <time>2018-09-08T17:33:35Z</time>
      </trkpt>
      <trkpt lat="46.39694" lon="5.99461">
        <ele>1270</ele>
        <time>2018-09-08T17:33:40Z</time>
      </trkpt>
      <trkpt lat="46.39699" lon="5.99465">
        <ele>1270</ele>
        <time>2018-09-08T17:33:45Z</time>
      </trkpt>
      <trkpt lat="46.39706" lon="5.99472">
        <ele>1270</ele>
        <time>2018-09-08T17:33:55Z</time>
      </trkpt>
      <trkpt lat="46.3971" lon="5.99479">
        <ele>1270</ele>
        <time>2018-09-08T17:34:00Z</time>
      </trkpt>
      <trkpt lat="46.39715" lon="5.99485">
        <ele>1270</ele>
        <time>2018-09-08T17:34:05Z</time>
      </trkpt>
      <trkpt lat="46.39718" lon="5.99492">
        <ele>1270</ele>
        <time>2018-09-08T17:34:10Z</time>
      </trkpt>
      <trkpt lat="46.39721" lon="5.99499">
        <ele>1270</ele>
        <time>2018-09-08T17:34:15Z</time>
      </trkpt>
      <trkpt lat="46.39731" lon="5.99509">
        <ele>1270</ele>
        <time>2018-09-08T17:34:25Z</time>
      </trkpt>
      <trkpt lat="46.39737" lon="5.99512">
        <ele>1270</ele>
        <time>2018-09-08T17:34:30Z</time>
      </trkpt>
      <trkpt lat="46.39744" lon="5.9951">
        <ele>1269</ele>
        <time>2018-09-08T17:34:35Z</time>
      </trkpt>
      <trkpt lat="46.39748" lon="5.99507">
        <ele>1269</ele>
        <time>2018-09-08T17:34:40Z</time>
      </trkpt>
      <trkpt lat="46.39751" lon="5.99507">
        <ele>1269</ele>
        <time>2018-09-08T17:34:50Z</time>
      </trkpt>
      <trkpt lat="46.39753" lon="5.99506">
        <ele>1268</ele>
        <time>2018-09-08T17:34:55Z</time>
      </trkpt>
      <trkpt lat="46.39753" lon="5.99506">
        <ele>1268</ele>
        <time>2018-09-08T17:35:00Z</time>
      </trkpt>
      <trkpt lat="46.39753" lon="5.99505">
        <ele>1268</ele>
        <time>2018-09-08T17:35:05Z</time>
      </trkpt>
      <trkpt lat="46.39755" lon="5.995">
        <ele>1268</ele>
        <time>2018-09-08T17:35:15Z</time>
      </trkpt>
      <trkpt lat="46.39758" lon="5.99493">
        <ele>1267</ele>
        <time>2018-09-08T17:35:20Z</time>
      </trkpt>
      <trkpt lat="46.39759" lon="5.99485">
        <ele>1266</ele>
        <time>2018-09-08T17:35:25Z</time>
      </trkpt>
      <trkpt lat="46.39762" lon="5.99477">
        <ele>1265</ele>
        <time>2018-09-08T17:35:30Z</time>
      </trkpt>
      <trkpt lat="46.39764" lon="5.9947">
        <ele>1264</ele>
        <time>2018-09-08T17:35:35Z</time>
      </trkpt>
      <trkpt lat="46.39767" lon="5.99455">
        <ele>1262</ele>
        <time>2018-09-08T17:35:45Z</time>
      </trkpt>
      <trkpt lat="46.39767" lon="5.9945">
        <ele>1262</ele>
        <time>2018-09-08T17:35:50Z</time>
      </trkpt>
      <trkpt lat="46.39767" lon="5.99444">
        <ele>1261</ele>
        <time>2018-09-08T17:35:55Z</time>
      </trkpt>
      <trkpt lat="46.39768" lon="5.99438">
        <ele>1261</ele>
        <time>2018-09-08T17:36:00Z</time>
      </trkpt>
      <trkpt lat="46.39766" lon="5.99428">
        <ele>1260</ele>
        <time>2018-09-08T17:36:10Z</time>
      </trkpt>
      <trkpt lat="46.39764" lon="5.99421">
        <ele>1259</ele>
        <time>2018-09-08T17:36:15Z</time>
      </trkpt>
      <trkpt lat="46.39765" lon="5.99414">
        <ele>1259</ele>
        <time>2018-09-08T17:36:20Z</time>
      </trkpt>
      <trkpt lat="46.39766" lon="5.99407">
        <ele>1258</ele>
        <time>2018-09-08T17:36:25Z</time>
      </trkpt>
      <trkpt lat="46.39772" lon="5.99394">
        <ele>1256</ele>
        <time>2018-09-08T17:36:35Z</time>
      </trkpt>
      <trkpt lat="46.39775" lon="5.99389">
        <ele>1255</ele>
        <time>2018-09-08T17:36:40Z</time>
      </trkpt>
      <trkpt lat="46.39779" lon="5.99384">
        <ele>1254</ele>
        <time>2018-09-08T17:36:45Z</time>
      </trkpt>
      <trkpt lat="46.39782" lon="5.9938">
        <ele>1254</ele>
        <time>2018-09-08T17:36:50Z</time>
      </trkpt>
      <trkpt lat="46.39785" lon="5.99378">
        <ele>1253</ele>
        <time>2018-09-08T17:36:55Z</time>
      </trkpt>
      <trkpt lat="46.3979" lon="5.99375">
        <ele>1252</ele>
        <time>2018-09-08T17:37:05Z</time>
      </trkpt>
      <trkpt lat="46.39793" lon="5.99374">
        <ele>1252</ele>
        <time>2018-09-08T17:37:10Z</time>
      </trkpt>
      <trkpt lat="46.39793" lon="5.99374">
        <ele>1252</ele>
        <time>2018-09-08T17:37:15Z</time>
      </trkpt>
      <trkpt lat="46.39797" lon="5.99369">
        <ele>1251</ele>
        <time>2018-09-08T17:37:20Z</time>
      </trkpt>
      <trkpt lat="46.39807" lon="5.99357">
        <ele>1249</ele>
        <time>2018-09-08T17:37:30Z</time>
      </trkpt>
      <trkpt lat="46.39813" lon="5.99351">
        <ele>1248</ele>
        <time>2018-09-08T17:37:35Z</time>
      </trkpt>
      <trkpt lat="46.39818" lon="5.99346">
        <ele>1247</ele>
        <time>2018-09-08T17:37:40Z</time>
      </trkpt>
      <trkpt lat="46.39822" lon="5.99343">
        <ele>1247</ele>
        <time>2018-09-08T17:37:45Z</time>
      </trkpt>
      <trkpt lat="46.39822" lon="5.99344">
        <ele>1247</ele>
        <time>2018-09-08T17:37:50Z</time>
      </trkpt>
      <trkpt lat="46.39826" lon="5.99335">
        <ele>1246</ele>
        <time>2018-09-08T17:38:00Z</time>
      </trkpt>
      <trkpt lat="46.3983" lon="5.99329">
        <ele>1245</ele>
        <time>2018-09-08T17:38:05Z</time>
      </trkpt>
      <trkpt lat="46.39834" lon="5.99324">
        <ele>1244</ele>
        <time>2018-09-08T17:38:10Z</time>
      </trkpt>
      <trkpt lat="46.39836" lon="5.9932">
        <ele>1244</ele>
        <time>2018-09-08T17:38:15Z</time>
      </trkpt>
      <trkpt lat="46.39842" lon="5.99309">
        <ele>1242</ele>
        <time>2018-09-08T17:38:25Z</time>
      </trkpt>
      <trkpt lat="46.39845" lon="5.99304">
        <ele>1242</ele>
        <time>2018-09-08T17:38:30Z</time>
      </trkpt>
      <trkpt lat="46.39848" lon="5.99298">
        <ele>1241</ele>
        <time>2018-09-08T17:38:35Z</time>
      </trkpt>
      <trkpt lat="46.39851" lon="5.99292">
        <ele>1241</ele>
        <time>2018-09-08T17:38:40Z</time>
      </trkpt>
      <trkpt lat="46.39855" lon="5.99277">
        <ele>1240</ele>
        <time>2018-09-08T17:38:50Z</time>
      </trkpt>
      <trkpt lat="46.39858" lon="5.9927">
        <ele>1240</ele>
        <time>2018-09-08T17:38:55Z</time>
      </trkpt>
      <trkpt lat="46.3986" lon="5.99263">
        <ele>1239</ele>
        <time>2018-09-08T17:39:00Z</time>
      </trkpt>
      <trkpt lat="46.39862" lon="5.99256">
        <ele>1239</ele>
        <time>2018-09-08T17:39:05Z</time>
      </trkpt>
      <trkpt lat="46.39865" lon="5.99249">
        <ele>1239</ele>
        <time>2018-09-08T17:39:10Z</time>
      </trkpt>
      <trkpt lat="46.3987" lon="5.99235">
        <ele>1238</ele>
        <time>2018-09-08T17:39:20Z</time>
      </trkpt>
      <trkpt lat="46.39872" lon="5.99229">
        <ele>1238</ele>
        <time>2018-09-08T17:39:25Z</time>
      </trkpt>
      <trkpt lat="46.39874" lon="5.99226">
        <ele>1238</ele>
        <time>2018-09-08T17:39:30Z</time>
      </trkpt>
      <trkpt lat="46.39875" lon="5.99227">
        <ele>1238</ele>
        <time>2018-09-08T17:39:35Z</time>
      </trkpt>
      <trkpt lat="46.39876" lon="5.99224">
        <ele>1238</ele>
        <time>2018-09-08T17:39:45Z</time>
      </trkpt>
      <trkpt lat="46.39879" lon="5.99221">
        <ele>1237</ele>
        <time>2018-09-08T17:39:50Z</time>
      </trkpt>
      <trkpt lat="46.39882" lon="5.99219">
        <ele>1237</ele>
        <time>2018-09-08T17:39:55Z</time>
      </trkpt>
      <trkpt lat="46.39885" lon="5.99218">
        <ele>1237</ele>
        <time>2018-09-08T17:40:00Z</time>
      </trkpt>
      <trkpt lat="46.39885" lon="5.99218">
        <ele>1237</ele>
        <time>2018-09-08T17:40:10Z</time>
      </trkpt>
      <trkpt lat="46.39888" lon="5.99222">
        <ele>1237</ele>
        <time>2018-09-08T17:40:15Z</time>
      </trkpt>
      <trkpt lat="46.39891" lon="5.99226">
        <ele>1237</ele>
        <time>2018-09-08T17:40:20Z</time>
      </trkpt>
      <trkpt lat="46.39892" lon="5.99228">
        <ele>1237</ele>
        <time>2018-09-08T17:40:25Z</time>
      </trkpt>
      <trkpt lat="46.39895" lon="5.99231">
        <ele>1237</ele>
        <time>2018-09-08T17:40:30Z</time>
      </trkpt>
      <trkpt lat="46.39898" lon="5.99236">
        <ele>1237</ele>
        <time>2018-09-08T17:40:40Z</time>
      </trkpt>
      <trkpt lat="46.39898" lon="5.99236">
        <ele>1237</ele>
        <time>2018-09-08T17:40:45Z</time>
      </trkpt>
      <trkpt lat="46.39898" lon="5.99236">
        <ele>1237</ele>
        <time>2018-09-08T17:40:50Z</time>
      </trkpt>
      <trkpt lat="46.39898" lon="5.99236">
        <ele>1237</ele>
        <time>2018-09-08T17:40:55Z</time>
      </trkpt>
      <trkpt lat="46.39897" lon="5.99236">
        <ele>1237</ele>
        <time>2018-09-08T17:41:05Z</time>
      </trkpt>
      <trkpt lat="46.39898" lon="5.99237">
        <ele>1237</ele>
        <time>2018-09-08T17:41:10Z</time>
      </trkpt>
      <trkpt lat="46.399" lon="5.9924">
        <ele>1237</ele>
        <time>2018-09-08T17:41:15Z</time>
      </trkpt>
      <trkpt lat="46.39903" lon="5.99244">
        <ele>1237</ele>
        <time>2018-09-08T17:41:20Z</time>
      </trkpt>
      <trkpt lat="46.39908" lon="5.99252">
        <ele>1237</ele>
        <time>2018-09-08T17:41:30Z</time>
      </trkpt>
      <trkpt lat="46.3991" lon="5.99256">
        <ele>1237</ele>
        <time>2018-09-08T17:41:35Z</time>
      </trkpt>
      <trkpt lat="46.39913" lon="5.99258">
        <ele>1237</ele>
        <time>2018-09-08T17:41:40Z</time>
      </trkpt>
      <trkpt lat="46.39916" lon="5.99262">
        <ele>1237</ele>
        <time>2018-09-08T17:41:45Z</time>
      </trkpt>
      <trkpt lat="46.39919" lon="5.99265">
        <ele>1237</ele>
        <time>2018-09-08T17:41:50Z</time>
      </trkpt>
      <trkpt lat="46.39926" lon="5.99273">
        <ele>1237</ele>
        <time>2018-09-08T17:42:00Z</time>
      </trkpt>
      <trkpt lat="46.39928" lon="5.99278">
        <ele>1237</ele>
        <time>2018-09-08T17:42:05Z</time>
      </trkpt>
      <trkpt lat="46.3993" lon="5.99284">
        <ele>1237</ele>
        <time>2018-09-08T17:42:10Z</time>
      </trkpt>
      <trkpt lat="46.39931" lon="5.99289">
        <ele>1237</ele>
        <time>2018-09-08T17:42:15Z</time>
      </trkpt>
      <trkpt lat="46.39934" lon="5.99301">
        <ele>1237</ele>
        <time>2018-09-08T17:42:25Z</time>
      </trkpt>
      <trkpt lat="46.39937" lon="5.99305">
        <ele>1237</ele>
        <time>2018-09-08T17:42:30Z</time>
      </trkpt>
      <trkpt lat="46.39938" lon="5.9931">
        <ele>1237</ele>
        <time>2018-09-08T17:42:35Z</time>
      </trkpt>
      <trkpt lat="46.3994" lon="5.99315">
        <ele>1237</ele>
        <time>2018-09-08T17:42:40Z</time>
      </trkpt>
      <trkpt lat="46.39942" lon="5.9932">
        <ele>1238</ele>
        <time>2018-09-08T17:42:45Z</time>
      </trkpt>
      <trkpt lat="46.39946" lon="5.99329">
        <ele>1238</ele>
        <time>2018-09-08T17:42:55Z</time>
      </trkpt>
      <trkpt lat="46.39947" lon="5.99333">
        <ele>1238</ele>
        <time>2018-09-08T17:43:00Z</time>
      </trkpt>
      <trkpt lat="46.39949" lon="5.99338">
        <ele>1238</ele>
        <time>2018-09-08T17:43:05Z</time>
      </trkpt>
      <trkpt lat="46.39951" lon="5.99343">
        <ele>1238</ele>
        <time>2018-09-08T17:43:10Z</time>
      </trkpt>
      <trkpt lat="46.39955" lon="5.99352">
        <ele>1239</ele>
        <time>2018-09-08T17:43:20Z</time>
      </trkpt>
      <trkpt lat="46.39957" lon="5.99356">
        <ele>1239</ele>
        <time>2018-09-08T17:43:25Z</time>
      </trkpt>
      <trkpt lat="46.39958" lon="5.99359">
        <ele>1239</ele>
        <time>2018-09-08T17:43:30Z</time>
      </trkpt>
      <trkpt lat="46.39958" lon="5.9936">
        <ele>1239</ele>
        <time>2018-09-08T17:43:35Z</time>
      </trkpt>
      <trkpt lat="46.39962" lon="5.99369">
        <ele>1240</ele>
        <time>2018-09-08T17:43:45Z</time>
      </trkpt>
      <trkpt lat="46.39963" lon="5.9937">
        <ele>1240</ele>
        <time>2018-09-08T17:43:50Z</time>
      </trkpt>
      <trkpt lat="46.39963" lon="5.9937">
        <ele>1240</ele>
        <time>2018-09-08T17:43:55Z</time>
      </trkpt>
      <trkpt lat="46.39963" lon="5.9937">
        <ele>1240</ele>
        <time>2018-09-08T17:44:00Z</time>
      </trkpt>
      <trkpt lat="46.39965" lon="5.99375">
        <ele>1240</ele>
        <time>2018-09-08T17:44:05Z</time>
      </trkpt>
      <trkpt lat="46.39969" lon="5.99386">
        <ele>1241</ele>
        <time>2018-09-08T17:44:15Z</time>
      </trkpt>
      <trkpt lat="46.39971" lon="5.99391">
        <ele>1242</ele>
        <time>2018-09-08T17:44:20Z</time>
      </trkpt>
      <trkpt lat="46.39971" lon="5.99391">
        <ele>1242</ele>
        <time>2018-09-08T17:44:25Z</time>
      </trkpt>
      <trkpt lat="46.39973" lon="5.99396">
        <ele>1242</ele>
        <time>2018-09-08T17:44:30Z</time>
      </trkpt>
      <trkpt lat="46.39978" lon="5.99405">
        <ele>1243</ele>
        <time>2018-09-08T17:44:40Z</time>
      </trkpt>
      <trkpt lat="46.3998" lon="5.9941">
        <ele>1243</ele>
        <time>2018-09-08T17:44:45Z</time>
      </trkpt>
      <trkpt lat="46.39982" lon="5.99415">
        <ele>1244</ele>
        <time>2018-09-08T17:44:50Z</time>
      </trkpt>
      <trkpt lat="46.39985" lon="5.99419">
        <ele>1244</ele>
        <time>2018-09-08T17:44:55Z</time>
      </trkpt>
      <trkpt lat="46.39991" lon="5.99426">
        <ele>1244</ele>
        <time>2018-09-08T17:45:05Z</time>
      </trkpt>
      <trkpt lat="46.39995" lon="5.99428">
        <ele>1244</ele>
        <time>2018-09-08T17:45:10Z</time>
      </trkpt>
      <trkpt lat="46.39999" lon="5.9943">
        <ele>1244</ele>
        <time>2018-09-08T17:45:15Z</time>
      </trkpt>
      <trkpt lat="46.40001" lon="5.99432">
        <ele>1245</ele>
        <time>2018-09-08T17:45:20Z</time>
      </trkpt>
      <trkpt lat="46.40004" lon="5.99431">
        <ele>1244</ele>
        <time>2018-09-08T17:45:25Z</time>
      </trkpt>
      <trkpt lat="46.40011" lon="5.99432">
        <ele>1244</ele>
        <time>2018-09-08T17:45:35Z</time>
      </trkpt>
      <trkpt lat="46.40014" lon="5.99433">
        <ele>1245</ele>
        <time>2018-09-08T17:45:40Z</time>
      </trkpt>
      <trkpt lat="46.40017" lon="5.99437">
        <ele>1245</ele>
        <time>2018-09-08T17:45:45Z</time>
      </trkpt>
      <trkpt lat="46.40021" lon="5.99439">
        <ele>1245</ele>
        <time>2018-09-08T17:45:50Z</time>
      </trkpt>
      <trkpt lat="46.40029" lon="5.99446">
        <ele>1246</ele>
        <time>2018-09-08T17:46:00Z</time>
      </trkpt>
      <trkpt lat="46.40033" lon="5.9945">
        <ele>1247</ele>
        <time>2018-09-08T17:46:05Z</time>
      </trkpt>
      <trkpt lat="46.40037" lon="5.99455">
        <ele>1247</ele>
        <time>2018-09-08T17:46:10Z</time>
      </trkpt>
      <trkpt lat="46.4004" lon="5.9946">
        <ele>1248</ele>
        <time>2018-09-08T17:46:15Z</time>
      </trkpt>
      <trkpt lat="46.40044" lon="5.99464">
        <ele>1248</ele>
        <time>2018-09-08T17:46:20Z</time>
      </trkpt>
      <trkpt lat="46.40048" lon="5.99469">
        <ele>1249</ele>
        <time>2018-09-08T17:46:30Z</time>
      </trkpt>
      <trkpt lat="46.40051" lon="5.99472">
        <ele>1249</ele>
        <time>2018-09-08T17:46:35Z</time>
      </trkpt>
      <trkpt lat="46.40054" lon="5.99476">
        <ele>1249</ele>
        <time>2018-09-08T17:46:40Z</time>
      </trkpt>
      <trkpt lat="46.40057" lon="5.9948">
        <ele>1250</ele>
        <time>2018-09-08T17:46:45Z</time>
      </trkpt>
      <trkpt lat="46.40062" lon="5.99489">
        <ele>1250</ele>
        <time>2018-09-08T17:46:55Z</time>
      </trkpt>
      <trkpt lat="46.40066" lon="5.99493">
        <ele>1250</ele>
        <time>2018-09-08T17:47:00Z</time>
      </trkpt>
      <trkpt lat="46.40069" lon="5.99497">
        <ele>1251</ele>
        <time>2018-09-08T17:47:05Z</time>
      </trkpt>
      <trkpt lat="46.40072" lon="5.99501">
        <ele>1251</ele>
        <time>2018-09-08T17:47:10Z</time>
      </trkpt>
      <trkpt lat="46.40079" lon="5.99507">
        <ele>1251</ele>
        <time>2018-09-08T17:47:20Z</time>
      </trkpt>
      <trkpt lat="46.40082" lon="5.99511">
        <ele>1251</ele>
        <time>2018-09-08T17:47:25Z</time>
      </trkpt>
      <trkpt lat="46.40083" lon="5.99511">
        <ele>1251</ele>
        <time>2018-09-08T17:47:30Z</time>
      </trkpt>
      <trkpt lat="46.40085" lon="5.99512">
        <ele>1251</ele>
        <time>2018-09-08T17:47:35Z</time>
      </trkpt>
      <trkpt lat="46.40088" lon="5.99509">
        <ele>1251</ele>
        <time>2018-09-08T17:47:40Z</time>
      </trkpt>
      <trkpt lat="46.40089" lon="5.99511">
        <ele>1251</ele>
        <time>2018-09-08T17:47:50Z</time>
      </trkpt>
      <trkpt lat="46.40091" lon="5.99515">
        <ele>1252</ele>
        <time>2018-09-08T17:47:55Z</time>
      </trkpt>
      <trkpt lat="46.40095" lon="5.99517">
        <ele>1252</ele>
        <time>2018-09-08T17:48:00Z</time>
      </trkpt>
      <trkpt lat="46.40098" lon="5.99519">
        <ele>1252</ele>
        <time>2018-09-08T17:48:05Z</time>
      </trkpt>
      <trkpt lat="46.40105" lon="5.99525">
        <ele>1253</ele>
        <time>2018-09-08T17:48:15Z</time>
      </trkpt>
      <trkpt lat="46.4011" lon="5.99528">
        <ele>1254</ele>
        <time>2018-09-08T17:48:20Z</time>
      </trkpt>
      <trkpt lat="46.40114" lon="5.99531">
        <ele>1254</ele>
        <time>2018-09-08T17:48:25Z</time>
      </trkpt>
      <trkpt lat="46.40118" lon="5.99533">
        <ele>1254</ele>
        <time>2018-09-08T17:48:30Z</time>
      </trkpt>
      <trkpt lat="46.40127" lon="5.9954">
        <ele>1255</ele>
        <time>2018-09-08T17:48:40Z</time>
      </trkpt>
      <trkpt lat="46.40132" lon="5.99542">
        <ele>1255</ele>
        <time>2018-09-08T17:48:45Z</time>
      </trkpt>
      <trkpt lat="46.40136" lon="5.99544">
        <ele>1255</ele>
        <time>2018-09-08T17:48:50Z</time>
      </trkpt>
      <trkpt lat="46.40141" lon="5.99547">
        <ele>1255</ele>
        <time>2018-09-08T17:48:55Z</time>
      </trkpt>
      <trkpt lat="46.40146" lon="5.99548">
        <ele>1255</ele>
        <time>2018-09-08T17:49:00Z</time>
      </trkpt>
      <trkpt lat="46.40153" lon="5.99551">
        <ele>1255</ele>
        <time>2018-09-08T17:49:10Z</time>
      </trkpt>
      <trkpt lat="46.40153" lon="5.99551">
        <ele>1255</ele>
        <time>2018-09-08T17:49:15Z</time>
      </trkpt>
      <trkpt lat="46.40153" lon="5.99551">
        <ele>1255</ele>
        <time>2018-09-08T17:49:20Z</time>
      </trkpt>
      <trkpt lat="46.40156" lon="5.99552">
        <ele>1255</ele>
        <time>2018-09-08T17:49:25Z</time>
      </trkpt>
      <trkpt lat="46.40165" lon="5.99557">
        <ele>1256</ele>
        <time>2018-09-08T17:49:35Z</time>
      </trkpt>
      <trkpt lat="46.40169" lon="5.99559">
        <ele>1256</ele>
        <time>2018-09-08T17:49:40Z</time>
      </trkpt>
      <trkpt lat="46.40171" lon="5.9956">
        <ele>1256</ele>
        <time>2018-09-08T17:49:45Z</time>
      </trkpt>
      <trkpt lat="46.40171" lon="5.9956">
        <ele>1256</ele>
        <time>2018-09-08T17:49:50Z</time>
      </trkpt>
      <trkpt lat="46.40171" lon="5.9956">
        <ele>1256</ele>
        <time>2018-09-08T17:50:00Z</time>
      </trkpt>
      <trkpt lat="46.40172" lon="5.99561">
        <ele>1257</ele>
        <time>2018-09-08T17:50:05Z</time>
      </trkpt>
      <trkpt lat="46.40173" lon="5.99561">
        <ele>1257</ele>
        <time>2018-09-08T17:50:10Z</time>
      </trkpt>
      <trkpt lat="46.40173" lon="5.9956">
        <ele>1256</ele>
        <time>2018-09-08T17:50:15Z</time>
      </trkpt>
      <trkpt lat="46.40173" lon="5.9956">
        <ele>1256</ele>
        <time>2018-09-08T17:50:20Z</time>
      </trkpt>
      <trkpt lat="46.40173" lon="5.99561">
        <ele>1257</ele>
        <time>2018-09-08T17:50:30Z</time>
      </trkpt>
      <trkpt lat="46.40176" lon="5.99563">
        <ele>1257</ele>
        <time>2018-09-08T17:50:35Z</time>
      </trkpt>
      <trkpt lat="46.40178" lon="5.99564">
        <ele>1257</ele>
        <time>2018-09-08T17:50:40Z</time>
      </trkpt>
      <trkpt lat="46.40182" lon="5.99566">
        <ele>1257</ele>
        <time>2018-09-08T17:50:45Z</time>
      </trkpt>
      <trkpt lat="46.40187" lon="5.99569">
        <ele>1258</ele>
        <time>2018-09-08T17:50:55Z</time>
      </trkpt>
      <trkpt lat="46.4019" lon="5.99571">
        <ele>1258</ele>
        <time>2018-09-08T17:51:00Z</time>
      </trkpt>
      <trkpt lat="46.40191" lon="5.99572">
        <ele>1258</ele>
        <time>2018-09-08T17:51:05Z</time>
      </trkpt>
      <trkpt lat="46.40195" lon="5.99575">
        <ele>1258</ele>
        <time>2018-09-08T17:51:10Z</time>
      </trkpt>
      <trkpt lat="46.40198" lon="5.99578">
        <ele>1259</ele>
        <time>2018-09-08T17:51:15Z</time>
      </trkpt>
      <trkpt lat="46.40205" lon="5.99584">
        <ele>1260</ele>
        <time>2018-09-08T17:51:25Z</time>
      </trkpt>
      <trkpt lat="46.40209" lon="5.99587">
        <ele>1261</ele>
        <time>2018-09-08T17:51:30Z</time>
      </trkpt>
      <trkpt lat="46.40214" lon="5.99589">
        <ele>1261</ele>
        <time>2018-09-08T17:51:35Z</time>
      </trkpt>
      <trkpt lat="46.40218" lon="5.9959">
        <ele>1262</ele>
        <time>2018-09-08T17:51:40Z</time>
      </trkpt>
      <trkpt lat="46.40228" lon="5.99594">
        <ele>1263</ele>
        <time>2018-09-08T17:51:50Z</time>
      </trkpt>
      <trkpt lat="46.40234" lon="5.99593">
        <ele>1263</ele>
        <time>2018-09-08T17:51:55Z</time>
      </trkpt>
      <trkpt lat="46.40239" lon="5.99593">
        <ele>1263</ele>
        <time>2018-09-08T17:52:00Z</time>
      </trkpt>
      <trkpt lat="46.40244" lon="5.99593">
        <ele>1263</ele>
        <time>2018-09-08T17:52:05Z</time>
      </trkpt>
      <trkpt lat="46.40254" lon="5.99595">
        <ele>1264</ele>
        <time>2018-09-08T17:52:15Z</time>
      </trkpt>
      <trkpt lat="46.40258" lon="5.99597">
        <ele>1264</ele>
        <time>2018-09-08T17:52:20Z</time>
      </trkpt>
      <trkpt lat="46.40263" lon="5.99599">
        <ele>1265</ele>
        <time>2018-09-08T17:52:25Z</time>
      </trkpt>
      <trkpt lat="46.40268" lon="5.99601">
        <ele>1265</ele>
        <time>2018-09-08T17:52:30Z</time>
      </trkpt>
      <trkpt lat="46.40273" lon="5.99605">
        <ele>1266</ele>
        <time>2018-09-08T17:52:35Z</time>
      </trkpt>
      <trkpt lat="46.40282" lon="5.99615">
        <ele>1268</ele>
        <time>2018-09-08T17:52:45Z</time>
      </trkpt>
      <trkpt lat="46.40286" lon="5.99619">
        <ele>1269</ele>
        <time>2018-09-08T17:52:50Z</time>
      </trkpt>
      <trkpt lat="46.4029" lon="5.99623">
        <ele>1269</ele>
        <time>2018-09-08T17:52:55Z</time>
      </trkpt>
      <trkpt lat="46.40295" lon="5.99627">
        <ele>1270</ele>
        <time>2018-09-08T17:53:00Z</time>
      </trkpt>
      <trkpt lat="46.40302" lon="5.99635">
        <ele>1271</ele>
        <time>2018-09-08T17:53:10Z</time>
      </trkpt>
      <trkpt lat="46.40308" lon="5.99638">
        <ele>1271</ele>
        <time>2018-09-08T17:53:15Z</time>
      </trkpt>
      <trkpt lat="46.40311" lon="5.99642">
        <ele>1271</ele>
        <time>2018-09-08T17:53:20Z</time>
      </trkpt>
      <trkpt lat="46.40316" lon="5.99646">
        <ele>1272</ele>
        <time>2018-09-08T17:53:25Z</time>
      </trkpt>
      <trkpt lat="46.40326" lon="5.99658">
        <ele>1273</ele>
        <time>2018-09-08T17:53:35Z</time>
      </trkpt>
      <trkpt lat="46.4033" lon="5.99663">
        <ele>1274</ele>
        <time>2018-09-08T17:53:40Z</time>
      </trkpt>
      <trkpt lat="46.40333" lon="5.99668">
        <ele>1275</ele>
        <time>2018-09-08T17:53:45Z</time>
      </trkpt>
      <trkpt lat="46.40337" lon="5.99673">
        <ele>1276</ele>
        <time>2018-09-08T17:53:50Z</time>
      </trkpt>
      <trkpt lat="46.40342" lon="5.99676">
        <ele>1276</ele>
        <time>2018-09-08T17:53:55Z</time>
      </trkpt>
      <trkpt lat="46.40349" lon="5.99684">
        <ele>1277</ele>
        <time>2018-09-08T17:54:05Z</time>
      </trkpt>
      <trkpt lat="46.40349" lon="5.99686">
        <ele>1277</ele>
        <time>2018-09-08T17:54:10Z</time>
      </trkpt>
      <trkpt lat="46.40352" lon="5.99689">
        <ele>1277</ele>
        <time>2018-09-08T17:54:15Z</time>
      </trkpt>
      <trkpt lat="46.40357" lon="5.99692">
        <ele>1277</ele>
        <time>2018-09-08T17:54:20Z</time>
      </trkpt>
      <trkpt lat="46.40365" lon="5.99697">
        <ele>1276</ele>
        <time>2018-09-08T17:54:30Z</time>
      </trkpt>
      <trkpt lat="46.40367" lon="5.997">
        <ele>1277</ele>
        <time>2018-09-08T17:54:35Z</time>
      </trkpt>
      <trkpt lat="46.4037" lon="5.99704">
        <ele>1277</ele>
        <time>2018-09-08T17:54:40Z</time>
      </trkpt>
      <trkpt lat="46.40375" lon="5.99708">
        <ele>1277</ele>
        <time>2018-09-08T17:54:45Z</time>
      </trkpt>
      <trkpt lat="46.40378" lon="5.99713">
        <ele>1277</ele>
        <time>2018-09-08T17:54:50Z</time>
      </trkpt>
      <trkpt lat="46.40386" lon="5.99722">
        <ele>1277</ele>
        <time>2018-09-08T17:55:00Z</time>
      </trkpt>
      <trkpt lat="46.40391" lon="5.99726">
        <ele>1277</ele>
        <time>2018-09-08T17:55:05Z</time>
      </trkpt>
      <trkpt lat="46.40396" lon="5.99731">
        <ele>1277</ele>
        <time>2018-09-08T17:55:10Z</time>
      </trkpt>
      <trkpt lat="46.40401" lon="5.99735">
        <ele>1277</ele>
        <time>2018-09-08T17:55:15Z</time>
      </trkpt>
      <trkpt lat="46.40411" lon="5.99743">
        <ele>1277</ele>
        <time>2018-09-08T17:55:25Z</time>
      </trkpt>
      <trkpt lat="46.40414" lon="5.99747">
        <ele>1277</ele>
        <time>2018-09-08T17:55:30Z</time>
      </trkpt>
      <trkpt lat="46.40419" lon="5.99749">
        <ele>1276</ele>
        <time>2018-09-08T17:55:35Z</time>
      </trkpt>
      <trkpt lat="46.40423" lon="5.99754">
        <ele>1277</ele>
        <time>2018-09-08T17:55:40Z</time>
      </trkpt>
      <trkpt lat="46.40433" lon="5.99761">
        <ele>1277</ele>
        <time>2018-09-08T17:55:50Z</time>
      </trkpt>
      <trkpt lat="46.40438" lon="5.99764">
        <ele>1277</ele>
        <time>2018-09-08T17:55:55Z</time>
      </trkpt>
      <trkpt lat="46.40442" lon="5.99767">
        <ele>1278</ele>
        <time>2018-09-08T17:56:00Z</time>
      </trkpt>
      <trkpt lat="46.40445" lon="5.99769">
        <ele>1278</ele>
        <time>2018-09-08T17:56:05Z</time>
      </trkpt>
      <trkpt lat="46.40449" lon="5.99771">
        <ele>1278</ele>
        <time>2018-09-08T17:56:10Z</time>
      </trkpt>
      <trkpt lat="46.40455" lon="5.99776">
        <ele>1279</ele>
        <time>2018-09-08T17:56:20Z</time>
      </trkpt>
      <trkpt lat="46.40459" lon="5.99778">
        <ele>1279</ele>
        <time>2018-09-08T17:56:25Z</time>
      </trkpt>
      <trkpt lat="46.40463" lon="5.9978">
        <ele>1279</ele>
        <time>2018-09-08T17:56:30Z</time>
      </trkpt>
      <trkpt lat="46.40467" lon="5.99783">
        <ele>1279</ele>
        <time>2018-09-08T17:56:35Z</time>
      </trkpt>
      <trkpt lat="46.4047" lon="5.99787">
        <ele>1280</ele>
        <time>2018-09-08T17:56:45Z</time>
      </trkpt>
      <trkpt lat="46.4047" lon="5.99787">
        <ele>1280</ele>
        <time>2018-09-08T17:56:50Z</time>
      </trkpt>
      <trkpt lat="46.4047" lon="5.99787">
        <ele>1280</ele>
        <time>2018-09-08T17:56:55Z</time>
      </trkpt>
      <trkpt lat="46.4047" lon="5.99787">
        <ele>1280</ele>
        <time>2018-09-08T17:57:00Z</time>
      </trkpt>
      <trkpt lat="46.40477" lon="5.99796">
        <ele>1282</ele>
        <time>2018-09-08T17:57:10Z</time>
      </trkpt>
      <trkpt lat="46.40481" lon="5.99801">
        <ele>1283</ele>
        <time>2018-09-08T17:57:15Z</time>
      </trkpt>
      <trkpt lat="46.40486" lon="5.99805">
        <ele>1283</ele>
        <time>2018-09-08T17:57:20Z</time>
      </trkpt>
      <trkpt lat="46.40491" lon="5.99808">
        <ele>1284</ele>
        <time>2018-09-08T17:57:25Z</time>
      </trkpt>
      <trkpt lat="46.40496" lon="5.99811">
        <ele>1285</ele>
        <time>2018-09-08T17:57:30Z</time>
      </trkpt>
      <trkpt lat="46.40506" lon="5.99818">
        <ele>1286</ele>
        <time>2018-09-08T17:57:40Z</time>
      </trkpt>
      <trkpt lat="46.40511" lon="5.99822">
        <ele>1287</ele>
        <time>2018-09-08T17:57:45Z</time>
      </trkpt>
      <trkpt lat="46.40516" lon="5.99825">
        <ele>1288</ele>
        <time>2018-09-08T17:57:50Z</time>
      </trkpt>
      <trkpt lat="46.40521" lon="5.99826">
        <ele>1288</ele>
        <time>2018-09-08T17:57:55Z</time>
      </trkpt>
      <trkpt lat="46.4053" lon="5.99832">
        <ele>1290</ele>
        <time>2018-09-08T17:58:05Z</time>
      </trkpt>
      <trkpt lat="46.40534" lon="5.99832">
        <ele>1289</ele>
        <time>2018-09-08T17:58:10Z</time>
      </trkpt>
      <trkpt lat="46.40538" lon="5.99834">
        <ele>1290</ele>
        <time>2018-09-08T17:58:15Z</time>
      </trkpt>
      <trkpt lat="46.40541" lon="5.99838">
        <ele>1291</ele>
        <time>2018-09-08T17:58:20Z</time>
      </trkpt>
      <trkpt lat="46.40544" lon="5.9985">
        <ele>1294</ele>
        <time>2018-09-08T17:58:30Z</time>
      </trkpt>
      <trkpt lat="46.40546" lon="5.99855">
        <ele>1295</ele>
        <time>2018-09-08T17:58:35Z</time>
      </trkpt>
      <trkpt lat="46.40548" lon="5.99858">
        <ele>1296</ele>
        <time>2018-09-08T17:58:40Z</time>
      </trkpt>
      <trkpt lat="46.40549" lon="5.99863">
        <ele>1297</ele>
        <time>2018-09-08T17:58:45Z</time>
      </trkpt>
      <trkpt lat="46.4055" lon="5.99867">
        <ele>1298</ele>
        <time>2018-09-08T17:58:50Z</time>
      </trkpt>
      <trkpt lat="46.4055" lon="5.99875">
        <ele>1299</ele>
        <time>2018-09-08T17:59:00Z</time>
      </trkpt>
      <trkpt lat="46.40551" lon="5.99879">
        <ele>1300</ele>
        <time>2018-09-08T17:59:05Z</time>
      </trkpt>
      <trkpt lat="46.40554" lon="5.99883">
        <ele>1301</ele>
        <time>2018-09-08T17:59:10Z</time>
      </trkpt>
      <trkpt lat="46.40556" lon="5.99888">
        <ele>1302</ele>
        <time>2018-09-08T17:59:15Z</time>
      </trkpt>
      <trkpt lat="46.40557" lon="5.99895">
        <ele>1303</ele>
        <time>2018-09-08T17:59:25Z</time>
      </trkpt>
      <trkpt lat="46.40557" lon="5.99899">
        <ele>1304</ele>
        <time>2018-09-08T17:59:30Z</time>
      </trkpt>
      <trkpt lat="46.40557" lon="5.99902">
        <ele>1305</ele>
        <time>2018-09-08T17:59:35Z</time>
      </trkpt>
      <trkpt lat="46.40558" lon="5.99906">
        <ele>1306</ele>
        <time>2018-09-08T17:59:40Z</time>
      </trkpt>
      <trkpt lat="46.40559" lon="5.99909">
        <ele>1306</ele>
        <time>2018-09-08T17:59:45Z</time>
      </trkpt>
      <trkpt lat="46.40563" lon="5.99915">
        <ele>1307</ele>
        <time>2018-09-08T17:59:55Z</time>
      </trkpt>
      <trkpt lat="46.40563" lon="5.99916">
        <ele>1307</ele>
        <time>2018-09-08T18:00:00Z</time>
      </trkpt>
      <trkpt lat="46.40563" lon="5.99917">
        <ele>1308</ele>
        <time>2018-09-08T18:00:05Z</time>
      </trkpt>
      <trkpt lat="46.40564" lon="5.99918">
        <ele>1308</ele>
        <time>2018-09-08T18:00:10Z</time>
      </trkpt>
      <trkpt lat="46.40569" lon="5.99918">
        <ele>1308</ele>
        <time>2018-09-08T18:00:20Z</time>
      </trkpt>
      <trkpt lat="46.40572" lon="5.9992">
        <ele>1308</ele>
        <time>2018-09-08T18:00:25Z</time>
      </trkpt>
      <trkpt lat="46.40576" lon="5.99921">
        <ele>1308</ele>
        <time>2018-09-08T18:00:30Z</time>
      </trkpt>
      <trkpt lat="46.40577" lon="5.99926">
        <ele>1307</ele>
        <time>2018-09-08T18:00:35Z</time>
      </trkpt>
      <trkpt lat="46.4058" lon="5.99932">
        <ele>1305</ele>
        <time>2018-09-08T18:00:45Z</time>
      </trkpt>
      <trkpt lat="46.40582" lon="5.99933">
        <ele>1304</ele>
        <time>2018-09-08T18:00:50Z</time>
      </trkpt>
      <trkpt lat="46.40583" lon="5.99935">
        <ele>1303</ele>
        <time>2018-09-08T18:00:55Z</time>
      </trkpt>
      <trkpt lat="46.40584" lon="5.99939">
        <ele>1302</ele>
        <time>2018-09-08T18:01:00Z</time>
      </trkpt>
      <trkpt lat="46.40587" lon="5.99942">
        <ele>1301</ele>
        <time>2018-09-08T18:01:05Z</time>
      </trkpt>
      <trkpt lat="46.40591" lon="5.99949">
        <ele>1299</ele>
        <time>2018-09-08T18:01:15Z</time>
      </trkpt>
      <trkpt lat="46.40594" lon="5.99953">
        <ele>1297</ele>
        <time>2018-09-08T18:01:20Z</time>
      </trkpt>
      <trkpt lat="46.40595" lon="5.99956">
        <ele>1296</ele>
        <time>2018-09-08T18:01:25Z</time>
      </trkpt>
      <trkpt lat="46.40598" lon="5.9996">
        <ele>1295</ele>
        <time>2018-09-08T18:01:30Z</time>
      </trkpt>
      <trkpt lat="46.40602" lon="5.99967">
        <ele>1292</ele>
        <time>2018-09-08T18:01:40Z</time>
      </trkpt>
      <trkpt lat="46.40604" lon="5.9997">
        <ele>1291</ele>
        <time>2018-09-08T18:01:45Z</time>
      </trkpt>
      <trkpt lat="46.40606" lon="5.99974">
        <ele>1290</ele>
        <time>2018-09-08T18:01:50Z</time>
      </trkpt>
      <trkpt lat="46.40608" lon="5.99977">
        <ele>1289</ele>
        <time>2018-09-08T18:01:55Z</time>
      </trkpt>
      <trkpt lat="46.40613" lon="5.99983">
        <ele>1287</ele>
        <time>2018-09-08T18:02:05Z</time>
      </trkpt>
      <trkpt lat="46.40614" lon="5.99986">
        <ele>1286</ele>
        <time>2018-09-08T18:02:10Z</time>
      </trkpt>
      <trkpt lat="46.40614" lon="5.99985">
        <ele>1286</ele>
        <time>2018-09-08T18:02:15Z</time>
      </trkpt>
      <trkpt lat="46.40616" lon="5.99983">
        <ele>1287</ele>
        <time>2018-09-08T18:02:20Z</time>
      </trkpt>
      <trkpt lat="46.40619" lon="5.99981">
        <ele>1287</ele>
        <time>2018-09-08T18:02:25Z</time>
      </trkpt>
      <trkpt lat="46.40619" lon="5.99983">
        <ele>1287</ele>
        <time>2018-09-08T18:02:35Z</time>
      </trkpt>
      <trkpt lat="46.4062" lon="5.99985">
        <ele>1286</ele>
        <time>2018-09-08T18:02:40Z</time>
      </trkpt>
      <trkpt lat="46.40622" lon="5.99987">
        <ele>1285</ele>
        <time>2018-09-08T18:02:45Z</time>
      </trkpt>
      <trkpt lat="46.40624" lon="5.9999">
        <ele>1284</ele>
        <time>2018-09-08T18:02:50Z</time>
      </trkpt>
      <trkpt lat="46.40624" lon="5.99994">
        <ele>1284</ele>
        <time>2018-09-08T18:03:00Z</time>
      </trkpt>
      <trkpt lat="46.40623" lon="5.99995">
        <ele>1284</ele>
        <time>2018-09-08T18:03:05Z</time>
      </trkpt>
      <trkpt lat="46.40623" lon="5.99995">
        <ele>1284</ele>
        <time>2018-09-08T18:03:10Z</time>
      </trkpt>
      <trkpt lat="46.40623" lon="5.99995">
        <ele>1284</ele>
        <time>2018-09-08T18:03:15Z</time>
      </trkpt>
      <trkpt lat="46.40625" lon="5.99996">
        <ele>1284</ele>
        <time>2018-09-08T18:03:25Z</time>
      </trkpt>
      <trkpt lat="46.40624" lon="5.99996">
        <ele>1284</ele>
        <time>2018-09-08T18:03:30Z</time>
      </trkpt>
      <trkpt lat="46.40624" lon="5.99996">
        <ele>1284</ele>
        <time>2018-09-08T18:03:35Z</time>
      </trkpt>
      <trkpt lat="46.40624" lon="5.99997">
        <ele>1285</ele>
        <time>2018-09-08T18:03:40Z</time>
      </trkpt>
      <trkpt lat="46.40626" lon="5.99997">
        <ele>1285</ele>
        <time>2018-09-08T18:03:45Z</time>
      </trkpt>
      <trkpt lat="46.40627" lon="5.99996">
        <ele>1284</ele>
        <time>2018-09-08T18:03:55Z</time>
      </trkpt>
      <trkpt lat="46.40628" lon="5.99996">
        <ele>1284</ele>
        <time>2018-09-08T18:04:00Z</time>
      </trkpt>
      <trkpt lat="46.40629" lon="5.99997">
        <ele>1284</ele>
        <time>2018-09-08T18:04:05Z</time>
      </trkpt>
      <trkpt lat="46.4063" lon="5.99997">
        <ele>1284</ele>
        <time>2018-09-08T18:04:10Z</time>
      </trkpt>
      <trkpt lat="46.4063" lon="5.99996">
        <ele>1284</ele>
        <time>2018-09-08T18:04:20Z</time>
      </trkpt>
      <trkpt lat="46.40631" lon="5.99995">
        <ele>1284</ele>
        <time>2018-09-08T18:04:25Z</time>
      </trkpt>
      <trkpt lat="46.40631" lon="5.99995">
        <ele>1284</ele>
        <time>2018-09-08T18:04:30Z</time>
      </trkpt>
      <trkpt lat="46.40631" lon="5.99995">
        <ele>1284</ele>
        <time>2018-09-08T18:04:35Z</time>
      </trkpt>
      <trkpt lat="46.40631" lon="5.99995">
        <ele>1284</ele>
        <time>2018-09-08T18:04:40Z</time>
      </trkpt>
      <trkpt lat="46.40631" lon="5.99995">
        <ele>1284</ele>
        <time>2018-09-08T18:04:50Z</time>
      </trkpt>
      <trkpt lat="46.40631" lon="5.99995">
        <ele>1284</ele>
        <time>2018-09-08T18:04:55Z</time>
      </trkpt>
      <trkpt lat="46.40631" lon="5.99995">
        <ele>1284</ele>
        <time>2018-09-08T18:05:00Z</time>
      </trkpt>
      <trkpt lat="46.40631" lon="5.99996">
        <ele>1284</ele>
        <time>2018-09-08T18:05:05Z</time>
      </trkpt>
      <trkpt lat="46.40632" lon="5.99995">
        <ele>1284</ele>
        <time>2018-09-08T18:05:15Z</time>
      </trkpt>
      <trkpt lat="46.40632" lon="5.99995">
        <ele>1284</ele>
        <time>2018-09-08T18:05:20Z</time>
      </trkpt>
      <trkpt lat="46.40632" lon="5.99997">
        <ele>1284</ele>
        <time>2018-09-08T18:05:25Z</time>
      </trkpt>
      <trkpt lat="46.40631" lon="5.99998">
        <ele>1284</ele>
        <time>2018-09-08T18:05:30Z</time>
      </trkpt>
      <trkpt lat="46.40633" lon="5.99997">
        <ele>1284</ele>
        <time>2018-09-08T18:05:40Z</time>
      </trkpt>
      <trkpt lat="46.40633" lon="5.99998">
        <ele>1284</ele>
        <time>2018-09-08T18:05:45Z</time>
      </trkpt>
      <trkpt lat="46.40637" lon="5.99998">
        <ele>1284</ele>
        <time>2018-09-08T18:05:50Z</time>
      </trkpt>
      <trkpt lat="46.40638" lon="6.00001">
        <ele>1285</ele>
        <time>2018-09-08T18:05:55Z</time>
      </trkpt>
      <trkpt lat="46.40638" lon="6.00001">
        <ele>1285</ele>
        <time>2018-09-08T18:06:00Z</time>
      </trkpt>
      <trkpt lat="46.40638" lon="6.00002">
        <ele>1285</ele>
        <time>2018-09-08T18:06:10Z</time>
      </trkpt>
      <trkpt lat="46.40638" lon="6.00003">
        <ele>1285</ele>
        <time>2018-09-08T18:06:15Z</time>
      </trkpt>
      <trkpt lat="46.4064" lon="6.00005">
        <ele>1285</ele>
        <time>2018-09-08T18:06:20Z</time>
      </trkpt>
      <trkpt lat="46.40643" lon="6.00008">
        <ele>1285</ele>
        <time>2018-09-08T18:06:25Z</time>
      </trkpt>
      <trkpt lat="46.40645" lon="6.0002">
        <ele>1286</ele>
        <time>2018-09-08T18:06:35Z</time>
      </trkpt>
      <trkpt lat="46.40647" lon="6.00025">
        <ele>1287</ele>
        <time>2018-09-08T18:06:40Z</time>
      </trkpt>
      <trkpt lat="46.40649" lon="6.00028">
        <ele>1287</ele>
        <time>2018-09-08T18:06:45Z</time>
      </trkpt>
      <trkpt lat="46.40651" lon="6.00032">
        <ele>1287</ele>
        <time>2018-09-08T18:06:50Z</time>
      </trkpt>
      <trkpt lat="46.40657" lon="6.00037">
        <ele>1287</ele>
        <time>2018-09-08T18:07:00Z</time>
      </trkpt>
      <trkpt lat="46.4066" lon="6.00041">
        <ele>1288</ele>
        <time>2018-09-08T18:07:05Z</time>
      </trkpt>
      <trkpt lat="46.4066" lon="6.00041">
        <ele>1288</ele>
        <time>2018-09-08T18:07:10Z</time>
      </trkpt>
      <trkpt lat="46.4066" lon="6.00041">
        <ele>1288</ele>
        <time>2018-09-08T18:07:15Z</time>
      </trkpt>
      <trkpt lat="46.40662" lon="6.00043">
        <ele>1288</ele>
        <time>2018-09-08T18:07:20Z</time>
      </trkpt>
      <trkpt lat="46.40667" lon="6.00046">
        <ele>1288</ele>
        <time>2018-09-08T18:07:30Z</time>
      </trkpt>
      <trkpt lat="46.40668" lon="6.00046">
        <ele>1288</ele>
        <time>2018-09-08T18:07:35Z</time>
      </trkpt>
      <trkpt lat="46.40668" lon="6.00046">
        <ele>1288</ele>
        <time>2018-09-08T18:07:40Z</time>
      </trkpt>
      <trkpt lat="46.40666" lon="6.00043">
        <ele>1288</ele>
        <time>2018-09-08T18:07:45Z</time>
      </trkpt>
      <trkpt lat="46.4066" lon="6.00033">
        <ele>1287</ele>
        <time>2018-09-08T18:07:55Z</time>
      </trkpt>
      <trkpt lat="46.40658" lon="6.00027">
        <ele>1286</ele>
        <time>2018-09-08T18:08:00Z</time>
      </trkpt>
      <trkpt lat="46.40655" lon="6.00023">
        <ele>1286</ele>
        <time>2018-09-08T18:08:05Z</time>
      </trkpt>
      <trkpt lat="46.40655" lon="6.00023">
        <ele>1286</ele>
        <time>2018-09-08T18:08:10Z</time>
      </trkpt>
      <trkpt lat="46.40653" lon="6.00018">
        <ele>1286</ele>
        <time>2018-09-08T18:08:15Z</time>
      </trkpt>
      <trkpt lat="46.40649" lon="6.00009">
        <ele>1285</ele>
        <time>2018-09-08T18:08:25Z</time>
      </trkpt>
      <trkpt lat="46.40648" lon="6.00004">
        <ele>1285</ele>
        <time>2018-09-08T18:08:30Z</time>
      </trkpt>
      <trkpt lat="46.4065" lon="6.00001">
        <ele>1284</ele>
        <time>2018-09-08T18:08:35Z</time>
      </trkpt>
      <trkpt lat="46.40651" lon="5.99996">
        <ele>1284</ele>
        <time>2018-09-08T18:08:40Z</time>
      </trkpt>
      <trkpt lat="46.40655" lon="5.9999">
        <ele>1283</ele>
        <time>2018-09-08T18:08:50Z</time>
      </trkpt>
      <trkpt lat="46.40657" lon="5.99986">
        <ele>1284</ele>
        <time>2018-09-08T18:08:55Z</time>
      </trkpt>
      <trkpt lat="46.40657" lon="5.99985">
        <ele>1285</ele>
        <time>2018-09-08T18:09:00Z</time>
      </trkpt>
      <trkpt lat="46.40656" lon="5.99982">
        <ele>1286</ele>
        <time>2018-09-08T18:09:05Z</time>
      </trkpt>
      <trkpt lat="46.40655" lon="5.99979">
        <ele>1286</ele>
        <time>2018-09-08T18:09:15Z</time>
      </trkpt>
      <trkpt lat="46.40654" lon="5.9998">
        <ele>1286</ele>
        <time>2018-09-08T18:09:20Z</time>
      </trkpt>
      <trkpt lat="46.40654" lon="5.9998">
        <ele>1286</ele>
        <time>2018-09-08T18:09:25Z</time>
      </trkpt>
      <trkpt lat="46.40654" lon="5.99979">
        <ele>1287</ele>
        <time>2018-09-08T18:09:30Z</time>
      </trkpt>
      <trkpt lat="46.40655" lon="5.99979">
        <ele>1287</ele>
        <time>2018-09-08T18:09:35Z</time>
      </trkpt>
      <trkpt lat="46.40655" lon="5.99979">
        <ele>1287</ele>
        <time>2018-09-08T18:09:45Z</time>
      </trkpt>
      <trkpt lat="46.40655" lon="5.99979">
        <ele>1287</ele>
        <time>2018-09-08T18:09:50Z</time>
      </trkpt>
      <trkpt lat="46.40655" lon="5.99979">
        <ele>1286</ele>
        <time>2018-09-08T18:09:55Z</time>
      </trkpt>
      <trkpt lat="46.40656" lon="5.9998">
        <ele>1286</ele>
        <time>2018-09-08T18:10:00Z</time>
      </trkpt>
      <trkpt lat="46.40659" lon="5.99979">
        <ele>1286</ele>
        <time>2018-09-08T18:10:10Z</time>
      </trkpt>
      <trkpt lat="46.40661" lon="5.99979">
        <ele>1286</ele>
        <time>2018-09-08T18:10:15Z</time>
      </trkpt>
      <trkpt lat="46.4066" lon="5.99979">
        <ele>1286</ele>
        <time>2018-09-08T18:10:20Z</time>
      </trkpt>
      <trkpt lat="46.4066" lon="5.99978">
        <ele>1287</ele>
        <time>2018-09-08T18:10:25Z</time>
      </trkpt>
      <trkpt lat="46.4066" lon="5.99979">
        <ele>1286</ele>
        <time>2018-09-08T18:10:35Z</time>
      </trkpt>
      <trkpt lat="46.4066" lon="5.99979">
        <ele>1286</ele>
        <time>2018-09-08T18:10:40Z</time>
      </trkpt>
      <trkpt lat="46.4066" lon="5.99978">
        <ele>1287</ele>
        <time>2018-09-08T18:10:45Z</time>
      </trkpt>
      <trkpt lat="46.40659" lon="5.99978">
        <ele>1287</ele>
        <time>2018-09-08T18:10:50Z</time>
      </trkpt>
      <trkpt lat="46.40659" lon="5.99977">
        <ele>1287</ele>
        <time>2018-09-08T18:10:55Z</time>
      </trkpt>
      <trkpt lat="46.40658" lon="5.99977">
        <ele>1287</ele>
        <time>2018-09-08T18:11:05Z</time>
      </trkpt>
      <trkpt lat="46.40658" lon="5.99977">
        <ele>1287</ele>
        <time>2018-09-08T18:11:10Z</time>
      </trkpt>
      <trkpt lat="46.40658" lon="5.99977">
        <ele>1287</ele>
        <time>2018-09-08T18:11:15Z</time>
      </trkpt>
      <trkpt lat="46.40658" lon="5.99977">
        <ele>1287</ele>
        <time>2018-09-08T18:11:20Z</time>
      </trkpt>
      <trkpt lat="46.40658" lon="5.99981">
        <ele>1286</ele>
        <time>2018-09-08T18:11:30Z</time>
      </trkpt>
      <trkpt lat="46.40658" lon="5.99981">
        <ele>1286</ele>
        <time>2018-09-08T18:11:35Z</time>
      </trkpt>
      <trkpt lat="46.40658" lon="5.99981">
        <ele>1286</ele>
        <time>2018-09-08T18:11:40Z</time>
      </trkpt>
      <trkpt lat="46.40659" lon="5.99983">
        <ele>1285</ele>
        <time>2018-09-08T18:11:45Z</time>
      </trkpt>
      <trkpt lat="46.40659" lon="5.99986">
        <ele>1284</ele>
        <time>2018-09-08T18:11:55Z</time>
      </trkpt>
      <trkpt lat="46.40659" lon="5.99991">
        <ele>1283</ele>
        <time>2018-09-08T18:12:00Z</time>
      </trkpt>
      <trkpt lat="46.40659" lon="5.99996">
        <ele>1283</ele>
        <time>2018-09-08T18:12:05Z</time>
      </trkpt>
      <trkpt lat="46.40658" lon="6.00002">
        <ele>1284</ele>
        <time>2018-09-08T18:12:10Z</time>
      </trkpt>
      <trkpt lat="46.40658" lon="6.00008">
        <ele>1285</ele>
        <time>2018-09-08T18:12:15Z</time>
      </trkpt>
      <trkpt lat="46.40656" lon="6.00018">
        <ele>1286</ele>
        <time>2018-09-08T18:12:25Z</time>
      </trkpt>
      <trkpt lat="46.40655" lon="6.00022">
        <ele>1286</ele>
        <time>2018-09-08T18:12:30Z</time>
      </trkpt>
      <trkpt lat="46.40653" lon="6.00028">
        <ele>1287</ele>
        <time>2018-09-08T18:12:35Z</time>
      </trkpt>
      <trkpt lat="46.40652" lon="6.00033">
        <ele>1287</ele>
        <time>2018-09-08T18:12:40Z</time>
      </trkpt>
      <trkpt lat="46.40657" lon="6.00037">
        <ele>1287</ele>
        <time>2018-09-08T18:12:50Z</time>
      </trkpt>
      <trkpt lat="46.4066" lon="6.00039">
        <ele>1288</ele>
        <time>2018-09-08T18:12:55Z</time>
      </trkpt>
      <trkpt lat="46.40663" lon="6.0004">
        <ele>1288</ele>
        <time>2018-09-08T18:13:00Z</time>
      </trkpt>
      <trkpt lat="46.40666" lon="6.00042">
        <ele>1288</ele>
        <time>2018-09-08T18:13:05Z</time>
      </trkpt>
      <trkpt lat="46.40669" lon="6.00045">
        <ele>1288</ele>
        <time>2018-09-08T18:13:10Z</time>
      </trkpt>
      <trkpt lat="46.40673" lon="6.00051">
        <ele>1288</ele>
        <time>2018-09-08T18:13:20Z</time>
      </trkpt>
      <trkpt lat="46.40676" lon="6.00053">
        <ele>1289</ele>
        <time>2018-09-08T18:13:25Z</time>
      </trkpt>
      <trkpt lat="46.4068" lon="6.00055">
        <ele>1289</ele>
        <time>2018-09-08T18:13:30Z</time>
      </trkpt>
      <trkpt lat="46.40683" lon="6.00058">
        <ele>1289</ele>
        <time>2018-09-08T18:13:35Z</time>
      </trkpt>
      <trkpt lat="46.40688" lon="6.00063">
        <ele>1290</ele>
        <time>2018-09-08T18:13:45Z</time>
      </trkpt>
      <trkpt lat="46.4069" lon="6.00064">
        <ele>1290</ele>
        <time>2018-09-08T18:13:50Z</time>
      </trkpt>
      <trkpt lat="46.40693" lon="6.00066">
        <ele>1290</ele>
        <time>2018-09-08T18:13:55Z</time>
      </trkpt>
      <trkpt lat="46.40695" lon="6.00071">
        <ele>1291</ele>
        <time>2018-09-08T18:14:00Z</time>
      </trkpt>
      <trkpt lat="46.40701" lon="6.00079">
        <ele>1292</ele>
        <time>2018-09-08T18:14:10Z</time>
      </trkpt>
      <trkpt lat="46.40705" lon="6.00085">
        <ele>1293</ele>
        <time>2018-09-08T18:14:15Z</time>
      </trkpt>
      <trkpt lat="46.40708" lon="6.00091">
        <ele>1294</ele>
        <time>2018-09-08T18:14:20Z</time>
      </trkpt>
      <trkpt lat="46.40709" lon="6.00095">
        <ele>1295</ele>
        <time>2018-09-08T18:14:25Z</time>
      </trkpt>
      <trkpt lat="46.40711" lon="6.001">
        <ele>1296</ele>
        <time>2018-09-08T18:14:30Z</time>
      </trkpt>
      <trkpt lat="46.40715" lon="6.00108">
        <ele>1297</ele>
        <time>2018-09-08T18:14:40Z</time>
      </trkpt>
      <trkpt lat="46.40717" lon="6.00112">
        <ele>1298</ele>
        <time>2018-09-08T18:14:45Z</time>
      </trkpt>
      <trkpt lat="46.4072" lon="6.00117">
        <ele>1298</ele>
        <time>2018-09-08T18:14:50Z</time>
      </trkpt>
      <trkpt lat="46.40723" lon="6.00121">
        <ele>1299</ele>
        <time>2018-09-08T18:14:55Z</time>
      </trkpt>
      <trkpt lat="46.40729" lon="6.00128">
        <ele>1300</ele>
        <time>2018-09-08T18:15:05Z</time>
      </trkpt>
      <trkpt lat="46.40731" lon="6.00131">
        <ele>1300</ele>
        <time>2018-09-08T18:15:10Z</time>
      </trkpt>
      <trkpt lat="46.40733" lon="6.00135">
        <ele>1301</ele>
        <time>2018-09-08T18:15:15Z</time>
      </trkpt>
      <trkpt lat="46.40736" lon="6.00138">
        <ele>1302</ele>
        <time>2018-09-08T18:15:20Z</time>
      </trkpt>
      <trkpt lat="46.40741" lon="6.00148">
        <ele>1303</ele>
        <time>2018-09-08T18:15:30Z</time>
      </trkpt>
      <trkpt lat="46.40743" lon="6.00151">
        <ele>1304</ele>
        <time>2018-09-08T18:15:35Z</time>
      </trkpt>
      <trkpt lat="46.40746" lon="6.00155">
        <ele>1304</ele>
        <time>2018-09-08T18:15:40Z</time>
      </trkpt>
      <trkpt lat="46.40749" lon="6.00157">
        <ele>1304</ele>
        <time>2018-09-08T18:15:45Z</time>
      </trkpt>
      <trkpt lat="46.40751" lon="6.0016">
        <ele>1305</ele>
        <time>2018-09-08T18:15:50Z</time>
      </trkpt>
      <trkpt lat="46.40758" lon="6.00168">
        <ele>1306</ele>
        <time>2018-09-08T18:16:00Z</time>
      </trkpt>
      <trkpt lat="46.4076" lon="6.00173">
        <ele>1307</ele>
        <time>2018-09-08T18:16:05Z</time>
      </trkpt>
      <trkpt lat="46.40763" lon="6.00175">
        <ele>1307</ele>
        <time>2018-09-08T18:16:10Z</time>
      </trkpt>
      <trkpt lat="46.40766" lon="6.00179">
        <ele>1307</ele>
        <time>2018-09-08T18:16:15Z</time>
      </trkpt>
      <trkpt lat="46.40771" lon="6.0019">
        <ele>1308</ele>
        <time>2018-09-08T18:16:25Z</time>
      </trkpt>
      <trkpt lat="46.40773" lon="6.00195">
        <ele>1309</ele>
        <time>2018-09-08T18:16:30Z</time>
      </trkpt>
      <trkpt lat="46.40776" lon="6.002">
        <ele>1309</ele>
        <time>2018-09-08T18:16:35Z</time>
      </trkpt>
      <trkpt lat="46.40778" lon="6.00205">
        <ele>1310</ele>
        <time>2018-09-08T18:16:40Z</time>
      </trkpt>
      <trkpt lat="46.40782" lon="6.00219">
        <ele>1312</ele>
        <time>2018-09-08T18:16:50Z</time>
      </trkpt>
      <trkpt lat="46.40784" lon="6.00227">
        <ele>1313</ele>
        <time>2018-09-08T18:16:55Z</time>
      </trkpt>
      <trkpt lat="46.40787" lon="6.00233">
        <ele>1313</ele>
        <time>2018-09-08T18:17:00Z</time>
      </trkpt>
      <trkpt lat="46.40788" lon="6.00241">
        <ele>1314</ele>
        <time>2018-09-08T18:17:05Z</time>
      </trkpt>
      <trkpt lat="46.40791" lon="6.00247">
        <ele>1315</ele>
        <time>2018-09-08T18:17:10Z</time>
      </trkpt>
      <trkpt lat="46.40796" lon="6.00255">
        <ele>1315</ele>
        <time>2018-09-08T18:17:20Z</time>
      </trkpt>
      <trkpt lat="46.40798" lon="6.00259">
        <ele>1316</ele>
        <time>2018-09-08T18:17:25Z</time>
      </trkpt>
      <trkpt lat="46.40801" lon="6.00265">
        <ele>1316</ele>
        <time>2018-09-08T18:17:30Z</time>
      </trkpt>
      <trkpt lat="46.40804" lon="6.00271">
        <ele>1317</ele>
        <time>2018-09-08T18:17:35Z</time>
      </trkpt>
      <trkpt lat="46.4081" lon="6.00282">
        <ele>1318</ele>
        <time>2018-09-08T18:17:45Z</time>
      </trkpt>
      <trkpt lat="46.40812" lon="6.00286">
        <ele>1318</ele>
        <time>2018-09-08T18:17:50Z</time>
      </trkpt>
      <trkpt lat="46.40815" lon="6.00289">
        <ele>1318</ele>
        <time>2018-09-08T18:17:55Z</time>
      </trkpt>
      <trkpt lat="46.40819" lon="6.00294">
        <ele>1318</ele>
        <time>2018-09-08T18:18:00Z</time>
      </trkpt>
      <trkpt lat="46.40821" lon="6.00299">
        <ele>1319</ele>
        <time>2018-09-08T18:18:05Z</time>
      </trkpt>
      <trkpt lat="46.40826" lon="6.00314">
        <ele>1321</ele>
        <time>2018-09-08T18:18:15Z</time>
      </trkpt>
      <trkpt lat="46.40828" lon="6.00321">
        <ele>1322</ele>
        <time>2018-09-08T18:18:20Z</time>
      </trkpt>
      <trkpt lat="46.4083" lon="6.00326">
        <ele>1323</ele>
        <time>2018-09-08T18:18:25Z</time>
      </trkpt>
      <trkpt lat="46.40832" lon="6.00331">
        <ele>1323</ele>
        <time>2018-09-08T18:18:30Z</time>
      </trkpt>
      <trkpt lat="46.40838" lon="6.00338">
        <ele>1323</ele>
        <time>2018-09-08T18:18:40Z</time>
      </trkpt>
      <trkpt lat="46.40841" lon="6.00342">
        <ele>1322</ele>
        <time>2018-09-08T18:18:45Z</time>
      </trkpt>
      <trkpt lat="46.40843" lon="6.00346">
        <ele>1323</ele>
        <time>2018-09-08T18:18:50Z</time>
      </trkpt>
      <trkpt lat="46.40845" lon="6.0035">
        <ele>1323</ele>
        <time>2018-09-08T18:18:55Z</time>
      </trkpt>
      <trkpt lat="46.40851" lon="6.00358">
        <ele>1322</ele>
        <time>2018-09-08T18:19:05Z</time>
      </trkpt>
      <trkpt lat="46.40853" lon="6.0036">
        <ele>1322</ele>
        <time>2018-09-08T18:19:10Z</time>
      </trkpt>
      <trkpt lat="46.40856" lon="6.00365">
        <ele>1322</ele>
        <time>2018-09-08T18:19:15Z</time>
      </trkpt>
      <trkpt lat="46.4086" lon="6.00369">
        <ele>1321</ele>
        <time>2018-09-08T18:19:20Z</time>
      </trkpt>
      <trkpt lat="46.40863" lon="6.00373">
        <ele>1321</ele>
        <time>2018-09-08T18:19:25Z</time>
      </trkpt>
      <trkpt lat="46.40867" lon="6.00384">
        <ele>1322</ele>
        <time>2018-09-08T18:19:35Z</time>
      </trkpt>
      <trkpt lat="46.40869" lon="6.00391">
        <ele>1322</ele>
        <time>2018-09-08T18:19:40Z</time>
      </trkpt>
      <trkpt lat="46.40871" lon="6.004">
        <ele>1323</ele>
        <time>2018-09-08T18:19:45Z</time>
      </trkpt>
      <trkpt lat="46.40873" lon="6.00406">
        <ele>1323</ele>
        <time>2018-09-08T18:19:50Z</time>
      </trkpt>
      <trkpt lat="46.4088" lon="6.00419">
        <ele>1324</ele>
        <time>2018-09-08T18:20:00Z</time>
      </trkpt>
      <trkpt lat="46.40882" lon="6.0043">
        <ele>1325</ele>
        <time>2018-09-08T18:20:05Z</time>
      </trkpt>
      <trkpt lat="46.40886" lon="6.00435">
        <ele>1325</ele>
        <time>2018-09-08T18:20:10Z</time>
      </trkpt>
      <trkpt lat="46.40889" lon="6.0044">
        <ele>1325</ele>
        <time>2018-09-08T18:20:15Z</time>
      </trkpt>
      <trkpt lat="46.40894" lon="6.00453">
        <ele>1326</ele>
        <time>2018-09-08T18:20:25Z</time>
      </trkpt>
      <trkpt lat="46.40897" lon="6.00459">
        <ele>1326</ele>
        <time>2018-09-08T18:20:30Z</time>
      </trkpt>
      <trkpt lat="46.409" lon="6.00464">
        <ele>1326</ele>
        <time>2018-09-08T18:20:35Z</time>
      </trkpt>
      <trkpt lat="46.40903" lon="6.00469">
        <ele>1327</ele>
        <time>2018-09-08T18:20:40Z</time>
      </trkpt>
      <trkpt lat="46.40904" lon="6.00474">
        <ele>1327</ele>
        <time>2018-09-08T18:20:45Z</time>
      </trkpt>
      <trkpt lat="46.40905" lon="6.00486">
        <ele>1329</ele>
        <time>2018-09-08T18:20:55Z</time>
      </trkpt>
      <trkpt lat="46.40905" lon="6.00493">
        <ele>1330</ele>
        <time>2018-09-08T18:21:00Z</time>
      </trkpt>
      <trkpt lat="46.40904" lon="6.00497">
        <ele>1332</ele>
        <time>2018-09-08T18:21:05Z</time>
      </trkpt>
      <trkpt lat="46.40904" lon="6.00503">
        <ele>1333</ele>
        <time>2018-09-08T18:21:10Z</time>
      </trkpt>
      <trkpt lat="46.40904" lon="6.00514">
        <ele>1335</ele>
        <time>2018-09-08T18:21:20Z</time>
      </trkpt>
      <trkpt lat="46.40905" lon="6.0052">
        <ele>1336</ele>
        <time>2018-09-08T18:21:25Z</time>
      </trkpt>
      <trkpt lat="46.40906" lon="6.00523">
        <ele>1336</ele>
        <time>2018-09-08T18:21:30Z</time>
      </trkpt>
      <trkpt lat="46.40906" lon="6.00524">
        <ele>1336</ele>
        <time>2018-09-08T18:21:35Z</time>
      </trkpt>
      <trkpt lat="46.40909" lon="6.00529">
        <ele>1336</ele>
        <time>2018-09-08T18:21:40Z</time>
      </trkpt>
      <trkpt lat="46.40915" lon="6.00542">
        <ele>1337</ele>
        <time>2018-09-08T18:21:50Z</time>
      </trkpt>
      <trkpt lat="46.40919" lon="6.00548">
        <ele>1336</ele>
        <time>2018-09-08T18:21:55Z</time>
      </trkpt>
      <trkpt lat="46.40921" lon="6.00556">
        <ele>1337</ele>
        <time>2018-09-08T18:22:00Z</time>
      </trkpt>
      <trkpt lat="46.40924" lon="6.00562">
        <ele>1337</ele>
        <time>2018-09-08T18:22:05Z</time>
      </trkpt>
      <trkpt lat="46.40929" lon="6.00576">
        <ele>1339</ele>
        <time>2018-09-08T18:22:15Z</time>
      </trkpt>
      <trkpt lat="46.40932" lon="6.00583">
        <ele>1339</ele>
        <time>2018-09-08T18:22:20Z</time>
      </trkpt>
      <trkpt lat="46.40933" lon="6.00591">
        <ele>1340</ele>
        <time>2018-09-08T18:22:25Z</time>
      </trkpt>
      <trkpt lat="46.40933" lon="6.00598">
        <ele>1341</ele>
        <time>2018-09-08T18:22:30Z</time>
      </trkpt>
      <trkpt lat="46.40937" lon="6.00613">
        <ele>1343</ele>
        <time>2018-09-08T18:22:40Z</time>
      </trkpt>
      <trkpt lat="46.4094" lon="6.00621">
        <ele>1343</ele>
        <time>2018-09-08T18:22:45Z</time>
      </trkpt>
      <trkpt lat="46.40945" lon="6.00628">
        <ele>1343</ele>
        <time>2018-09-08T18:22:50Z</time>
      </trkpt>
      <trkpt lat="46.40949" lon="6.00635">
        <ele>1343</ele>
        <time>2018-09-08T18:22:55Z</time>
      </trkpt>
      <trkpt lat="46.40953" lon="6.00642">
        <ele>1343</ele>
        <time>2018-09-08T18:23:00Z</time>
      </trkpt>
      <trkpt lat="46.40961" lon="6.00655">
        <ele>1344</ele>
        <time>2018-09-08T18:23:10Z</time>
      </trkpt>
      <trkpt lat="46.40965" lon="6.00663">
        <ele>1344</ele>
        <time>2018-09-08T18:23:15Z</time>
      </trkpt>
      <trkpt lat="46.40967" lon="6.00671">
        <ele>1345</ele>
        <time>2018-09-08T18:23:20Z</time>
      </trkpt>
      <trkpt lat="46.40968" lon="6.00679">
        <ele>1346</ele>
        <time>2018-09-08T18:23:25Z</time>
      </trkpt>
      <trkpt lat="46.40971" lon="6.00693">
        <ele>1347</ele>
        <time>2018-09-08T18:23:35Z</time>
      </trkpt>
      <trkpt lat="46.40973" lon="6.007">
        <ele>1348</ele>
        <time>2018-09-08T18:23:40Z</time>
      </trkpt>
      <trkpt lat="46.40974" lon="6.00706">
        <ele>1348</ele>
        <time>2018-09-08T18:23:45Z</time>
      </trkpt>
      <trkpt lat="46.40975" lon="6.00714">
        <ele>1349</ele>
        <time>2018-09-08T18:23:50Z</time>
      </trkpt>
      <trkpt lat="46.40979" lon="6.00727">
        <ele>1349</ele>
        <time>2018-09-08T18:24:00Z</time>
      </trkpt>
      <trkpt lat="46.40981" lon="6.00733">
        <ele>1350</ele>
        <time>2018-09-08T18:24:05Z</time>
      </trkpt>
      <trkpt lat="46.40984" lon="6.00739">
        <ele>1350</ele>
        <time>2018-09-08T18:24:10Z</time>
      </trkpt>
      <trkpt lat="46.40987" lon="6.00745">
        <ele>1349</ele>
        <time>2018-09-08T18:24:15Z</time>
      </trkpt>
      <trkpt lat="46.40991" lon="6.0075">
        <ele>1349</ele>
        <time>2018-09-08T18:24:20Z</time>
      </trkpt>
      <trkpt lat="46.40999" lon="6.00761">
        <ele>1349</ele>
        <time>2018-09-08T18:24:30Z</time>
      </trkpt>
      <trkpt lat="46.41003" lon="6.00766">
        <ele>1348</ele>
        <time>2018-09-08T18:24:35Z</time>
      </trkpt>
      <trkpt lat="46.41008" lon="6.00771">
        <ele>1348</ele>
        <time>2018-09-08T18:24:40Z</time>
      </trkpt>
      <trkpt lat="46.41013" lon="6.00775">
        <ele>1347</ele>
        <time>2018-09-08T18:24:45Z</time>
      </trkpt>
      <trkpt lat="46.41022" lon="6.00783">
        <ele>1346</ele>
        <time>2018-09-08T18:24:55Z</time>
      </trkpt>
      <trkpt lat="46.41027" lon="6.00789">
        <ele>1346</ele>
        <time>2018-09-08T18:25:00Z</time>
      </trkpt>
      <trkpt lat="46.4103" lon="6.00794">
        <ele>1346</ele>
        <time>2018-09-08T18:25:05Z</time>
      </trkpt>
      <trkpt lat="46.41034" lon="6.008">
        <ele>1345</ele>
        <time>2018-09-08T18:25:10Z</time>
      </trkpt>
      <trkpt lat="46.41041" lon="6.00812">
        <ele>1345</ele>
        <time>2018-09-08T18:25:20Z</time>
      </trkpt>
      <trkpt lat="46.41045" lon="6.00818">
        <ele>1345</ele>
        <time>2018-09-08T18:25:25Z</time>
      </trkpt>
      <trkpt lat="46.41047" lon="6.00825">
        <ele>1345</ele>
        <time>2018-09-08T18:25:30Z</time>
      </trkpt>
      <trkpt lat="46.41051" lon="6.00829">
        <ele>1345</ele>
        <time>2018-09-08T18:25:35Z</time>
      </trkpt>
      <trkpt lat="46.41054" lon="6.00833">
        <ele>1345</ele>
        <time>2018-09-08T18:25:40Z</time>
      </trkpt>
      <trkpt lat="46.4106" lon="6.00841">
        <ele>1344</ele>
        <time>2018-09-08T18:25:50Z</time>
      </trkpt>
      <trkpt lat="46.41062" lon="6.00846">
        <ele>1344</ele>
        <time>2018-09-08T18:25:55Z</time>
      </trkpt>
      <trkpt lat="46.41066" lon="6.00853">
        <ele>1344</ele>
        <time>2018-09-08T18:26:00Z</time>
      </trkpt>
      <trkpt lat="46.4107" lon="6.0086">
        <ele>1344</ele>
        <time>2018-09-08T18:26:05Z</time>
      </trkpt>
      <trkpt lat="46.41074" lon="6.00869">
        <ele>1344</ele>
        <time>2018-09-08T18:26:15Z</time>
      </trkpt>
      <trkpt lat="46.41078" lon="6.00874">
        <ele>1344</ele>
        <time>2018-09-08T18:26:20Z</time>
      </trkpt>
      <trkpt lat="46.41083" lon="6.0088">
        <ele>1343</ele>
        <time>2018-09-08T18:26:25Z</time>
      </trkpt>
      <trkpt lat="46.41086" lon="6.00885">
        <ele>1343</ele>
        <time>2018-09-08T18:26:30Z</time>
      </trkpt>
      <trkpt lat="46.41089" lon="6.00889">
        <ele>1343</ele>
        <time>2018-09-08T18:26:35Z</time>
      </trkpt>
      <trkpt lat="46.41094" lon="6.00899">
        <ele>1343</ele>
        <time>2018-09-08T18:26:45Z</time>
      </trkpt>
      <trkpt lat="46.41097" lon="6.00906">
        <ele>1344</ele>
        <time>2018-09-08T18:26:50Z</time>
      </trkpt>
      <trkpt lat="46.411" lon="6.00911">
        <ele>1343</ele>
        <time>2018-09-08T18:26:55Z</time>
      </trkpt>
      <trkpt lat="46.41104" lon="6.00916">
        <ele>1343</ele>
        <time>2018-09-08T18:27:00Z</time>
      </trkpt>
      <trkpt lat="46.4111" lon="6.00926">
        <ele>1343</ele>
        <time>2018-09-08T18:27:10Z</time>
      </trkpt>
      <trkpt lat="46.41112" lon="6.00931">
        <ele>1343</ele>
        <time>2018-09-08T18:27:15Z</time>
      </trkpt>
      <trkpt lat="46.41116" lon="6.00937">
        <ele>1343</ele>
        <time>2018-09-08T18:27:20Z</time>
      </trkpt>
      <trkpt lat="46.41118" lon="6.00944">
        <ele>1343</ele>
        <time>2018-09-08T18:27:25Z</time>
      </trkpt>
      <trkpt lat="46.41123" lon="6.00954">
        <ele>1343</ele>
        <time>2018-09-08T18:27:35Z</time>
      </trkpt>
      <trkpt lat="46.41125" lon="6.00959">
        <ele>1343</ele>
        <time>2018-09-08T18:27:40Z</time>
      </trkpt>
      <trkpt lat="46.41129" lon="6.00964">
        <ele>1343</ele>
        <time>2018-09-08T18:27:45Z</time>
      </trkpt>
      <trkpt lat="46.41133" lon="6.00969">
        <ele>1343</ele>
        <time>2018-09-08T18:27:50Z</time>
      </trkpt>
      <trkpt lat="46.41135" lon="6.00974">
        <ele>1343</ele>
        <time>2018-09-08T18:27:55Z</time>
      </trkpt>
      <trkpt lat="46.41141" lon="6.00988">
        <ele>1343</ele>
        <time>2018-09-08T18:28:05Z</time>
      </trkpt>
      <trkpt lat="46.41146" lon="6.00993">
        <ele>1343</ele>
        <time>2018-09-08T18:28:10Z</time>
      </trkpt>
      <trkpt lat="46.41148" lon="6.00998">
        <ele>1343</ele>
        <time>2018-09-08T18:28:15Z</time>
      </trkpt>
      <trkpt lat="46.4115" lon="6.0101">
        <ele>1344</ele>
        <time>2018-09-08T18:28:20Z</time>
      </trkpt>
      <trkpt lat="46.41157" lon="6.0102">
        <ele>1343</ele>
        <time>2018-09-08T18:28:30Z</time>
      </trkpt>
      <trkpt lat="46.41162" lon="6.01027">
        <ele>1343</ele>
        <time>2018-09-08T18:28:35Z</time>
      </trkpt>
      <trkpt lat="46.41165" lon="6.01031">
        <ele>1343</ele>
        <time>2018-09-08T18:28:40Z</time>
      </trkpt>
      <trkpt lat="46.41169" lon="6.01034">
        <ele>1342</ele>
        <time>2018-09-08T18:28:45Z</time>
      </trkpt>
      <trkpt lat="46.41172" lon="6.01041">
        <ele>1342</ele>
        <time>2018-09-08T18:28:55Z</time>
      </trkpt>
      <trkpt lat="46.41179" lon="6.01048">
        <ele>1342</ele>
        <time>2018-09-08T18:29:00Z</time>
      </trkpt>
      <trkpt lat="46.41181" lon="6.01052">
        <ele>1342</ele>
        <time>2018-09-08T18:29:05Z</time>
      </trkpt>
      <trkpt lat="46.41183" lon="6.01058">
        <ele>1342</ele>
        <time>2018-09-08T18:29:10Z</time>
      </trkpt>
      <trkpt lat="46.41184" lon="6.01063">
        <ele>1342</ele>
        <time>2018-09-08T18:29:15Z</time>
      </trkpt>
      <trkpt lat="46.41188" lon="6.01072">
        <ele>1342</ele>
        <time>2018-09-08T18:29:25Z</time>
      </trkpt>
      <trkpt lat="46.41193" lon="6.01078">
        <ele>1342</ele>
        <time>2018-09-08T18:29:30Z</time>
      </trkpt>
      <trkpt lat="46.41199" lon="6.01084">
        <ele>1341</ele>
        <time>2018-09-08T18:29:35Z</time>
      </trkpt>
      <trkpt lat="46.41203" lon="6.0109">
        <ele>1341</ele>
        <time>2018-09-08T18:29:40Z</time>
      </trkpt>
      <trkpt lat="46.4121" lon="6.01098">
        <ele>1340</ele>
        <time>2018-09-08T18:29:50Z</time>
      </trkpt>
      <trkpt lat="46.41213" lon="6.01103">
        <ele>1340</ele>
        <time>2018-09-08T18:29:55Z</time>
      </trkpt>
      <trkpt lat="46.41216" lon="6.01108">
        <ele>1340</ele>
        <time>2018-09-08T18:30:00Z</time>
      </trkpt>
      <trkpt lat="46.41218" lon="6.01114">
        <ele>1340</ele>
        <time>2018-09-08T18:30:05Z</time>
      </trkpt>
      <trkpt lat="46.41223" lon="6.01125">
        <ele>1340</ele>
        <time>2018-09-08T18:30:15Z</time>
      </trkpt>
      <trkpt lat="46.41229" lon="6.01133">
        <ele>1339</ele>
        <time>2018-09-08T18:30:20Z</time>
      </trkpt>
      <trkpt lat="46.41235" lon="6.01142">
        <ele>1339</ele>
        <time>2018-09-08T18:30:25Z</time>
      </trkpt>
      <trkpt lat="46.41249" lon="6.01154">
        <ele>1337</ele>
        <time>2018-09-08T18:30:30Z</time>
      </trkpt>
      <trkpt lat="46.41253" lon="6.01175">
        <ele>1339</ele>
        <time>2018-09-08T18:30:35Z</time>
      </trkpt>
      <trkpt lat="46.41256" lon="6.0119">
        <ele>1341</ele>
        <time>2018-09-08T18:30:45Z</time>
      </trkpt>
      <trkpt lat="46.41258" lon="6.01197">
        <ele>1342</ele>
        <time>2018-09-08T18:30:50Z</time>
      </trkpt>
      <trkpt lat="46.41261" lon="6.01206">
        <ele>1342</ele>
        <time>2018-09-08T18:30:55Z</time>
      </trkpt>
      <trkpt lat="46.41264" lon="6.01212">
        <ele>1342</ele>
        <time>2018-09-08T18:31:00Z</time>
      </trkpt>
      <trkpt lat="46.41269" lon="6.01223">
        <ele>1343</ele>
        <time>2018-09-08T18:31:10Z</time>
      </trkpt>
      <trkpt lat="46.41273" lon="6.01228">
        <ele>1343</ele>
        <time>2018-09-08T18:31:15Z</time>
      </trkpt>
      <trkpt lat="46.41276" lon="6.01234">
        <ele>1343</ele>
        <time>2018-09-08T18:31:20Z</time>
      </trkpt>
      <trkpt lat="46.4128" lon="6.0124">
        <ele>1343</ele>
        <time>2018-09-08T18:31:25Z</time>
      </trkpt>
      <trkpt lat="46.41284" lon="6.01246">
        <ele>1343</ele>
        <time>2018-09-08T18:31:30Z</time>
      </trkpt>
      <trkpt lat="46.41291" lon="6.01259">
        <ele>1344</ele>
        <time>2018-09-08T18:31:40Z</time>
      </trkpt>
      <trkpt lat="46.41295" lon="6.01265">
        <ele>1344</ele>
        <time>2018-09-08T18:31:45Z</time>
      </trkpt>
      <trkpt lat="46.41299" lon="6.01272">
        <ele>1345</ele>
        <time>2018-09-08T18:31:50Z</time>
      </trkpt>
      <trkpt lat="46.41303" lon="6.01278">
        <ele>1345</ele>
        <time>2018-09-08T18:31:55Z</time>
      </trkpt>
      <trkpt lat="46.41312" lon="6.0129">
        <ele>1345</ele>
        <time>2018-09-08T18:32:05Z</time>
      </trkpt>
      <trkpt lat="46.41316" lon="6.01296">
        <ele>1345</ele>
        <time>2018-09-08T18:32:10Z</time>
      </trkpt>
      <trkpt lat="46.4132" lon="6.01302">
        <ele>1346</ele>
        <time>2018-09-08T18:32:15Z</time>
      </trkpt>
      <trkpt lat="46.41324" lon="6.01309">
        <ele>1346</ele>
        <time>2018-09-08T18:32:20Z</time>
      </trkpt>
      <trkpt lat="46.41332" lon="6.01321">
        <ele>1347</ele>
        <time>2018-09-08T18:32:30Z</time>
      </trkpt>
      <trkpt lat="46.41336" lon="6.01327">
        <ele>1347</ele>
        <time>2018-09-08T18:32:35Z</time>
      </trkpt>
      <trkpt lat="46.41339" lon="6.01334">
        <ele>1348</ele>
        <time>2018-09-08T18:32:40Z</time>
      </trkpt>
      <trkpt lat="46.41343" lon="6.0134">
        <ele>1348</ele>
        <time>2018-09-08T18:32:45Z</time>
      </trkpt>
      <trkpt lat="46.41346" lon="6.01346">
        <ele>1349</ele>
        <time>2018-09-08T18:32:50Z</time>
      </trkpt>
      <trkpt lat="46.41353" lon="6.01358">
        <ele>1350</ele>
        <time>2018-09-08T18:33:00Z</time>
      </trkpt>
      <trkpt lat="46.41357" lon="6.01365">
        <ele>1350</ele>
        <time>2018-09-08T18:33:05Z</time>
      </trkpt>
      <trkpt lat="46.4136" lon="6.01371">
        <ele>1351</ele>
        <time>2018-09-08T18:33:10Z</time>
      </trkpt>
      <trkpt lat="46.41364" lon="6.01377">
        <ele>1351</ele>
        <time>2018-09-08T18:33:15Z</time>
      </trkpt>
      <trkpt lat="46.41371" lon="6.0139">
        <ele>1352</ele>
        <time>2018-09-08T18:33:25Z</time>
      </trkpt>
      <trkpt lat="46.41375" lon="6.01395">
        <ele>1352</ele>
        <time>2018-09-08T18:33:30Z</time>
      </trkpt>
      <trkpt lat="46.41379" lon="6.01401">
        <ele>1353</ele>
        <time>2018-09-08T18:33:35Z</time>
      </trkpt>
      <trkpt lat="46.41383" lon="6.01407">
        <ele>1353</ele>
        <time>2018-09-08T18:33:40Z</time>
      </trkpt>
      <trkpt lat="46.41389" lon="6.01417">
        <ele>1353</ele>
        <time>2018-09-08T18:33:50Z</time>
      </trkpt>
      <trkpt lat="46.41392" lon="6.01422">
        <ele>1354</ele>
        <time>2018-09-08T18:33:55Z</time>
      </trkpt>
      <trkpt lat="46.41395" lon="6.01426">
        <ele>1354</ele>
        <time>2018-09-08T18:34:00Z</time>
      </trkpt>
      <trkpt lat="46.41397" lon="6.0143">
        <ele>1354</ele>
        <time>2018-09-08T18:34:05Z</time>
      </trkpt>
      <trkpt lat="46.414" lon="6.01436">
        <ele>1354</ele>
        <time>2018-09-08T18:34:10Z</time>
      </trkpt>
      <trkpt lat="46.41405" lon="6.01449">
        <ele>1356</ele>
        <time>2018-09-08T18:34:20Z</time>
      </trkpt>
      <trkpt lat="46.41403" lon="6.01456">
        <ele>1357</ele>
        <time>2018-09-08T18:34:25Z</time>
      </trkpt>
      <trkpt lat="46.414" lon="6.0146">
        <ele>1358</ele>
        <time>2018-09-08T18:34:30Z</time>
      </trkpt>
      <trkpt lat="46.41399" lon="6.01465">
        <ele>1359</ele>
        <time>2018-09-08T18:34:35Z</time>
      </trkpt>
      <trkpt lat="46.41399" lon="6.01465">
        <ele>1359</ele>
        <time>2018-09-08T18:34:45Z</time>
      </trkpt>
      <trkpt lat="46.41399" lon="6.01465">
        <ele>1359</ele>
        <time>2018-09-08T18:34:50Z</time>
      </trkpt>
      <trkpt lat="46.41402" lon="6.01462">
        <ele>1358</ele>
        <time>2018-09-08T18:34:55Z</time>
      </trkpt>
      <trkpt lat="46.41403" lon="6.01459">
        <ele>1358</ele>
        <time>2018-09-08T18:35:00Z</time>
      </trkpt>
      <trkpt lat="46.41404" lon="6.01459">
        <ele>1357</ele>
        <time>2018-09-08T18:35:05Z</time>
      </trkpt>
      <trkpt lat="46.41409" lon="6.01451">
        <ele>1355</ele>
        <time>2018-09-08T18:35:15Z</time>
      </trkpt>
      <trkpt lat="46.4141" lon="6.01449">
        <ele>1355</ele>
        <time>2018-09-08T18:35:20Z</time>
      </trkpt>
      <trkpt lat="46.41411" lon="6.01448">
        <ele>1354</ele>
        <time>2018-09-08T18:35:25Z</time>
      </trkpt>
      <trkpt lat="46.4141" lon="6.01448">
        <ele>1354</ele>
        <time>2018-09-08T18:35:30Z</time>
      </trkpt>
      <trkpt lat="46.4141" lon="6.01451">
        <ele>1355</ele>
        <time>2018-09-08T18:35:40Z</time>
      </trkpt>
      <trkpt lat="46.4141" lon="6.01452">
        <ele>1355</ele>
        <time>2018-09-08T18:35:45Z</time>
      </trkpt>
      <trkpt lat="46.4141" lon="6.01453">
        <ele>1355</ele>
        <time>2018-09-08T18:35:50Z</time>
      </trkpt>
      <trkpt lat="46.41411" lon="6.01455">
        <ele>1355</ele>
        <time>2018-09-08T18:35:55Z</time>
      </trkpt>
      <trkpt lat="46.4141" lon="6.01456">
        <ele>1356</ele>
        <time>2018-09-08T18:36:05Z</time>
      </trkpt>
      <trkpt lat="46.41407" lon="6.01457">
        <ele>1356</ele>
        <time>2018-09-08T18:36:10Z</time>
      </trkpt>
      <trkpt lat="46.41407" lon="6.01457">
        <ele>1356</ele>
        <time>2018-09-08T18:36:15Z</time>
      </trkpt>
      <trkpt lat="46.41406" lon="6.0146">
        <ele>1357</ele>
        <time>2018-09-08T18:36:20Z</time>
      </trkpt>
      <trkpt lat="46.41405" lon="6.01466">
        <ele>1358</ele>
        <time>2018-09-08T18:36:25Z</time>
      </trkpt>
      <trkpt lat="46.41402" lon="6.01474">
        <ele>1360</ele>
        <time>2018-09-08T18:36:35Z</time>
      </trkpt>
      <trkpt lat="46.41403" lon="6.01478">
        <ele>1361</ele>
        <time>2018-09-08T18:36:40Z</time>
      </trkpt>
      <trkpt lat="46.41403" lon="6.01481">
        <ele>1361</ele>
        <time>2018-09-08T18:36:45Z</time>
      </trkpt>
      <trkpt lat="46.41402" lon="6.01483">
        <ele>1362</ele>
        <time>2018-09-08T18:36:50Z</time>
      </trkpt>
      <trkpt lat="46.41403" lon="6.01485">
        <ele>1362</ele>
        <time>2018-09-08T18:37:00Z</time>
      </trkpt>
      <trkpt lat="46.41403" lon="6.01488">
        <ele>1362</ele>
        <time>2018-09-08T18:37:05Z</time>
      </trkpt>
      <trkpt lat="46.41402" lon="6.0149">
        <ele>1363</ele>
        <time>2018-09-08T18:37:10Z</time>
      </trkpt>
      <trkpt lat="46.41403" lon="6.01494">
        <ele>1363</ele>
        <time>2018-09-08T18:37:15Z</time>
      </trkpt>
      <trkpt lat="46.41406" lon="6.015">
        <ele>1364</ele>
        <time>2018-09-08T18:37:25Z</time>
      </trkpt>
      <trkpt lat="46.41407" lon="6.01501">
        <ele>1363</ele>
        <time>2018-09-08T18:37:30Z</time>
      </trkpt>
      <trkpt lat="46.41408" lon="6.01504">
        <ele>1364</ele>
        <time>2018-09-08T18:37:35Z</time>
      </trkpt>
      <trkpt lat="46.41409" lon="6.01508">
        <ele>1364</ele>
        <time>2018-09-08T18:37:40Z</time>
      </trkpt>
      <trkpt lat="46.4141" lon="6.01511">
        <ele>1364</ele>
        <time>2018-09-08T18:37:45Z</time>
      </trkpt>
      <trkpt lat="46.41412" lon="6.01517">
        <ele>1365</ele>
        <time>2018-09-08T18:37:55Z</time>
      </trkpt>
      <trkpt lat="46.41412" lon="6.0152">
        <ele>1366</ele>
        <time>2018-09-08T18:38:00Z</time>
      </trkpt>
      <trkpt lat="46.41413" lon="6.01525">
        <ele>1366</ele>
        <time>2018-09-08T18:38:05Z</time>
      </trkpt>
      <trkpt lat="46.41412" lon="6.01529">
        <ele>1367</ele>
        <time>2018-09-08T18:38:10Z</time>
      </trkpt>
      <trkpt lat="46.4141" lon="6.01537">
        <ele>1369</ele>
        <time>2018-09-08T18:38:20Z</time>
      </trkpt>
      <trkpt lat="46.41409" lon="6.0154">
        <ele>1369</ele>
        <time>2018-09-08T18:38:25Z</time>
      </trkpt>
      <trkpt lat="46.41408" lon="6.01542">
        <ele>1370</ele>
        <time>2018-09-08T18:38:30Z</time>
      </trkpt>
      <trkpt lat="46.41408" lon="6.01545">
        <ele>1370</ele>
        <time>2018-09-08T18:38:35Z</time>
      </trkpt>
      <trkpt lat="46.41407" lon="6.01549">
        <ele>1371</ele>
        <time>2018-09-08T18:38:45Z</time>
      </trkpt>
      <trkpt lat="46.41406" lon="6.01553">
        <ele>1372</ele>
        <time>2018-09-08T18:38:50Z</time>
      </trkpt>
      <trkpt lat="46.41405" lon="6.01556">
        <ele>1373</ele>
        <time>2018-09-08T18:38:55Z</time>
      </trkpt>
      <trkpt lat="46.41404" lon="6.0156">
        <ele>1374</ele>
        <time>2018-09-08T18:39:00Z</time>
      </trkpt>
      <trkpt lat="46.41403" lon="6.01562">
        <ele>1374</ele>
        <time>2018-09-08T18:39:05Z</time>
      </trkpt>
      <trkpt lat="46.41404" lon="6.01569">
        <ele>1375</ele>
        <time>2018-09-08T18:39:15Z</time>
      </trkpt>
      <trkpt lat="46.41405" lon="6.01573">
        <ele>1375</ele>
        <time>2018-09-08T18:39:20Z</time>
      </trkpt>
      <trkpt lat="46.41406" lon="6.01576">
        <ele>1376</ele>
        <time>2018-09-08T18:39:25Z</time>
      </trkpt>
      <trkpt lat="46.41407" lon="6.0158">
        <ele>1376</ele>
        <time>2018-09-08T18:39:30Z</time>
      </trkpt>
      <trkpt lat="46.41407" lon="6.01588">
        <ele>1377</ele>
        <time>2018-09-08T18:39:40Z</time>
      </trkpt>
      <trkpt lat="46.41405" lon="6.01591">
        <ele>1378</ele>
        <time>2018-09-08T18:39:45Z</time>
      </trkpt>
      <trkpt lat="46.41405" lon="6.01595">
        <ele>1379</ele>
        <time>2018-09-08T18:39:50Z</time>
      </trkpt>
      <trkpt lat="46.41403" lon="6.016">
        <ele>1380</ele>
        <time>2018-09-08T18:39:55Z</time>
      </trkpt>
      <trkpt lat="46.41401" lon="6.01603">
        <ele>1381</ele>
        <time>2018-09-08T18:40:00Z</time>
      </trkpt>
      <trkpt lat="46.414" lon="6.01607">
        <ele>1382</ele>
        <time>2018-09-08T18:40:10Z</time>
      </trkpt>
      <trkpt lat="46.414" lon="6.01609">
        <ele>1382</ele>
        <time>2018-09-08T18:40:15Z</time>
      </trkpt>
      <trkpt lat="46.414" lon="6.0161">
        <ele>1382</ele>
        <time>2018-09-08T18:40:20Z</time>
      </trkpt>
      <trkpt lat="46.41399" lon="6.0161">
        <ele>1382</ele>
        <time>2018-09-08T18:40:25Z</time>
      </trkpt>
      <trkpt lat="46.41399" lon="6.0161">
        <ele>1382</ele>
        <time>2018-09-08T18:40:35Z</time>
      </trkpt>
      <trkpt lat="46.41397" lon="6.01612">
        <ele>1383</ele>
        <time>2018-09-08T18:40:40Z</time>
      </trkpt>
      <trkpt lat="46.41396" lon="6.01614">
        <ele>1384</ele>
        <time>2018-09-08T18:40:45Z</time>
      </trkpt>
      <trkpt lat="46.41396" lon="6.01617">
        <ele>1384</ele>
        <time>2018-09-08T18:40:50Z</time>
      </trkpt>
      <trkpt lat="46.41396" lon="6.01618">
        <ele>1384</ele>
        <time>2018-09-08T18:41:00Z</time>
      </trkpt>
      <trkpt lat="46.41396" lon="6.01618">
        <ele>1384</ele>
        <time>2018-09-08T18:41:05Z</time>
      </trkpt>
      <trkpt lat="46.41396" lon="6.01618">
        <ele>1384</ele>
        <time>2018-09-08T18:41:10Z</time>
      </trkpt>
      <trkpt lat="46.41396" lon="6.01621">
        <ele>1385</ele>
        <time>2018-09-08T18:41:15Z</time>
      </trkpt>
      <trkpt lat="46.41396" lon="6.01623">
        <ele>1385</ele>
        <time>2018-09-08T18:41:20Z</time>
      </trkpt>
      <trkpt lat="46.41396" lon="6.01628">
        <ele>1386</ele>
        <time>2018-09-08T18:41:30Z</time>
      </trkpt>
      <trkpt lat="46.41397" lon="6.01629">
        <ele>1386</ele>
        <time>2018-09-08T18:41:35Z</time>
      </trkpt>
      <trkpt lat="46.41396" lon="6.01632">
        <ele>1386</ele>
        <time>2018-09-08T18:41:40Z</time>
      </trkpt>
      <trkpt lat="46.41396" lon="6.01637">
        <ele>1387</ele>
        <time>2018-09-08T18:41:45Z</time>
      </trkpt>
      <trkpt lat="46.41395" lon="6.01647">
        <ele>1389</ele>
        <time>2018-09-08T18:41:55Z</time>
      </trkpt>
      <trkpt lat="46.41395" lon="6.0165">
        <ele>1389</ele>
        <time>2018-09-08T18:42:00Z</time>
      </trkpt>
      <trkpt lat="46.41395" lon="6.01651">
        <ele>1390</ele>
        <time>2018-09-08T18:42:05Z</time>
      </trkpt>
      <trkpt lat="46.41395" lon="6.01651">
        <ele>1390</ele>
        <time>2018-09-08T18:42:10Z</time>
      </trkpt>
      <trkpt lat="46.41395" lon="6.01654">
        <ele>1390</ele>
        <time>2018-09-08T18:42:20Z</time>
      </trkpt>
      <trkpt lat="46.41396" lon="6.01659">
        <ele>1391</ele>
        <time>2018-09-08T18:42:25Z</time>
      </trkpt>
      <trkpt lat="46.41396" lon="6.01665">
        <ele>1392</ele>
        <time>2018-09-08T18:42:30Z</time>
      </trkpt>
      <trkpt lat="46.41396" lon="6.01671">
        <ele>1392</ele>
        <time>2018-09-08T18:42:35Z</time>
      </trkpt>
      <trkpt lat="46.41395" lon="6.01677">
        <ele>1394</ele>
        <time>2018-09-08T18:42:40Z</time>
      </trkpt>
      <trkpt lat="46.41392" lon="6.01686">
        <ele>1396</ele>
        <time>2018-09-08T18:42:50Z</time>
      </trkpt>
      <trkpt lat="46.41391" lon="6.01688">
        <ele>1396</ele>
        <time>2018-09-08T18:42:55Z</time>
      </trkpt>
      <trkpt lat="46.41389" lon="6.01691">
        <ele>1397</ele>
        <time>2018-09-08T18:43:00Z</time>
      </trkpt>
      <trkpt lat="46.41387" lon="6.01694">
        <ele>1398</ele>
        <time>2018-09-08T18:43:05Z</time>
      </trkpt>
      <trkpt lat="46.41381" lon="6.01699">
        <ele>1400</ele>
        <time>2018-09-08T18:43:15Z</time>
      </trkpt>
      <trkpt lat="46.41379" lon="6.01701">
        <ele>1401</ele>
        <time>2018-09-08T18:43:20Z</time>
      </trkpt>
      <trkpt lat="46.41378" lon="6.01703">
        <ele>1402</ele>
        <time>2018-09-08T18:43:25Z</time>
      </trkpt>
      <trkpt lat="46.41376" lon="6.01705">
        <ele>1403</ele>
        <time>2018-09-08T18:43:30Z</time>
      </trkpt>
      <trkpt lat="46.41369" lon="6.01709">
        <ele>1405</ele>
        <time>2018-09-08T18:43:40Z</time>
      </trkpt>
      <trkpt lat="46.41366" lon="6.01713">
        <ele>1406</ele>
        <time>2018-09-08T18:43:45Z</time>
      </trkpt>
      <trkpt lat="46.41363" lon="6.01715">
        <ele>1407</ele>
        <time>2018-09-08T18:43:50Z</time>
      </trkpt>
      <trkpt lat="46.41362" lon="6.01718">
        <ele>1408</ele>
        <time>2018-09-08T18:43:55Z</time>
      </trkpt>
      <trkpt lat="46.41361" lon="6.01722">
        <ele>1409</ele>
        <time>2018-09-08T18:44:00Z</time>
      </trkpt>
      <trkpt lat="46.41357" lon="6.01726">
        <ele>1410</ele>
        <time>2018-09-08T18:44:10Z</time>
      </trkpt>
      <trkpt lat="46.41355" lon="6.01729">
        <ele>1411</ele>
        <time>2018-09-08T18:44:15Z</time>
      </trkpt>
      <trkpt lat="46.41354" lon="6.01732">
        <ele>1412</ele>
        <time>2018-09-08T18:44:20Z</time>
      </trkpt>
      <trkpt lat="46.41353" lon="6.01732">
        <ele>1412</ele>
        <time>2018-09-08T18:44:25Z</time>
      </trkpt>
      <trkpt lat="46.4135" lon="6.01732">
        <ele>1413</ele>
        <time>2018-09-08T18:44:35Z</time>
      </trkpt>
      <trkpt lat="46.41349" lon="6.01731">
        <ele>1413</ele>
        <time>2018-09-08T18:44:40Z</time>
      </trkpt>
      <trkpt lat="46.41348" lon="6.01731">
        <ele>1413</ele>
        <time>2018-09-08T18:44:45Z</time>
      </trkpt>
      <trkpt lat="46.41348" lon="6.01731">
        <ele>1413</ele>
        <time>2018-09-08T18:44:50Z</time>
      </trkpt>
      <trkpt lat="46.41348" lon="6.01732">
        <ele>1413</ele>
        <time>2018-09-08T18:44:55Z</time>
      </trkpt>
      <trkpt lat="46.41347" lon="6.01734">
        <ele>1414</ele>
        <time>2018-09-08T18:45:05Z</time>
      </trkpt>
      <trkpt lat="46.41345" lon="6.01736">
        <ele>1415</ele>
        <time>2018-09-08T18:45:10Z</time>
      </trkpt>
      <trkpt lat="46.41342" lon="6.0174">
        <ele>1416</ele>
        <time>2018-09-08T18:45:15Z</time>
      </trkpt>
      <trkpt lat="46.4134" lon="6.01744">
        <ele>1417</ele>
        <time>2018-09-08T18:45:20Z</time>
      </trkpt>
      <trkpt lat="46.41338" lon="6.01752">
        <ele>1419</ele>
        <time>2018-09-08T18:45:30Z</time>
      </trkpt>
      <trkpt lat="46.41336" lon="6.01755">
        <ele>1420</ele>
        <time>2018-09-08T18:45:35Z</time>
      </trkpt>
      <trkpt lat="46.41335" lon="6.01757">
        <ele>1420</ele>
        <time>2018-09-08T18:45:40Z</time>
      </trkpt>
      <trkpt lat="46.41335" lon="6.0176">
        <ele>1421</ele>
        <time>2018-09-08T18:45:45Z</time>
      </trkpt>
      <trkpt lat="46.41336" lon="6.01769">
        <ele>1422</ele>
        <time>2018-09-08T18:45:55Z</time>
      </trkpt>
      <trkpt lat="46.41336" lon="6.01773">
        <ele>1423</ele>
        <time>2018-09-08T18:46:00Z</time>
      </trkpt>
      <trkpt lat="46.41337" lon="6.01778">
        <ele>1423</ele>
        <time>2018-09-08T18:46:05Z</time>
      </trkpt>
      <trkpt lat="46.41337" lon="6.01782">
        <ele>1424</ele>
        <time>2018-09-08T18:46:10Z</time>
      </trkpt>
      <trkpt lat="46.41338" lon="6.01787">
        <ele>1425</ele>
        <time>2018-09-08T18:46:15Z</time>
      </trkpt>
      <trkpt lat="46.41339" lon="6.01798">
        <ele>1426</ele>
        <time>2018-09-08T18:46:25Z</time>
      </trkpt>
      <trkpt lat="46.4134" lon="6.01804">
        <ele>1427</ele>
        <time>2018-09-08T18:46:30Z</time>
      </trkpt>
      <trkpt lat="46.41342" lon="6.0181">
        <ele>1427</ele>
        <time>2018-09-08T18:46:35Z</time>
      </trkpt>
      <trkpt lat="46.41345" lon="6.01817">
        <ele>1428</ele>
        <time>2018-09-08T18:46:40Z</time>
      </trkpt>
      <trkpt lat="46.41342" lon="6.0183">
        <ele>1431</ele>
        <time>2018-09-08T18:46:50Z</time>
      </trkpt>
      <trkpt lat="46.41339" lon="6.01838">
        <ele>1433</ele>
        <time>2018-09-08T18:46:55Z</time>
      </trkpt>
      <trkpt lat="46.41336" lon="6.01845">
        <ele>1435</ele>
        <time>2018-09-08T18:47:00Z</time>
      </trkpt>
      <trkpt lat="46.41333" lon="6.01852">
        <ele>1436</ele>
        <time>2018-09-08T18:47:05Z</time>
      </trkpt>
      <trkpt lat="46.41334" lon="6.01856">
        <ele>1437</ele>
        <time>2018-09-08T18:47:15Z</time>
      </trkpt>
      <trkpt lat="46.41334" lon="6.01856">
        <ele>1437</ele>
        <time>2018-09-08T18:47:20Z</time>
      </trkpt>
      <trkpt lat="46.41334" lon="6.01856">
        <ele>1437</ele>
        <time>2018-09-08T18:47:25Z</time>
      </trkpt>
      <trkpt lat="46.41334" lon="6.01856">
        <ele>1437</ele>
        <time>2018-09-08T18:47:30Z</time>
      </trkpt>
      <trkpt lat="46.41338" lon="6.0186">
        <ele>1437</ele>
        <time>2018-09-08T18:47:35Z</time>
      </trkpt>
      <trkpt lat="46.41346" lon="6.01872">
        <ele>1437</ele>
        <time>2018-09-08T18:47:45Z</time>
      </trkpt>
      <trkpt lat="46.41349" lon="6.01876">
        <ele>1438</ele>
        <time>2018-09-08T18:47:50Z</time>
      </trkpt>
      <trkpt lat="46.41352" lon="6.01881">
        <ele>1438</ele>
        <time>2018-09-08T18:47:55Z</time>
      </trkpt>
      <trkpt lat="46.41355" lon="6.01888">
        <ele>1439</ele>
        <time>2018-09-08T18:48:00Z</time>
      </trkpt>
      <trkpt lat="46.41362" lon="6.019">
        <ele>1440</ele>
        <time>2018-09-08T18:48:10Z</time>
      </trkpt>
      <trkpt lat="46.41366" lon="6.01907">
        <ele>1440</ele>
        <time>2018-09-08T18:48:15Z</time>
      </trkpt>
      <trkpt lat="46.4137" lon="6.01915">
        <ele>1441</ele>
        <time>2018-09-08T18:48:20Z</time>
      </trkpt>
      <trkpt lat="46.41374" lon="6.01921">
        <ele>1441</ele>
        <time>2018-09-08T18:48:25Z</time>
      </trkpt>
      <trkpt lat="46.41379" lon="6.01926">
        <ele>1441</ele>
        <time>2018-09-08T18:48:30Z</time>
      </trkpt>
      <trkpt lat="46.41384" lon="6.01938">
        <ele>1442</ele>
        <time>2018-09-08T18:48:40Z</time>
      </trkpt>
      <trkpt lat="46.41385" lon="6.01944">
        <ele>1443</ele>
        <time>2018-09-08T18:48:45Z</time>
      </trkpt>
      <trkpt lat="46.41387" lon="6.01951">
        <ele>1443</ele>
        <time>2018-09-08T18:48:50Z</time>
      </trkpt>
      <trkpt lat="46.41389" lon="6.01955">
        <ele>1444</ele>
        <time>2018-09-08T18:48:55Z</time>
      </trkpt>
      <trkpt lat="46.41392" lon="6.01968">
        <ele>1445</ele>
        <time>2018-09-08T18:49:05Z</time>
      </trkpt>
      <trkpt lat="46.41394" lon="6.01972">
        <ele>1445</ele>
        <time>2018-09-08T18:49:10Z</time>
      </trkpt>
      <trkpt lat="46.41396" lon="6.01976">
        <ele>1446</ele>
        <time>2018-09-08T18:49:15Z</time>
      </trkpt>
      <trkpt lat="46.41399" lon="6.01982">
        <ele>1446</ele>
        <time>2018-09-08T18:49:20Z</time>
      </trkpt>
      <trkpt lat="46.41402" lon="6.01994">
        <ele>1447</ele>
        <time>2018-09-08T18:49:30Z</time>
      </trkpt>
      <trkpt lat="46.414" lon="6.01994">
        <ele>1448</ele>
        <time>2018-09-08T18:49:35Z</time>
      </trkpt>
      <trkpt lat="46.414" lon="6.01995">
        <ele>1448</ele>
        <time>2018-09-08T18:49:40Z</time>
      </trkpt>
      <trkpt lat="46.41401" lon="6.01995">
        <ele>1447</ele>
        <time>2018-09-08T18:49:45Z</time>
      </trkpt>
      <trkpt lat="46.41401" lon="6.01996">
        <ele>1448</ele>
        <time>2018-09-08T18:49:50Z</time>
      </trkpt>
      <trkpt lat="46.41404" lon="6.01998">
        <ele>1447</ele>
        <time>2018-09-08T18:50:00Z</time>
      </trkpt>
      <trkpt lat="46.41406" lon="6.02002">
        <ele>1447</ele>
        <time>2018-09-08T18:50:05Z</time>
      </trkpt>
      <trkpt lat="46.4141" lon="6.02005">
        <ele>1447</ele>
        <time>2018-09-08T18:50:10Z</time>
      </trkpt>
      <trkpt lat="46.41412" lon="6.0201">
        <ele>1447</ele>
        <time>2018-09-08T18:50:15Z</time>
      </trkpt>
      <trkpt lat="46.41408" lon="6.02021">
        <ele>1450</ele>
        <time>2018-09-08T18:50:25Z</time>
      </trkpt>
      <trkpt lat="46.41405" lon="6.02027">
        <ele>1451</ele>
        <time>2018-09-08T18:50:30Z</time>
      </trkpt>
      <trkpt lat="46.41405" lon="6.02031">
        <ele>1452</ele>
        <time>2018-09-08T18:50:35Z</time>
      </trkpt>
      <trkpt lat="46.41406" lon="6.02037">
        <ele>1453</ele>
        <time>2018-09-08T18:50:40Z</time>
      </trkpt>
      <trkpt lat="46.41409" lon="6.02046">
        <ele>1453</ele>
        <time>2018-09-08T18:50:50Z</time>
      </trkpt>
      <trkpt lat="46.4141" lon="6.02051">
        <ele>1454</ele>
        <time>2018-09-08T18:50:55Z</time>
      </trkpt>
      <trkpt lat="46.41412" lon="6.02056">
        <ele>1454</ele>
        <time>2018-09-08T18:51:00Z</time>
      </trkpt>
      <trkpt lat="46.41414" lon="6.0206">
        <ele>1454</ele>
        <time>2018-09-08T18:51:05Z</time>
      </trkpt>
      <trkpt lat="46.41416" lon="6.02063">
        <ele>1454</ele>
        <time>2018-09-08T18:51:10Z</time>
      </trkpt>
      <trkpt lat="46.4142" lon="6.02074">
        <ele>1455</ele>
        <time>2018-09-08T18:51:20Z</time>
      </trkpt>
      <trkpt lat="46.41421" lon="6.02081">
        <ele>1455</ele>
        <time>2018-09-08T18:51:25Z</time>
      </trkpt>
      <trkpt lat="46.41422" lon="6.02085">
        <ele>1455</ele>
        <time>2018-09-08T18:51:30Z</time>
      </trkpt>
      <trkpt lat="46.41423" lon="6.0209">
        <ele>1456</ele>
        <time>2018-09-08T18:51:35Z</time>
      </trkpt>
      <trkpt lat="46.41422" lon="6.02095">
        <ele>1457</ele>
        <time>2018-09-08T18:51:45Z</time>
      </trkpt>
      <trkpt lat="46.41422" lon="6.02095">
        <ele>1457</ele>
        <time>2018-09-08T18:51:50Z</time>
      </trkpt>
      <trkpt lat="46.41419" lon="6.02093">
        <ele>1457</ele>
        <time>2018-09-08T18:51:55Z</time>
      </trkpt>
      <trkpt lat="46.41417" lon="6.02094">
        <ele>1458</ele>
        <time>2018-09-08T18:52:00Z</time>
      </trkpt>
      <trkpt lat="46.41411" lon="6.02098">
        <ele>1459</ele>
        <time>2018-09-08T18:52:10Z</time>
      </trkpt>
      <trkpt lat="46.41409" lon="6.02104">
        <ele>1460</ele>
        <time>2018-09-08T18:52:15Z</time>
      </trkpt>
      <trkpt lat="46.41409" lon="6.02108">
        <ele>1461</ele>
        <time>2018-09-08T18:52:20Z</time>
      </trkpt>
      <trkpt lat="46.41409" lon="6.02113">
        <ele>1461</ele>
        <time>2018-09-08T18:52:25Z</time>
      </trkpt>
      <trkpt lat="46.4141" lon="6.02119">
        <ele>1462</ele>
        <time>2018-09-08T18:52:30Z</time>
      </trkpt>
      <trkpt lat="46.4141" lon="6.02126">
        <ele>1463</ele>
        <time>2018-09-08T18:52:40Z</time>
      </trkpt>
      <trkpt lat="46.4141" lon="6.02126">
        <ele>1463</ele>
        <time>2018-09-08T18:52:45Z</time>
      </trkpt>
      <trkpt lat="46.4141" lon="6.02126">
        <ele>1462</ele>
        <time>2018-09-08T18:52:50Z</time>
      </trkpt>
      <trkpt lat="46.4141" lon="6.02126">
        <ele>1462</ele>
        <time>2018-09-08T18:52:55Z</time>
      </trkpt>
      <trkpt lat="46.41411" lon="6.02127">
        <ele>1462</ele>
        <time>2018-09-08T18:53:05Z</time>
      </trkpt>
      <trkpt lat="46.41412" lon="6.0213">
        <ele>1462</ele>
        <time>2018-09-08T18:53:10Z</time>
      </trkpt>
      <trkpt lat="46.41413" lon="6.02134">
        <ele>1463</ele>
        <time>2018-09-08T18:53:15Z</time>
      </trkpt>
      <trkpt lat="46.41414" lon="6.02138">
        <ele>1463</ele>
        <time>2018-09-08T18:53:20Z</time>
      </trkpt>
      <trkpt lat="46.41415" lon="6.02143">
        <ele>1463</ele>
        <time>2018-09-08T18:53:25Z</time>
      </trkpt>
      <trkpt lat="46.4142" lon="6.02155">
        <ele>1463</ele>
        <time>2018-09-08T18:53:35Z</time>
      </trkpt>
      <trkpt lat="46.41421" lon="6.02157">
        <ele>1463</ele>
        <time>2018-09-08T18:53:40Z</time>
      </trkpt>
      <trkpt lat="46.41421" lon="6.02157">
        <ele>1463</ele>
        <time>2018-09-08T18:53:45Z</time>
      </trkpt>
      <trkpt lat="46.41421" lon="6.02157">
        <ele>1463</ele>
        <time>2018-09-08T18:53:50Z</time>
      </trkpt>
      <trkpt lat="46.41421" lon="6.02157">
        <ele>1463</ele>
        <time>2018-09-08T18:54:00Z</time>
      </trkpt>
      <trkpt lat="46.41421" lon="6.02158">
        <ele>1463</ele>
        <time>2018-09-08T18:54:05Z</time>
      </trkpt>
      <trkpt lat="46.41423" lon="6.02162">
        <ele>1463</ele>
        <time>2018-09-08T18:54:10Z</time>
      </trkpt>
      <trkpt lat="46.4142" lon="6.02167">
        <ele>1464</ele>
        <time>2018-09-08T18:54:15Z</time>
      </trkpt>
      <trkpt lat="46.41414" lon="6.02177">
        <ele>1466</ele>
        <time>2018-09-08T18:54:25Z</time>
      </trkpt>
      <trkpt lat="46.41411" lon="6.02182">
        <ele>1467</ele>
        <time>2018-09-08T18:54:30Z</time>
      </trkpt>
      <trkpt lat="46.41408" lon="6.02187">
        <ele>1468</ele>
        <time>2018-09-08T18:54:35Z</time>
      </trkpt>
      <trkpt lat="46.41407" lon="6.0219">
        <ele>1469</ele>
        <time>2018-09-08T18:54:40Z</time>
      </trkpt>
      <trkpt lat="46.41405" lon="6.02193">
        <ele>1469</ele>
        <time>2018-09-08T18:54:45Z</time>
      </trkpt>
      <trkpt lat="46.41392" lon="6.022">
        <ele>1472</ele>
        <time>2018-09-08T18:54:55Z</time>
      </trkpt>
      <trkpt lat="46.41388" lon="6.02203">
        <ele>1473</ele>
        <time>2018-09-08T18:55:00Z</time>
      </trkpt>
      <trkpt lat="46.41385" lon="6.02205">
        <ele>1474</ele>
        <time>2018-09-08T18:55:05Z</time>
      </trkpt>
      <trkpt lat="46.41382" lon="6.02209">
        <ele>1475</ele>
        <time>2018-09-08T18:55:10Z</time>
      </trkpt>
      <trkpt lat="46.41375" lon="6.0221">
        <ele>1475</ele>
        <time>2018-09-08T18:55:20Z</time>
      </trkpt>
      <trkpt lat="46.41374" lon="6.02209">
        <ele>1475</ele>
        <time>2018-09-08T18:55:25Z</time>
      </trkpt>
      <trkpt lat="46.41374" lon="6.02209">
        <ele>1475</ele>
        <time>2018-09-08T18:55:30Z</time>
      </trkpt>
      <trkpt lat="46.41374" lon="6.02209">
        <ele>1475</ele>
        <time>2018-09-08T18:55:35Z</time>
      </trkpt>
      <trkpt lat="46.41374" lon="6.02209">
        <ele>1475</ele>
        <time>2018-09-08T18:55:45Z</time>
      </trkpt>
      <trkpt lat="46.41374" lon="6.02209">
        <ele>1475</ele>
        <time>2018-09-08T18:55:50Z</time>
      </trkpt>
      <trkpt lat="46.41374" lon="6.02209">
        <ele>1475</ele>
        <time>2018-09-08T18:55:55Z</time>
      </trkpt>
      <trkpt lat="46.41374" lon="6.02209">
        <ele>1475</ele>
        <time>2018-09-08T18:56:00Z</time>
      </trkpt>
      <trkpt lat="46.41374" lon="6.02209">
        <ele>1475</ele>
        <time>2018-09-08T18:56:05Z</time>
      </trkpt>
      <trkpt lat="46.41374" lon="6.02209">
        <ele>1475</ele>
        <time>2018-09-08T18:56:15Z</time>
      </trkpt>
      <trkpt lat="46.41374" lon="6.02209">
        <ele>1475</ele>
        <time>2018-09-08T18:56:20Z</time>
      </trkpt>
      <trkpt lat="46.41374" lon="6.02209">
        <ele>1475</ele>
        <time>2018-09-08T18:56:25Z</time>
      </trkpt>
      <trkpt lat="46.41374" lon="6.02209">
        <ele>1475</ele>
        <time>2018-09-08T18:56:30Z</time>
      </trkpt>
      <trkpt lat="46.41374" lon="6.02209">
        <ele>1475</ele>
        <time>2018-09-08T18:56:40Z</time>
      </trkpt>
      <trkpt lat="46.41374" lon="6.02209">
        <ele>1475</ele>
        <time>2018-09-08T18:56:45Z</time>
      </trkpt>
      <trkpt lat="46.41374" lon="6.0221">
        <ele>1475</ele>
        <time>2018-09-08T18:56:50Z</time>
      </trkpt>
      <trkpt lat="46.41375" lon="6.02209">
        <ele>1475</ele>
        <time>2018-09-08T18:56:55Z</time>
      </trkpt>
      <trkpt lat="46.41375" lon="6.02209">
        <ele>1475</ele>
        <time>2018-09-08T18:57:05Z</time>
      </trkpt>
      <trkpt lat="46.41375" lon="6.02209">
        <ele>1475</ele>
        <time>2018-09-08T18:57:10Z</time>
      </trkpt>
      <trkpt lat="46.41375" lon="6.02209">
        <ele>1475</ele>
        <time>2018-09-08T18:57:15Z</time>
      </trkpt>
      <trkpt lat="46.41375" lon="6.02209">
        <ele>1475</ele>
        <time>2018-09-08T18:57:20Z</time>
      </trkpt>
      <trkpt lat="46.41374" lon="6.0221">
        <ele>1475</ele>
        <time>2018-09-08T18:57:25Z</time>
      </trkpt>
      <trkpt lat="46.41374" lon="6.0221">
        <ele>1475</ele>
        <time>2018-09-08T18:57:35Z</time>
      </trkpt>
      <trkpt lat="46.41374" lon="6.0221">
        <ele>1475</ele>
        <time>2018-09-08T18:57:40Z</time>
      </trkpt>
      <trkpt lat="46.41374" lon="6.0221">
        <ele>1475</ele>
        <time>2018-09-08T18:57:45Z</time>
      </trkpt>
      <trkpt lat="46.41374" lon="6.0221">
        <ele>1475</ele>
        <time>2018-09-08T18:57:50Z</time>
      </trkpt>
      <trkpt lat="46.41374" lon="6.0221">
        <ele>1475</ele>
        <time>2018-09-08T18:58:00Z</time>
      </trkpt>
      <trkpt lat="46.41374" lon="6.0221">
        <ele>1475</ele>
        <time>2018-09-08T18:58:05Z</time>
      </trkpt>
      <trkpt lat="46.41374" lon="6.0221">
        <ele>1475</ele>
        <time>2018-09-08T18:58:10Z</time>
      </trkpt>
      <trkpt lat="46.41374" lon="6.02209">
        <ele>1475</ele>
        <time>2018-09-08T18:58:15Z</time>
      </trkpt>
      <trkpt lat="46.41374" lon="6.02209">
        <ele>1475</ele>
        <time>2018-09-08T18:58:20Z</time>
      </trkpt>
      <trkpt lat="46.41374" lon="6.02209">
        <ele>1475</ele>
        <time>2018-09-08T18:58:30Z</time>
      </trkpt>
      <trkpt lat="46.41374" lon="6.02209">
        <ele>1475</ele>
        <time>2018-09-08T18:58:35Z</time>
      </trkpt>
      <trkpt lat="46.41374" lon="6.02209">
        <ele>1475</ele>
        <time>2018-09-08T18:58:40Z</time>
      </trkpt>
      <trkpt lat="46.41372" lon="6.02208">
        <ele>1475</ele>
        <time>2018-09-08T18:58:45Z</time>
      </trkpt>
      <trkpt lat="46.4137" lon="6.02206">
        <ele>1475</ele>
        <time>2018-09-08T18:58:55Z</time>
      </trkpt>
      <trkpt lat="46.41372" lon="6.02207">
        <ele>1475</ele>
        <time>2018-09-08T18:59:00Z</time>
      </trkpt>
      <trkpt lat="46.41372" lon="6.02208">
        <ele>1475</ele>
        <time>2018-09-08T18:59:05Z</time>
      </trkpt>
      <trkpt lat="46.41372" lon="6.02208">
        <ele>1475</ele>
        <time>2018-09-08T18:59:10Z</time>
      </trkpt>
      <trkpt lat="46.41374" lon="6.0221">
        <ele>1475</ele>
        <time>2018-09-08T18:59:20Z</time>
      </trkpt>
      <trkpt lat="46.41374" lon="6.0221">
        <ele>1475</ele>
        <time>2018-09-08T18:59:25Z</time>
      </trkpt>
      <trkpt lat="46.41373" lon="6.02209">
        <ele>1475</ele>
        <time>2018-09-08T18:59:30Z</time>
      </trkpt>
      <trkpt lat="46.41373" lon="6.02209">
        <ele>1475</ele>
        <time>2018-09-08T18:59:35Z</time>
      </trkpt>
      <trkpt lat="46.41373" lon="6.02209">
        <ele>1475</ele>
        <time>2018-09-08T18:59:40Z</time>
      </trkpt>
      <trkpt lat="46.41374" lon="6.0221">
        <ele>1475</ele>
        <time>2018-09-08T18:59:50Z</time>
      </trkpt>
      <trkpt lat="46.41374" lon="6.02209">
        <ele>1475</ele>
        <time>2018-09-08T18:59:55Z</time>
      </trkpt>
      <trkpt lat="46.41373" lon="6.02208">
        <ele>1475</ele>
        <time>2018-09-08T19:00:00Z</time>
      </trkpt>
      <trkpt lat="46.41373" lon="6.02209">
        <ele>1475</ele>
        <time>2018-09-08T19:00:05Z</time>
      </trkpt>
      <trkpt lat="46.41372" lon="6.02208">
        <ele>1475</ele>
        <time>2018-09-08T19:00:15Z</time>
      </trkpt>
      <trkpt lat="46.41372" lon="6.02208">
        <ele>1475</ele>
        <time>2018-09-08T19:00:20Z</time>
      </trkpt>
      <trkpt lat="46.41373" lon="6.02208">
        <ele>1475</ele>
        <time>2018-09-08T19:00:25Z</time>
      </trkpt>
      <trkpt lat="46.41373" lon="6.02208">
        <ele>1475</ele>
        <time>2018-09-08T19:00:30Z</time>
      </trkpt>
      <trkpt lat="46.41373" lon="6.02208">
        <ele>1475</ele>
        <time>2018-09-08T19:00:40Z</time>
      </trkpt>
      <trkpt lat="46.41372" lon="6.02208">
        <ele>1475</ele>
        <time>2018-09-08T19:00:45Z</time>
      </trkpt>
      <trkpt lat="46.4137" lon="6.02206">
        <ele>1475</ele>
        <time>2018-09-08T19:00:50Z</time>
      </trkpt>
      <trkpt lat="46.41369" lon="6.02204">
        <ele>1475</ele>
        <time>2018-09-08T19:00:55Z</time>
      </trkpt>
      <trkpt lat="46.41369" lon="6.02204">
        <ele>1475</ele>
        <time>2018-09-08T19:01:00Z</time>
      </trkpt>
      <trkpt lat="46.41369" lon="6.02204">
        <ele>1475</ele>
        <time>2018-09-08T19:01:10Z</time>
      </trkpt>
      <trkpt lat="46.41368" lon="6.02204">
        <ele>1475</ele>
        <time>2018-09-08T19:01:15Z</time>
      </trkpt>
      <trkpt lat="46.41367" lon="6.02204">
        <ele>1475</ele>
        <time>2018-09-08T19:01:20Z</time>
      </trkpt>
      <trkpt lat="46.41367" lon="6.02204">
        <ele>1475</ele>
        <time>2018-09-08T19:01:25Z</time>
      </trkpt>
      <trkpt lat="46.41367" lon="6.02204">
        <ele>1475</ele>
        <time>2018-09-08T19:01:35Z</time>
      </trkpt>
      <trkpt lat="46.41367" lon="6.02204">
        <ele>1475</ele>
        <time>2018-09-08T19:01:40Z</time>
      </trkpt>
      <trkpt lat="46.41367" lon="6.02204">
        <ele>1475</ele>
        <time>2018-09-08T19:01:45Z</time>
      </trkpt>
      <trkpt lat="46.41367" lon="6.02205">
        <ele>1475</ele>
        <time>2018-09-08T19:01:50Z</time>
      </trkpt>
      <trkpt lat="46.41369" lon="6.02207">
        <ele>1475</ele>
        <time>2018-09-08T19:01:55Z</time>
      </trkpt>
      <trkpt lat="46.41372" lon="6.0221">
        <ele>1475</ele>
        <time>2018-09-08T19:02:05Z</time>
      </trkpt>
      <trkpt lat="46.41372" lon="6.0221">
        <ele>1475</ele>
        <time>2018-09-08T19:02:10Z</time>
      </trkpt>
      <trkpt lat="46.41372" lon="6.0221">
        <ele>1475</ele>
        <time>2018-09-08T19:02:15Z</time>
      </trkpt>
      <trkpt lat="46.41372" lon="6.0221">
        <ele>1475</ele>
        <time>2018-09-08T19:02:20Z</time>
      </trkpt>
      <trkpt lat="46.41375" lon="6.02212">
        <ele>1475</ele>
        <time>2018-09-08T19:02:30Z</time>
      </trkpt>
      <trkpt lat="46.41376" lon="6.02211">
        <ele>1475</ele>
        <time>2018-09-08T19:02:35Z</time>
      </trkpt>
      <trkpt lat="46.41376" lon="6.02211">
        <ele>1475</ele>
        <time>2018-09-08T19:02:40Z</time>
      </trkpt>
      <trkpt lat="46.41376" lon="6.02211">
        <ele>1475</ele>
        <time>2018-09-08T19:02:45Z</time>
      </trkpt>
      <trkpt lat="46.41376" lon="6.02211">
        <ele>1475</ele>
        <time>2018-09-08T19:02:55Z</time>
      </trkpt>
      <trkpt lat="46.41376" lon="6.02211">
        <ele>1475</ele>
        <time>2018-09-08T19:03:00Z</time>
      </trkpt>
      <trkpt lat="46.41376" lon="6.02211">
        <ele>1475</ele>
        <time>2018-09-08T19:03:05Z</time>
      </trkpt>
      <trkpt lat="46.41376" lon="6.02211">
        <ele>1475</ele>
        <time>2018-09-08T19:03:10Z</time>
      </trkpt>
      <trkpt lat="46.41376" lon="6.02211">
        <ele>1475</ele>
        <time>2018-09-08T19:03:15Z</time>
      </trkpt>
      <trkpt lat="46.41372" lon="6.02212">
        <ele>1475</ele>
        <time>2018-09-08T19:03:25Z</time>
      </trkpt>
      <trkpt lat="46.41372" lon="6.02212">
        <ele>1475</ele>
        <time>2018-09-08T19:03:30Z</time>
      </trkpt>
      <trkpt lat="46.41372" lon="6.02212">
        <ele>1475</ele>
        <time>2018-09-08T19:03:35Z</time>
      </trkpt>
      <trkpt lat="46.41372" lon="6.02212">
        <ele>1475</ele>
        <time>2018-09-08T19:03:40Z</time>
      </trkpt>
      <trkpt lat="46.41372" lon="6.02212">
        <ele>1475</ele>
        <time>2018-09-08T19:03:50Z</time>
      </trkpt>
      <trkpt lat="46.41372" lon="6.02212">
        <ele>1475</ele>
        <time>2018-09-08T19:03:55Z</time>
      </trkpt>
      <trkpt lat="46.41372" lon="6.02212">
        <ele>1475</ele>
        <time>2018-09-08T19:04:00Z</time>
      </trkpt>
      <trkpt lat="46.41372" lon="6.02212">
        <ele>1475</ele>
        <time>2018-09-08T19:04:05Z</time>
      </trkpt>
      <trkpt lat="46.41372" lon="6.02212">
        <ele>1475</ele>
        <time>2018-09-08T19:04:15Z</time>
      </trkpt>
      <trkpt lat="46.41372" lon="6.02212">
        <ele>1475</ele>
        <time>2018-09-08T19:04:20Z</time>
      </trkpt>
      <trkpt lat="46.41372" lon="6.02212">
        <ele>1475</ele>
        <time>2018-09-08T19:04:25Z</time>
      </trkpt>
      <trkpt lat="46.41372" lon="6.02212">
        <ele>1475</ele>
        <time>2018-09-08T19:04:30Z</time>
      </trkpt>
      <trkpt lat="46.41372" lon="6.02212">
        <ele>1475</ele>
        <time>2018-09-08T19:04:35Z</time>
      </trkpt>
      <trkpt lat="46.41372" lon="6.02212">
        <ele>1475</ele>
        <time>2018-09-08T19:04:45Z</time>
      </trkpt>
      <trkpt lat="46.41372" lon="6.02212">
        <ele>1475</ele>
        <time>2018-09-08T19:04:50Z</time>
      </trkpt>
      <trkpt lat="46.41372" lon="6.02212">
        <ele>1475</ele>
        <time>2018-09-08T19:04:55Z</time>
      </trkpt>
      <trkpt lat="46.41372" lon="6.02212">
        <ele>1475</ele>
        <time>2018-09-08T19:05:00Z</time>
      </trkpt>
      <trkpt lat="46.41372" lon="6.02212">
        <ele>1475</ele>
        <time>2018-09-08T19:05:10Z</time>
      </trkpt>
      <trkpt lat="46.41372" lon="6.02212">
        <ele>1475</ele>
        <time>2018-09-08T19:05:15Z</time>
      </trkpt>
      <trkpt lat="46.41372" lon="6.02212">
        <ele>1475</ele>
        <time>2018-09-08T19:05:20Z</time>
      </trkpt>
      <trkpt lat="46.41372" lon="6.02212">
        <ele>1475</ele>
        <time>2018-09-08T19:05:25Z</time>
      </trkpt>
      <trkpt lat="46.41372" lon="6.02212">
        <ele>1475</ele>
        <time>2018-09-08T19:05:35Z</time>
      </trkpt>
      <trkpt lat="46.41372" lon="6.02212">
        <ele>1475</ele>
        <time>2018-09-08T19:05:40Z</time>
      </trkpt>
      <trkpt lat="46.41372" lon="6.02212">
        <ele>1475</ele>
        <time>2018-09-08T19:05:45Z</time>
      </trkpt>
      <trkpt lat="46.41372" lon="6.02212">
        <ele>1475</ele>
        <time>2018-09-08T19:05:50Z</time>
      </trkpt>
      <trkpt lat="46.41372" lon="6.02212">
        <ele>1475</ele>
        <time>2018-09-08T19:05:55Z</time>
      </trkpt>
      <trkpt lat="46.41372" lon="6.02212">
        <ele>1475</ele>
        <time>2018-09-08T19:06:05Z</time>
      </trkpt>
      <trkpt lat="46.41372" lon="6.02212">
        <ele>1475</ele>
        <time>2018-09-08T19:06:10Z</time>
      </trkpt>
      <trkpt lat="46.41372" lon="6.02212">
        <ele>1475</ele>
        <time>2018-09-08T19:06:15Z</time>
      </trkpt>
      <trkpt lat="46.41372" lon="6.02212">
        <ele>1475</ele>
        <time>2018-09-08T19:06:20Z</time>
      </trkpt>
      <trkpt lat="46.41372" lon="6.02212">
        <ele>1475</ele>
        <time>2018-09-08T19:06:30Z</time>
      </trkpt>
      <trkpt lat="46.41372" lon="6.02212">
        <ele>1475</ele>
        <time>2018-09-08T19:06:35Z</time>
      </trkpt>
      <trkpt lat="46.41372" lon="6.02212">
        <ele>1475</ele>
        <time>2018-09-08T19:06:40Z</time>
      </trkpt>
      <trkpt lat="46.41372" lon="6.02212">
        <ele>1475</ele>
        <time>2018-09-08T19:06:45Z</time>
      </trkpt>
      <trkpt lat="46.41372" lon="6.02212">
        <ele>1475</ele>
        <time>2018-09-08T19:06:50Z</time>
      </trkpt>
      <trkpt lat="46.41372" lon="6.02212">
        <ele>1475</ele>
        <time>2018-09-08T19:07:00Z</time>
      </trkpt>
      <trkpt lat="46.41372" lon="6.02212">
        <ele>1475</ele>
        <time>2018-09-08T19:07:05Z</time>
      </trkpt>
      <trkpt lat="46.41372" lon="6.02212">
        <ele>1475</ele>
        <time>2018-09-08T19:07:10Z</time>
      </trkpt>
      <trkpt lat="46.41372" lon="6.02212">
        <ele>1475</ele>
        <time>2018-09-08T19:07:15Z</time>
      </trkpt>
      <trkpt lat="46.41372" lon="6.02212">
        <ele>1475</ele>
        <time>2018-09-08T19:07:25Z</time>
      </trkpt>
      <trkpt lat="46.41372" lon="6.02212">
        <ele>1475</ele>
        <time>2018-09-08T19:07:30Z</time>
      </trkpt>
      <trkpt lat="46.41372" lon="6.02212">
        <ele>1475</ele>
        <time>2018-09-08T19:07:35Z</time>
      </trkpt>
      <trkpt lat="46.41372" lon="6.02212">
        <ele>1475</ele>
        <time>2018-09-08T19:07:40Z</time>
      </trkpt>
      <trkpt lat="46.41371" lon="6.0221">
        <ele>1475</ele>
        <time>2018-09-08T19:07:50Z</time>
      </trkpt>
      <trkpt lat="46.41368" lon="6.02206">
        <ele>1475</ele>
        <time>2018-09-08T19:07:55Z</time>
      </trkpt>
      <trkpt lat="46.41368" lon="6.02205">
        <ele>1475</ele>
        <time>2018-09-08T19:08:00Z</time>
      </trkpt>
      <trkpt lat="46.41368" lon="6.02205">
        <ele>1475</ele>
        <time>2018-09-08T19:08:05Z</time>
      </trkpt>
      <trkpt lat="46.41368" lon="6.02205">
        <ele>1475</ele>
        <time>2018-09-08T19:08:10Z</time>
      </trkpt>
      <trkpt lat="46.41368" lon="6.02205">
        <ele>1475</ele>
        <time>2018-09-08T19:08:20Z</time>
      </trkpt>
      <trkpt lat="46.41368" lon="6.02205">
        <ele>1475</ele>
        <time>2018-09-08T19:08:25Z</time>
      </trkpt>
      <trkpt lat="46.41368" lon="6.02205">
        <ele>1475</ele>
        <time>2018-09-08T19:08:30Z</time>
      </trkpt>
      <trkpt lat="46.41368" lon="6.02205">
        <ele>1475</ele>
        <time>2018-09-08T19:08:35Z</time>
      </trkpt>
      <trkpt lat="46.41367" lon="6.02205">
        <ele>1475</ele>
        <time>2018-09-08T19:08:45Z</time>
      </trkpt>
      <trkpt lat="46.41367" lon="6.02205">
        <ele>1475</ele>
        <time>2018-09-08T19:08:50Z</time>
      </trkpt>
      <trkpt lat="46.41367" lon="6.02204">
        <ele>1475</ele>
        <time>2018-09-08T19:08:55Z</time>
      </trkpt>
      <trkpt lat="46.41367" lon="6.02205">
        <ele>1475</ele>
        <time>2018-09-08T19:09:00Z</time>
      </trkpt>
      <trkpt lat="46.41367" lon="6.02205">
        <ele>1475</ele>
        <time>2018-09-08T19:09:10Z</time>
      </trkpt>
      <trkpt lat="46.41367" lon="6.02205">
        <ele>1475</ele>
        <time>2018-09-08T19:09:15Z</time>
      </trkpt>
      <trkpt lat="46.41367" lon="6.02204">
        <ele>1475</ele>
        <time>2018-09-08T19:09:20Z</time>
      </trkpt>
      <trkpt lat="46.41367" lon="6.02204">
        <ele>1475</ele>
        <time>2018-09-08T19:09:25Z</time>
      </trkpt>
      <trkpt lat="46.41367" lon="6.02204">
        <ele>1475</ele>
        <time>2018-09-08T19:09:30Z</time>
      </trkpt>
      <trkpt lat="46.41367" lon="6.02204">
        <ele>1475</ele>
        <time>2018-09-08T19:09:40Z</time>
      </trkpt>
      <trkpt lat="46.41367" lon="6.02204">
        <ele>1475</ele>
        <time>2018-09-08T19:09:45Z</time>
      </trkpt>
      <trkpt lat="46.41367" lon="6.02204">
        <ele>1475</ele>
        <time>2018-09-08T19:09:50Z</time>
      </trkpt>
      <trkpt lat="46.41367" lon="6.02204">
        <ele>1475</ele>
        <time>2018-09-08T19:09:55Z</time>
      </trkpt>
      <trkpt lat="46.41367" lon="6.02204">
        <ele>1475</ele>
        <time>2018-09-08T19:10:05Z</time>
      </trkpt>
      <trkpt lat="46.41367" lon="6.02204">
        <ele>1475</ele>
        <time>2018-09-08T19:10:10Z</time>
      </trkpt>
      <trkpt lat="46.41367" lon="6.02204">
        <ele>1475</ele>
        <time>2018-09-08T19:10:15Z</time>
      </trkpt>
      <trkpt lat="46.41367" lon="6.02204">
        <ele>1475</ele>
        <time>2018-09-08T19:10:20Z</time>
      </trkpt>
      <trkpt lat="46.41367" lon="6.02204">
        <ele>1475</ele>
        <time>2018-09-08T19:10:30Z</time>
      </trkpt>
      <trkpt lat="46.41367" lon="6.02205">
        <ele>1475</ele>
        <time>2018-09-08T19:10:35Z</time>
      </trkpt>
      <trkpt lat="46.41367" lon="6.02205">
        <ele>1475</ele>
        <time>2018-09-08T19:10:40Z</time>
      </trkpt>
      <trkpt lat="46.41367" lon="6.02205">
        <ele>1475</ele>
        <time>2018-09-08T19:10:45Z</time>
      </trkpt>
      <trkpt lat="46.41367" lon="6.02205">
        <ele>1475</ele>
        <time>2018-09-08T19:10:50Z</time>
      </trkpt>
      <trkpt lat="46.41367" lon="6.02205">
        <ele>1475</ele>
        <time>2018-09-08T19:11:00Z</time>
      </trkpt>
      <trkpt lat="46.41367" lon="6.02205">
        <ele>1475</ele>
        <time>2018-09-08T19:11:05Z</time>
      </trkpt>
      <trkpt lat="46.41367" lon="6.02205">
        <ele>1475</ele>
        <time>2018-09-08T19:11:10Z</time>
      </trkpt>
      <trkpt lat="46.41367" lon="6.02205">
        <ele>1475</ele>
        <time>2018-09-08T19:11:15Z</time>
      </trkpt>
      <trkpt lat="46.41367" lon="6.02204">
        <ele>1475</ele>
        <time>2018-09-08T19:11:25Z</time>
      </trkpt>
      <trkpt lat="46.41367" lon="6.02204">
        <ele>1475</ele>
        <time>2018-09-08T19:11:30Z</time>
      </trkpt>
      <trkpt lat="46.41367" lon="6.02204">
        <ele>1475</ele>
        <time>2018-09-08T19:11:35Z</time>
      </trkpt>
      <trkpt lat="46.41367" lon="6.02204">
        <ele>1475</ele>
        <time>2018-09-08T19:11:40Z</time>
      </trkpt>
      <trkpt lat="46.41367" lon="6.02204">
        <ele>1475</ele>
        <time>2018-09-08T19:11:45Z</time>
      </trkpt>
      <trkpt lat="46.41367" lon="6.02205">
        <ele>1475</ele>
        <time>2018-09-08T19:11:55Z</time>
      </trkpt>
      <trkpt lat="46.41367" lon="6.02204">
        <ele>1475</ele>
        <time>2018-09-08T19:12:00Z</time>
      </trkpt>
      <trkpt lat="46.41366" lon="6.02204">
        <ele>1475</ele>
        <time>2018-09-08T19:12:05Z</time>
      </trkpt>
      <trkpt lat="46.41366" lon="6.02203">
        <ele>1475</ele>
        <time>2018-09-08T19:12:10Z</time>
      </trkpt>
      <trkpt lat="46.41366" lon="6.02203">
        <ele>1475</ele>
        <time>2018-09-08T19:12:20Z</time>
      </trkpt>
      <trkpt lat="46.41366" lon="6.02203">
        <ele>1475</ele>
        <time>2018-09-08T19:12:25Z</time>
      </trkpt>
      <trkpt lat="46.41366" lon="6.02203">
        <ele>1475</ele>
        <time>2018-09-08T19:12:30Z</time>
      </trkpt>
      <trkpt lat="46.41366" lon="6.02203">
        <ele>1475</ele>
        <time>2018-09-08T19:12:35Z</time>
      </trkpt>
      <trkpt lat="46.41366" lon="6.02203">
        <ele>1475</ele>
        <time>2018-09-08T19:12:45Z</time>
      </trkpt>
      <trkpt lat="46.41366" lon="6.02203">
        <ele>1475</ele>
        <time>2018-09-08T19:12:50Z</time>
      </trkpt>
      <trkpt lat="46.41367" lon="6.02205">
        <ele>1475</ele>
        <time>2018-09-08T19:12:55Z</time>
      </trkpt>
      <trkpt lat="46.41369" lon="6.02209">
        <ele>1475</ele>
        <time>2018-09-08T19:13:00Z</time>
      </trkpt>
      <trkpt lat="46.41373" lon="6.02213">
        <ele>1475</ele>
        <time>2018-09-08T19:13:05Z</time>
      </trkpt>
      <trkpt lat="46.41373" lon="6.02215">
        <ele>1476</ele>
        <time>2018-09-08T19:13:15Z</time>
      </trkpt>
      <trkpt lat="46.41373" lon="6.02214">
        <ele>1475</ele>
        <time>2018-09-08T19:13:20Z</time>
      </trkpt>
      <trkpt lat="46.41373" lon="6.02214">
        <ele>1475</ele>
        <time>2018-09-08T19:13:25Z</time>
      </trkpt>
      <trkpt lat="46.41373" lon="6.02214">
        <ele>1475</ele>
        <time>2018-09-08T19:13:30Z</time>
      </trkpt>
      <trkpt lat="46.41373" lon="6.02213">
        <ele>1475</ele>
        <time>2018-09-08T19:13:40Z</time>
      </trkpt>
      <trkpt lat="46.41373" lon="6.02213">
        <ele>1475</ele>
        <time>2018-09-08T19:13:45Z</time>
      </trkpt>
      <trkpt lat="46.41373" lon="6.02213">
        <ele>1475</ele>
        <time>2018-09-08T19:13:50Z</time>
      </trkpt>
      <trkpt lat="46.41373" lon="6.02213">
        <ele>1475</ele>
        <time>2018-09-08T19:13:55Z</time>
      </trkpt>
      <trkpt lat="46.41374" lon="6.02212">
        <ele>1475</ele>
        <time>2018-09-08T19:14:05Z</time>
      </trkpt>
      <trkpt lat="46.41374" lon="6.02213">
        <ele>1475</ele>
        <time>2018-09-08T19:14:10Z</time>
      </trkpt>
      <trkpt lat="46.41374" lon="6.02212">
        <ele>1475</ele>
        <time>2018-09-08T19:14:15Z</time>
      </trkpt>
      <trkpt lat="46.41374" lon="6.02212">
        <ele>1475</ele>
        <time>2018-09-08T19:14:20Z</time>
      </trkpt>
      <trkpt lat="46.41374" lon="6.02212">
        <ele>1475</ele>
        <time>2018-09-08T19:14:25Z</time>
      </trkpt>
      <trkpt lat="46.41374" lon="6.02212">
        <ele>1475</ele>
        <time>2018-09-08T19:14:35Z</time>
      </trkpt>
      <trkpt lat="46.41373" lon="6.0221">
        <ele>1475</ele>
        <time>2018-09-08T19:14:40Z</time>
      </trkpt>
      <trkpt lat="46.41373" lon="6.0221">
        <ele>1475</ele>
        <time>2018-09-08T19:14:45Z</time>
      </trkpt>
      <trkpt lat="46.41373" lon="6.0221">
        <ele>1475</ele>
        <time>2018-09-08T19:14:50Z</time>
      </trkpt>
      <trkpt lat="46.41375" lon="6.02212">
        <ele>1475</ele>
        <time>2018-09-08T19:15:00Z</time>
      </trkpt>
      <trkpt lat="46.41375" lon="6.02212">
        <ele>1475</ele>
        <time>2018-09-08T19:15:05Z</time>
      </trkpt>
      <trkpt lat="46.41375" lon="6.02212">
        <ele>1475</ele>
        <time>2018-09-08T19:15:10Z</time>
      </trkpt>
      <trkpt lat="46.41375" lon="6.02212">
        <ele>1475</ele>
        <time>2018-09-08T19:15:15Z</time>
      </trkpt>
      <trkpt lat="46.41375" lon="6.02212">
        <ele>1475</ele>
        <time>2018-09-08T19:15:20Z</time>
      </trkpt>
      <trkpt lat="46.41375" lon="6.02212">
        <ele>1475</ele>
        <time>2018-09-08T19:15:30Z</time>
      </trkpt>
      <trkpt lat="46.41375" lon="6.02212">
        <ele>1475</ele>
        <time>2018-09-08T19:15:35Z</time>
      </trkpt>
      <trkpt lat="46.41375" lon="6.02212">
        <ele>1475</ele>
        <time>2018-09-08T19:15:40Z</time>
      </trkpt>
      <trkpt lat="46.41375" lon="6.02212">
        <ele>1475</ele>
        <time>2018-09-08T19:15:45Z</time>
      </trkpt>
      <trkpt lat="46.41375" lon="6.02212">
        <ele>1475</ele>
        <time>2018-09-08T19:15:55Z</time>
      </trkpt>
      <trkpt lat="46.41375" lon="6.02212">
        <ele>1475</ele>
        <time>2018-09-08T19:16:00Z</time>
      </trkpt>
      <trkpt lat="46.41375" lon="6.02212">
        <ele>1475</ele>
        <time>2018-09-08T19:16:05Z</time>
      </trkpt>
      <trkpt lat="46.41375" lon="6.02212">
        <ele>1475</ele>
        <time>2018-09-08T19:16:10Z</time>
      </trkpt>
      <trkpt lat="46.41373" lon="6.0221">
        <ele>1475</ele>
        <time>2018-09-08T19:16:20Z</time>
      </trkpt>
      <trkpt lat="46.41371" lon="6.02208">
        <ele>1475</ele>
        <time>2018-09-08T19:16:25Z</time>
      </trkpt>
      <trkpt lat="46.41369" lon="6.02207">
        <ele>1475</ele>
        <time>2018-09-08T19:16:30Z</time>
      </trkpt>
      <trkpt lat="46.41369" lon="6.02206">
        <ele>1475</ele>
        <time>2018-09-08T19:16:35Z</time>
      </trkpt>
      <trkpt lat="46.41369" lon="6.02206">
        <ele>1475</ele>
        <time>2018-09-08T19:16:40Z</time>
      </trkpt>
      <trkpt lat="46.41369" lon="6.02206">
        <ele>1475</ele>
        <time>2018-09-08T19:16:50Z</time>
      </trkpt>
      <trkpt lat="46.41367" lon="6.02207">
        <ele>1475</ele>
        <time>2018-09-08T19:16:55Z</time>
      </trkpt>
      <trkpt lat="46.41365" lon="6.02209">
        <ele>1476</ele>
        <time>2018-09-08T19:17:00Z</time>
      </trkpt>
      <trkpt lat="46.41364" lon="6.0221">
        <ele>1476</ele>
        <time>2018-09-08T19:17:05Z</time>
      </trkpt>
      <trkpt lat="46.41363" lon="6.02212">
        <ele>1476</ele>
        <time>2018-09-08T19:17:15Z</time>
      </trkpt>
      <trkpt lat="46.41361" lon="6.02214">
        <ele>1476</ele>
        <time>2018-09-08T19:17:20Z</time>
      </trkpt>
      <trkpt lat="46.41356" lon="6.02219">
        <ele>1476</ele>
        <time>2018-09-08T19:17:25Z</time>
      </trkpt>
      <trkpt lat="46.41354" lon="6.02222">
        <ele>1477</ele>
        <time>2018-09-08T19:17:30Z</time>
      </trkpt>
      <trkpt lat="46.41345" lon="6.0223">
        <ele>1477</ele>
        <time>2018-09-08T19:17:40Z</time>
      </trkpt>
      <trkpt lat="46.4134" lon="6.02233">
        <ele>1478</ele>
        <time>2018-09-08T19:17:45Z</time>
      </trkpt>
      <trkpt lat="46.41337" lon="6.02234">
        <ele>1478</ele>
        <time>2018-09-08T19:17:50Z</time>
      </trkpt>
      <trkpt lat="46.41337" lon="6.02235">
        <ele>1478</ele>
        <time>2018-09-08T19:17:55Z</time>
      </trkpt>
      <trkpt lat="46.41337" lon="6.02237">
        <ele>1478</ele>
        <time>2018-09-08T19:18:00Z</time>
      </trkpt>
      <trkpt lat="46.41337" lon="6.02237">
        <ele>1478</ele>
        <time>2018-09-08T19:18:10Z</time>
      </trkpt>
      <trkpt lat="46.41337" lon="6.02237">
        <ele>1478</ele>
        <time>2018-09-08T19:18:15Z</time>
      </trkpt>
      <trkpt lat="46.41338" lon="6.02238">
        <ele>1478</ele>
        <time>2018-09-08T19:18:20Z</time>
      </trkpt>
      <trkpt lat="46.41339" lon="6.0224">
        <ele>1478</ele>
        <time>2018-09-08T19:18:25Z</time>
      </trkpt>
      <trkpt lat="46.41339" lon="6.02239">
        <ele>1478</ele>
        <time>2018-09-08T19:18:35Z</time>
      </trkpt>
      <trkpt lat="46.41339" lon="6.02239">
        <ele>1478</ele>
        <time>2018-09-08T19:18:40Z</time>
      </trkpt>
      <trkpt lat="46.41339" lon="6.02239">
        <ele>1478</ele>
        <time>2018-09-08T19:18:45Z</time>
      </trkpt>
      <trkpt lat="46.41339" lon="6.02239">
        <ele>1478</ele>
        <time>2018-09-08T19:18:50Z</time>
      </trkpt>
      <trkpt lat="46.41339" lon="6.02239">
        <ele>1478</ele>
        <time>2018-09-08T19:19:00Z</time>
      </trkpt>
      <trkpt lat="46.41339" lon="6.02239">
        <ele>1478</ele>
        <time>2018-09-08T19:19:05Z</time>
      </trkpt>
      <trkpt lat="46.41339" lon="6.02239">
        <ele>1478</ele>
        <time>2018-09-08T19:19:10Z</time>
      </trkpt>
      <trkpt lat="46.41339" lon="6.02239">
        <ele>1478</ele>
        <time>2018-09-08T19:19:15Z</time>
      </trkpt>
      <trkpt lat="46.41339" lon="6.02239">
        <ele>1478</ele>
        <time>2018-09-08T19:19:20Z</time>
      </trkpt>
      <trkpt lat="46.41339" lon="6.02239">
        <ele>1478</ele>
        <time>2018-09-08T19:19:30Z</time>
      </trkpt>
      <trkpt lat="46.41339" lon="6.02239">
        <ele>1478</ele>
        <time>2018-09-08T19:19:35Z</time>
      </trkpt>
      <trkpt lat="46.41339" lon="6.02239">
        <ele>1478</ele>
        <time>2018-09-08T19:19:40Z</time>
      </trkpt>
      <trkpt lat="46.41339" lon="6.02239">
        <ele>1478</ele>
        <time>2018-09-08T19:19:45Z</time>
      </trkpt>
      <trkpt lat="46.41339" lon="6.02239">
        <ele>1478</ele>
        <time>2018-09-08T19:19:55Z</time>
      </trkpt>
      <trkpt lat="46.41339" lon="6.02239">
        <ele>1478</ele>
        <time>2018-09-08T19:20:00Z</time>
      </trkpt>
      <trkpt lat="46.41339" lon="6.02239">
        <ele>1478</ele>
        <time>2018-09-08T19:20:05Z</time>
      </trkpt>
      <trkpt lat="46.41339" lon="6.02239">
        <ele>1478</ele>
        <time>2018-09-08T19:20:10Z</time>
      </trkpt>
      <trkpt lat="46.41339" lon="6.02239">
        <ele>1478</ele>
        <time>2018-09-08T19:20:15Z</time>
      </trkpt>
      <trkpt lat="46.41339" lon="6.02239">
        <ele>1478</ele>
        <time>2018-09-08T19:20:25Z</time>
      </trkpt>
      <trkpt lat="46.41339" lon="6.02239">
        <ele>1478</ele>
        <time>2018-09-08T19:20:30Z</time>
      </trkpt>
      <trkpt lat="46.41339" lon="6.02239">
        <ele>1478</ele>
        <time>2018-09-08T19:20:35Z</time>
      </trkpt>
      <trkpt lat="46.41339" lon="6.02239">
        <ele>1478</ele>
        <time>2018-09-08T19:20:40Z</time>
      </trkpt>
      <trkpt lat="46.41339" lon="6.02239">
        <ele>1478</ele>
        <time>2018-09-08T19:20:50Z</time>
      </trkpt>
      <trkpt lat="46.41339" lon="6.02239">
        <ele>1478</ele>
        <time>2018-09-08T19:20:55Z</time>
      </trkpt>
      <trkpt lat="46.41339" lon="6.02239">
        <ele>1478</ele>
        <time>2018-09-08T19:21:00Z</time>
      </trkpt>
      <trkpt lat="46.41339" lon="6.02239">
        <ele>1478</ele>
        <time>2018-09-08T19:21:05Z</time>
      </trkpt>
      <trkpt lat="46.41337" lon="6.02238">
        <ele>1478</ele>
        <time>2018-09-08T19:21:15Z</time>
      </trkpt>
      <trkpt lat="46.41334" lon="6.02236">
        <ele>1478</ele>
        <time>2018-09-08T19:21:20Z</time>
      </trkpt>
      <trkpt lat="46.41334" lon="6.02236">
        <ele>1478</ele>
        <time>2018-09-08T19:21:25Z</time>
      </trkpt>
      <trkpt lat="46.41334" lon="6.02236">
        <ele>1478</ele>
        <time>2018-09-08T19:21:30Z</time>
      </trkpt>
      <trkpt lat="46.41333" lon="6.02237">
        <ele>1478</ele>
        <time>2018-09-08T19:21:35Z</time>
      </trkpt>
      <trkpt lat="46.41333" lon="6.02237">
        <ele>1478</ele>
        <time>2018-09-08T19:21:45Z</time>
      </trkpt>
      <trkpt lat="46.41333" lon="6.02237">
        <ele>1478</ele>
        <time>2018-09-08T19:21:50Z</time>
      </trkpt>
      <trkpt lat="46.41333" lon="6.02237">
        <ele>1478</ele>
        <time>2018-09-08T19:21:55Z</time>
      </trkpt>
      <trkpt lat="46.41333" lon="6.02238">
        <ele>1478</ele>
        <time>2018-09-08T19:22:00Z</time>
      </trkpt>
      <trkpt lat="46.41333" lon="6.02238">
        <ele>1478</ele>
        <time>2018-09-08T19:22:10Z</time>
      </trkpt>
      <trkpt lat="46.41333" lon="6.02238">
        <ele>1478</ele>
        <time>2018-09-08T19:22:15Z</time>
      </trkpt>
      <trkpt lat="46.41333" lon="6.02238">
        <ele>1478</ele>
        <time>2018-09-08T19:22:20Z</time>
      </trkpt>
      <trkpt lat="46.41332" lon="6.02238">
        <ele>1478</ele>
        <time>2018-09-08T19:22:25Z</time>
      </trkpt>
      <trkpt lat="46.41333" lon="6.02238">
        <ele>1478</ele>
        <time>2018-09-08T19:22:35Z</time>
      </trkpt>
      <trkpt lat="46.41333" lon="6.02238">
        <ele>1478</ele>
        <time>2018-09-08T19:22:40Z</time>
      </trkpt>
      <trkpt lat="46.41334" lon="6.02238">
        <ele>1478</ele>
        <time>2018-09-08T19:22:45Z</time>
      </trkpt>
      <trkpt lat="46.41334" lon="6.02238">
        <ele>1478</ele>
        <time>2018-09-08T19:22:50Z</time>
      </trkpt>
      <trkpt lat="46.41335" lon="6.02238">
        <ele>1478</ele>
        <time>2018-09-08T19:22:55Z</time>
      </trkpt>
      <trkpt lat="46.41337" lon="6.02239">
        <ele>1478</ele>
        <time>2018-09-08T19:23:05Z</time>
      </trkpt>
      <trkpt lat="46.41337" lon="6.02239">
        <ele>1478</ele>
        <time>2018-09-08T19:23:10Z</time>
      </trkpt>
      <trkpt lat="46.41337" lon="6.02239">
        <ele>1478</ele>
        <time>2018-09-08T19:23:15Z</time>
      </trkpt>
      <trkpt lat="46.41337" lon="6.02239">
        <ele>1478</ele>
        <time>2018-09-08T19:23:20Z</time>
      </trkpt>
      <trkpt lat="46.41338" lon="6.0224">
        <ele>1478</ele>
        <time>2018-09-08T19:23:30Z</time>
      </trkpt>
      <trkpt lat="46.41338" lon="6.0224">
        <ele>1478</ele>
        <time>2018-09-08T19:23:35Z</time>
      </trkpt>
      <trkpt lat="46.41338" lon="6.0224">
        <ele>1478</ele>
        <time>2018-09-08T19:23:40Z</time>
      </trkpt>
      <trkpt lat="46.41338" lon="6.0224">
        <ele>1478</ele>
        <time>2018-09-08T19:23:45Z</time>
      </trkpt>
      <trkpt lat="46.41338" lon="6.02239">
        <ele>1478</ele>
        <time>2018-09-08T19:23:55Z</time>
      </trkpt>
      <trkpt lat="46.41338" lon="6.02239">
        <ele>1478</ele>
        <time>2018-09-08T19:24:00Z</time>
      </trkpt>
      <trkpt lat="46.41337" lon="6.02238">
        <ele>1478</ele>
        <time>2018-09-08T19:24:05Z</time>
      </trkpt>
      <trkpt lat="46.41337" lon="6.02239">
        <ele>1478</ele>
        <time>2018-09-08T19:24:10Z</time>
      </trkpt>
      <trkpt lat="46.41337" lon="6.02239">
        <ele>1478</ele>
        <time>2018-09-08T19:24:15Z</time>
      </trkpt>
      <trkpt lat="46.41337" lon="6.02239">
        <ele>1478</ele>
        <time>2018-09-08T19:24:25Z</time>
      </trkpt>
      <trkpt lat="46.41337" lon="6.02239">
        <ele>1478</ele>
        <time>2018-09-08T19:24:30Z</time>
      </trkpt>
      <trkpt lat="46.41337" lon="6.02238">
        <ele>1478</ele>
        <time>2018-09-08T19:24:35Z</time>
      </trkpt>
      <trkpt lat="46.41339" lon="6.02234">
        <ele>1478</ele>
        <time>2018-09-08T19:24:40Z</time>
      </trkpt>
      <trkpt lat="46.41346" lon="6.02229">
        <ele>1477</ele>
        <time>2018-09-08T19:24:50Z</time>
      </trkpt>
      <trkpt lat="46.41351" lon="6.02227">
        <ele>1477</ele>
        <time>2018-09-08T19:24:55Z</time>
      </trkpt>
      <trkpt lat="46.41353" lon="6.02225">
        <ele>1477</ele>
        <time>2018-09-08T19:25:00Z</time>
      </trkpt>
      <trkpt lat="46.41355" lon="6.02224">
        <ele>1477</ele>
        <time>2018-09-08T19:25:05Z</time>
      </trkpt>
      <trkpt lat="46.41356" lon="6.02223">
        <ele>1477</ele>
        <time>2018-09-08T19:25:10Z</time>
      </trkpt>
      <trkpt lat="46.41356" lon="6.02222">
        <ele>1477</ele>
        <time>2018-09-08T19:25:20Z</time>
      </trkpt>
      <trkpt lat="46.41356" lon="6.02222">
        <ele>1477</ele>
        <time>2018-09-08T19:25:25Z</time>
      </trkpt>
      <trkpt lat="46.41356" lon="6.0222">
        <ele>1476</ele>
        <time>2018-09-08T19:25:30Z</time>
      </trkpt>
      <trkpt lat="46.41356" lon="6.0222">
        <ele>1476</ele>
        <time>2018-09-08T19:25:35Z</time>
      </trkpt>
      <trkpt lat="46.41361" lon="6.02214">
        <ele>1476</ele>
        <time>2018-09-08T19:25:45Z</time>
      </trkpt>
      <trkpt lat="46.41362" lon="6.02212">
        <ele>1476</ele>
        <time>2018-09-08T19:25:50Z</time>
      </trkpt>
      <trkpt lat="46.41362" lon="6.02211">
        <ele>1476</ele>
        <time>2018-09-08T19:25:55Z</time>
      </trkpt>
      <trkpt lat="46.41365" lon="6.02209">
        <ele>1476</ele>
        <time>2018-09-08T19:26:00Z</time>
      </trkpt>
      <trkpt lat="46.41372" lon="6.02208">
        <ele>1475</ele>
        <time>2018-09-08T19:26:10Z</time>
      </trkpt>
      <trkpt lat="46.41373" lon="6.0221">
        <ele>1475</ele>
        <time>2018-09-08T19:26:15Z</time>
      </trkpt>
      <trkpt lat="46.41376" lon="6.02211">
        <ele>1475</ele>
        <time>2018-09-08T19:26:20Z</time>
      </trkpt>
      <trkpt lat="46.41376" lon="6.02212">
        <ele>1475</ele>
        <time>2018-09-08T19:26:25Z</time>
      </trkpt>
      <trkpt lat="46.41379" lon="6.02215">
        <ele>1475</ele>
        <time>2018-09-08T19:26:30Z</time>
      </trkpt>
      <trkpt lat="46.41384" lon="6.02212">
        <ele>1474</ele>
        <time>2018-09-08T19:26:40Z</time>
      </trkpt>
      <trkpt lat="46.41389" lon="6.02208">
        <ele>1473</ele>
        <time>2018-09-08T19:26:45Z</time>
      </trkpt>
      <trkpt lat="46.41391" lon="6.02206">
        <ele>1473</ele>
        <time>2018-09-08T19:26:50Z</time>
      </trkpt>
      <trkpt lat="46.41394" lon="6.02203">
        <ele>1472</ele>
        <time>2018-09-08T19:26:55Z</time>
      </trkpt>
      <trkpt lat="46.41401" lon="6.02195">
        <ele>1470</ele>
        <time>2018-09-08T19:27:05Z</time>
      </trkpt>
      <trkpt lat="46.41405" lon="6.02195">
        <ele>1469</ele>
        <time>2018-09-08T19:27:10Z</time>
      </trkpt>
      <trkpt lat="46.41407" lon="6.02196">
        <ele>1469</ele>
        <time>2018-09-08T19:27:15Z</time>
      </trkpt>
      <trkpt lat="46.41407" lon="6.02196">
        <ele>1469</ele>
        <time>2018-09-08T19:27:20Z</time>
      </trkpt>
      <trkpt lat="46.4141" lon="6.02195">
        <ele>1468</ele>
        <time>2018-09-08T19:27:30Z</time>
      </trkpt>
      <trkpt lat="46.41412" lon="6.02192">
        <ele>1468</ele>
        <time>2018-09-08T19:27:35Z</time>
      </trkpt>
      <trkpt lat="46.41412" lon="6.02187">
        <ele>1468</ele>
        <time>2018-09-08T19:27:40Z</time>
      </trkpt>
      <trkpt lat="46.41414" lon="6.02183">
        <ele>1466</ele>
        <time>2018-09-08T19:27:45Z</time>
      </trkpt>
      <trkpt lat="46.41418" lon="6.02179">
        <ele>1466</ele>
        <time>2018-09-08T19:27:50Z</time>
      </trkpt>
      <trkpt lat="46.41425" lon="6.02172">
        <ele>1463</ele>
        <time>2018-09-08T19:28:00Z</time>
      </trkpt>
      <trkpt lat="46.41423" lon="6.02165">
        <ele>1463</ele>
        <time>2018-09-08T19:28:05Z</time>
      </trkpt>
      <trkpt lat="46.41422" lon="6.02163">
        <ele>1463</ele>
        <time>2018-09-08T19:28:10Z</time>
      </trkpt>
      <trkpt lat="46.41422" lon="6.02163">
        <ele>1463</ele>
        <time>2018-09-08T19:28:15Z</time>
      </trkpt>
      <trkpt lat="46.41422" lon="6.02163">
        <ele>1463</ele>
        <time>2018-09-08T19:28:25Z</time>
      </trkpt>
      <trkpt lat="46.41419" lon="6.02159">
        <ele>1464</ele>
        <time>2018-09-08T19:28:30Z</time>
      </trkpt>
      <trkpt lat="46.41417" lon="6.02153">
        <ele>1463</ele>
        <time>2018-09-08T19:28:35Z</time>
      </trkpt>
      <trkpt lat="46.41415" lon="6.02149">
        <ele>1464</ele>
        <time>2018-09-08T19:28:40Z</time>
      </trkpt>
      <trkpt lat="46.41414" lon="6.02144">
        <ele>1463</ele>
        <time>2018-09-08T19:28:45Z</time>
      </trkpt>
      <trkpt lat="46.41412" lon="6.02135">
        <ele>1463</ele>
        <time>2018-09-08T19:28:55Z</time>
      </trkpt>
      <trkpt lat="46.4141" lon="6.02129">
        <ele>1463</ele>
        <time>2018-09-08T19:29:00Z</time>
      </trkpt>
      <trkpt lat="46.4141" lon="6.02123">
        <ele>1462</ele>
        <time>2018-09-08T19:29:05Z</time>
      </trkpt>
      <trkpt lat="46.41409" lon="6.02116">
        <ele>1462</ele>
        <time>2018-09-08T19:29:10Z</time>
      </trkpt>
      <trkpt lat="46.4141" lon="6.02106">
        <ele>1460</ele>
        <time>2018-09-08T19:29:20Z</time>
      </trkpt>
      <trkpt lat="46.41411" lon="6.02101">
        <ele>1460</ele>
        <time>2018-09-08T19:29:25Z</time>
      </trkpt>
      <trkpt lat="46.41414" lon="6.02097">
        <ele>1459</ele>
        <time>2018-09-08T19:29:30Z</time>
      </trkpt>
      <trkpt lat="46.41416" lon="6.02096">
        <ele>1458</ele>
        <time>2018-09-08T19:29:35Z</time>
      </trkpt>
      <trkpt lat="46.41421" lon="6.02095">
        <ele>1457</ele>
        <time>2018-09-08T19:29:45Z</time>
      </trkpt>
      <trkpt lat="46.41423" lon="6.02094">
        <ele>1456</ele>
        <time>2018-09-08T19:29:50Z</time>
      </trkpt>
      <trkpt lat="46.41424" lon="6.02093">
        <ele>1456</ele>
        <time>2018-09-08T19:29:55Z</time>
      </trkpt>
      <trkpt lat="46.41423" lon="6.0209">
        <ele>1456</ele>
        <time>2018-09-08T19:30:00Z</time>
      </trkpt>
      <trkpt lat="46.41422" lon="6.02087">
        <ele>1456</ele>
        <time>2018-09-08T19:30:05Z</time>
      </trkpt>
      <trkpt lat="46.41421" lon="6.02079">
        <ele>1455</ele>
        <time>2018-09-08T19:30:15Z</time>
      </trkpt>
      <trkpt lat="46.4142" lon="6.02075">
        <ele>1455</ele>
        <time>2018-09-08T19:30:20Z</time>
      </trkpt>
      <trkpt lat="46.41419" lon="6.02071">
        <ele>1454</ele>
        <time>2018-09-08T19:30:25Z</time>
      </trkpt>
      <trkpt lat="46.41417" lon="6.02064">
        <ele>1454</ele>
        <time>2018-09-08T19:30:30Z</time>
      </trkpt>
      <trkpt lat="46.41415" lon="6.02061">
        <ele>1454</ele>
        <time>2018-09-08T19:30:40Z</time>
      </trkpt>
      <trkpt lat="46.41414" lon="6.02058">
        <ele>1454</ele>
        <time>2018-09-08T19:30:45Z</time>
      </trkpt>
      <trkpt lat="46.41413" lon="6.02055">
        <ele>1454</ele>
        <time>2018-09-08T19:30:50Z</time>
      </trkpt>
      <trkpt lat="46.41413" lon="6.02054">
        <ele>1454</ele>
        <time>2018-09-08T19:30:55Z</time>
      </trkpt>
      <trkpt lat="46.41413" lon="6.02053">
        <ele>1454</ele>
        <time>2018-09-08T19:31:05Z</time>
      </trkpt>
      <trkpt lat="46.41412" lon="6.02051">
        <ele>1454</ele>
        <time>2018-09-08T19:31:10Z</time>
      </trkpt>
      <trkpt lat="46.41412" lon="6.02048">
        <ele>1453</ele>
        <time>2018-09-08T19:31:15Z</time>
      </trkpt>
      <trkpt lat="46.4141" lon="6.02043">
        <ele>1453</ele>
        <time>2018-09-08T19:31:20Z</time>
      </trkpt>
      <trkpt lat="46.41409" lon="6.02037">
        <ele>1452</ele>
        <time>2018-09-08T19:31:25Z</time>
      </trkpt>
      <trkpt lat="46.41409" lon="6.0203">
        <ele>1451</ele>
        <time>2018-09-08T19:31:35Z</time>
      </trkpt>
      <trkpt lat="46.41412" lon="6.02024">
        <ele>1449</ele>
        <time>2018-09-08T19:31:40Z</time>
      </trkpt>
      <trkpt lat="46.41415" lon="6.02019">
        <ele>1448</ele>
        <time>2018-09-08T19:31:45Z</time>
      </trkpt>
      <trkpt lat="46.41415" lon="6.02013">
        <ele>1447</ele>
        <time>2018-09-08T19:31:50Z</time>
      </trkpt>
      <trkpt lat="46.4141" lon="6.02006">
        <ele>1447</ele>
        <time>2018-09-08T19:32:00Z</time>
      </trkpt>
      <trkpt lat="46.41408" lon="6.02003">
        <ele>1447</ele>
        <time>2018-09-08T19:32:05Z</time>
      </trkpt>
      <trkpt lat="46.41406" lon="6.01999">
        <ele>1447</ele>
        <time>2018-09-08T19:32:10Z</time>
      </trkpt>
      <trkpt lat="46.41405" lon="6.01995">
        <ele>1447</ele>
        <time>2018-09-08T19:32:15Z</time>
      </trkpt>
      <trkpt lat="46.41405" lon="6.01996">
        <ele>1447</ele>
        <time>2018-09-08T19:32:25Z</time>
      </trkpt>
      <trkpt lat="46.41403" lon="6.01992">
        <ele>1447</ele>
        <time>2018-09-08T19:32:30Z</time>
      </trkpt>
      <trkpt lat="46.41401" lon="6.01987">
        <ele>1446</ele>
        <time>2018-09-08T19:32:35Z</time>
      </trkpt>
      <trkpt lat="46.41399" lon="6.01982">
        <ele>1446</ele>
        <time>2018-09-08T19:32:40Z</time>
      </trkpt>
      <trkpt lat="46.41396" lon="6.01978">
        <ele>1446</ele>
        <time>2018-09-08T19:32:45Z</time>
      </trkpt>
      <trkpt lat="46.41393" lon="6.01965">
        <ele>1444</ele>
        <time>2018-09-08T19:32:55Z</time>
      </trkpt>
      <trkpt lat="46.4139" lon="6.01959">
        <ele>1444</ele>
        <time>2018-09-08T19:33:00Z</time>
      </trkpt>
      <trkpt lat="46.41389" lon="6.01956">
        <ele>1444</ele>
        <time>2018-09-08T19:33:05Z</time>
      </trkpt>
      <trkpt lat="46.41388" lon="6.01953">
        <ele>1444</ele>
        <time>2018-09-08T19:33:10Z</time>
      </trkpt>
      <trkpt lat="46.41389" lon="6.0195">
        <ele>1443</ele>
        <time>2018-09-08T19:33:20Z</time>
      </trkpt>
      <trkpt lat="46.41389" lon="6.0195">
        <ele>1443</ele>
        <time>2018-09-08T19:33:25Z</time>
      </trkpt>
      <trkpt lat="46.41389" lon="6.01949">
        <ele>1443</ele>
        <time>2018-09-08T19:33:30Z</time>
      </trkpt>
      <trkpt lat="46.41387" lon="6.01947">
        <ele>1443</ele>
        <time>2018-09-08T19:33:35Z</time>
      </trkpt>
      <trkpt lat="46.41385" lon="6.01944">
        <ele>1443</ele>
        <time>2018-09-08T19:33:40Z</time>
      </trkpt>
      <trkpt lat="46.41378" lon="6.01929">
        <ele>1442</ele>
        <time>2018-09-08T19:33:50Z</time>
      </trkpt>
      <trkpt lat="46.41373" lon="6.01921">
        <ele>1441</ele>
        <time>2018-09-08T19:33:55Z</time>
      </trkpt>
      <trkpt lat="46.41372" lon="6.01919">
        <ele>1441</ele>
        <time>2018-09-08T19:34:00Z</time>
      </trkpt>
      <trkpt lat="46.41372" lon="6.01919">
        <ele>1441</ele>
        <time>2018-09-08T19:34:05Z</time>
      </trkpt>
      <trkpt lat="46.41372" lon="6.01919">
        <ele>1441</ele>
        <time>2018-09-08T19:34:15Z</time>
      </trkpt>
      <trkpt lat="46.41372" lon="6.01919">
        <ele>1441</ele>
        <time>2018-09-08T19:34:20Z</time>
      </trkpt>
      <trkpt lat="46.41371" lon="6.01919">
        <ele>1441</ele>
        <time>2018-09-08T19:34:25Z</time>
      </trkpt>
      <trkpt lat="46.41367" lon="6.01915">
        <ele>1442</ele>
        <time>2018-09-08T19:34:30Z</time>
      </trkpt>
      <trkpt lat="46.41359" lon="6.01905">
        <ele>1441</ele>
        <time>2018-09-08T19:34:40Z</time>
      </trkpt>
      <trkpt lat="46.41356" lon="6.019">
        <ele>1441</ele>
        <time>2018-09-08T19:34:45Z</time>
      </trkpt>
      <trkpt lat="46.41352" lon="6.01891">
        <ele>1440</ele>
        <time>2018-09-08T19:34:50Z</time>
      </trkpt>
      <trkpt lat="46.41347" lon="6.0188">
        <ele>1439</ele>
        <time>2018-09-08T19:34:55Z</time>
      </trkpt>
      <trkpt lat="46.41343" lon="6.0187">
        <ele>1438</ele>
        <time>2018-09-08T19:35:00Z</time>
      </trkpt>
      <trkpt lat="46.41337" lon="6.01854">
        <ele>1436</ele>
        <time>2018-09-08T19:35:10Z</time>
      </trkpt>
      <trkpt lat="46.4134" lon="6.01844">
        <ele>1434</ele>
        <time>2018-09-08T19:35:15Z</time>
      </trkpt>
      <trkpt lat="46.41342" lon="6.01835">
        <ele>1432</ele>
        <time>2018-09-08T19:35:20Z</time>
      </trkpt>
      <trkpt lat="46.41344" lon="6.01825">
        <ele>1430</ele>
        <time>2018-09-08T19:35:25Z</time>
      </trkpt>
      <trkpt lat="46.41338" lon="6.01806">
        <ele>1428</ele>
        <time>2018-09-08T19:35:35Z</time>
      </trkpt>
      <trkpt lat="46.41337" lon="6.01796">
        <ele>1426</ele>
        <time>2018-09-08T19:35:40Z</time>
      </trkpt>
      <trkpt lat="46.41337" lon="6.0179">
        <ele>1425</ele>
        <time>2018-09-08T19:35:45Z</time>
      </trkpt>
      <trkpt lat="46.41336" lon="6.01785">
        <ele>1425</ele>
        <time>2018-09-08T19:35:50Z</time>
      </trkpt>
      <trkpt lat="46.41336" lon="6.01775">
        <ele>1423</ele>
        <time>2018-09-08T19:36:00Z</time>
      </trkpt>
      <trkpt lat="46.41336" lon="6.01769">
        <ele>1422</ele>
        <time>2018-09-08T19:36:05Z</time>
      </trkpt>
      <trkpt lat="46.41337" lon="6.01766">
        <ele>1421</ele>
        <time>2018-09-08T19:36:10Z</time>
      </trkpt>
      <trkpt lat="46.41337" lon="6.01762">
        <ele>1421</ele>
        <time>2018-09-08T19:36:15Z</time>
      </trkpt>
      <trkpt lat="46.41338" lon="6.01757">
        <ele>1420</ele>
        <time>2018-09-08T19:36:20Z</time>
      </trkpt>
      <trkpt lat="46.41341" lon="6.0175">
        <ele>1418</ele>
        <time>2018-09-08T19:36:30Z</time>
      </trkpt>
      <trkpt lat="46.41342" lon="6.01747">
        <ele>1417</ele>
        <time>2018-09-08T19:36:35Z</time>
      </trkpt>
      <trkpt lat="46.41344" lon="6.01746">
        <ele>1417</ele>
        <time>2018-09-08T19:36:40Z</time>
      </trkpt>
      <trkpt lat="46.41344" lon="6.01746">
        <ele>1416</ele>
        <time>2018-09-08T19:36:45Z</time>
      </trkpt>
      <trkpt lat="46.41345" lon="6.01746">
        <ele>1416</ele>
        <time>2018-09-08T19:36:55Z</time>
      </trkpt>
      <trkpt lat="46.41347" lon="6.01743">
        <ele>1415</ele>
        <time>2018-09-08T19:37:00Z</time>
      </trkpt>
      <trkpt lat="46.41349" lon="6.01741">
        <ele>1414</ele>
        <time>2018-09-08T19:37:05Z</time>
      </trkpt>
      <trkpt lat="46.4135" lon="6.0174">
        <ele>1414</ele>
        <time>2018-09-08T19:37:10Z</time>
      </trkpt>
      <trkpt lat="46.41351" lon="6.01739">
        <ele>1414</ele>
        <time>2018-09-08T19:37:15Z</time>
      </trkpt>
      <trkpt lat="46.41352" lon="6.01733">
        <ele>1412</ele>
        <time>2018-09-08T19:37:25Z</time>
      </trkpt>
      <trkpt lat="46.41354" lon="6.01731">
        <ele>1412</ele>
        <time>2018-09-08T19:37:30Z</time>
      </trkpt>
      <trkpt lat="46.41354" lon="6.01732">
        <ele>1412</ele>
        <time>2018-09-08T19:37:35Z</time>
      </trkpt>
      <trkpt lat="46.41354" lon="6.01732">
        <ele>1412</ele>
        <time>2018-09-08T19:37:40Z</time>
      </trkpt>
      <trkpt lat="46.41354" lon="6.01733">
        <ele>1412</ele>
        <time>2018-09-08T19:37:50Z</time>
      </trkpt>
      <trkpt lat="46.41354" lon="6.01733">
        <ele>1412</ele>
        <time>2018-09-08T19:37:55Z</time>
      </trkpt>
      <trkpt lat="46.41354" lon="6.01734">
        <ele>1412</ele>
        <time>2018-09-08T19:38:00Z</time>
      </trkpt>
      <trkpt lat="46.41354" lon="6.01734">
        <ele>1412</ele>
        <time>2018-09-08T19:38:05Z</time>
      </trkpt>
      <trkpt lat="46.41354" lon="6.01734">
        <ele>1412</ele>
        <time>2018-09-08T19:38:15Z</time>
      </trkpt>
      <trkpt lat="46.41355" lon="6.01734">
        <ele>1412</ele>
        <time>2018-09-08T19:38:20Z</time>
      </trkpt>
      <trkpt lat="46.41357" lon="6.01734">
        <ele>1411</ele>
        <time>2018-09-08T19:38:25Z</time>
      </trkpt>
      <trkpt lat="46.4136" lon="6.01731">
        <ele>1410</ele>
        <time>2018-09-08T19:38:30Z</time>
      </trkpt>
      <trkpt lat="46.41362" lon="6.01729">
        <ele>1410</ele>
        <time>2018-09-08T19:38:35Z</time>
      </trkpt>
      <trkpt lat="46.41364" lon="6.01721">
        <ele>1408</ele>
        <time>2018-09-08T19:38:45Z</time>
      </trkpt>
      <trkpt lat="46.41367" lon="6.01719">
        <ele>1407</ele>
        <time>2018-09-08T19:38:50Z</time>
      </trkpt>
      <trkpt lat="46.4137" lon="6.01716">
        <ele>1406</ele>
        <time>2018-09-08T19:38:55Z</time>
      </trkpt>
      <trkpt lat="46.41372" lon="6.01714">
        <ele>1405</ele>
        <time>2018-09-08T19:39:00Z</time>
      </trkpt>
      <trkpt lat="46.41375" lon="6.0171">
        <ele>1404</ele>
        <time>2018-09-08T19:39:10Z</time>
      </trkpt>
      <trkpt lat="46.41378" lon="6.01707">
        <ele>1402</ele>
        <time>2018-09-08T19:39:15Z</time>
      </trkpt>
      <trkpt lat="46.4138" lon="6.01705">
        <ele>1402</ele>
        <time>2018-09-08T19:39:20Z</time>
      </trkpt>
      <trkpt lat="46.41381" lon="6.01704">
        <ele>1401</ele>
        <time>2018-09-08T19:39:25Z</time>
      </trkpt>
      <trkpt lat="46.41383" lon="6.01699">
        <ele>1400</ele>
        <time>2018-09-08T19:39:35Z</time>
      </trkpt>
      <trkpt lat="46.41385" lon="6.01698">
        <ele>1399</ele>
        <time>2018-09-08T19:39:40Z</time>
      </trkpt>
      <trkpt lat="46.41388" lon="6.01695">
        <ele>1398</ele>
        <time>2018-09-08T19:39:45Z</time>
      </trkpt>
      <trkpt lat="46.4139" lon="6.01692">
        <ele>1397</ele>
        <time>2018-09-08T19:39:50Z</time>
      </trkpt>
      <trkpt lat="46.41392" lon="6.01689">
        <ele>1396</ele>
        <time>2018-09-08T19:39:55Z</time>
      </trkpt>
      <trkpt lat="46.41394" lon="6.01686">
        <ele>1395</ele>
        <time>2018-09-08T19:40:05Z</time>
      </trkpt>
      <trkpt lat="46.41394" lon="6.01684">
        <ele>1395</ele>
        <time>2018-09-08T19:40:10Z</time>
      </trkpt>
      <trkpt lat="46.41396" lon="6.01682">
        <ele>1394</ele>
        <time>2018-09-08T19:40:15Z</time>
      </trkpt>
      <trkpt lat="46.41396" lon="6.01681">
        <ele>1394</ele>
        <time>2018-09-08T19:40:20Z</time>
      </trkpt>
      <trkpt lat="46.41398" lon="6.01671">
        <ele>1392</ele>
        <time>2018-09-08T19:40:30Z</time>
      </trkpt>
      <trkpt lat="46.41399" lon="6.01664">
        <ele>1391</ele>
        <time>2018-09-08T19:40:35Z</time>
      </trkpt>
      <trkpt lat="46.41398" lon="6.01659">
        <ele>1390</ele>
        <time>2018-09-08T19:40:40Z</time>
      </trkpt>
      <trkpt lat="46.41398" lon="6.01656">
        <ele>1390</ele>
        <time>2018-09-08T19:40:45Z</time>
      </trkpt>
      <trkpt lat="46.41398" lon="6.01655">
        <ele>1389</ele>
        <time>2018-09-08T19:40:55Z</time>
      </trkpt>
      <trkpt lat="46.41398" lon="6.01652">
        <ele>1389</ele>
        <time>2018-09-08T19:41:00Z</time>
      </trkpt>
      <trkpt lat="46.41399" lon="6.0165">
        <ele>1388</ele>
        <time>2018-09-08T19:41:05Z</time>
      </trkpt>
      <trkpt lat="46.414" lon="6.01649">
        <ele>1388</ele>
        <time>2018-09-08T19:41:10Z</time>
      </trkpt>
      <trkpt lat="46.41401" lon="6.01646">
        <ele>1387</ele>
        <time>2018-09-08T19:41:15Z</time>
      </trkpt>
      <trkpt lat="46.41402" lon="6.01641">
        <ele>1386</ele>
        <time>2018-09-08T19:41:25Z</time>
      </trkpt>
      <trkpt lat="46.41402" lon="6.01639">
        <ele>1386</ele>
        <time>2018-09-08T19:41:30Z</time>
      </trkpt>
      <trkpt lat="46.41402" lon="6.01639">
        <ele>1386</ele>
        <time>2018-09-08T19:41:35Z</time>
      </trkpt>
      <trkpt lat="46.41402" lon="6.01638">
        <ele>1386</ele>
        <time>2018-09-08T19:41:40Z</time>
      </trkpt>
      <trkpt lat="46.41401" lon="6.01638">
        <ele>1386</ele>
        <time>2018-09-08T19:41:50Z</time>
      </trkpt>
      <trkpt lat="46.41401" lon="6.01637">
        <ele>1386</ele>
        <time>2018-09-08T19:41:55Z</time>
      </trkpt>
      <trkpt lat="46.41401" lon="6.01634">
        <ele>1385</ele>
        <time>2018-09-08T19:42:00Z</time>
      </trkpt>
      <trkpt lat="46.41401" lon="6.01631">
        <ele>1385</ele>
        <time>2018-09-08T19:42:05Z</time>
      </trkpt>
      <trkpt lat="46.41401" lon="6.01628">
        <ele>1385</ele>
        <time>2018-09-08T19:42:10Z</time>
      </trkpt>
      <trkpt lat="46.414" lon="6.01617">
        <ele>1383</ele>
        <time>2018-09-08T19:42:20Z</time>
      </trkpt>
      <trkpt lat="46.41401" lon="6.01612">
        <ele>1382</ele>
        <time>2018-09-08T19:42:25Z</time>
      </trkpt>
      <trkpt lat="46.41403" lon="6.01607">
        <ele>1381</ele>
        <time>2018-09-08T19:42:30Z</time>
      </trkpt>
      <trkpt lat="46.41403" lon="6.01601">
        <ele>1380</ele>
        <time>2018-09-08T19:42:35Z</time>
      </trkpt>
      <trkpt lat="46.41407" lon="6.01592">
        <ele>1378</ele>
        <time>2018-09-08T19:42:45Z</time>
      </trkpt>
      <trkpt lat="46.41408" lon="6.01589">
        <ele>1377</ele>
        <time>2018-09-08T19:42:50Z</time>
      </trkpt>
      <trkpt lat="46.4141" lon="6.01585">
        <ele>1376</ele>
        <time>2018-09-08T19:42:55Z</time>
      </trkpt>
      <trkpt lat="46.41411" lon="6.01581">
        <ele>1375</ele>
        <time>2018-09-08T19:43:00Z</time>
      </trkpt>
      <trkpt lat="46.41407" lon="6.01572">
        <ele>1375</ele>
        <time>2018-09-08T19:43:10Z</time>
      </trkpt>
      <trkpt lat="46.41406" lon="6.01569">
        <ele>1375</ele>
        <time>2018-09-08T19:43:15Z</time>
      </trkpt>
      <trkpt lat="46.41408" lon="6.01569">
        <ele>1374</ele>
        <time>2018-09-08T19:43:20Z</time>
      </trkpt>
      <trkpt lat="46.41407" lon="6.01569">
        <ele>1374</ele>
        <time>2018-09-08T19:43:25Z</time>
      </trkpt>
      <trkpt lat="46.41407" lon="6.01569">
        <ele>1374</ele>
        <time>2018-09-08T19:43:30Z</time>
      </trkpt>
      <trkpt lat="46.41408" lon="6.01567">
        <ele>1374</ele>
        <time>2018-09-08T19:43:40Z</time>
      </trkpt>
      <trkpt lat="46.41408" lon="6.01564">
        <ele>1373</ele>
        <time>2018-09-08T19:43:45Z</time>
      </trkpt>
      <trkpt lat="46.41409" lon="6.0156">
        <ele>1373</ele>
        <time>2018-09-08T19:43:50Z</time>
      </trkpt>
      <trkpt lat="46.41409" lon="6.01557">
        <ele>1372</ele>
        <time>2018-09-08T19:43:55Z</time>
      </trkpt>
      <trkpt lat="46.41413" lon="6.01548">
        <ele>1370</ele>
        <time>2018-09-08T19:44:05Z</time>
      </trkpt>
      <trkpt lat="46.41415" lon="6.01543">
        <ele>1369</ele>
        <time>2018-09-08T19:44:10Z</time>
      </trkpt>
      <trkpt lat="46.41414" lon="6.01537">
        <ele>1368</ele>
        <time>2018-09-08T19:44:15Z</time>
      </trkpt>
      <trkpt lat="46.41414" lon="6.01529">
        <ele>1367</ele>
        <time>2018-09-08T19:44:20Z</time>
      </trkpt>
      <trkpt lat="46.41413" lon="6.01519">
        <ele>1365</ele>
        <time>2018-09-08T19:44:30Z</time>
      </trkpt>
      <trkpt lat="46.41411" lon="6.01516">
        <ele>1365</ele>
        <time>2018-09-08T19:44:35Z</time>
      </trkpt>
      <trkpt lat="46.41411" lon="6.01513">
        <ele>1365</ele>
        <time>2018-09-08T19:44:40Z</time>
      </trkpt>
      <trkpt lat="46.4141" lon="6.0151">
        <ele>1364</ele>
        <time>2018-09-08T19:44:45Z</time>
      </trkpt>
      <trkpt lat="46.4141" lon="6.01506">
        <ele>1364</ele>
        <time>2018-09-08T19:44:50Z</time>
      </trkpt>
      <trkpt lat="46.4141" lon="6.01506">
        <ele>1363</ele>
        <time>2018-09-08T19:45:00Z</time>
      </trkpt>
      <trkpt lat="46.41409" lon="6.01505">
        <ele>1364</ele>
        <time>2018-09-08T19:45:05Z</time>
      </trkpt>
      <trkpt lat="46.41409" lon="6.01503">
        <ele>1363</ele>
        <time>2018-09-08T19:45:10Z</time>
      </trkpt>
      <trkpt lat="46.41408" lon="6.015">
        <ele>1363</ele>
        <time>2018-09-08T19:45:15Z</time>
      </trkpt>
      <trkpt lat="46.41406" lon="6.01492">
        <ele>1362</ele>
        <time>2018-09-08T19:45:25Z</time>
      </trkpt>
      <trkpt lat="46.41405" lon="6.01488">
        <ele>1362</ele>
        <time>2018-09-08T19:45:30Z</time>
      </trkpt>
      <trkpt lat="46.41405" lon="6.01486">
        <ele>1361</ele>
        <time>2018-09-08T19:45:35Z</time>
      </trkpt>
      <trkpt lat="46.41405" lon="6.01485">
        <ele>1361</ele>
        <time>2018-09-08T19:45:40Z</time>
      </trkpt>
      <trkpt lat="46.41403" lon="6.01482">
        <ele>1361</ele>
        <time>2018-09-08T19:45:50Z</time>
      </trkpt>
      <trkpt lat="46.41403" lon="6.01482">
        <ele>1361</ele>
        <time>2018-09-08T19:45:55Z</time>
      </trkpt>
      <trkpt lat="46.41403" lon="6.01482">
        <ele>1361</ele>
        <time>2018-09-08T19:46:00Z</time>
      </trkpt>
      <trkpt lat="46.41403" lon="6.01482">
        <ele>1361</ele>
        <time>2018-09-08T19:46:05Z</time>
      </trkpt>
      <trkpt lat="46.41403" lon="6.01482">
        <ele>1361</ele>
        <time>2018-09-08T19:46:10Z</time>
      </trkpt>
      <trkpt lat="46.41402" lon="6.01479">
        <ele>1361</ele>
        <time>2018-09-08T19:46:20Z</time>
      </trkpt>
      <trkpt lat="46.41403" lon="6.01471">
        <ele>1359</ele>
        <time>2018-09-08T19:46:25Z</time>
      </trkpt>
      <trkpt lat="46.41405" lon="6.01462">
        <ele>1358</ele>
        <time>2018-09-08T19:46:30Z</time>
      </trkpt>
      <trkpt lat="46.41406" lon="6.01452">
        <ele>1356</ele>
        <time>2018-09-08T19:46:35Z</time>
      </trkpt>
      <trkpt lat="46.41396" lon="6.01437">
        <ele>1355</ele>
        <time>2018-09-08T19:46:45Z</time>
      </trkpt>
      <trkpt lat="46.41395" lon="6.01434">
        <ele>1355</ele>
        <time>2018-09-08T19:46:50Z</time>
      </trkpt>
      <trkpt lat="46.41394" lon="6.01434">
        <ele>1355</ele>
        <time>2018-09-08T19:46:55Z</time>
      </trkpt>
      <trkpt lat="46.41394" lon="6.01433">
        <ele>1355</ele>
        <time>2018-09-08T19:47:00Z</time>
      </trkpt>
      <trkpt lat="46.41394" lon="6.01433">
        <ele>1355</ele>
        <time>2018-09-08T19:47:05Z</time>
      </trkpt>
      <trkpt lat="46.41394" lon="6.01433">
        <ele>1355</ele>
        <time>2018-09-08T19:47:15Z</time>
      </trkpt>
      <trkpt lat="46.41394" lon="6.01433">
        <ele>1355</ele>
        <time>2018-09-08T19:47:20Z</time>
      </trkpt>
      <trkpt lat="46.41394" lon="6.01433">
        <ele>1355</ele>
        <time>2018-09-08T19:47:25Z</time>
      </trkpt>
      <trkpt lat="46.41394" lon="6.01432">
        <ele>1355</ele>
        <time>2018-09-08T19:47:30Z</time>
      </trkpt>
      <trkpt lat="46.41397" lon="6.01428">
        <ele>1354</ele>
        <time>2018-09-08T19:47:40Z</time>
      </trkpt>
      <trkpt lat="46.414" lon="6.01426">
        <ele>1353</ele>
        <time>2018-09-08T19:47:45Z</time>
      </trkpt>
      <trkpt lat="46.41401" lon="6.01424">
        <ele>1352</ele>
        <time>2018-09-08T19:47:50Z</time>
      </trkpt>
      <trkpt lat="46.41406" lon="6.01422">
        <ele>1351</ele>
        <time>2018-09-08T19:47:55Z</time>
      </trkpt>
      <trkpt lat="46.41412" lon="6.01415">
        <ele>1348</ele>
        <time>2018-09-08T19:48:05Z</time>
      </trkpt>
      <trkpt lat="46.4141" lon="6.01409">
        <ele>1348</ele>
        <time>2018-09-08T19:48:10Z</time>
      </trkpt>
      <trkpt lat="46.41408" lon="6.01404">
        <ele>1347</ele>
        <time>2018-09-08T19:48:15Z</time>
      </trkpt>
      <trkpt lat="46.41406" lon="6.01399">
        <ele>1347</ele>
        <time>2018-09-08T19:48:20Z</time>
      </trkpt>
      <trkpt lat="46.41403" lon="6.01394">
        <ele>1347</ele>
        <time>2018-09-08T19:48:25Z</time>
      </trkpt>
      <trkpt lat="46.41399" lon="6.01383">
        <ele>1345</ele>
        <time>2018-09-08T19:48:35Z</time>
      </trkpt>
      <trkpt lat="46.41398" lon="6.01378">
        <ele>1345</ele>
        <time>2018-09-08T19:48:40Z</time>
      </trkpt>
      <trkpt lat="46.41395" lon="6.01373">
        <ele>1345</ele>
        <time>2018-09-08T19:48:45Z</time>
      </trkpt>
      <trkpt lat="46.41392" lon="6.01368">
        <ele>1344</ele>
        <time>2018-09-08T19:48:50Z</time>
      </trkpt>
      <trkpt lat="46.41392" lon="6.01356">
        <ele>1342</ele>
        <time>2018-09-08T19:49:00Z</time>
      </trkpt>
      <trkpt lat="46.41392" lon="6.0135">
        <ele>1341</ele>
        <time>2018-09-08T19:49:05Z</time>
      </trkpt>
      <trkpt lat="46.41394" lon="6.01344">
        <ele>1340</ele>
        <time>2018-09-08T19:49:10Z</time>
      </trkpt>
      <trkpt lat="46.41394" lon="6.01336">
        <ele>1338</ele>
        <time>2018-09-08T19:49:15Z</time>
      </trkpt>
      <trkpt lat="46.41397" lon="6.01323">
        <ele>1335</ele>
        <time>2018-09-08T19:49:25Z</time>
      </trkpt>
      <trkpt lat="46.41397" lon="6.01318">
        <ele>1334</ele>
        <time>2018-09-08T19:49:30Z</time>
      </trkpt>
      <trkpt lat="46.41398" lon="6.01314">
        <ele>1333</ele>
        <time>2018-09-08T19:49:35Z</time>
      </trkpt>
      <trkpt lat="46.414" lon="6.01309">
        <ele>1332</ele>
        <time>2018-09-08T19:49:40Z</time>
      </trkpt>
      <trkpt lat="46.41402" lon="6.01304">
        <ele>1331</ele>
        <time>2018-09-08T19:49:45Z</time>
      </trkpt>
      <trkpt lat="46.4141" lon="6.01293">
        <ele>1327</ele>
        <time>2018-09-08T19:49:55Z</time>
      </trkpt>
      <trkpt lat="46.41411" lon="6.01288">
        <ele>1326</ele>
        <time>2018-09-08T19:50:00Z</time>
      </trkpt>
      <trkpt lat="46.41412" lon="6.01284">
        <ele>1326</ele>
        <time>2018-09-08T19:50:05Z</time>
      </trkpt>
      <trkpt lat="46.41411" lon="6.01279">
        <ele>1325</ele>
        <time>2018-09-08T19:50:10Z</time>
      </trkpt>
      <trkpt lat="46.41409" lon="6.01266">
        <ele>1323</ele>
        <time>2018-09-08T19:50:20Z</time>
      </trkpt>
      <trkpt lat="46.4141" lon="6.0126">
        <ele>1322</ele>
        <time>2018-09-08T19:50:25Z</time>
      </trkpt>
      <trkpt lat="46.41411" lon="6.01253">
        <ele>1321</ele>
        <time>2018-09-08T19:50:30Z</time>
      </trkpt>
      <trkpt lat="46.41412" lon="6.01247">
        <ele>1320</ele>
        <time>2018-09-08T19:50:35Z</time>
      </trkpt>
      <trkpt lat="46.41413" lon="6.01239">
        <ele>1318</ele>
        <time>2018-09-08T19:50:40Z</time>
      </trkpt>
      <trkpt lat="46.41407" lon="6.01235">
        <ele>1318</ele>
        <time>2018-09-08T19:50:50Z</time>
      </trkpt>
      <trkpt lat="46.41407" lon="6.01226">
        <ele>1317</ele>
        <time>2018-09-08T19:50:55Z</time>
      </trkpt>
      <trkpt lat="46.41405" lon="6.01225">
        <ele>1317</ele>
        <time>2018-09-08T19:51:00Z</time>
      </trkpt>
      <trkpt lat="46.41403" lon="6.0122">
        <ele>1317</ele>
        <time>2018-09-08T19:51:05Z</time>
      </trkpt>
      <trkpt lat="46.41398" lon="6.01207">
        <ele>1316</ele>
        <time>2018-09-08T19:51:15Z</time>
      </trkpt>
      <trkpt lat="46.41396" lon="6.01201">
        <ele>1315</ele>
        <time>2018-09-08T19:51:20Z</time>
      </trkpt>
      <trkpt lat="46.41395" lon="6.01194">
        <ele>1314</ele>
        <time>2018-09-08T19:51:25Z</time>
      </trkpt>
      <trkpt lat="46.41393" lon="6.01188">
        <ele>1314</ele>
        <time>2018-09-08T19:51:30Z</time>
      </trkpt>
      <trkpt lat="46.41393" lon="6.01178">
        <ele>1312</ele>
        <time>2018-09-08T19:51:40Z</time>
      </trkpt>
      <trkpt lat="46.41393" lon="6.01171">
        <ele>1311</ele>
        <time>2018-09-08T19:51:45Z</time>
      </trkpt>
      <trkpt lat="46.41394" lon="6.01166">
        <ele>1310</ele>
        <time>2018-09-08T19:51:50Z</time>
      </trkpt>
      <trkpt lat="46.41396" lon="6.01162">
        <ele>1309</ele>
        <time>2018-09-08T19:51:55Z</time>
      </trkpt>
      <trkpt lat="46.41398" lon="6.01156">
        <ele>1308</ele>
        <time>2018-09-08T19:52:00Z</time>
      </trkpt>
      <trkpt lat="46.41403" lon="6.01146">
        <ele>1306</ele>
        <time>2018-09-08T19:52:10Z</time>
      </trkpt>
      <trkpt lat="46.41404" lon="6.01141">
        <ele>1305</ele>
        <time>2018-09-08T19:52:15Z</time>
      </trkpt>
      <trkpt lat="46.41403" lon="6.01135">
        <ele>1304</ele>
        <time>2018-09-08T19:52:20Z</time>
      </trkpt>
      <trkpt lat="46.41405" lon="6.01132">
        <ele>1304</ele>
        <time>2018-09-08T19:52:25Z</time>
      </trkpt>
      <trkpt lat="46.41404" lon="6.01122">
        <ele>1303</ele>
        <time>2018-09-08T19:52:35Z</time>
      </trkpt>
      <trkpt lat="46.41403" lon="6.01116">
        <ele>1302</ele>
        <time>2018-09-08T19:52:40Z</time>
      </trkpt>
      <trkpt lat="46.41401" lon="6.01108">
        <ele>1302</ele>
        <time>2018-09-08T19:52:45Z</time>
      </trkpt>
      <trkpt lat="46.41399" lon="6.01102">
        <ele>1301</ele>
        <time>2018-09-08T19:52:50Z</time>
      </trkpt>
      <trkpt lat="46.41397" lon="6.0109">
        <ele>1300</ele>
        <time>2018-09-08T19:53:00Z</time>
      </trkpt>
      <trkpt lat="46.41396" lon="6.01085">
        <ele>1300</ele>
        <time>2018-09-08T19:53:05Z</time>
      </trkpt>
      <trkpt lat="46.41394" lon="6.0108">
        <ele>1299</ele>
        <time>2018-09-08T19:53:10Z</time>
      </trkpt>
      <trkpt lat="46.41392" lon="6.01075">
        <ele>1299</ele>
        <time>2018-09-08T19:53:15Z</time>
      </trkpt>
      <trkpt lat="46.41389" lon="6.01072">
        <ele>1299</ele>
        <time>2018-09-08T19:53:20Z</time>
      </trkpt>
      <trkpt lat="46.41384" lon="6.01068">
        <ele>1299</ele>
        <time>2018-09-08T19:53:30Z</time>
      </trkpt>
      <trkpt lat="46.41382" lon="6.01064">
        <ele>1299</ele>
        <time>2018-09-08T19:53:35Z</time>
      </trkpt>
      <trkpt lat="46.41381" lon="6.01061">
        <ele>1299</ele>
        <time>2018-09-08T19:53:40Z</time>
      </trkpt>
      <trkpt lat="46.4138" lon="6.01057">
        <ele>1299</ele>
        <time>2018-09-08T19:53:45Z</time>
      </trkpt>
      <trkpt lat="46.41375" lon="6.01049">
        <ele>1299</ele>
        <time>2018-09-08T19:53:55Z</time>
      </trkpt>
      <trkpt lat="46.41371" lon="6.01046">
        <ele>1299</ele>
        <time>2018-09-08T19:54:00Z</time>
      </trkpt>
      <trkpt lat="46.41366" lon="6.01044">
        <ele>1299</ele>
        <time>2018-09-08T19:54:05Z</time>
      </trkpt>
      <trkpt lat="46.41362" lon="6.0104">
        <ele>1300</ele>
        <time>2018-09-08T19:54:10Z</time>
      </trkpt>
      <trkpt lat="46.41357" lon="6.0103">
        <ele>1299</ele>
        <time>2018-09-08T19:54:20Z</time>
      </trkpt>
      <trkpt lat="46.41353" lon="6.01028">
        <ele>1299</ele>
        <time>2018-09-08T19:54:25Z</time>
      </trkpt>
      <trkpt lat="46.41351" lon="6.01024">
        <ele>1299</ele>
        <time>2018-09-08T19:54:30Z</time>
      </trkpt>
      <trkpt lat="46.41349" lon="6.0102">
        <ele>1299</ele>
        <time>2018-09-08T19:54:35Z</time>
      </trkpt>
      <trkpt lat="46.41345" lon="6.01016">
        <ele>1299</ele>
        <time>2018-09-08T19:54:40Z</time>
      </trkpt>
      <trkpt lat="46.41337" lon="6.01009">
        <ele>1299</ele>
        <time>2018-09-08T19:54:50Z</time>
      </trkpt>
      <trkpt lat="46.41332" lon="6.01004">
        <ele>1300</ele>
        <time>2018-09-08T19:54:55Z</time>
      </trkpt>
      <trkpt lat="46.41331" lon="6.00997">
        <ele>1299</ele>
        <time>2018-09-08T19:55:00Z</time>
      </trkpt>
      <trkpt lat="46.41328" lon="6.00993">
        <ele>1299</ele>
        <time>2018-09-08T19:55:05Z</time>
      </trkpt>
      <trkpt lat="46.41323" lon="6.00985">
        <ele>1299</ele>
        <time>2018-09-08T19:55:15Z</time>
      </trkpt>
      <trkpt lat="46.41319" lon="6.00982">
        <ele>1299</ele>
        <time>2018-09-08T19:55:20Z</time>
      </trkpt>
      <trkpt lat="46.41318" lon="6.00976">
        <ele>1299</ele>
        <time>2018-09-08T19:55:25Z</time>
      </trkpt>
      <trkpt lat="46.41316" lon="6.00969">
        <ele>1298</ele>
        <time>2018-09-08T19:55:30Z</time>
      </trkpt>
      <trkpt lat="46.41313" lon="6.00961">
        <ele>1298</ele>
        <time>2018-09-08T19:55:35Z</time>
      </trkpt>
      <trkpt lat="46.41309" lon="6.00948">
        <ele>1297</ele>
        <time>2018-09-08T19:55:45Z</time>
      </trkpt>
      <trkpt lat="46.41307" lon="6.00941">
        <ele>1297</ele>
        <time>2018-09-08T19:55:50Z</time>
      </trkpt>
      <trkpt lat="46.41306" lon="6.00932">
        <ele>1296</ele>
        <time>2018-09-08T19:55:55Z</time>
      </trkpt>
      <trkpt lat="46.41304" lon="6.00926">
        <ele>1296</ele>
        <time>2018-09-08T19:56:00Z</time>
      </trkpt>
      <trkpt lat="46.41301" lon="6.0091">
        <ele>1295</ele>
        <time>2018-09-08T19:56:10Z</time>
      </trkpt>
      <trkpt lat="46.413" lon="6.00905">
        <ele>1294</ele>
        <time>2018-09-08T19:56:15Z</time>
      </trkpt>
      <trkpt lat="46.41297" lon="6.00899">
        <ele>1294</ele>
        <time>2018-09-08T19:56:20Z</time>
      </trkpt>
      <trkpt lat="46.41293" lon="6.00894">
        <ele>1294</ele>
        <time>2018-09-08T19:56:25Z</time>
      </trkpt>
      <trkpt lat="46.41288" lon="6.00884">
        <ele>1294</ele>
        <time>2018-09-08T19:56:35Z</time>
      </trkpt>
      <trkpt lat="46.41284" lon="6.0088">
        <ele>1294</ele>
        <time>2018-09-08T19:56:40Z</time>
      </trkpt>
      <trkpt lat="46.41281" lon="6.00876">
        <ele>1294</ele>
        <time>2018-09-08T19:56:45Z</time>
      </trkpt>
      <trkpt lat="46.41278" lon="6.00873">
        <ele>1294</ele>
        <time>2018-09-08T19:56:50Z</time>
      </trkpt>
      <trkpt lat="46.41275" lon="6.0087">
        <ele>1294</ele>
        <time>2018-09-08T19:56:55Z</time>
      </trkpt>
      <trkpt lat="46.41268" lon="6.00864">
        <ele>1294</ele>
        <time>2018-09-08T19:57:05Z</time>
      </trkpt>
      <trkpt lat="46.41268" lon="6.00863">
        <ele>1294</ele>
        <time>2018-09-08T19:57:10Z</time>
      </trkpt>
      <trkpt lat="46.41268" lon="6.00863">
        <ele>1294</ele>
        <time>2018-09-08T19:57:15Z</time>
      </trkpt>
      <trkpt lat="46.41267" lon="6.00863">
        <ele>1295</ele>
        <time>2018-09-08T19:57:20Z</time>
      </trkpt>
      <trkpt lat="46.4127" lon="6.00859">
        <ele>1294</ele>
        <time>2018-09-08T19:57:30Z</time>
      </trkpt>
      <trkpt lat="46.41271" lon="6.00854">
        <ele>1293</ele>
        <time>2018-09-08T19:57:35Z</time>
      </trkpt>
      <trkpt lat="46.41271" lon="6.00848">
        <ele>1293</ele>
        <time>2018-09-08T19:57:40Z</time>
      </trkpt>
      <trkpt lat="46.41271" lon="6.00843">
        <ele>1292</ele>
        <time>2018-09-08T19:57:45Z</time>
      </trkpt>
      <trkpt lat="46.41273" lon="6.00833">
        <ele>1291</ele>
        <time>2018-09-08T19:57:55Z</time>
      </trkpt>
      <trkpt lat="46.41273" lon="6.00827">
        <ele>1291</ele>
        <time>2018-09-08T19:58:00Z</time>
      </trkpt>
      <trkpt lat="46.41275" lon="6.00821">
        <ele>1290</ele>
        <time>2018-09-08T19:58:05Z</time>
      </trkpt>
      <trkpt lat="46.41278" lon="6.00817">
        <ele>1290</ele>
        <time>2018-09-08T19:58:10Z</time>
      </trkpt>
      <trkpt lat="46.4128" lon="6.00813">
        <ele>1289</ele>
        <time>2018-09-08T19:58:15Z</time>
      </trkpt>
      <trkpt lat="46.41282" lon="6.00809">
        <ele>1289</ele>
        <time>2018-09-08T19:58:25Z</time>
      </trkpt>
      <trkpt lat="46.41284" lon="6.00806">
        <ele>1288</ele>
        <time>2018-09-08T19:58:30Z</time>
      </trkpt>
      <trkpt lat="46.41286" lon="6.008">
        <ele>1288</ele>
        <time>2018-09-08T19:58:35Z</time>
      </trkpt>
      <trkpt lat="46.41289" lon="6.00795">
        <ele>1287</ele>
        <time>2018-09-08T19:58:40Z</time>
      </trkpt>
      <trkpt lat="46.41296" lon="6.00791">
        <ele>1286</ele>
        <time>2018-09-08T19:58:50Z</time>
      </trkpt>
      <trkpt lat="46.41295" lon="6.00788">
        <ele>1286</ele>
        <time>2018-09-08T19:58:55Z</time>
      </trkpt>
      <trkpt lat="46.41295" lon="6.00784">
        <ele>1285</ele>
        <time>2018-09-08T19:59:00Z</time>
      </trkpt>
      <trkpt lat="46.41298" lon="6.0078">
        <ele>1285</ele>
        <time>2018-09-08T19:59:05Z</time>
      </trkpt>
      <trkpt lat="46.41302" lon="6.00772">
        <ele>1284</ele>
        <time>2018-09-08T19:59:15Z</time>
      </trkpt>
      <trkpt lat="46.41303" lon="6.00766">
        <ele>1283</ele>
        <time>2018-09-08T19:59:20Z</time>
      </trkpt>
      <trkpt lat="46.41303" lon="6.00759">
        <ele>1283</ele>
        <time>2018-09-08T19:59:25Z</time>
      </trkpt>
      <trkpt lat="46.41304" lon="6.00753">
        <ele>1282</ele>
        <time>2018-09-08T19:59:30Z</time>
      </trkpt>
      <trkpt lat="46.41304" lon="6.00746">
        <ele>1282</ele>
        <time>2018-09-08T19:59:35Z</time>
      </trkpt>
      <trkpt lat="46.41302" lon="6.00729">
        <ele>1281</ele>
        <time>2018-09-08T19:59:45Z</time>
      </trkpt>
      <trkpt lat="46.41302" lon="6.00721">
        <ele>1280</ele>
        <time>2018-09-08T19:59:50Z</time>
      </trkpt>
      <trkpt lat="46.41301" lon="6.00713">
        <ele>1279</ele>
        <time>2018-09-08T19:59:55Z</time>
      </trkpt>
      <trkpt lat="46.413" lon="6.00707">
        <ele>1279</ele>
        <time>2018-09-08T20:00:00Z</time>
      </trkpt>
      <trkpt lat="46.413" lon="6.00694">
        <ele>1278</ele>
        <time>2018-09-08T20:00:10Z</time>
      </trkpt>
      <trkpt lat="46.41298" lon="6.00687">
        <ele>1277</ele>
        <time>2018-09-08T20:00:15Z</time>
      </trkpt>
      <trkpt lat="46.41297" lon="6.0068">
        <ele>1277</ele>
        <time>2018-09-08T20:00:20Z</time>
      </trkpt>
      <trkpt lat="46.41296" lon="6.00674">
        <ele>1277</ele>
        <time>2018-09-08T20:00:25Z</time>
      </trkpt>
      <trkpt lat="46.41295" lon="6.00668">
        <ele>1276</ele>
        <time>2018-09-08T20:00:30Z</time>
      </trkpt>
      <trkpt lat="46.41293" lon="6.00654">
        <ele>1275</ele>
        <time>2018-09-08T20:00:40Z</time>
      </trkpt>
      <trkpt lat="46.41291" lon="6.00647">
        <ele>1275</ele>
        <time>2018-09-08T20:00:45Z</time>
      </trkpt>
      <trkpt lat="46.4129" lon="6.0064">
        <ele>1275</ele>
        <time>2018-09-08T20:00:50Z</time>
      </trkpt>
      <trkpt lat="46.41289" lon="6.00632">
        <ele>1274</ele>
        <time>2018-09-08T20:00:55Z</time>
      </trkpt>
      <trkpt lat="46.41286" lon="6.00618">
        <ele>1274</ele>
        <time>2018-09-08T20:01:05Z</time>
      </trkpt>
      <trkpt lat="46.41285" lon="6.00611">
        <ele>1273</ele>
        <time>2018-09-08T20:01:10Z</time>
      </trkpt>
      <trkpt lat="46.41283" lon="6.00604">
        <ele>1273</ele>
        <time>2018-09-08T20:01:15Z</time>
      </trkpt>
      <trkpt lat="46.4128" lon="6.00597">
        <ele>1273</ele>
        <time>2018-09-08T20:01:20Z</time>
      </trkpt>
      <trkpt lat="46.41275" lon="6.00583">
        <ele>1272</ele>
        <time>2018-09-08T20:01:30Z</time>
      </trkpt>
      <trkpt lat="46.41273" lon="6.00576">
        <ele>1271</ele>
        <time>2018-09-08T20:01:35Z</time>
      </trkpt>
      <trkpt lat="46.41271" lon="6.00569">
        <ele>1271</ele>
        <time>2018-09-08T20:01:40Z</time>
      </trkpt>
      <trkpt lat="46.41269" lon="6.00563">
        <ele>1271</ele>
        <time>2018-09-08T20:01:45Z</time>
      </trkpt>
      <trkpt lat="46.41268" lon="6.00555">
        <ele>1270</ele>
        <time>2018-09-08T20:01:50Z</time>
      </trkpt>
      <trkpt lat="46.41271" lon="6.0054">
        <ele>1268</ele>
        <time>2018-09-08T20:02:00Z</time>
      </trkpt>
      <trkpt lat="46.41273" lon="6.00534">
        <ele>1267</ele>
        <time>2018-09-08T20:02:05Z</time>
      </trkpt>
      <trkpt lat="46.41276" lon="6.00528">
        <ele>1266</ele>
        <time>2018-09-08T20:02:10Z</time>
      </trkpt>
      <trkpt lat="46.41278" lon="6.00523">
        <ele>1266</ele>
        <time>2018-09-08T20:02:15Z</time>
      </trkpt>
      <trkpt lat="46.41284" lon="6.00512">
        <ele>1264</ele>
        <time>2018-09-08T20:02:25Z</time>
      </trkpt>
      <trkpt lat="46.41287" lon="6.00506">
        <ele>1262</ele>
        <time>2018-09-08T20:02:30Z</time>
      </trkpt>
      <trkpt lat="46.41289" lon="6.005">
        <ele>1261</ele>
        <time>2018-09-08T20:02:35Z</time>
      </trkpt>
      <trkpt lat="46.41292" lon="6.00495">
        <ele>1261</ele>
        <time>2018-09-08T20:02:40Z</time>
      </trkpt>
      <trkpt lat="46.41297" lon="6.00482">
        <ele>1258</ele>
        <time>2018-09-08T20:02:50Z</time>
      </trkpt>
      <trkpt lat="46.41298" lon="6.00476">
        <ele>1257</ele>
        <time>2018-09-08T20:02:55Z</time>
      </trkpt>
      <trkpt lat="46.41299" lon="6.00469">
        <ele>1257</ele>
        <time>2018-09-08T20:03:00Z</time>
      </trkpt>
      <trkpt lat="46.413" lon="6.00463">
        <ele>1256</ele>
        <time>2018-09-08T20:03:05Z</time>
      </trkpt>
      <trkpt lat="46.413" lon="6.00455">
        <ele>1254</ele>
        <time>2018-09-08T20:03:10Z</time>
      </trkpt>
      <trkpt lat="46.41304" lon="6.00441">
        <ele>1252</ele>
        <time>2018-09-08T20:03:20Z</time>
      </trkpt>
      <trkpt lat="46.41305" lon="6.00436">
        <ele>1251</ele>
        <time>2018-09-08T20:03:25Z</time>
      </trkpt>
      <trkpt lat="46.41308" lon="6.0043">
        <ele>1250</ele>
        <time>2018-09-08T20:03:30Z</time>
      </trkpt>
      <trkpt lat="46.4131" lon="6.00425">
        <ele>1249</ele>
        <time>2018-09-08T20:03:35Z</time>
      </trkpt>
      <trkpt lat="46.41312" lon="6.00414">
        <ele>1247</ele>
        <time>2018-09-08T20:03:45Z</time>
      </trkpt>
      <trkpt lat="46.41313" lon="6.00408">
        <ele>1246</ele>
        <time>2018-09-08T20:03:50Z</time>
      </trkpt>
      <trkpt lat="46.41315" lon="6.00403">
        <ele>1245</ele>
        <time>2018-09-08T20:03:55Z</time>
      </trkpt>
      <trkpt lat="46.41317" lon="6.00398">
        <ele>1244</ele>
        <time>2018-09-08T20:04:00Z</time>
      </trkpt>
      <trkpt lat="46.41318" lon="6.00393">
        <ele>1243</ele>
        <time>2018-09-08T20:04:05Z</time>
      </trkpt>
      <trkpt lat="46.41321" lon="6.00383">
        <ele>1241</ele>
        <time>2018-09-08T20:04:15Z</time>
      </trkpt>
      <trkpt lat="46.41322" lon="6.00379">
        <ele>1240</ele>
        <time>2018-09-08T20:04:20Z</time>
      </trkpt>
      <trkpt lat="46.41324" lon="6.00374">
        <ele>1239</ele>
        <time>2018-09-08T20:04:25Z</time>
      </trkpt>
      <trkpt lat="46.41324" lon="6.00368">
        <ele>1238</ele>
        <time>2018-09-08T20:04:30Z</time>
      </trkpt>
      <trkpt lat="46.41325" lon="6.00356">
        <ele>1236</ele>
        <time>2018-09-08T20:04:40Z</time>
      </trkpt>
      <trkpt lat="46.41326" lon="6.00352">
        <ele>1235</ele>
        <time>2018-09-08T20:04:45Z</time>
      </trkpt>
      <trkpt lat="46.41326" lon="6.00347">
        <ele>1234</ele>
        <time>2018-09-08T20:04:50Z</time>
      </trkpt>
      <trkpt lat="46.41326" lon="6.00343">
        <ele>1234</ele>
        <time>2018-09-08T20:04:55Z</time>
      </trkpt>
      <trkpt lat="46.41325" lon="6.00334">
        <ele>1232</ele>
        <time>2018-09-08T20:05:05Z</time>
      </trkpt>
      <trkpt lat="46.41326" lon="6.0033">
        <ele>1231</ele>
        <time>2018-09-08T20:05:10Z</time>
      </trkpt>
      <trkpt lat="46.41327" lon="6.00325">
        <ele>1230</ele>
        <time>2018-09-08T20:05:15Z</time>
      </trkpt>
      <trkpt lat="46.41327" lon="6.0032">
        <ele>1229</ele>
        <time>2018-09-08T20:05:20Z</time>
      </trkpt>
      <trkpt lat="46.41326" lon="6.00315">
        <ele>1228</ele>
        <time>2018-09-08T20:05:25Z</time>
      </trkpt>
      <trkpt lat="46.41327" lon="6.00305">
        <ele>1226</ele>
        <time>2018-09-08T20:05:35Z</time>
      </trkpt>
      <trkpt lat="46.41326" lon="6.00299">
        <ele>1225</ele>
        <time>2018-09-08T20:05:40Z</time>
      </trkpt>
      <trkpt lat="46.41326" lon="6.00293">
        <ele>1224</ele>
        <time>2018-09-08T20:05:45Z</time>
      </trkpt>
      <trkpt lat="46.41326" lon="6.00287">
        <ele>1222</ele>
        <time>2018-09-08T20:05:50Z</time>
      </trkpt>
      <trkpt lat="46.41324" lon="6.00275">
        <ele>1220</ele>
        <time>2018-09-08T20:06:00Z</time>
      </trkpt>
      <trkpt lat="46.41324" lon="6.00268">
        <ele>1218</ele>
        <time>2018-09-08T20:06:05Z</time>
      </trkpt>
      <trkpt lat="46.41324" lon="6.00265">
        <ele>1218</ele>
        <time>2018-09-08T20:06:10Z</time>
      </trkpt>
      <trkpt lat="46.41322" lon="6.00263">
        <ele>1218</ele>
        <time>2018-09-08T20:06:15Z</time>
      </trkpt>
      <trkpt lat="46.4132" lon="6.00252">
        <ele>1216</ele>
        <time>2018-09-08T20:06:25Z</time>
      </trkpt>
      <trkpt lat="46.41319" lon="6.00247">
        <ele>1215</ele>
        <time>2018-09-08T20:06:30Z</time>
      </trkpt>
      <trkpt lat="46.41317" lon="6.00241">
        <ele>1214</ele>
        <time>2018-09-08T20:06:35Z</time>
      </trkpt>
      <trkpt lat="46.41315" lon="6.00236">
        <ele>1213</ele>
        <time>2018-09-08T20:06:40Z</time>
      </trkpt>
      <trkpt lat="46.41312" lon="6.00231">
        <ele>1212</ele>
        <time>2018-09-08T20:06:45Z</time>
      </trkpt>
      <trkpt lat="46.41308" lon="6.00221">
        <ele>1211</ele>
        <time>2018-09-08T20:06:55Z</time>
      </trkpt>
      <trkpt lat="46.41306" lon="6.00216">
        <ele>1210</ele>
        <time>2018-09-08T20:07:00Z</time>
      </trkpt>
      <trkpt lat="46.41304" lon="6.00211">
        <ele>1209</ele>
        <time>2018-09-08T20:07:05Z</time>
      </trkpt>
      <trkpt lat="46.41301" lon="6.00206">
        <ele>1209</ele>
        <time>2018-09-08T20:07:10Z</time>
      </trkpt>
      <trkpt lat="46.41297" lon="6.00197">
        <ele>1207</ele>
        <time>2018-09-08T20:07:20Z</time>
      </trkpt>
      <trkpt lat="46.41294" lon="6.00193">
        <ele>1207</ele>
        <time>2018-09-08T20:07:25Z</time>
      </trkpt>
      <trkpt lat="46.41292" lon="6.00188">
        <ele>1206</ele>
        <time>2018-09-08T20:07:30Z</time>
      </trkpt>
      <trkpt lat="46.41289" lon="6.00184">
        <ele>1206</ele>
        <time>2018-09-08T20:07:35Z</time>
      </trkpt>
      <trkpt lat="46.41284" lon="6.00176">
        <ele>1205</ele>
        <time>2018-09-08T20:07:45Z</time>
      </trkpt>
      <trkpt lat="46.41281" lon="6.0017">
        <ele>1205</ele>
        <time>2018-09-08T20:07:50Z</time>
      </trkpt>
      <trkpt lat="46.41278" lon="6.00166">
        <ele>1204</ele>
        <time>2018-09-08T20:07:55Z</time>
      </trkpt>
      <trkpt lat="46.41276" lon="6.00161">
        <ele>1204</ele>
        <time>2018-09-08T20:08:00Z</time>
      </trkpt>
      <trkpt lat="46.41274" lon="6.00157">
        <ele>1204</ele>
        <time>2018-09-08T20:08:05Z</time>
      </trkpt>
      <trkpt lat="46.41269" lon="6.00148">
        <ele>1203</ele>
        <time>2018-09-08T20:08:15Z</time>
      </trkpt>
      <trkpt lat="46.41266" lon="6.00143">
        <ele>1202</ele>
        <time>2018-09-08T20:08:20Z</time>
      </trkpt>
      <trkpt lat="46.41263" lon="6.00138">
        <ele>1202</ele>
        <time>2018-09-08T20:08:25Z</time>
      </trkpt>
      <trkpt lat="46.4126" lon="6.00132">
        <ele>1201</ele>
        <time>2018-09-08T20:08:30Z</time>
      </trkpt>
      <trkpt lat="46.41257" lon="6.00121">
        <ele>1200</ele>
        <time>2018-09-08T20:08:40Z</time>
      </trkpt>
      <trkpt lat="46.41255" lon="6.00116">
        <ele>1200</ele>
        <time>2018-09-08T20:08:45Z</time>
      </trkpt>
      <trkpt lat="46.41253" lon="6.0011">
        <ele>1199</ele>
        <time>2018-09-08T20:08:50Z</time>
      </trkpt>
      <trkpt lat="46.41252" lon="6.00104">
        <ele>1199</ele>
        <time>2018-09-08T20:08:55Z</time>
      </trkpt>
      <trkpt lat="46.41251" lon="6.00099">
        <ele>1198</ele>
        <time>2018-09-08T20:09:00Z</time>
      </trkpt>
      <trkpt lat="46.41249" lon="6.00087">
        <ele>1197</ele>
        <time>2018-09-08T20:09:10Z</time>
      </trkpt>
      <trkpt lat="46.41248" lon="6.00081">
        <ele>1196</ele>
        <time>2018-09-08T20:09:15Z</time>
      </trkpt>
      <trkpt lat="46.41246" lon="6.00075">
        <ele>1196</ele>
        <time>2018-09-08T20:09:20Z</time>
      </trkpt>
      <trkpt lat="46.41244" lon="6.0007">
        <ele>1195</ele>
        <time>2018-09-08T20:09:25Z</time>
      </trkpt>
      <trkpt lat="46.41241" lon="6.00059">
        <ele>1194</ele>
        <time>2018-09-08T20:09:35Z</time>
      </trkpt>
      <trkpt lat="46.4124" lon="6.00052">
        <ele>1194</ele>
        <time>2018-09-08T20:09:40Z</time>
      </trkpt>
      <trkpt lat="46.41239" lon="6.00047">
        <ele>1194</ele>
        <time>2018-09-08T20:09:45Z</time>
      </trkpt>
      <trkpt lat="46.41236" lon="6.00042">
        <ele>1194</ele>
        <time>2018-09-08T20:09:50Z</time>
      </trkpt>
      <trkpt lat="46.4123" lon="6.0003">
        <ele>1193</ele>
        <time>2018-09-08T20:10:00Z</time>
      </trkpt>
      <trkpt lat="46.41228" lon="6.00025">
        <ele>1193</ele>
        <time>2018-09-08T20:10:05Z</time>
      </trkpt>
      <trkpt lat="46.41226" lon="6.00021">
        <ele>1193</ele>
        <time>2018-09-08T20:10:10Z</time>
      </trkpt>
      <trkpt lat="46.41225" lon="6.00019">
        <ele>1193</ele>
        <time>2018-09-08T20:10:15Z</time>
      </trkpt>
      <trkpt lat="46.41224" lon="6.00016">
        <ele>1193</ele>
        <time>2018-09-08T20:10:20Z</time>
      </trkpt>
      <trkpt lat="46.41219" lon="6.00006">
        <ele>1193</ele>
        <time>2018-09-08T20:10:30Z</time>
      </trkpt>
      <trkpt lat="46.4122" lon="5.99999">
        <ele>1192</ele>
        <time>2018-09-08T20:10:35Z</time>
      </trkpt>
      <trkpt lat="46.4122" lon="5.99991">
        <ele>1192</ele>
        <time>2018-09-08T20:10:40Z</time>
      </trkpt>
      <trkpt lat="46.41219" lon="5.99985">
        <ele>1193</ele>
        <time>2018-09-08T20:10:45Z</time>
      </trkpt>
      <trkpt lat="46.41217" lon="5.99973">
        <ele>1195</ele>
        <time>2018-09-08T20:10:55Z</time>
      </trkpt>
      <trkpt lat="46.41216" lon="5.99968">
        <ele>1195</ele>
        <time>2018-09-08T20:11:00Z</time>
      </trkpt>
      <trkpt lat="46.41215" lon="5.99963">
        <ele>1196</ele>
        <time>2018-09-08T20:11:05Z</time>
      </trkpt>
      <trkpt lat="46.41214" lon="5.99958">
        <ele>1197</ele>
        <time>2018-09-08T20:11:10Z</time>
      </trkpt>
      <trkpt lat="46.41209" lon="5.9995">
        <ele>1199</ele>
        <time>2018-09-08T20:11:20Z</time>
      </trkpt>
      <trkpt lat="46.41207" lon="5.99946">
        <ele>1200</ele>
        <time>2018-09-08T20:11:25Z</time>
      </trkpt>
      <trkpt lat="46.41205" lon="5.99941">
        <ele>1201</ele>
        <time>2018-09-08T20:11:30Z</time>
      </trkpt>
      <trkpt lat="46.41203" lon="5.99936">
        <ele>1202</ele>
        <time>2018-09-08T20:11:35Z</time>
      </trkpt>
      <trkpt lat="46.41202" lon="5.9993">
        <ele>1202</ele>
        <time>2018-09-08T20:11:40Z</time>
      </trkpt>
      <trkpt lat="46.41201" lon="5.99918">
        <ele>1203</ele>
        <time>2018-09-08T20:11:50Z</time>
      </trkpt>
      <trkpt lat="46.41199" lon="5.99912">
        <ele>1203</ele>
        <time>2018-09-08T20:11:55Z</time>
      </trkpt>
      <trkpt lat="46.41197" lon="5.99905">
        <ele>1202</ele>
        <time>2018-09-08T20:12:00Z</time>
      </trkpt>
      <trkpt lat="46.41196" lon="5.99899">
        <ele>1202</ele>
        <time>2018-09-08T20:12:05Z</time>
      </trkpt>
      <trkpt lat="46.41193" lon="5.99886">
        <ele>1200</ele>
        <time>2018-09-08T20:12:15Z</time>
      </trkpt>
      <trkpt lat="46.41192" lon="5.9988">
        <ele>1200</ele>
        <time>2018-09-08T20:12:20Z</time>
      </trkpt>
      <trkpt lat="46.4119" lon="5.99873">
        <ele>1199</ele>
        <time>2018-09-08T20:12:25Z</time>
      </trkpt>
      <trkpt lat="46.41189" lon="5.99866">
        <ele>1198</ele>
        <time>2018-09-08T20:12:30Z</time>
      </trkpt>
      <trkpt lat="46.41188" lon="5.99851">
        <ele>1196</ele>
        <time>2018-09-08T20:12:40Z</time>
      </trkpt>
      <trkpt lat="46.41189" lon="5.99844">
        <ele>1195</ele>
        <time>2018-09-08T20:12:45Z</time>
      </trkpt>
      <trkpt lat="46.41189" lon="5.99837">
        <ele>1195</ele>
        <time>2018-09-08T20:12:50Z</time>
      </trkpt>
      <trkpt lat="46.4119" lon="5.9983">
        <ele>1194</ele>
        <time>2018-09-08T20:12:55Z</time>
      </trkpt>
      <trkpt lat="46.41191" lon="5.99823">
        <ele>1193</ele>
        <time>2018-09-08T20:13:00Z</time>
      </trkpt>
      <trkpt lat="46.41194" lon="5.9981">
        <ele>1191</ele>
        <time>2018-09-08T20:13:10Z</time>
      </trkpt>
      <trkpt lat="46.41195" lon="5.99804">
        <ele>1191</ele>
        <time>2018-09-08T20:13:15Z</time>
      </trkpt>
      <trkpt lat="46.41196" lon="5.99797">
        <ele>1190</ele>
        <time>2018-09-08T20:13:20Z</time>
      </trkpt>
      <trkpt lat="46.41197" lon="5.9979">
        <ele>1189</ele>
        <time>2018-09-08T20:13:25Z</time>
      </trkpt>
      <trkpt lat="46.41197" lon="5.99775">
        <ele>1188</ele>
        <time>2018-09-08T20:13:35Z</time>
      </trkpt>
      <trkpt lat="46.41197" lon="5.99768">
        <ele>1187</ele>
        <time>2018-09-08T20:13:40Z</time>
      </trkpt>
      <trkpt lat="46.41197" lon="5.99761">
        <ele>1186</ele>
        <time>2018-09-08T20:13:45Z</time>
      </trkpt>
      <trkpt lat="46.41197" lon="5.99754">
        <ele>1186</ele>
        <time>2018-09-08T20:13:50Z</time>
      </trkpt>
      <trkpt lat="46.41198" lon="5.99747">
        <ele>1185</ele>
        <time>2018-09-08T20:13:55Z</time>
      </trkpt>
      <trkpt lat="46.41201" lon="5.99734">
        <ele>1184</ele>
        <time>2018-09-08T20:14:05Z</time>
      </trkpt>
      <trkpt lat="46.41203" lon="5.99728">
        <ele>1184</ele>
        <time>2018-09-08T20:14:10Z</time>
      </trkpt>
      <trkpt lat="46.41205" lon="5.99722">
        <ele>1183</ele>
        <time>2018-09-08T20:14:15Z</time>
      </trkpt>
      <trkpt lat="46.41208" lon="5.99717">
        <ele>1183</ele>
        <time>2018-09-08T20:14:20Z</time>
      </trkpt>
      <trkpt lat="46.41206" lon="5.99716">
        <ele>1183</ele>
        <time>2018-09-08T20:14:30Z</time>
      </trkpt>
      <trkpt lat="46.41207" lon="5.99714">
        <ele>1183</ele>
        <time>2018-09-08T20:14:35Z</time>
      </trkpt>
      <trkpt lat="46.41207" lon="5.99713">
        <ele>1182</ele>
        <time>2018-09-08T20:14:40Z</time>
      </trkpt>
      <trkpt lat="46.41207" lon="5.99714">
        <ele>1182</ele>
        <time>2018-09-08T20:14:45Z</time>
      </trkpt>
      <trkpt lat="46.41209" lon="5.99712">
        <ele>1182</ele>
        <time>2018-09-08T20:14:55Z</time>
      </trkpt>
      <trkpt lat="46.41212" lon="5.99705">
        <ele>1182</ele>
        <time>2018-09-08T20:15:00Z</time>
      </trkpt>
      <trkpt lat="46.41215" lon="5.99698">
        <ele>1182</ele>
        <time>2018-09-08T20:15:05Z</time>
      </trkpt>
      <trkpt lat="46.41219" lon="5.99691">
        <ele>1181</ele>
        <time>2018-09-08T20:15:10Z</time>
      </trkpt>
      <trkpt lat="46.41223" lon="5.99685">
        <ele>1181</ele>
        <time>2018-09-08T20:15:15Z</time>
      </trkpt>
      <trkpt lat="46.41225" lon="5.99671">
        <ele>1180</ele>
        <time>2018-09-08T20:15:25Z</time>
      </trkpt>
      <trkpt lat="46.41224" lon="5.99666">
        <ele>1180</ele>
        <time>2018-09-08T20:15:30Z</time>
      </trkpt>
      <trkpt lat="46.41221" lon="5.99659">
        <ele>1180</ele>
        <time>2018-09-08T20:15:35Z</time>
      </trkpt>
      <trkpt lat="46.4122" lon="5.99651">
        <ele>1180</ele>
        <time>2018-09-08T20:15:40Z</time>
      </trkpt>
      <trkpt lat="46.41216" lon="5.99637">
        <ele>1179</ele>
        <time>2018-09-08T20:15:50Z</time>
      </trkpt>
      <trkpt lat="46.41211" lon="5.99632">
        <ele>1179</ele>
        <time>2018-09-08T20:15:55Z</time>
      </trkpt>
      <trkpt lat="46.41207" lon="5.99627">
        <ele>1179</ele>
        <time>2018-09-08T20:16:00Z</time>
      </trkpt>
      <trkpt lat="46.41202" lon="5.99621">
        <ele>1179</ele>
        <time>2018-09-08T20:16:05Z</time>
      </trkpt>
      <trkpt lat="46.41192" lon="5.99609">
        <ele>1178</ele>
        <time>2018-09-08T20:16:15Z</time>
      </trkpt>
      <trkpt lat="46.41188" lon="5.99604">
        <ele>1178</ele>
        <time>2018-09-08T20:16:20Z</time>
      </trkpt>
      <trkpt lat="46.41184" lon="5.99597">
        <ele>1178</ele>
        <time>2018-09-08T20:16:25Z</time>
      </trkpt>
      <trkpt lat="46.41181" lon="5.99591">
        <ele>1178</ele>
        <time>2018-09-08T20:16:30Z</time>
      </trkpt>
      <trkpt lat="46.41177" lon="5.99585">
        <ele>1177</ele>
        <time>2018-09-08T20:16:35Z</time>
      </trkpt>
      <trkpt lat="46.41172" lon="5.99574">
        <ele>1177</ele>
        <time>2018-09-08T20:16:45Z</time>
      </trkpt>
      <trkpt lat="46.41171" lon="5.99567">
        <ele>1177</ele>
        <time>2018-09-08T20:16:50Z</time>
      </trkpt>
      <trkpt lat="46.41172" lon="5.99561">
        <ele>1177</ele>
        <time>2018-09-08T20:16:55Z</time>
      </trkpt>
      <trkpt lat="46.41173" lon="5.99557">
        <ele>1177</ele>
        <time>2018-09-08T20:17:00Z</time>
      </trkpt>
      <trkpt lat="46.41176" lon="5.9955">
        <ele>1177</ele>
        <time>2018-09-08T20:17:10Z</time>
      </trkpt>
      <trkpt lat="46.41179" lon="5.99545">
        <ele>1177</ele>
        <time>2018-09-08T20:17:15Z</time>
      </trkpt>
      <trkpt lat="46.41182" lon="5.9954">
        <ele>1177</ele>
        <time>2018-09-08T20:17:20Z</time>
      </trkpt>
      <trkpt lat="46.41186" lon="5.99535">
        <ele>1177</ele>
        <time>2018-09-08T20:17:25Z</time>
      </trkpt>
      <trkpt lat="46.41188" lon="5.99531">
        <ele>1178</ele>
        <time>2018-09-08T20:17:30Z</time>
      </trkpt>
      <trkpt lat="46.41189" lon="5.9952">
        <ele>1178</ele>
        <time>2018-09-08T20:17:40Z</time>
      </trkpt>
      <trkpt lat="46.41187" lon="5.99513">
        <ele>1177</ele>
        <time>2018-09-08T20:17:45Z</time>
      </trkpt>
      <trkpt lat="46.41183" lon="5.99508">
        <ele>1177</ele>
        <time>2018-09-08T20:17:50Z</time>
      </trkpt>
      <trkpt lat="46.41179" lon="5.99503">
        <ele>1177</ele>
        <time>2018-09-08T20:17:55Z</time>
      </trkpt>
      <trkpt lat="46.41172" lon="5.99493">
        <ele>1177</ele>
        <time>2018-09-08T20:18:05Z</time>
      </trkpt>
      <trkpt lat="46.41168" lon="5.9949">
        <ele>1177</ele>
        <time>2018-09-08T20:18:10Z</time>
      </trkpt>
      <trkpt lat="46.41165" lon="5.99486">
        <ele>1177</ele>
        <time>2018-09-08T20:18:15Z</time>
      </trkpt>
      <trkpt lat="46.41161" lon="5.99481">
        <ele>1177</ele>
        <time>2018-09-08T20:18:20Z</time>
      </trkpt>
      <trkpt lat="46.41153" lon="5.99471">
        <ele>1177</ele>
        <time>2018-09-08T20:18:30Z</time>
      </trkpt>
      <trkpt lat="46.41149" lon="5.99466">
        <ele>1177</ele>
        <time>2018-09-08T20:18:35Z</time>
      </trkpt>
      <trkpt lat="46.41145" lon="5.99461">
        <ele>1177</ele>
        <time>2018-09-08T20:18:40Z</time>
      </trkpt>
      <trkpt lat="46.41141" lon="5.99457">
        <ele>1177</ele>
        <time>2018-09-08T20:18:45Z</time>
      </trkpt>
      <trkpt lat="46.41137" lon="5.99452">
        <ele>1177</ele>
        <time>2018-09-08T20:18:50Z</time>
      </trkpt>
      <trkpt lat="46.41129" lon="5.99444">
        <ele>1177</ele>
        <time>2018-09-08T20:19:00Z</time>
      </trkpt>
      <trkpt lat="46.41126" lon="5.99439">
        <ele>1177</ele>
        <time>2018-09-08T20:19:05Z</time>
      </trkpt>
      <trkpt lat="46.41126" lon="5.99432">
        <ele>1177</ele>
        <time>2018-09-08T20:19:10Z</time>
      </trkpt>
      <trkpt lat="46.41128" lon="5.99425">
        <ele>1178</ele>
        <time>2018-09-08T20:19:15Z</time>
      </trkpt>
      <trkpt lat="46.41127" lon="5.99413">
        <ele>1178</ele>
        <time>2018-09-08T20:19:25Z</time>
      </trkpt>
      <trkpt lat="46.41127" lon="5.99406">
        <ele>1178</ele>
        <time>2018-09-08T20:19:30Z</time>
      </trkpt>
      <trkpt lat="46.41125" lon="5.994">
        <ele>1179</ele>
        <time>2018-09-08T20:19:35Z</time>
      </trkpt>
      <trkpt lat="46.41121" lon="5.99395">
        <ele>1178</ele>
        <time>2018-09-08T20:19:40Z</time>
      </trkpt>
      <trkpt lat="46.41114" lon="5.99384">
        <ele>1178</ele>
        <time>2018-09-08T20:19:50Z</time>
      </trkpt>
      <trkpt lat="46.41111" lon="5.99379">
        <ele>1178</ele>
        <time>2018-09-08T20:19:55Z</time>
      </trkpt>
      <trkpt lat="46.41108" lon="5.99373">
        <ele>1178</ele>
        <time>2018-09-08T20:20:00Z</time>
      </trkpt>
      <trkpt lat="46.41104" lon="5.99366">
        <ele>1178</ele>
        <time>2018-09-08T20:20:05Z</time>
      </trkpt>
      <trkpt lat="46.411" lon="5.9936">
        <ele>1178</ele>
        <time>2018-09-08T20:20:10Z</time>
      </trkpt>
      <trkpt lat="46.41092" lon="5.99347">
        <ele>1178</ele>
        <time>2018-09-08T20:20:20Z</time>
      </trkpt>
      <trkpt lat="46.41088" lon="5.99341">
        <ele>1178</ele>
        <time>2018-09-08T20:20:25Z</time>
      </trkpt>
      <trkpt lat="46.41083" lon="5.99336">
        <ele>1178</ele>
        <time>2018-09-08T20:20:30Z</time>
      </trkpt>
      <trkpt lat="46.41079" lon="5.99331">
        <ele>1178</ele>
        <time>2018-09-08T20:20:35Z</time>
      </trkpt>
      <trkpt lat="46.41071" lon="5.99321">
        <ele>1177</ele>
        <time>2018-09-08T20:20:45Z</time>
      </trkpt>
      <trkpt lat="46.41066" lon="5.99316">
        <ele>1177</ele>
        <time>2018-09-08T20:20:50Z</time>
      </trkpt>
      <trkpt lat="46.41062" lon="5.99311">
        <ele>1177</ele>
        <time>2018-09-08T20:20:55Z</time>
      </trkpt>
      <trkpt lat="46.41058" lon="5.99306">
        <ele>1177</ele>
        <time>2018-09-08T20:21:00Z</time>
      </trkpt>
      <trkpt lat="46.41049" lon="5.99295">
        <ele>1176</ele>
        <time>2018-09-08T20:21:10Z</time>
      </trkpt>
      <trkpt lat="46.41045" lon="5.9929">
        <ele>1176</ele>
        <time>2018-09-08T20:21:15Z</time>
      </trkpt>
      <trkpt lat="46.41042" lon="5.99284">
        <ele>1176</ele>
        <time>2018-09-08T20:21:20Z</time>
      </trkpt>
      <trkpt lat="46.4104" lon="5.99276">
        <ele>1176</ele>
        <time>2018-09-08T20:21:25Z</time>
      </trkpt>
      <trkpt lat="46.41038" lon="5.99268">
        <ele>1176</ele>
        <time>2018-09-08T20:21:30Z</time>
      </trkpt>
      <trkpt lat="46.41034" lon="5.99252">
        <ele>1176</ele>
        <time>2018-09-08T20:21:40Z</time>
      </trkpt>
      <trkpt lat="46.41034" lon="5.99243">
        <ele>1176</ele>
        <time>2018-09-08T20:21:45Z</time>
      </trkpt>
      <trkpt lat="46.41033" lon="5.99235">
        <ele>1176</ele>
        <time>2018-09-08T20:21:50Z</time>
      </trkpt>
      <trkpt lat="46.41033" lon="5.99227">
        <ele>1176</ele>
        <time>2018-09-08T20:21:55Z</time>
      </trkpt>
      <trkpt lat="46.41033" lon="5.99212">
        <ele>1176</ele>
        <time>2018-09-08T20:22:05Z</time>
      </trkpt>
      <trkpt lat="46.41035" lon="5.99204">
        <ele>1176</ele>
        <time>2018-09-08T20:22:10Z</time>
      </trkpt>
      <trkpt lat="46.41037" lon="5.99197">
        <ele>1177</ele>
        <time>2018-09-08T20:22:15Z</time>
      </trkpt>
      <trkpt lat="46.4104" lon="5.99191">
        <ele>1177</ele>
        <time>2018-09-08T20:22:20Z</time>
      </trkpt>
      <trkpt lat="46.41043" lon="5.99186">
        <ele>1177</ele>
        <time>2018-09-08T20:22:25Z</time>
      </trkpt>
      <trkpt lat="46.41051" lon="5.99176">
        <ele>1178</ele>
        <time>2018-09-08T20:22:35Z</time>
      </trkpt>
      <trkpt lat="46.41054" lon="5.9917">
        <ele>1178</ele>
        <time>2018-09-08T20:22:40Z</time>
      </trkpt>
      <trkpt lat="46.41058" lon="5.99165">
        <ele>1179</ele>
        <time>2018-09-08T20:22:45Z</time>
      </trkpt>
      <trkpt lat="46.41062" lon="5.9916">
        <ele>1179</ele>
        <time>2018-09-08T20:22:50Z</time>
      </trkpt>
      <trkpt lat="46.41069" lon="5.99149">
        <ele>1179</ele>
        <time>2018-09-08T20:23:00Z</time>
      </trkpt>
      <trkpt lat="46.41071" lon="5.99142">
        <ele>1179</ele>
        <time>2018-09-08T20:23:05Z</time>
      </trkpt>
      <trkpt lat="46.41073" lon="5.99135">
        <ele>1179</ele>
        <time>2018-09-08T20:23:10Z</time>
      </trkpt>
      <trkpt lat="46.41074" lon="5.99127">
        <ele>1179</ele>
        <time>2018-09-08T20:23:15Z</time>
      </trkpt>
      <trkpt lat="46.41074" lon="5.99112">
        <ele>1179</ele>
        <time>2018-09-08T20:23:25Z</time>
      </trkpt>
      <trkpt lat="46.41074" lon="5.99104">
        <ele>1179</ele>
        <time>2018-09-08T20:23:30Z</time>
      </trkpt>
      <trkpt lat="46.41074" lon="5.99097">
        <ele>1179</ele>
        <time>2018-09-08T20:23:35Z</time>
      </trkpt>
      <trkpt lat="46.41074" lon="5.99089">
        <ele>1179</ele>
        <time>2018-09-08T20:23:40Z</time>
      </trkpt>
      <trkpt lat="46.41074" lon="5.99082">
        <ele>1179</ele>
        <time>2018-09-08T20:23:45Z</time>
      </trkpt>
      <trkpt lat="46.41074" lon="5.99066">
        <ele>1179</ele>
        <time>2018-09-08T20:23:55Z</time>
      </trkpt>
      <trkpt lat="46.41074" lon="5.99058">
        <ele>1180</ele>
        <time>2018-09-08T20:24:00Z</time>
      </trkpt>
      <trkpt lat="46.41075" lon="5.9905">
        <ele>1180</ele>
        <time>2018-09-08T20:24:05Z</time>
      </trkpt>
      <trkpt lat="46.41076" lon="5.99043">
        <ele>1180</ele>
        <time>2018-09-08T20:24:10Z</time>
      </trkpt>
      <trkpt lat="46.41074" lon="5.99028">
        <ele>1180</ele>
        <time>2018-09-08T20:24:20Z</time>
      </trkpt>
      <trkpt lat="46.41073" lon="5.99023">
        <ele>1180</ele>
        <time>2018-09-08T20:24:25Z</time>
      </trkpt>
      <trkpt lat="46.41073" lon="5.99014">
        <ele>1181</ele>
        <time>2018-09-08T20:24:30Z</time>
      </trkpt>
      <trkpt lat="46.41074" lon="5.99008">
        <ele>1181</ele>
        <time>2018-09-08T20:24:35Z</time>
      </trkpt>
      <trkpt lat="46.41074" lon="5.98992">
        <ele>1182</ele>
        <time>2018-09-08T20:24:45Z</time>
      </trkpt>
      <trkpt lat="46.41074" lon="5.98985">
        <ele>1183</ele>
        <time>2018-09-08T20:24:50Z</time>
      </trkpt>
      <trkpt lat="46.41074" lon="5.98977">
        <ele>1183</ele>
        <time>2018-09-08T20:24:55Z</time>
      </trkpt>
      <trkpt lat="46.41074" lon="5.98971">
        <ele>1183</ele>
        <time>2018-09-08T20:25:00Z</time>
      </trkpt>
      <trkpt lat="46.41075" lon="5.98964">
        <ele>1184</ele>
        <time>2018-09-08T20:25:05Z</time>
      </trkpt>
      <trkpt lat="46.41076" lon="5.9895">
        <ele>1185</ele>
        <time>2018-09-08T20:25:15Z</time>
      </trkpt>
      <trkpt lat="46.41075" lon="5.98943">
        <ele>1186</ele>
        <time>2018-09-08T20:25:20Z</time>
      </trkpt>
      <trkpt lat="46.41072" lon="5.98937">
        <ele>1186</ele>
        <time>2018-09-08T20:25:25Z</time>
      </trkpt>
      <trkpt lat="46.41069" lon="5.98933">
        <ele>1186</ele>
        <time>2018-09-08T20:25:30Z</time>
      </trkpt>
      <trkpt lat="46.41061" lon="5.98925">
        <ele>1187</ele>
        <time>2018-09-08T20:25:40Z</time>
      </trkpt>
      <trkpt lat="46.41057" lon="5.98922">
        <ele>1187</ele>
        <time>2018-09-08T20:25:45Z</time>
      </trkpt>
      <trkpt lat="46.41052" lon="5.98919">
        <ele>1187</ele>
        <time>2018-09-08T20:25:50Z</time>
      </trkpt>
      <trkpt lat="46.41049" lon="5.98915">
        <ele>1187</ele>
        <time>2018-09-08T20:25:55Z</time>
      </trkpt>
      <trkpt lat="46.4104" lon="5.98907">
        <ele>1188</ele>
        <time>2018-09-08T20:26:05Z</time>
      </trkpt>
      <trkpt lat="46.41036" lon="5.98903">
        <ele>1188</ele>
        <time>2018-09-08T20:26:10Z</time>
      </trkpt>
      <trkpt lat="46.41032" lon="5.98898">
        <ele>1189</ele>
        <time>2018-09-08T20:26:15Z</time>
      </trkpt>
      <trkpt lat="46.41029" lon="5.98895">
        <ele>1189</ele>
        <time>2018-09-08T20:26:20Z</time>
      </trkpt>
      <trkpt lat="46.41025" lon="5.98891">
        <ele>1190</ele>
        <time>2018-09-08T20:26:25Z</time>
      </trkpt>
      <trkpt lat="46.41017" lon="5.98885">
        <ele>1191</ele>
        <time>2018-09-08T20:26:35Z</time>
      </trkpt>
      <trkpt lat="46.41014" lon="5.98882">
        <ele>1192</ele>
        <time>2018-09-08T20:26:40Z</time>
      </trkpt>
      <trkpt lat="46.41011" lon="5.98878">
        <ele>1192</ele>
        <time>2018-09-08T20:26:45Z</time>
      </trkpt>
      <trkpt lat="46.41008" lon="5.98875">
        <ele>1193</ele>
        <time>2018-09-08T20:26:50Z</time>
      </trkpt>
      <trkpt lat="46.41004" lon="5.98865">
        <ele>1194</ele>
        <time>2018-09-08T20:27:00Z</time>
      </trkpt>
      <trkpt lat="46.41003" lon="5.98859">
        <ele>1195</ele>
        <time>2018-09-08T20:27:05Z</time>
      </trkpt>
      <trkpt lat="46.41001" lon="5.98853">
        <ele>1196</ele>
        <time>2018-09-08T20:27:10Z</time>
      </trkpt>
      <trkpt lat="46.40999" lon="5.98846">
        <ele>1197</ele>
        <time>2018-09-08T20:27:15Z</time>
      </trkpt>
      <trkpt lat="46.40998" lon="5.9884">
        <ele>1198</ele>
        <time>2018-09-08T20:27:20Z</time>
      </trkpt>
      <trkpt lat="46.40994" lon="5.98827">
        <ele>1200</ele>
        <time>2018-09-08T20:27:30Z</time>
      </trkpt>
      <trkpt lat="46.40991" lon="5.98821">
        <ele>1201</ele>
        <time>2018-09-08T20:27:35Z</time>
      </trkpt>
      <trkpt lat="46.40988" lon="5.98815">
        <ele>1202</ele>
        <time>2018-09-08T20:27:40Z</time>
      </trkpt>
      <trkpt lat="46.40985" lon="5.9881">
        <ele>1203</ele>
        <time>2018-09-08T20:27:45Z</time>
      </trkpt>
      <trkpt lat="46.40978" lon="5.98799">
        <ele>1205</ele>
        <time>2018-09-08T20:27:55Z</time>
      </trkpt>
      <trkpt lat="46.40975" lon="5.98794">
        <ele>1205</ele>
        <time>2018-09-08T20:28:00Z</time>
      </trkpt>
      <trkpt lat="46.40971" lon="5.9879">
        <ele>1206</ele>
        <time>2018-09-08T20:28:05Z</time>
      </trkpt>
      <trkpt lat="46.40968" lon="5.98785">
        <ele>1207</ele>
        <time>2018-09-08T20:28:10Z</time>
      </trkpt>
      <trkpt lat="46.40961" lon="5.98776">
        <ele>1209</ele>
        <time>2018-09-08T20:28:20Z</time>
      </trkpt>
      <trkpt lat="46.40957" lon="5.98771">
        <ele>1209</ele>
        <time>2018-09-08T20:28:25Z</time>
      </trkpt>
      <trkpt lat="46.40955" lon="5.98769">
        <ele>1210</ele>
        <time>2018-09-08T20:28:30Z</time>
      </trkpt>
      <trkpt lat="46.40955" lon="5.98769">
        <ele>1210</ele>
        <time>2018-09-08T20:28:35Z</time>
      </trkpt>
      <trkpt lat="46.40955" lon="5.98768">
        <ele>1210</ele>
        <time>2018-09-08T20:28:40Z</time>
      </trkpt>
      <trkpt lat="46.40953" lon="5.98767">
        <ele>1210</ele>
        <time>2018-09-08T20:28:50Z</time>
      </trkpt>
      <trkpt lat="46.40954" lon="5.98768">
        <ele>1210</ele>
        <time>2018-09-08T20:28:55Z</time>
      </trkpt>
      <trkpt lat="46.40954" lon="5.98768">
        <ele>1210</ele>
        <time>2018-09-08T20:29:00Z</time>
      </trkpt>
      <trkpt lat="46.40954" lon="5.98768">
        <ele>1210</ele>
        <time>2018-09-08T20:29:05Z</time>
      </trkpt>
      <trkpt lat="46.40947" lon="5.98759">
        <ele>1212</ele>
        <time>2018-09-08T20:29:15Z</time>
      </trkpt>
      <trkpt lat="46.40943" lon="5.98755">
        <ele>1213</ele>
        <time>2018-09-08T20:29:20Z</time>
      </trkpt>
      <trkpt lat="46.40939" lon="5.98752">
        <ele>1213</ele>
        <time>2018-09-08T20:29:25Z</time>
      </trkpt>
      <trkpt lat="46.40935" lon="5.9875">
        <ele>1214</ele>
        <time>2018-09-08T20:29:30Z</time>
      </trkpt>
      <trkpt lat="46.40927" lon="5.98744">
        <ele>1215</ele>
        <time>2018-09-08T20:29:40Z</time>
      </trkpt>
      <trkpt lat="46.4092" lon="5.9874">
        <ele>1216</ele>
        <time>2018-09-08T20:29:45Z</time>
      </trkpt>
      <trkpt lat="46.40917" lon="5.98735">
        <ele>1216</ele>
        <time>2018-09-08T20:29:50Z</time>
      </trkpt>
      <trkpt lat="46.40917" lon="5.98734">
        <ele>1216</ele>
        <time>2018-09-08T20:29:55Z</time>
      </trkpt>
      <trkpt lat="46.40917" lon="5.98734">
        <ele>1216</ele>
        <time>2018-09-08T20:30:00Z</time>
      </trkpt>
      <trkpt lat="46.4091" lon="5.98731">
        <ele>1217</ele>
        <time>2018-09-08T20:30:10Z</time>
      </trkpt>
      <trkpt lat="46.40907" lon="5.98727">
        <ele>1218</ele>
        <time>2018-09-08T20:30:15Z</time>
      </trkpt>
      <trkpt lat="46.40902" lon="5.98722">
        <ele>1218</ele>
        <time>2018-09-08T20:30:20Z</time>
      </trkpt>
      <trkpt lat="46.40899" lon="5.98716">
        <ele>1219</ele>
        <time>2018-09-08T20:30:25Z</time>
      </trkpt>
      <trkpt lat="46.4089" lon="5.98706">
        <ele>1220</ele>
        <time>2018-09-08T20:30:35Z</time>
      </trkpt>
      <trkpt lat="46.40886" lon="5.987">
        <ele>1220</ele>
        <time>2018-09-08T20:30:40Z</time>
      </trkpt>
      <trkpt lat="46.4088" lon="5.98695">
        <ele>1221</ele>
        <time>2018-09-08T20:30:45Z</time>
      </trkpt>
      <trkpt lat="46.40877" lon="5.9869">
        <ele>1221</ele>
        <time>2018-09-08T20:30:50Z</time>
      </trkpt>
      <trkpt lat="46.40874" lon="5.98688">
        <ele>1222</ele>
        <time>2018-09-08T20:30:55Z</time>
      </trkpt>
      <trkpt lat="46.40867" lon="5.98681">
        <ele>1223</ele>
        <time>2018-09-08T20:31:05Z</time>
      </trkpt>
      <trkpt lat="46.40862" lon="5.98677">
        <ele>1223</ele>
        <time>2018-09-08T20:31:10Z</time>
      </trkpt>
      <trkpt lat="46.40856" lon="5.98672">
        <ele>1223</ele>
        <time>2018-09-08T20:31:15Z</time>
      </trkpt>
      <trkpt lat="46.4085" lon="5.98672">
        <ele>1224</ele>
        <time>2018-09-08T20:31:20Z</time>
      </trkpt>
      <trkpt lat="46.40839" lon="5.98668">
        <ele>1225</ele>
        <time>2018-09-08T20:31:30Z</time>
      </trkpt>
      <trkpt lat="46.40836" lon="5.98664">
        <ele>1225</ele>
        <time>2018-09-08T20:31:35Z</time>
      </trkpt>
      <trkpt lat="46.40835" lon="5.98663">
        <ele>1225</ele>
        <time>2018-09-08T20:31:40Z</time>
      </trkpt>
      <trkpt lat="46.40832" lon="5.98659">
        <ele>1225</ele>
        <time>2018-09-08T20:31:45Z</time>
      </trkpt>
      <trkpt lat="46.40821" lon="5.98649">
        <ele>1225</ele>
        <time>2018-09-08T20:31:55Z</time>
      </trkpt>
      <trkpt lat="46.40816" lon="5.98641">
        <ele>1225</ele>
        <time>2018-09-08T20:32:00Z</time>
      </trkpt>
      <trkpt lat="46.4081" lon="5.98633">
        <ele>1225</ele>
        <time>2018-09-08T20:32:05Z</time>
      </trkpt>
      <trkpt lat="46.40807" lon="5.98628">
        <ele>1225</ele>
        <time>2018-09-08T20:32:10Z</time>
      </trkpt>
      <trkpt lat="46.40804" lon="5.98623">
        <ele>1225</ele>
        <time>2018-09-08T20:32:15Z</time>
      </trkpt>
      <trkpt lat="46.40796" lon="5.98612">
        <ele>1225</ele>
        <time>2018-09-08T20:32:25Z</time>
      </trkpt>
      <trkpt lat="46.40792" lon="5.98606">
        <ele>1225</ele>
        <time>2018-09-08T20:32:30Z</time>
      </trkpt>
      <trkpt lat="46.4079" lon="5.986">
        <ele>1225</ele>
        <time>2018-09-08T20:32:35Z</time>
      </trkpt>
      <trkpt lat="46.40785" lon="5.98594">
        <ele>1225</ele>
        <time>2018-09-08T20:32:40Z</time>
      </trkpt>
      <trkpt lat="46.40779" lon="5.98583">
        <ele>1225</ele>
        <time>2018-09-08T20:32:50Z</time>
      </trkpt>
      <trkpt lat="46.40778" lon="5.98577">
        <ele>1225</ele>
        <time>2018-09-08T20:32:55Z</time>
      </trkpt>
      <trkpt lat="46.40775" lon="5.98571">
        <ele>1226</ele>
        <time>2018-09-08T20:33:00Z</time>
      </trkpt>
      <trkpt lat="46.40772" lon="5.98568">
        <ele>1226</ele>
        <time>2018-09-08T20:33:05Z</time>
      </trkpt>
      <trkpt lat="46.40773" lon="5.98567">
        <ele>1226</ele>
        <time>2018-09-08T20:33:15Z</time>
      </trkpt>
      <trkpt lat="46.40773" lon="5.98567">
        <ele>1226</ele>
        <time>2018-09-08T20:33:20Z</time>
      </trkpt>
      <trkpt lat="46.40773" lon="5.98568">
        <ele>1226</ele>
        <time>2018-09-08T20:33:25Z</time>
      </trkpt>
      <trkpt lat="46.40772" lon="5.98568">
        <ele>1226</ele>
        <time>2018-09-08T20:33:30Z</time>
      </trkpt>
      <trkpt lat="46.40772" lon="5.98569">
        <ele>1226</ele>
        <time>2018-09-08T20:33:35Z</time>
      </trkpt>
      <trkpt lat="46.40772" lon="5.98568">
        <ele>1226</ele>
        <time>2018-09-08T20:33:45Z</time>
      </trkpt>
      <trkpt lat="46.40772" lon="5.98568">
        <ele>1226</ele>
        <time>2018-09-08T20:33:50Z</time>
      </trkpt>
      <trkpt lat="46.40772" lon="5.98568">
        <ele>1226</ele>
        <time>2018-09-08T20:33:55Z</time>
      </trkpt>
      <trkpt lat="46.40772" lon="5.98566">
        <ele>1226</ele>
        <time>2018-09-08T20:34:00Z</time>
      </trkpt>
      <trkpt lat="46.40773" lon="5.98567">
        <ele>1226</ele>
        <time>2018-09-08T20:34:10Z</time>
      </trkpt>
      <trkpt lat="46.40774" lon="5.98567">
        <ele>1226</ele>
        <time>2018-09-08T20:34:15Z</time>
      </trkpt>
      <trkpt lat="46.40774" lon="5.98568">
        <ele>1226</ele>
        <time>2018-09-08T20:34:20Z</time>
      </trkpt>
      <trkpt lat="46.40774" lon="5.98569">
        <ele>1226</ele>
        <time>2018-09-08T20:34:25Z</time>
      </trkpt>
      <trkpt lat="46.40774" lon="5.98568">
        <ele>1226</ele>
        <time>2018-09-08T20:34:35Z</time>
      </trkpt>
      <trkpt lat="46.40774" lon="5.98568">
        <ele>1226</ele>
        <time>2018-09-08T20:34:40Z</time>
      </trkpt>
      <trkpt lat="46.40774" lon="5.98568">
        <ele>1226</ele>
        <time>2018-09-08T20:34:45Z</time>
      </trkpt>
      <trkpt lat="46.40775" lon="5.98569">
        <ele>1226</ele>
        <time>2018-09-08T20:34:50Z</time>
      </trkpt>
      <trkpt lat="46.40775" lon="5.98569">
        <ele>1226</ele>
        <time>2018-09-08T20:34:55Z</time>
      </trkpt>
      <trkpt lat="46.40775" lon="5.98569">
        <ele>1226</ele>
        <time>2018-09-08T20:35:05Z</time>
      </trkpt>
      <trkpt lat="46.40775" lon="5.98569">
        <ele>1226</ele>
        <time>2018-09-08T20:35:10Z</time>
      </trkpt>
      <trkpt lat="46.40775" lon="5.98569">
        <ele>1226</ele>
        <time>2018-09-08T20:35:15Z</time>
      </trkpt>
      <trkpt lat="46.40775" lon="5.98569">
        <ele>1226</ele>
        <time>2018-09-08T20:35:20Z</time>
      </trkpt>
      <trkpt lat="46.40775" lon="5.98569">
        <ele>1226</ele>
        <time>2018-09-08T20:35:30Z</time>
      </trkpt>
      <trkpt lat="46.40774" lon="5.98567">
        <ele>1226</ele>
        <time>2018-09-08T20:35:35Z</time>
      </trkpt>
      <trkpt lat="46.40772" lon="5.98567">
        <ele>1226</ele>
        <time>2018-09-08T20:35:40Z</time>
      </trkpt>
      <trkpt lat="46.40771" lon="5.98565">
        <ele>1226</ele>
        <time>2018-09-08T20:35:45Z</time>
      </trkpt>
      <trkpt lat="46.40771" lon="5.98564">
        <ele>1226</ele>
        <time>2018-09-08T20:35:50Z</time>
      </trkpt>
      <trkpt lat="46.40766" lon="5.98559">
        <ele>1226</ele>
        <time>2018-09-08T20:36:00Z</time>
      </trkpt>
      <trkpt lat="46.4076" lon="5.98555">
        <ele>1226</ele>
        <time>2018-09-08T20:36:05Z</time>
      </trkpt>
      <trkpt lat="46.40755" lon="5.98552">
        <ele>1226</ele>
        <time>2018-09-08T20:36:10Z</time>
      </trkpt>
      <trkpt lat="46.40751" lon="5.98551">
        <ele>1225</ele>
        <time>2018-09-08T20:36:15Z</time>
      </trkpt>
      <trkpt lat="46.4075" lon="5.9855">
        <ele>1225</ele>
        <time>2018-09-08T20:36:25Z</time>
      </trkpt>
      <trkpt lat="46.4075" lon="5.98549">
        <ele>1225</ele>
        <time>2018-09-08T20:36:30Z</time>
      </trkpt>
      <trkpt lat="46.40749" lon="5.98549">
        <ele>1225</ele>
        <time>2018-09-08T20:36:35Z</time>
      </trkpt>
      <trkpt lat="46.40748" lon="5.98548">
        <ele>1225</ele>
        <time>2018-09-08T20:36:40Z</time>
      </trkpt>
      <trkpt lat="46.40749" lon="5.98547">
        <ele>1225</ele>
        <time>2018-09-08T20:36:50Z</time>
      </trkpt>
      <trkpt lat="46.40748" lon="5.98547">
        <ele>1225</ele>
        <time>2018-09-08T20:36:55Z</time>
      </trkpt>
      <trkpt lat="46.40747" lon="5.9855">
        <ele>1225</ele>
        <time>2018-09-08T20:37:00Z</time>
      </trkpt>
      <trkpt lat="46.40745" lon="5.98555">
        <ele>1225</ele>
        <time>2018-09-08T20:37:05Z</time>
      </trkpt>
      <trkpt lat="46.40742" lon="5.98559">
        <ele>1225</ele>
        <time>2018-09-08T20:37:10Z</time>
      </trkpt>
      <trkpt lat="46.40736" lon="5.98563">
        <ele>1224</ele>
        <time>2018-09-08T20:37:20Z</time>
      </trkpt>
      <trkpt lat="46.40733" lon="5.98568">
        <ele>1224</ele>
        <time>2018-09-08T20:37:25Z</time>
      </trkpt>
      <trkpt lat="46.4073" lon="5.98572">
        <ele>1223</ele>
        <time>2018-09-08T20:37:30Z</time>
      </trkpt>
      <trkpt lat="46.40727" lon="5.98576">
        <ele>1223</ele>
        <time>2018-09-08T20:37:35Z</time>
      </trkpt>
      <trkpt lat="46.40717" lon="5.98584">
        <ele>1222</ele>
        <time>2018-09-08T20:37:45Z</time>
      </trkpt>
      <trkpt lat="46.40712" lon="5.98587">
        <ele>1221</ele>
        <time>2018-09-08T20:37:50Z</time>
      </trkpt>
      <trkpt lat="46.40709" lon="5.98588">
        <ele>1221</ele>
        <time>2018-09-08T20:37:55Z</time>
      </trkpt>
      <trkpt lat="46.40705" lon="5.98588">
        <ele>1221</ele>
        <time>2018-09-08T20:38:00Z</time>
      </trkpt>
      <trkpt lat="46.40697" lon="5.98587">
        <ele>1220</ele>
        <time>2018-09-08T20:38:10Z</time>
      </trkpt>
      <trkpt lat="46.40693" lon="5.98583">
        <ele>1220</ele>
        <time>2018-09-08T20:38:15Z</time>
      </trkpt>
      <trkpt lat="46.40689" lon="5.98577">
        <ele>1221</ele>
        <time>2018-09-08T20:38:20Z</time>
      </trkpt>
      <trkpt lat="46.40685" lon="5.98571">
        <ele>1220</ele>
        <time>2018-09-08T20:38:25Z</time>
      </trkpt>
      <trkpt lat="46.4068" lon="5.98569">
        <ele>1220</ele>
        <time>2018-09-08T20:38:30Z</time>
      </trkpt>
      <trkpt lat="46.40674" lon="5.98572">
        <ele>1219</ele>
        <time>2018-09-08T20:38:40Z</time>
      </trkpt>
      <trkpt lat="46.40672" lon="5.98576">
        <ele>1219</ele>
        <time>2018-09-08T20:38:45Z</time>
      </trkpt>
      <trkpt lat="46.40671" lon="5.98581">
        <ele>1218</ele>
        <time>2018-09-08T20:38:50Z</time>
      </trkpt>
      <trkpt lat="46.40671" lon="5.98587">
        <ele>1218</ele>
        <time>2018-09-08T20:38:55Z</time>
      </trkpt>
      <trkpt lat="46.40668" lon="5.98596">
        <ele>1216</ele>
        <time>2018-09-08T20:39:05Z</time>
      </trkpt>
      <trkpt lat="46.40666" lon="5.986">
        <ele>1216</ele>
        <time>2018-09-08T20:39:10Z</time>
      </trkpt>
      <trkpt lat="46.40664" lon="5.98603">
        <ele>1215</ele>
        <time>2018-09-08T20:39:15Z</time>
      </trkpt>
      <trkpt lat="46.40659" lon="5.98607">
        <ele>1214</ele>
        <time>2018-09-08T20:39:20Z</time>
      </trkpt>
      <trkpt lat="46.40651" lon="5.98605">
        <ele>1214</ele>
        <time>2018-09-08T20:39:30Z</time>
      </trkpt>
      <trkpt lat="46.40647" lon="5.986">
        <ele>1214</ele>
        <time>2018-09-08T20:39:35Z</time>
      </trkpt>
      <trkpt lat="46.40644" lon="5.98596">
        <ele>1214</ele>
        <time>2018-09-08T20:39:40Z</time>
      </trkpt>
      <trkpt lat="46.40641" lon="5.98593">
        <ele>1213</ele>
        <time>2018-09-08T20:39:45Z</time>
      </trkpt>
      <trkpt lat="46.4064" lon="5.98592">
        <ele>1213</ele>
        <time>2018-09-08T20:39:50Z</time>
      </trkpt>
      <trkpt lat="46.40635" lon="5.98589">
        <ele>1213</ele>
        <time>2018-09-08T20:40:00Z</time>
      </trkpt>
      <trkpt lat="46.40632" lon="5.98585">
        <ele>1213</ele>
        <time>2018-09-08T20:40:05Z</time>
      </trkpt>
      <trkpt lat="46.40628" lon="5.98579">
        <ele>1213</ele>
        <time>2018-09-08T20:40:10Z</time>
      </trkpt>
      <trkpt lat="46.40623" lon="5.98574">
        <ele>1213</ele>
        <time>2018-09-08T20:40:15Z</time>
      </trkpt>
      <trkpt lat="46.40615" lon="5.98563">
        <ele>1213</ele>
        <time>2018-09-08T20:40:25Z</time>
      </trkpt>
      <trkpt lat="46.40611" lon="5.98557">
        <ele>1213</ele>
        <time>2018-09-08T20:40:30Z</time>
      </trkpt>
      <trkpt lat="46.40608" lon="5.98552">
        <ele>1213</ele>
        <time>2018-09-08T20:40:35Z</time>
      </trkpt>
      <trkpt lat="46.40605" lon="5.98546">
        <ele>1213</ele>
        <time>2018-09-08T20:40:40Z</time>
      </trkpt>
      <trkpt lat="46.40603" lon="5.98539">
        <ele>1213</ele>
        <time>2018-09-08T20:40:45Z</time>
      </trkpt>
      <trkpt lat="46.40597" lon="5.98527">
        <ele>1214</ele>
        <time>2018-09-08T20:40:55Z</time>
      </trkpt>
      <trkpt lat="46.40593" lon="5.98521">
        <ele>1214</ele>
        <time>2018-09-08T20:41:00Z</time>
      </trkpt>
      <trkpt lat="46.4059" lon="5.98515">
        <ele>1214</ele>
        <time>2018-09-08T20:41:05Z</time>
      </trkpt>
      <trkpt lat="46.40586" lon="5.98508">
        <ele>1214</ele>
        <time>2018-09-08T20:41:10Z</time>
      </trkpt>
      <trkpt lat="46.40581" lon="5.98496">
        <ele>1215</ele>
        <time>2018-09-08T20:41:20Z</time>
      </trkpt>
      <trkpt lat="46.40578" lon="5.98489">
        <ele>1215</ele>
        <time>2018-09-08T20:41:25Z</time>
      </trkpt>
      <trkpt lat="46.40576" lon="5.98482">
        <ele>1216</ele>
        <time>2018-09-08T20:41:30Z</time>
      </trkpt>
      <trkpt lat="46.40574" lon="5.98475">
        <ele>1216</ele>
        <time>2018-09-08T20:41:35Z</time>
      </trkpt>
      <trkpt lat="46.40568" lon="5.98462">
        <ele>1217</ele>
        <time>2018-09-08T20:41:45Z</time>
      </trkpt>
      <trkpt lat="46.40565" lon="5.98456">
        <ele>1217</ele>
        <time>2018-09-08T20:41:50Z</time>
      </trkpt>
      <trkpt lat="46.40563" lon="5.9845">
        <ele>1218</ele>
        <time>2018-09-08T20:41:55Z</time>
      </trkpt>
      <trkpt lat="46.4056" lon="5.98444">
        <ele>1218</ele>
        <time>2018-09-08T20:42:00Z</time>
      </trkpt>
      <trkpt lat="46.40558" lon="5.98437">
        <ele>1219</ele>
        <time>2018-09-08T20:42:05Z</time>
      </trkpt>
      <trkpt lat="46.40553" lon="5.98427">
        <ele>1219</ele>
        <time>2018-09-08T20:42:15Z</time>
      </trkpt>
      <trkpt lat="46.40552" lon="5.98419">
        <ele>1220</ele>
        <time>2018-09-08T20:42:20Z</time>
      </trkpt>
      <trkpt lat="46.4055" lon="5.98413">
        <ele>1220</ele>
        <time>2018-09-08T20:42:25Z</time>
      </trkpt>
      <trkpt lat="46.40548" lon="5.98407">
        <ele>1220</ele>
        <time>2018-09-08T20:42:30Z</time>
      </trkpt>
      <trkpt lat="46.40542" lon="5.98395">
        <ele>1219</ele>
        <time>2018-09-08T20:42:40Z</time>
      </trkpt>
      <trkpt lat="46.40538" lon="5.98389">
        <ele>1219</ele>
        <time>2018-09-08T20:42:45Z</time>
      </trkpt>
      <trkpt lat="46.40536" lon="5.98382">
        <ele>1219</ele>
        <time>2018-09-08T20:42:50Z</time>
      </trkpt>
      <trkpt lat="46.40534" lon="5.98374">
        <ele>1219</ele>
        <time>2018-09-08T20:42:55Z</time>
      </trkpt>
      <trkpt lat="46.40528" lon="5.98362">
        <ele>1218</ele>
        <time>2018-09-08T20:43:05Z</time>
      </trkpt>
      <trkpt lat="46.40525" lon="5.98355">
        <ele>1218</ele>
        <time>2018-09-08T20:43:10Z</time>
      </trkpt>
      <trkpt lat="46.40523" lon="5.98348">
        <ele>1218</ele>
        <time>2018-09-08T20:43:15Z</time>
      </trkpt>
      <trkpt lat="46.40523" lon="5.98343">
        <ele>1218</ele>
        <time>2018-09-08T20:43:20Z</time>
      </trkpt>
      <trkpt lat="46.40523" lon="5.98336">
        <ele>1219</ele>
        <time>2018-09-08T20:43:25Z</time>
      </trkpt>
      <trkpt lat="46.40519" lon="5.98322">
        <ele>1218</ele>
        <time>2018-09-08T20:43:35Z</time>
      </trkpt>
      <trkpt lat="46.40516" lon="5.98315">
        <ele>1218</ele>
        <time>2018-09-08T20:43:40Z</time>
      </trkpt>
      <trkpt lat="46.40514" lon="5.98308">
        <ele>1218</ele>
        <time>2018-09-08T20:43:45Z</time>
      </trkpt>
      <trkpt lat="46.40512" lon="5.98304">
        <ele>1218</ele>
        <time>2018-09-08T20:43:50Z</time>
      </trkpt>
      <trkpt lat="46.40508" lon="5.98297">
        <ele>1217</ele>
        <time>2018-09-08T20:44:00Z</time>
      </trkpt>
      <trkpt lat="46.40507" lon="5.98293">
        <ele>1217</ele>
        <time>2018-09-08T20:44:05Z</time>
      </trkpt>
      <trkpt lat="46.40505" lon="5.98289">
        <ele>1217</ele>
        <time>2018-09-08T20:44:10Z</time>
      </trkpt>
      <trkpt lat="46.40504" lon="5.98286">
        <ele>1217</ele>
        <time>2018-09-08T20:44:15Z</time>
      </trkpt>
      <trkpt lat="46.40501" lon="5.98282">
        <ele>1217</ele>
        <time>2018-09-08T20:44:20Z</time>
      </trkpt>
      <trkpt lat="46.40495" lon="5.98271">
        <ele>1216</ele>
        <time>2018-09-08T20:44:30Z</time>
      </trkpt>
      <trkpt lat="46.40491" lon="5.98264">
        <ele>1216</ele>
        <time>2018-09-08T20:44:35Z</time>
      </trkpt>
      <trkpt lat="46.40488" lon="5.98259">
        <ele>1216</ele>
        <time>2018-09-08T20:44:40Z</time>
      </trkpt>
      <trkpt lat="46.40485" lon="5.98252">
        <ele>1216</ele>
        <time>2018-09-08T20:44:45Z</time>
      </trkpt>
      <trkpt lat="46.40476" lon="5.98243">
        <ele>1215</ele>
        <time>2018-09-08T20:44:55Z</time>
      </trkpt>
      <trkpt lat="46.40472" lon="5.98238">
        <ele>1214</ele>
        <time>2018-09-08T20:45:00Z</time>
      </trkpt>
      <trkpt lat="46.40467" lon="5.98233">
        <ele>1213</ele>
        <time>2018-09-08T20:45:05Z</time>
      </trkpt>
      <trkpt lat="46.40463" lon="5.98227">
        <ele>1213</ele>
        <time>2018-09-08T20:45:10Z</time>
      </trkpt>
      <trkpt lat="46.40455" lon="5.98219">
        <ele>1212</ele>
        <time>2018-09-08T20:45:20Z</time>
      </trkpt>
      <trkpt lat="46.40452" lon="5.98213">
        <ele>1212</ele>
        <time>2018-09-08T20:45:25Z</time>
      </trkpt>
      <trkpt lat="46.40447" lon="5.98209">
        <ele>1211</ele>
        <time>2018-09-08T20:45:30Z</time>
      </trkpt>
      <trkpt lat="46.40443" lon="5.98204">
        <ele>1210</ele>
        <time>2018-09-08T20:45:35Z</time>
      </trkpt>
      <trkpt lat="46.4044" lon="5.982">
        <ele>1210</ele>
        <time>2018-09-08T20:45:40Z</time>
      </trkpt>
      <trkpt lat="46.40427" lon="5.9819">
        <ele>1209</ele>
        <time>2018-09-08T20:45:50Z</time>
      </trkpt>
      <trkpt lat="46.40424" lon="5.98183">
        <ele>1209</ele>
        <time>2018-09-08T20:45:55Z</time>
      </trkpt>
      <trkpt lat="46.4042" lon="5.98177">
        <ele>1209</ele>
        <time>2018-09-08T20:46:00Z</time>
      </trkpt>
      <trkpt lat="46.40417" lon="5.98172">
        <ele>1209</ele>
        <time>2018-09-08T20:46:05Z</time>
      </trkpt>
      <trkpt lat="46.40407" lon="5.98163">
        <ele>1209</ele>
        <time>2018-09-08T20:46:15Z</time>
      </trkpt>
      <trkpt lat="46.40403" lon="5.98159">
        <ele>1208</ele>
        <time>2018-09-08T20:46:20Z</time>
      </trkpt>
      <trkpt lat="46.40398" lon="5.98154">
        <ele>1208</ele>
        <time>2018-09-08T20:46:25Z</time>
      </trkpt>
      <trkpt lat="46.40395" lon="5.98148">
        <ele>1209</ele>
        <time>2018-09-08T20:46:30Z</time>
      </trkpt>
      <trkpt lat="46.40387" lon="5.98135">
        <ele>1209</ele>
        <time>2018-09-08T20:46:40Z</time>
      </trkpt>
      <trkpt lat="46.40384" lon="5.98128">
        <ele>1209</ele>
        <time>2018-09-08T20:46:45Z</time>
      </trkpt>
      <trkpt lat="46.4038" lon="5.98123">
        <ele>1210</ele>
        <time>2018-09-08T20:46:50Z</time>
      </trkpt>
      <trkpt lat="46.40377" lon="5.98118">
        <ele>1210</ele>
        <time>2018-09-08T20:46:55Z</time>
      </trkpt>
      <trkpt lat="46.40372" lon="5.98111">
        <ele>1210</ele>
        <time>2018-09-08T20:47:00Z</time>
      </trkpt>
      <trkpt lat="46.40364" lon="5.98097">
        <ele>1211</ele>
        <time>2018-09-08T20:47:10Z</time>
      </trkpt>
      <trkpt lat="46.40359" lon="5.98092">
        <ele>1211</ele>
        <time>2018-09-08T20:47:15Z</time>
      </trkpt>
      <trkpt lat="46.40354" lon="5.98087">
        <ele>1211</ele>
        <time>2018-09-08T20:47:20Z</time>
      </trkpt>
      <trkpt lat="46.40349" lon="5.98083">
        <ele>1211</ele>
        <time>2018-09-08T20:47:25Z</time>
      </trkpt>
      <trkpt lat="46.40342" lon="5.98077">
        <ele>1210</ele>
        <time>2018-09-08T20:47:35Z</time>
      </trkpt>
      <trkpt lat="46.40338" lon="5.98075">
        <ele>1209</ele>
        <time>2018-09-08T20:47:40Z</time>
      </trkpt>
      <trkpt lat="46.40334" lon="5.98071">
        <ele>1209</ele>
        <time>2018-09-08T20:47:45Z</time>
      </trkpt>
      <trkpt lat="46.40329" lon="5.98064">
        <ele>1209</ele>
        <time>2018-09-08T20:47:50Z</time>
      </trkpt>
      <trkpt lat="46.4032" lon="5.9805">
        <ele>1208</ele>
        <time>2018-09-08T20:48:00Z</time>
      </trkpt>
      <trkpt lat="46.40314" lon="5.98046">
        <ele>1207</ele>
        <time>2018-09-08T20:48:05Z</time>
      </trkpt>
      <trkpt lat="46.40309" lon="5.98043">
        <ele>1207</ele>
        <time>2018-09-08T20:48:10Z</time>
      </trkpt>
      <trkpt lat="46.40305" lon="5.98036">
        <ele>1207</ele>
        <time>2018-09-08T20:48:15Z</time>
      </trkpt>
      <trkpt lat="46.403" lon="5.98028">
        <ele>1206</ele>
        <time>2018-09-08T20:48:20Z</time>
      </trkpt>
      <trkpt lat="46.40293" lon="5.98013">
        <ele>1207</ele>
        <time>2018-09-08T20:48:30Z</time>
      </trkpt>
      <trkpt lat="46.40288" lon="5.98006">
        <ele>1207</ele>
        <time>2018-09-08T20:48:35Z</time>
      </trkpt>
      <trkpt lat="46.40286" lon="5.97999">
        <ele>1207</ele>
        <time>2018-09-08T20:48:40Z</time>
      </trkpt>
      <trkpt lat="46.40282" lon="5.97992">
        <ele>1207</ele>
        <time>2018-09-08T20:48:45Z</time>
      </trkpt>
      <trkpt lat="46.40275" lon="5.97982">
        <ele>1207</ele>
        <time>2018-09-08T20:48:55Z</time>
      </trkpt>
      <trkpt lat="46.40271" lon="5.97975">
        <ele>1207</ele>
        <time>2018-09-08T20:49:00Z</time>
      </trkpt>
      <trkpt lat="46.40264" lon="5.9797">
        <ele>1207</ele>
        <time>2018-09-08T20:49:05Z</time>
      </trkpt>
      <trkpt lat="46.40261" lon="5.97964">
        <ele>1207</ele>
        <time>2018-09-08T20:49:10Z</time>
      </trkpt>
      <trkpt lat="46.40255" lon="5.97959">
        <ele>1207</ele>
        <time>2018-09-08T20:49:15Z</time>
      </trkpt>
      <trkpt lat="46.4025" lon="5.97952">
        <ele>1207</ele>
        <time>2018-09-08T20:49:25Z</time>
      </trkpt>
      <trkpt lat="46.40246" lon="5.97948">
        <ele>1207</ele>
        <time>2018-09-08T20:49:30Z</time>
      </trkpt>
      <trkpt lat="46.40242" lon="5.97942">
        <ele>1207</ele>
        <time>2018-09-08T20:49:35Z</time>
      </trkpt>
      <trkpt lat="46.40238" lon="5.97936">
        <ele>1208</ele>
        <time>2018-09-08T20:49:40Z</time>
      </trkpt>
      <trkpt lat="46.40233" lon="5.97925">
        <ele>1208</ele>
        <time>2018-09-08T20:49:50Z</time>
      </trkpt>
      <trkpt lat="46.4023" lon="5.97921">
        <ele>1208</ele>
        <time>2018-09-08T20:49:55Z</time>
      </trkpt>
      <trkpt lat="46.40226" lon="5.97916">
        <ele>1208</ele>
        <time>2018-09-08T20:50:00Z</time>
      </trkpt>
      <trkpt lat="46.40222" lon="5.97912">
        <ele>1208</ele>
        <time>2018-09-08T20:50:05Z</time>
      </trkpt>
      <trkpt lat="46.40215" lon="5.979">
        <ele>1208</ele>
        <time>2018-09-08T20:50:15Z</time>
      </trkpt>
      <trkpt lat="46.40211" lon="5.97893">
        <ele>1209</ele>
        <time>2018-09-08T20:50:20Z</time>
      </trkpt>
      <trkpt lat="46.40208" lon="5.97887">
        <ele>1209</ele>
        <time>2018-09-08T20:50:25Z</time>
      </trkpt>
      <trkpt lat="46.40205" lon="5.97881">
        <ele>1210</ele>
        <time>2018-09-08T20:50:30Z</time>
      </trkpt>
      <trkpt lat="46.40204" lon="5.97876">
        <ele>1210</ele>
        <time>2018-09-08T20:50:35Z</time>
      </trkpt>
      <trkpt lat="46.40198" lon="5.97868">
        <ele>1210</ele>
        <time>2018-09-08T20:50:45Z</time>
      </trkpt>
      <trkpt lat="46.40194" lon="5.97861">
        <ele>1211</ele>
        <time>2018-09-08T20:50:50Z</time>
      </trkpt>
      <trkpt lat="46.4019" lon="5.97854">
        <ele>1211</ele>
        <time>2018-09-08T20:50:55Z</time>
      </trkpt>
      <trkpt lat="46.40185" lon="5.97848">
        <ele>1211</ele>
        <time>2018-09-08T20:51:00Z</time>
      </trkpt>
      <trkpt lat="46.40174" lon="5.97837">
        <ele>1210</ele>
        <time>2018-09-08T20:51:10Z</time>
      </trkpt>
      <trkpt lat="46.40172" lon="5.97833">
        <ele>1210</ele>
        <time>2018-09-08T20:51:15Z</time>
      </trkpt>
      <trkpt lat="46.40169" lon="5.9783">
        <ele>1210</ele>
        <time>2018-09-08T20:51:20Z</time>
      </trkpt>
      <trkpt lat="46.40165" lon="5.97827">
        <ele>1210</ele>
        <time>2018-09-08T20:51:25Z</time>
      </trkpt>
      <trkpt lat="46.40159" lon="5.97821">
        <ele>1210</ele>
        <time>2018-09-08T20:51:35Z</time>
      </trkpt>
      <trkpt lat="46.40154" lon="5.97816">
        <ele>1210</ele>
        <time>2018-09-08T20:51:40Z</time>
      </trkpt>
      <trkpt lat="46.40151" lon="5.97809">
        <ele>1210</ele>
        <time>2018-09-08T20:51:45Z</time>
      </trkpt>
      <trkpt lat="46.40149" lon="5.97804">
        <ele>1211</ele>
        <time>2018-09-08T20:51:50Z</time>
      </trkpt>
      <trkpt lat="46.40147" lon="5.97797">
        <ele>1211</ele>
        <time>2018-09-08T20:51:55Z</time>
      </trkpt>
      <trkpt lat="46.40138" lon="5.97783">
        <ele>1211</ele>
        <time>2018-09-08T20:52:05Z</time>
      </trkpt>
      <trkpt lat="46.40135" lon="5.97776">
        <ele>1211</ele>
        <time>2018-09-08T20:52:10Z</time>
      </trkpt>
      <trkpt lat="46.40132" lon="5.9777">
        <ele>1211</ele>
        <time>2018-09-08T20:52:15Z</time>
      </trkpt>
      <trkpt lat="46.40129" lon="5.97765">
        <ele>1211</ele>
        <time>2018-09-08T20:52:20Z</time>
      </trkpt>
      <trkpt lat="46.40126" lon="5.97757">
        <ele>1212</ele>
        <time>2018-09-08T20:52:30Z</time>
      </trkpt>
      <trkpt lat="46.40127" lon="5.97757">
        <ele>1212</ele>
        <time>2018-09-08T20:52:35Z</time>
      </trkpt>
      <trkpt lat="46.40127" lon="5.97757">
        <ele>1212</ele>
        <time>2018-09-08T20:52:40Z</time>
      </trkpt>
      <trkpt lat="46.40128" lon="5.97755">
        <ele>1212</ele>
        <time>2018-09-08T20:52:45Z</time>
      </trkpt>
      <trkpt lat="46.40129" lon="5.97753">
        <ele>1212</ele>
        <time>2018-09-08T20:52:55Z</time>
      </trkpt>
      <trkpt lat="46.40129" lon="5.97753">
        <ele>1212</ele>
        <time>2018-09-08T20:53:00Z</time>
      </trkpt>
      <trkpt lat="46.40131" lon="5.97753">
        <ele>1212</ele>
        <time>2018-09-08T20:53:05Z</time>
      </trkpt>
      <trkpt lat="46.4013" lon="5.97748">
        <ele>1212</ele>
        <time>2018-09-08T20:53:10Z</time>
      </trkpt>
      <trkpt lat="46.40129" lon="5.97747">
        <ele>1212</ele>
        <time>2018-09-08T20:53:15Z</time>
      </trkpt>
      <trkpt lat="46.40118" lon="5.97757">
        <ele>1211</ele>
        <time>2018-09-08T20:53:25Z</time>
      </trkpt>
      <trkpt lat="46.40115" lon="5.9775">
        <ele>1211</ele>
        <time>2018-09-08T20:53:30Z</time>
      </trkpt>
      <trkpt lat="46.40111" lon="5.97745">
        <ele>1211</ele>
        <time>2018-09-08T20:53:35Z</time>
      </trkpt>
      <trkpt lat="46.40107" lon="5.97738">
        <ele>1212</ele>
        <time>2018-09-08T20:53:40Z</time>
      </trkpt>
      <trkpt lat="46.40098" lon="5.97729">
        <ele>1212</ele>
        <time>2018-09-08T20:53:50Z</time>
      </trkpt>
      <trkpt lat="46.40096" lon="5.97725">
        <ele>1212</ele>
        <time>2018-09-08T20:53:55Z</time>
      </trkpt>
      <trkpt lat="46.40095" lon="5.97722">
        <ele>1212</ele>
        <time>2018-09-08T20:54:00Z</time>
      </trkpt>
      <trkpt lat="46.40092" lon="5.97718">
        <ele>1212</ele>
        <time>2018-09-08T20:54:05Z</time>
      </trkpt>
      <trkpt lat="46.40089" lon="5.97711">
        <ele>1212</ele>
        <time>2018-09-08T20:54:10Z</time>
      </trkpt>
      <trkpt lat="46.4008" lon="5.97702">
        <ele>1212</ele>
        <time>2018-09-08T20:54:20Z</time>
      </trkpt>
      <trkpt lat="46.40076" lon="5.97698">
        <ele>1212</ele>
        <time>2018-09-08T20:54:25Z</time>
      </trkpt>
      <trkpt lat="46.40071" lon="5.97694">
        <ele>1212</ele>
        <time>2018-09-08T20:54:30Z</time>
      </trkpt>
      <trkpt lat="46.40067" lon="5.97691">
        <ele>1212</ele>
        <time>2018-09-08T20:54:35Z</time>
      </trkpt>
      <trkpt lat="46.40059" lon="5.97678">
        <ele>1212</ele>
        <time>2018-09-08T20:54:45Z</time>
      </trkpt>
      <trkpt lat="46.40054" lon="5.97674">
        <ele>1212</ele>
        <time>2018-09-08T20:54:50Z</time>
      </trkpt>
      <trkpt lat="46.40048" lon="5.9767">
        <ele>1212</ele>
        <time>2018-09-08T20:54:55Z</time>
      </trkpt>
      <trkpt lat="46.40044" lon="5.97665">
        <ele>1212</ele>
        <time>2018-09-08T20:55:00Z</time>
      </trkpt>
      <trkpt lat="46.40035" lon="5.97655">
        <ele>1212</ele>
        <time>2018-09-08T20:55:10Z</time>
      </trkpt>
      <trkpt lat="46.40032" lon="5.97652">
        <ele>1212</ele>
        <time>2018-09-08T20:55:15Z</time>
      </trkpt>
      <trkpt lat="46.4003" lon="5.97647">
        <ele>1212</ele>
        <time>2018-09-08T20:55:20Z</time>
      </trkpt>
      <trkpt lat="46.40026" lon="5.97639">
        <ele>1212</ele>
        <time>2018-09-08T20:55:25Z</time>
      </trkpt>
      <trkpt lat="46.40022" lon="5.97634">
        <ele>1212</ele>
        <time>2018-09-08T20:55:30Z</time>
      </trkpt>
      <trkpt lat="46.40016" lon="5.97624">
        <ele>1212</ele>
        <time>2018-09-08T20:55:40Z</time>
      </trkpt>
      <trkpt lat="46.40015" lon="5.97617">
        <ele>1212</ele>
        <time>2018-09-08T20:55:45Z</time>
      </trkpt>
      <trkpt lat="46.40011" lon="5.9761">
        <ele>1212</ele>
        <time>2018-09-08T20:55:50Z</time>
      </trkpt>
      <trkpt lat="46.40008" lon="5.97606">
        <ele>1212</ele>
        <time>2018-09-08T20:55:55Z</time>
      </trkpt>
      <trkpt lat="46.40001" lon="5.97596">
        <ele>1212</ele>
        <time>2018-09-08T20:56:05Z</time>
      </trkpt>
      <trkpt lat="46.39998" lon="5.97592">
        <ele>1212</ele>
        <time>2018-09-08T20:56:10Z</time>
      </trkpt>
      <trkpt lat="46.39993" lon="5.97592">
        <ele>1211</ele>
        <time>2018-09-08T20:56:15Z</time>
      </trkpt>
      <trkpt lat="46.39987" lon="5.97587">
        <ele>1211</ele>
        <time>2018-09-08T20:56:20Z</time>
      </trkpt>
      <trkpt lat="46.39984" lon="5.97579">
        <ele>1211</ele>
        <time>2018-09-08T20:56:30Z</time>
      </trkpt>
      <trkpt lat="46.39979" lon="5.97573">
        <ele>1211</ele>
        <time>2018-09-08T20:56:35Z</time>
      </trkpt>
      <trkpt lat="46.39975" lon="5.97567">
        <ele>1211</ele>
        <time>2018-09-08T20:56:40Z</time>
      </trkpt>
      <trkpt lat="46.3997" lon="5.9756">
        <ele>1210</ele>
        <time>2018-09-08T20:56:45Z</time>
      </trkpt>
      <trkpt lat="46.39966" lon="5.97552">
        <ele>1210</ele>
        <time>2018-09-08T20:56:50Z</time>
      </trkpt>
      <trkpt lat="46.39959" lon="5.97538">
        <ele>1210</ele>
        <time>2018-09-08T20:57:00Z</time>
      </trkpt>
      <trkpt lat="46.39955" lon="5.97534">
        <ele>1210</ele>
        <time>2018-09-08T20:57:05Z</time>
      </trkpt>
      <trkpt lat="46.39951" lon="5.97527">
        <ele>1210</ele>
        <time>2018-09-08T20:57:10Z</time>
      </trkpt>
      <trkpt lat="46.39946" lon="5.9752">
        <ele>1210</ele>
        <time>2018-09-08T20:57:15Z</time>
      </trkpt>
      <trkpt lat="46.39941" lon="5.97512">
        <ele>1210</ele>
        <time>2018-09-08T20:57:25Z</time>
      </trkpt>
      <trkpt lat="46.39937" lon="5.97507">
        <ele>1210</ele>
        <time>2018-09-08T20:57:30Z</time>
      </trkpt>
      <trkpt lat="46.39932" lon="5.97501">
        <ele>1209</ele>
        <time>2018-09-08T20:57:35Z</time>
      </trkpt>
      <trkpt lat="46.39926" lon="5.97497">
        <ele>1209</ele>
        <time>2018-09-08T20:57:40Z</time>
      </trkpt>
      <trkpt lat="46.39921" lon="5.97493">
        <ele>1209</ele>
        <time>2018-09-08T20:57:45Z</time>
      </trkpt>
      <trkpt lat="46.39913" lon="5.97486">
        <ele>1208</ele>
        <time>2018-09-08T20:57:55Z</time>
      </trkpt>
      <trkpt lat="46.39909" lon="5.97481">
        <ele>1208</ele>
        <time>2018-09-08T20:58:00Z</time>
      </trkpt>
      <trkpt lat="46.39904" lon="5.97476">
        <ele>1208</ele>
        <time>2018-09-08T20:58:05Z</time>
      </trkpt>
      <trkpt lat="46.39899" lon="5.97471">
        <ele>1208</ele>
        <time>2018-09-08T20:58:10Z</time>
      </trkpt>
      <trkpt lat="46.39888" lon="5.97461">
        <ele>1207</ele>
        <time>2018-09-08T20:58:20Z</time>
      </trkpt>
      <trkpt lat="46.39885" lon="5.97458">
        <ele>1207</ele>
        <time>2018-09-08T20:58:25Z</time>
      </trkpt>
      <trkpt lat="46.39882" lon="5.97453">
        <ele>1207</ele>
        <time>2018-09-08T20:58:30Z</time>
      </trkpt>
      <trkpt lat="46.39876" lon="5.97446">
        <ele>1207</ele>
        <time>2018-09-08T20:58:35Z</time>
      </trkpt>
      <trkpt lat="46.3987" lon="5.97438">
        <ele>1207</ele>
        <time>2018-09-08T20:58:45Z</time>
      </trkpt>
      <trkpt lat="46.39866" lon="5.97434">
        <ele>1206</ele>
        <time>2018-09-08T20:58:50Z</time>
      </trkpt>
      <trkpt lat="46.39862" lon="5.97432">
        <ele>1206</ele>
        <time>2018-09-08T20:58:55Z</time>
      </trkpt>
      <trkpt lat="46.39859" lon="5.97429">
        <ele>1206</ele>
        <time>2018-09-08T20:59:00Z</time>
      </trkpt>
      <trkpt lat="46.39855" lon="5.97424">
        <ele>1206</ele>
        <time>2018-09-08T20:59:05Z</time>
      </trkpt>
      <trkpt lat="46.39847" lon="5.97418">
        <ele>1205</ele>
        <time>2018-09-08T20:59:15Z</time>
      </trkpt>
      <trkpt lat="46.39844" lon="5.97412">
        <ele>1205</ele>
        <time>2018-09-08T20:59:20Z</time>
      </trkpt>
      <trkpt lat="46.39841" lon="5.97406">
        <ele>1205</ele>
        <time>2018-09-08T20:59:25Z</time>
      </trkpt>
      <trkpt lat="46.39836" lon="5.974">
        <ele>1204</ele>
        <time>2018-09-08T20:59:30Z</time>
      </trkpt>
      <trkpt lat="46.39829" lon="5.97389">
        <ele>1204</ele>
        <time>2018-09-08T20:59:40Z</time>
      </trkpt>
      <trkpt lat="46.39825" lon="5.97386">
        <ele>1204</ele>
        <time>2018-09-08T20:59:45Z</time>
      </trkpt>
      <trkpt lat="46.39823" lon="5.97383">
        <ele>1204</ele>
        <time>2018-09-08T20:59:50Z</time>
      </trkpt>
      <trkpt lat="46.3982" lon="5.97377">
        <ele>1204</ele>
        <time>2018-09-08T20:59:55Z</time>
      </trkpt>
      <trkpt lat="46.39815" lon="5.97367">
        <ele>1204</ele>
        <time>2018-09-08T21:00:05Z</time>
      </trkpt>
      <trkpt lat="46.39811" lon="5.97367">
        <ele>1204</ele>
        <time>2018-09-08T21:00:10Z</time>
      </trkpt>
      <trkpt lat="46.39807" lon="5.97365">
        <ele>1204</ele>
        <time>2018-09-08T21:00:15Z</time>
      </trkpt>
      <trkpt lat="46.39804" lon="5.97363">
        <ele>1204</ele>
        <time>2018-09-08T21:00:20Z</time>
      </trkpt>
      <trkpt lat="46.39801" lon="5.97357">
        <ele>1204</ele>
        <time>2018-09-08T21:00:25Z</time>
      </trkpt>
      <trkpt lat="46.39789" lon="5.97334">
        <ele>1203</ele>
        <time>2018-09-08T21:00:35Z</time>
      </trkpt>
      <trkpt lat="46.39787" lon="5.97326">
        <ele>1203</ele>
        <time>2018-09-08T21:00:40Z</time>
      </trkpt>
      <trkpt lat="46.39787" lon="5.97319">
        <ele>1204</ele>
        <time>2018-09-08T21:00:45Z</time>
      </trkpt>
      <trkpt lat="46.39786" lon="5.97312">
        <ele>1204</ele>
        <time>2018-09-08T21:00:50Z</time>
      </trkpt>
      <trkpt lat="46.39779" lon="5.973">
        <ele>1204</ele>
        <time>2018-09-08T21:01:00Z</time>
      </trkpt>
      <trkpt lat="46.39774" lon="5.97293">
        <ele>1203</ele>
        <time>2018-09-08T21:01:05Z</time>
      </trkpt>
      <trkpt lat="46.3977" lon="5.97287">
        <ele>1203</ele>
        <time>2018-09-08T21:01:10Z</time>
      </trkpt>
      <trkpt lat="46.39766" lon="5.97283">
        <ele>1203</ele>
        <time>2018-09-08T21:01:15Z</time>
      </trkpt>
      <trkpt lat="46.39757" lon="5.97278">
        <ele>1203</ele>
        <time>2018-09-08T21:01:25Z</time>
      </trkpt>
      <trkpt lat="46.39753" lon="5.97275">
        <ele>1203</ele>
        <time>2018-09-08T21:01:30Z</time>
      </trkpt>
      <trkpt lat="46.39748" lon="5.97274">
        <ele>1202</ele>
        <time>2018-09-08T21:01:35Z</time>
      </trkpt>
      <trkpt lat="46.39742" lon="5.97271">
        <ele>1202</ele>
        <time>2018-09-08T21:01:40Z</time>
      </trkpt>
      <trkpt lat="46.39737" lon="5.97265">
        <ele>1202</ele>
        <time>2018-09-08T21:01:45Z</time>
      </trkpt>
      <trkpt lat="46.39728" lon="5.97254">
        <ele>1202</ele>
        <time>2018-09-08T21:01:55Z</time>
      </trkpt>
      <trkpt lat="46.39723" lon="5.97249">
        <ele>1202</ele>
        <time>2018-09-08T21:02:00Z</time>
      </trkpt>
      <trkpt lat="46.39719" lon="5.97244">
        <ele>1202</ele>
        <time>2018-09-08T21:02:05Z</time>
      </trkpt>
      <trkpt lat="46.39715" lon="5.97238">
        <ele>1202</ele>
        <time>2018-09-08T21:02:10Z</time>
      </trkpt>
      <trkpt lat="46.39711" lon="5.97222">
        <ele>1203</ele>
        <time>2018-09-08T21:02:20Z</time>
      </trkpt>
      <trkpt lat="46.39711" lon="5.97216">
        <ele>1204</ele>
        <time>2018-09-08T21:02:25Z</time>
      </trkpt>
      <trkpt lat="46.3971" lon="5.97211">
        <ele>1204</ele>
        <time>2018-09-08T21:02:30Z</time>
      </trkpt>
      <trkpt lat="46.3971" lon="5.97203">
        <ele>1205</ele>
        <time>2018-09-08T21:02:35Z</time>
      </trkpt>
      <trkpt lat="46.39708" lon="5.97196">
        <ele>1205</ele>
        <time>2018-09-08T21:02:40Z</time>
      </trkpt>
      <trkpt lat="46.39706" lon="5.97185">
        <ele>1206</ele>
        <time>2018-09-08T21:02:50Z</time>
      </trkpt>
      <trkpt lat="46.39706" lon="5.97181">
        <ele>1206</ele>
        <time>2018-09-08T21:02:55Z</time>
      </trkpt>
      <trkpt lat="46.39704" lon="5.97179">
        <ele>1206</ele>
        <time>2018-09-08T21:03:00Z</time>
      </trkpt>
      <trkpt lat="46.39704" lon="5.97176">
        <ele>1206</ele>
        <time>2018-09-08T21:03:05Z</time>
      </trkpt>
      <trkpt lat="46.397" lon="5.9717">
        <ele>1206</ele>
        <time>2018-09-08T21:03:15Z</time>
      </trkpt>
      <trkpt lat="46.39698" lon="5.97163">
        <ele>1206</ele>
        <time>2018-09-08T21:03:20Z</time>
      </trkpt>
      <trkpt lat="46.39694" lon="5.97159">
        <ele>1206</ele>
        <time>2018-09-08T21:03:25Z</time>
      </trkpt>
      <trkpt lat="46.39693" lon="5.97154">
        <ele>1206</ele>
        <time>2018-09-08T21:03:30Z</time>
      </trkpt>
      <trkpt lat="46.3969" lon="5.97145">
        <ele>1206</ele>
        <time>2018-09-08T21:03:40Z</time>
      </trkpt>
      <trkpt lat="46.39688" lon="5.9714">
        <ele>1206</ele>
        <time>2018-09-08T21:03:45Z</time>
      </trkpt>
      <trkpt lat="46.39684" lon="5.97139">
        <ele>1205</ele>
        <time>2018-09-08T21:03:50Z</time>
      </trkpt>
      <trkpt lat="46.39682" lon="5.97135">
        <ele>1205</ele>
        <time>2018-09-08T21:03:55Z</time>
      </trkpt>
      <trkpt lat="46.3968" lon="5.97131">
        <ele>1205</ele>
        <time>2018-09-08T21:04:00Z</time>
      </trkpt>
      <trkpt lat="46.39676" lon="5.97122">
        <ele>1206</ele>
        <time>2018-09-08T21:04:10Z</time>
      </trkpt>
      <trkpt lat="46.39673" lon="5.97118">
        <ele>1206</ele>
        <time>2018-09-08T21:04:15Z</time>
      </trkpt>
      <trkpt lat="46.39668" lon="5.97114">
        <ele>1206</ele>
        <time>2018-09-08T21:04:20Z</time>
      </trkpt>
      <trkpt lat="46.39664" lon="5.97109">
        <ele>1206</ele>
        <time>2018-09-08T21:04:25Z</time>
      </trkpt>
      <trkpt lat="46.39658" lon="5.97098">
        <ele>1206</ele>
        <time>2018-09-08T21:04:35Z</time>
      </trkpt>
      <trkpt lat="46.39651" lon="5.97086">
        <ele>1205</ele>
        <time>2018-09-08T21:04:40Z</time>
      </trkpt>
      <trkpt lat="46.39649" lon="5.97084">
        <ele>1205</ele>
        <time>2018-09-08T21:04:45Z</time>
      </trkpt>
      <trkpt lat="46.39646" lon="5.97081">
        <ele>1205</ele>
        <time>2018-09-08T21:04:50Z</time>
      </trkpt>
      <trkpt lat="46.39639" lon="5.97076">
        <ele>1204</ele>
        <time>2018-09-08T21:05:00Z</time>
      </trkpt>
      <trkpt lat="46.39636" lon="5.97074">
        <ele>1204</ele>
        <time>2018-09-08T21:05:05Z</time>
      </trkpt>
      <trkpt lat="46.39633" lon="5.97072">
        <ele>1204</ele>
        <time>2018-09-08T21:05:10Z</time>
      </trkpt>
      <trkpt lat="46.3963" lon="5.97069">
        <ele>1204</ele>
        <time>2018-09-08T21:05:15Z</time>
      </trkpt>
      <trkpt lat="46.39627" lon="5.97066">
        <ele>1204</ele>
        <time>2018-09-08T21:05:20Z</time>
      </trkpt>
      <trkpt lat="46.39619" lon="5.97053">
        <ele>1204</ele>
        <time>2018-09-08T21:05:30Z</time>
      </trkpt>
      <trkpt lat="46.39613" lon="5.97044">
        <ele>1203</ele>
        <time>2018-09-08T21:05:35Z</time>
      </trkpt>
      <trkpt lat="46.39609" lon="5.97036">
        <ele>1203</ele>
        <time>2018-09-08T21:05:40Z</time>
      </trkpt>
      <trkpt lat="46.39605" lon="5.9703">
        <ele>1203</ele>
        <time>2018-09-08T21:05:45Z</time>
      </trkpt>
      <trkpt lat="46.39596" lon="5.97018">
        <ele>1203</ele>
        <time>2018-09-08T21:05:55Z</time>
      </trkpt>
      <trkpt lat="46.39592" lon="5.97013">
        <ele>1202</ele>
        <time>2018-09-08T21:06:00Z</time>
      </trkpt>
      <trkpt lat="46.39587" lon="5.97009">
        <ele>1202</ele>
        <time>2018-09-08T21:06:05Z</time>
      </trkpt>
      <trkpt lat="46.39583" lon="5.97005">
        <ele>1201</ele>
        <time>2018-09-08T21:06:10Z</time>
      </trkpt>
      <trkpt lat="46.39578" lon="5.96997">
        <ele>1201</ele>
        <time>2018-09-08T21:06:20Z</time>
      </trkpt>
      <trkpt lat="46.39578" lon="5.96997">
        <ele>1201</ele>
        <time>2018-09-08T21:06:25Z</time>
      </trkpt>
      <trkpt lat="46.39578" lon="5.96997">
        <ele>1201</ele>
        <time>2018-09-08T21:06:30Z</time>
      </trkpt>
      <trkpt lat="46.39576" lon="5.96996">
        <ele>1201</ele>
        <time>2018-09-08T21:06:35Z</time>
      </trkpt>
      <trkpt lat="46.39573" lon="5.96993">
        <ele>1200</ele>
        <time>2018-09-08T21:06:40Z</time>
      </trkpt>
      <trkpt lat="46.39566" lon="5.96983">
        <ele>1200</ele>
        <time>2018-09-08T21:06:50Z</time>
      </trkpt>
      <trkpt lat="46.39561" lon="5.96977">
        <ele>1199</ele>
        <time>2018-09-08T21:06:55Z</time>
      </trkpt>
      <trkpt lat="46.39559" lon="5.96971">
        <ele>1199</ele>
        <time>2018-09-08T21:07:00Z</time>
      </trkpt>
      <trkpt lat="46.39556" lon="5.96967">
        <ele>1198</ele>
        <time>2018-09-08T21:07:05Z</time>
      </trkpt>
      <trkpt lat="46.3955" lon="5.96958">
        <ele>1197</ele>
        <time>2018-09-08T21:07:15Z</time>
      </trkpt>
      <trkpt lat="46.39548" lon="5.96955">
        <ele>1197</ele>
        <time>2018-09-08T21:07:20Z</time>
      </trkpt>
      <trkpt lat="46.39546" lon="5.96951">
        <ele>1196</ele>
        <time>2018-09-08T21:07:25Z</time>
      </trkpt>
      <trkpt lat="46.39543" lon="5.96945">
        <ele>1196</ele>
        <time>2018-09-08T21:07:30Z</time>
      </trkpt>
      <trkpt lat="46.39541" lon="5.9694">
        <ele>1195</ele>
        <time>2018-09-08T21:07:35Z</time>
      </trkpt>
      <trkpt lat="46.39544" lon="5.96927">
        <ele>1195</ele>
        <time>2018-09-08T21:07:45Z</time>
      </trkpt>
      <trkpt lat="46.39546" lon="5.96921">
        <ele>1194</ele>
        <time>2018-09-08T21:07:50Z</time>
      </trkpt>
      <trkpt lat="46.39548" lon="5.96916">
        <ele>1194</ele>
        <time>2018-09-08T21:07:55Z</time>
      </trkpt>
      <trkpt lat="46.3955" lon="5.96911">
        <ele>1194</ele>
        <time>2018-09-08T21:08:00Z</time>
      </trkpt>
      <trkpt lat="46.39556" lon="5.96902">
        <ele>1194</ele>
        <time>2018-09-08T21:08:10Z</time>
      </trkpt>
      <trkpt lat="46.39561" lon="5.96897">
        <ele>1194</ele>
        <time>2018-09-08T21:08:15Z</time>
      </trkpt>
      <trkpt lat="46.39564" lon="5.96892">
        <ele>1193</ele>
        <time>2018-09-08T21:08:20Z</time>
      </trkpt>
      <trkpt lat="46.39567" lon="5.96888">
        <ele>1193</ele>
        <time>2018-09-08T21:08:25Z</time>
      </trkpt>
      <trkpt lat="46.39574" lon="5.96883">
        <ele>1193</ele>
        <time>2018-09-08T21:08:35Z</time>
      </trkpt>
      <trkpt lat="46.39578" lon="5.96883">
        <ele>1193</ele>
        <time>2018-09-08T21:08:40Z</time>
      </trkpt>
      <trkpt lat="46.3958" lon="5.96882">
        <ele>1193</ele>
        <time>2018-09-08T21:08:45Z</time>
      </trkpt>
      <trkpt lat="46.39581" lon="5.96882">
        <ele>1194</ele>
        <time>2018-09-08T21:08:50Z</time>
      </trkpt>
      <trkpt lat="46.39582" lon="5.96882">
        <ele>1194</ele>
        <time>2018-09-08T21:08:55Z</time>
      </trkpt>
      <trkpt lat="46.39585" lon="5.96884">
        <ele>1194</ele>
        <time>2018-09-08T21:09:05Z</time>
      </trkpt>
      <trkpt lat="46.39586" lon="5.96884">
        <ele>1194</ele>
        <time>2018-09-08T21:09:10Z</time>
      </trkpt>
      <trkpt lat="46.3959" lon="5.96885">
        <ele>1195</ele>
        <time>2018-09-08T21:09:15Z</time>
      </trkpt>
      <trkpt lat="46.39593" lon="5.96887">
        <ele>1196</ele>
        <time>2018-09-08T21:09:20Z</time>
      </trkpt>
      <trkpt lat="46.39601" lon="5.96888">
        <ele>1196</ele>
        <time>2018-09-08T21:09:30Z</time>
      </trkpt>
      <trkpt lat="46.39605" lon="5.9689">
        <ele>1196</ele>
        <time>2018-09-08T21:09:35Z</time>
      </trkpt>
      <trkpt lat="46.39609" lon="5.96892">
        <ele>1196</ele>
        <time>2018-09-08T21:09:40Z</time>
      </trkpt>
      <trkpt lat="46.39613" lon="5.96893">
        <ele>1195</ele>
        <time>2018-09-08T21:09:45Z</time>
      </trkpt>
      <trkpt lat="46.39623" lon="5.96893">
        <ele>1195</ele>
        <time>2018-09-08T21:09:55Z</time>
      </trkpt>
      <trkpt lat="46.39627" lon="5.96892">
        <ele>1194</ele>
        <time>2018-09-08T21:10:00Z</time>
      </trkpt>
      <trkpt lat="46.39632" lon="5.96891">
        <ele>1194</ele>
        <time>2018-09-08T21:10:05Z</time>
      </trkpt>
      <trkpt lat="46.39637" lon="5.96887">
        <ele>1193</ele>
        <time>2018-09-08T21:10:10Z</time>
      </trkpt>
      <trkpt lat="46.39639" lon="5.96885">
        <ele>1192</ele>
        <time>2018-09-08T21:10:15Z</time>
      </trkpt>
      <trkpt lat="46.39648" lon="5.96879">
        <ele>1191</ele>
        <time>2018-09-08T21:10:25Z</time>
      </trkpt>
      <trkpt lat="46.39653" lon="5.96878">
        <ele>1190</ele>
        <time>2018-09-08T21:10:30Z</time>
      </trkpt>
      <trkpt lat="46.39658" lon="5.96875">
        <ele>1190</ele>
        <time>2018-09-08T21:10:35Z</time>
      </trkpt>
      <trkpt lat="46.39661" lon="5.96873">
        <ele>1189</ele>
        <time>2018-09-08T21:10:40Z</time>
      </trkpt>
      <trkpt lat="46.3966" lon="5.96872">
        <ele>1189</ele>
        <time>2018-09-08T21:10:50Z</time>
      </trkpt>
      <trkpt lat="46.39661" lon="5.96872">
        <ele>1189</ele>
        <time>2018-09-08T21:10:55Z</time>
      </trkpt>
      <trkpt lat="46.39661" lon="5.96866">
        <ele>1188</ele>
        <time>2018-09-08T21:11:00Z</time>
      </trkpt>
      <trkpt lat="46.39663" lon="5.96862">
        <ele>1187</ele>
        <time>2018-09-08T21:11:05Z</time>
      </trkpt>
      <trkpt lat="46.39662" lon="5.9686">
        <ele>1187</ele>
        <time>2018-09-08T21:11:10Z</time>
      </trkpt>
      <trkpt lat="46.39664" lon="5.96856">
        <ele>1187</ele>
        <time>2018-09-08T21:11:20Z</time>
      </trkpt>
      <trkpt lat="46.39664" lon="5.96853">
        <ele>1186</ele>
        <time>2018-09-08T21:11:25Z</time>
      </trkpt>
      <trkpt lat="46.39665" lon="5.96849">
        <ele>1186</ele>
        <time>2018-09-08T21:11:30Z</time>
      </trkpt>
      <trkpt lat="46.39666" lon="5.96845">
        <ele>1185</ele>
        <time>2018-09-08T21:11:35Z</time>
      </trkpt>
      <trkpt lat="46.3967" lon="5.96836">
        <ele>1184</ele>
        <time>2018-09-08T21:11:45Z</time>
      </trkpt>
      <trkpt lat="46.3967" lon="5.96832">
        <ele>1183</ele>
        <time>2018-09-08T21:11:50Z</time>
      </trkpt>
      <trkpt lat="46.39672" lon="5.96826">
        <ele>1183</ele>
        <time>2018-09-08T21:11:55Z</time>
      </trkpt>
      <trkpt lat="46.39673" lon="5.96819">
        <ele>1182</ele>
        <time>2018-09-08T21:12:00Z</time>
      </trkpt>
      <trkpt lat="46.39674" lon="5.96805">
        <ele>1180</ele>
        <time>2018-09-08T21:12:10Z</time>
      </trkpt>
      <trkpt lat="46.39675" lon="5.96798">
        <ele>1179</ele>
        <time>2018-09-08T21:12:15Z</time>
      </trkpt>
      <trkpt lat="46.39677" lon="5.96791">
        <ele>1178</ele>
        <time>2018-09-08T21:12:20Z</time>
      </trkpt>
      <trkpt lat="46.39678" lon="5.96785">
        <ele>1177</ele>
        <time>2018-09-08T21:12:25Z</time>
      </trkpt>
      <trkpt lat="46.39679" lon="5.9678">
        <ele>1176</ele>
        <time>2018-09-08T21:12:30Z</time>
      </trkpt>
      <trkpt lat="46.39679" lon="5.96766">
        <ele>1174</ele>
        <time>2018-09-08T21:12:40Z</time>
      </trkpt>
      <trkpt lat="46.39677" lon="5.96759">
        <ele>1173</ele>
        <time>2018-09-08T21:12:45Z</time>
      </trkpt>
      <trkpt lat="46.39675" lon="5.96751">
        <ele>1171</ele>
        <time>2018-09-08T21:12:50Z</time>
      </trkpt>
      <trkpt lat="46.39672" lon="5.96744">
        <ele>1171</ele>
        <time>2018-09-08T21:12:55Z</time>
      </trkpt>
      <trkpt lat="46.39663" lon="5.96732">
        <ele>1169</ele>
        <time>2018-09-08T21:13:05Z</time>
      </trkpt>
      <trkpt lat="46.39658" lon="5.96726">
        <ele>1168</ele>
        <time>2018-09-08T21:13:10Z</time>
      </trkpt>
      <trkpt lat="46.39654" lon="5.96721">
        <ele>1167</ele>
        <time>2018-09-08T21:13:15Z</time>
      </trkpt>
      <trkpt lat="46.3965" lon="5.96714">
        <ele>1166</ele>
        <time>2018-09-08T21:13:20Z</time>
      </trkpt>
      <trkpt lat="46.39648" lon="5.96703">
        <ele>1165</ele>
        <time>2018-09-08T21:13:30Z</time>
      </trkpt>
      <trkpt lat="46.39647" lon="5.96697">
        <ele>1164</ele>
        <time>2018-09-08T21:13:35Z</time>
      </trkpt>
      <trkpt lat="46.39646" lon="5.9669">
        <ele>1163</ele>
        <time>2018-09-08T21:13:40Z</time>
      </trkpt>
      <trkpt lat="46.39646" lon="5.96684">
        <ele>1163</ele>
        <time>2018-09-08T21:13:45Z</time>
      </trkpt>
      <trkpt lat="46.39646" lon="5.96677">
        <ele>1162</ele>
        <time>2018-09-08T21:13:50Z</time>
      </trkpt>
      <trkpt lat="46.39648" lon="5.96659">
        <ele>1161</ele>
        <time>2018-09-08T21:14:00Z</time>
      </trkpt>
      <trkpt lat="46.39649" lon="5.9665">
        <ele>1160</ele>
        <time>2018-09-08T21:14:05Z</time>
      </trkpt>
      <trkpt lat="46.39651" lon="5.96642">
        <ele>1159</ele>
        <time>2018-09-08T21:14:10Z</time>
      </trkpt>
      <trkpt lat="46.39652" lon="5.96635">
        <ele>1158</ele>
        <time>2018-09-08T21:14:15Z</time>
      </trkpt>
      <trkpt lat="46.3965" lon="5.9662">
        <ele>1157</ele>
        <time>2018-09-08T21:14:25Z</time>
      </trkpt>
      <trkpt lat="46.39648" lon="5.96614">
        <ele>1157</ele>
        <time>2018-09-08T21:14:30Z</time>
      </trkpt>
      <trkpt lat="46.39646" lon="5.96608">
        <ele>1157</ele>
        <time>2018-09-08T21:14:35Z</time>
      </trkpt>
      <trkpt lat="46.39643" lon="5.96603">
        <ele>1156</ele>
        <time>2018-09-08T21:14:40Z</time>
      </trkpt>
      <trkpt lat="46.39636" lon="5.966">
        <ele>1156</ele>
        <time>2018-09-08T21:14:50Z</time>
      </trkpt>
      <trkpt lat="46.39631" lon="5.96603">
        <ele>1156</ele>
        <time>2018-09-08T21:14:55Z</time>
      </trkpt>
      <trkpt lat="46.39626" lon="5.96608">
        <ele>1156</ele>
        <time>2018-09-08T21:15:00Z</time>
      </trkpt>
      <trkpt lat="46.39621" lon="5.96614">
        <ele>1156</ele>
        <time>2018-09-08T21:15:05Z</time>
      </trkpt>
      <trkpt lat="46.39617" lon="5.96617">
        <ele>1156</ele>
        <time>2018-09-08T21:15:10Z</time>
      </trkpt>
      <trkpt lat="46.39605" lon="5.96623">
        <ele>1156</ele>
        <time>2018-09-08T21:15:20Z</time>
      </trkpt>
      <trkpt lat="46.39599" lon="5.96628">
        <ele>1156</ele>
        <time>2018-09-08T21:15:25Z</time>
      </trkpt>
      <trkpt lat="46.39595" lon="5.96631">
        <ele>1156</ele>
        <time>2018-09-08T21:15:30Z</time>
      </trkpt>
      <trkpt lat="46.3959" lon="5.96634">
        <ele>1157</ele>
        <time>2018-09-08T21:15:35Z</time>
      </trkpt>
      <trkpt lat="46.39581" lon="5.96642">
        <ele>1157</ele>
        <time>2018-09-08T21:15:45Z</time>
      </trkpt>
      <trkpt lat="46.39578" lon="5.96647">
        <ele>1157</ele>
        <time>2018-09-08T21:15:50Z</time>
      </trkpt>
      <trkpt lat="46.39574" lon="5.96652">
        <ele>1157</ele>
        <time>2018-09-08T21:15:55Z</time>
      </trkpt>
      <trkpt lat="46.39569" lon="5.96656">
        <ele>1158</ele>
        <time>2018-09-08T21:16:00Z</time>
      </trkpt>
      <trkpt lat="46.39564" lon="5.96659">
        <ele>1158</ele>
        <time>2018-09-08T21:16:05Z</time>
      </trkpt>
      <trkpt lat="46.39555" lon="5.96665">
        <ele>1158</ele>
        <time>2018-09-08T21:16:15Z</time>
      </trkpt>
      <trkpt lat="46.39551" lon="5.96669">
        <ele>1158</ele>
        <time>2018-09-08T21:16:20Z</time>
      </trkpt>
      <trkpt lat="46.39546" lon="5.96671">
        <ele>1158</ele>
        <time>2018-09-08T21:16:25Z</time>
      </trkpt>
      <trkpt lat="46.39541" lon="5.96675">
        <ele>1157</ele>
        <time>2018-09-08T21:16:30Z</time>
      </trkpt>
      <trkpt lat="46.39531" lon="5.96682">
        <ele>1157</ele>
        <time>2018-09-08T21:16:40Z</time>
      </trkpt>
      <trkpt lat="46.39528" lon="5.96686">
        <ele>1157</ele>
        <time>2018-09-08T21:16:45Z</time>
      </trkpt>
      <trkpt lat="46.39524" lon="5.96691">
        <ele>1157</ele>
        <time>2018-09-08T21:16:50Z</time>
      </trkpt>
      <trkpt lat="46.39519" lon="5.96693">
        <ele>1157</ele>
        <time>2018-09-08T21:16:55Z</time>
      </trkpt>
      <trkpt lat="46.39511" lon="5.96699">
        <ele>1157</ele>
        <time>2018-09-08T21:17:05Z</time>
      </trkpt>
      <trkpt lat="46.39509" lon="5.96701">
        <ele>1157</ele>
        <time>2018-09-08T21:17:10Z</time>
      </trkpt>
      <trkpt lat="46.39505" lon="5.96702">
        <ele>1156</ele>
        <time>2018-09-08T21:17:15Z</time>
      </trkpt>
      <trkpt lat="46.39502" lon="5.96709">
        <ele>1157</ele>
        <time>2018-09-08T21:17:20Z</time>
      </trkpt>
      <trkpt lat="46.395" lon="5.96717">
        <ele>1157</ele>
        <time>2018-09-08T21:17:25Z</time>
      </trkpt>
      <trkpt lat="46.39495" lon="5.96731">
        <ele>1158</ele>
        <time>2018-09-08T21:17:35Z</time>
      </trkpt>
      <trkpt lat="46.39491" lon="5.96736">
        <ele>1158</ele>
        <time>2018-09-08T21:17:40Z</time>
      </trkpt>
      <trkpt lat="46.39488" lon="5.96743">
        <ele>1158</ele>
        <time>2018-09-08T21:17:45Z</time>
      </trkpt>
      <trkpt lat="46.39484" lon="5.9675">
        <ele>1158</ele>
        <time>2018-09-08T21:17:50Z</time>
      </trkpt>
      <trkpt lat="46.39477" lon="5.96761">
        <ele>1158</ele>
        <time>2018-09-08T21:18:00Z</time>
      </trkpt>
      <trkpt lat="46.39473" lon="5.96762">
        <ele>1157</ele>
        <time>2018-09-08T21:18:05Z</time>
      </trkpt>
      <trkpt lat="46.39468" lon="5.96766">
        <ele>1157</ele>
        <time>2018-09-08T21:18:10Z</time>
      </trkpt>
      <trkpt lat="46.39464" lon="5.9677">
        <ele>1157</ele>
        <time>2018-09-08T21:18:15Z</time>
      </trkpt>
      <trkpt lat="46.39454" lon="5.96778">
        <ele>1157</ele>
        <time>2018-09-08T21:18:25Z</time>
      </trkpt>
      <trkpt lat="46.3945" lon="5.96784">
        <ele>1158</ele>
        <time>2018-09-08T21:18:30Z</time>
      </trkpt>
      <trkpt lat="46.39445" lon="5.96788">
        <ele>1158</ele>
        <time>2018-09-08T21:18:35Z</time>
      </trkpt>
      <trkpt lat="46.3944" lon="5.9679">
        <ele>1158</ele>
        <time>2018-09-08T21:18:40Z</time>
      </trkpt>
      <trkpt lat="46.39435" lon="5.96793">
        <ele>1158</ele>
        <time>2018-09-08T21:18:45Z</time>
      </trkpt>
      <trkpt lat="46.39426" lon="5.96795">
        <ele>1157</ele>
        <time>2018-09-08T21:18:55Z</time>
      </trkpt>
      <trkpt lat="46.39421" lon="5.96793">
        <ele>1156</ele>
        <time>2018-09-08T21:19:00Z</time>
      </trkpt>
      <trkpt lat="46.39417" lon="5.96787">
        <ele>1155</ele>
        <time>2018-09-08T21:19:05Z</time>
      </trkpt>
      <trkpt lat="46.39415" lon="5.96784">
        <ele>1154</ele>
        <time>2018-09-08T21:19:10Z</time>
      </trkpt>
      <trkpt lat="46.39415" lon="5.96784">
        <ele>1154</ele>
        <time>2018-09-08T21:19:20Z</time>
      </trkpt>
      <trkpt lat="46.39415" lon="5.96784">
        <ele>1154</ele>
        <time>2018-09-08T21:19:25Z</time>
      </trkpt>
      <trkpt lat="46.39414" lon="5.96784">
        <ele>1154</ele>
        <time>2018-09-08T21:19:30Z</time>
      </trkpt>
      <trkpt lat="46.39414" lon="5.96784">
        <ele>1154</ele>
        <time>2018-09-08T21:19:35Z</time>
      </trkpt>
      <trkpt lat="46.39414" lon="5.96784">
        <ele>1154</ele>
        <time>2018-09-08T21:19:37Z</time>
      </trkpt>
    </trkseg>
  </trk>
</gpx>